<?xml version='1.0' encoding='UTF-8'?><gpx version="1.1" creator="JPX - https://github.com/jenetics/jpx" xmlns="http://www.topografix.com/GPX/1/1"><trk><trkseg><trkpt lat="45.59030710427679" lon="4.770987620857866"><ele>158.16666666666666</ele><time>2026-05-02T15:14:53Z</time></trkpt><trkpt lat="45.590424221507924" lon="4.771011698023497"><ele>158.33333333333331</ele><time>2026-05-02T15:14:55Z</time></trkpt><trkpt lat="45.59050716052175" lon="4.771029002321264"><ele>158.5</ele><time>2026-05-02T15:14:57Z</time></trkpt><trkpt lat="45.59058370697418" lon="4.7710461679878735"><ele>158.66666666666666</ele><time>2026-05-02T15:14:59Z</time></trkpt><trkpt lat="45.59065899214807" lon="4.771063050777711"><ele>158.83333333333334</ele><time>2026-05-02T15:15:01Z</time></trkpt><trkpt lat="45.590727220527405" lon="4.771076955849823"><ele>159.0</ele><time>2026-05-02T15:15:03Z</time></trkpt><trkpt lat="45.59079124549882" lon="4.771088875982176"><ele>159.0</ele><time>2026-05-02T15:15:05Z</time></trkpt><trkpt lat="45.59087058332375" lon="4.7710920995418675"><ele>159.0</ele><time>2026-05-02T15:15:08Z</time></trkpt><trkpt lat="45.59094939017124" lon="4.771059173580895"><ele>159.0</ele><time>2026-05-02T15:15:28Z</time></trkpt><trkpt lat="45.59100729563354" lon="4.771023687241645"><ele>159.0</ele><time>2026-05-02T15:15:33Z</time></trkpt><trkpt lat="45.5909815051844" lon="4.770776395844066"><ele>159.0</ele><time>2026-05-02T15:15:34Z</time></trkpt><trkpt lat="45.59099409960255" lon="4.7706419701189615"><ele>159.0</ele><time>2026-05-02T15:15:36Z</time></trkpt><trkpt lat="45.59108795923707" lon="4.770579645888855"><ele>159.0</ele><time>2026-05-02T15:15:38Z</time></trkpt><trkpt lat="45.59115660624507" lon="4.770560939101728"><ele>159.0</ele><time>2026-05-02T15:15:39Z</time></trkpt><trkpt lat="45.59122991268367" lon="4.770539880387235"><ele>159.0</ele><time>2026-05-02T15:15:40Z</time></trkpt><trkpt lat="45.59129209640108" lon="4.770524684246947"><ele>159.0</ele><time>2026-05-02T15:15:41Z</time></trkpt><trkpt lat="45.59139116082869" lon="4.770496958378291"><ele>159.0</ele><time>2026-05-02T15:15:43Z</time></trkpt><trkpt lat="45.59146504182092" lon="4.770477335465384"><ele>159.0</ele><time>2026-05-02T15:15:46Z</time></trkpt><trkpt lat="45.59153078191946" lon="4.770448774856265"><ele>159.0</ele><time>2026-05-02T15:16:00Z</time></trkpt><trkpt lat="45.59144902248285" lon="4.7701965672847235"><ele>159.0</ele><time>2026-05-02T15:16:01.999Z</time></trkpt><trkpt lat="45.59143350673547" lon="4.770108730593609"><ele>159.0</ele><time>2026-05-02T15:16:02.999Z</time></trkpt><trkpt lat="45.59140428342536" lon="4.769977811506729"><ele>159.0</ele><time>2026-05-02T15:16:03.999Z</time></trkpt><trkpt lat="45.59137140310184" lon="4.769842597740925"><ele>158.8</ele><time>2026-05-02T15:16:04.999Z</time></trkpt><trkpt lat="45.59133952775097" lon="4.769701759433958"><ele>158.60000000000002</ele><time>2026-05-02T15:16:05.999Z</time></trkpt><trkpt lat="45.59131801174432" lon="4.76956739347502"><ele>158.4</ele><time>2026-05-02T15:16:06.999Z</time></trkpt><trkpt lat="45.59129859020883" lon="4.769450091865301"><ele>158.20000000000002</ele><time>2026-05-02T15:16:07.999Z</time></trkpt><trkpt lat="45.59127770096907" lon="4.769325311199749"><ele>158.0</ele><time>2026-05-02T15:16:08.999Z</time></trkpt><trkpt lat="45.591254483607976" lon="4.769198323583097"><ele>158.16666666666666</ele><time>2026-05-02T15:16:09.999Z</time></trkpt><trkpt lat="45.59123019797603" lon="4.769075770716266"><ele>158.33333333333331</ele><time>2026-05-02T15:16:10.999Z</time></trkpt><trkpt lat="45.591225230680486" lon="4.768955024847206"><ele>158.5</ele><time>2026-05-02T15:16:11.999Z</time></trkpt><trkpt lat="45.59119795331631" lon="4.7688169457141605"><ele>158.66666666666666</ele><time>2026-05-02T15:16:12.999Z</time></trkpt><trkpt lat="45.5911770292271" lon="4.76869821554052"><ele>158.83333333333334</ele><time>2026-05-02T15:16:13.999Z</time></trkpt><trkpt lat="45.59116467744216" lon="4.768580799347506"><ele>159.0</ele><time>2026-05-02T15:16:14.999Z</time></trkpt><trkpt lat="45.59113656495837" lon="4.768483718991702"><ele>159.0</ele><time>2026-05-02T15:16:15.999Z</time></trkpt><trkpt lat="45.591107537657756" lon="4.768329896594112"><ele>159.0</ele><time>2026-05-02T15:16:17.999Z</time></trkpt><trkpt lat="45.591073993200396" lon="4.768168586598938"><ele>159.0</ele><time>2026-05-02T15:16:19.999Z</time></trkpt><trkpt lat="45.59105111526941" lon="4.768070741273475"><ele>159.0</ele><time>2026-05-02T15:16:20.999Z</time></trkpt><trkpt lat="45.59102857462008" lon="4.767963610031906"><ele>159.0</ele><time>2026-05-02T15:16:21.999Z</time></trkpt><trkpt lat="45.59100968778062" lon="4.767875402043994"><ele>159.0</ele><time>2026-05-02T15:16:22.999Z</time></trkpt><trkpt lat="45.5910112647509" lon="4.767783046219186"><ele>159.0</ele><time>2026-05-02T15:16:23.999Z</time></trkpt><trkpt lat="45.59097765134226" lon="4.7676651914500985"><ele>159.0</ele><time>2026-05-02T15:16:24.999Z</time></trkpt><trkpt lat="45.59095203923889" lon="4.767536730878767"><ele>159.0</ele><time>2026-05-02T15:16:25.999Z</time></trkpt><trkpt lat="45.590924037079155" lon="4.767397572647433"><ele>159.0</ele><time>2026-05-02T15:16:26.999Z</time></trkpt><trkpt lat="45.59090145275197" lon="4.767251251314048"><ele>159.0</ele><time>2026-05-02T15:16:27.999Z</time></trkpt><trkpt lat="45.59086333667912" lon="4.7671077457152435"><ele>159.0</ele><time>2026-05-02T15:16:28.999Z</time></trkpt><trkpt lat="45.59083362578916" lon="4.766963963337827"><ele>159.0</ele><time>2026-05-02T15:16:29.999Z</time></trkpt><trkpt lat="45.59082464763681" lon="4.76681003774182"><ele>159.0</ele><time>2026-05-02T15:16:30.999Z</time></trkpt><trkpt lat="45.59080066645242" lon="4.766663587186831"><ele>159.0</ele><time>2026-05-02T15:16:31.999Z</time></trkpt><trkpt lat="45.59077550450543" lon="4.766514778178548"><ele>159.0</ele><time>2026-05-02T15:16:32.999Z</time></trkpt><trkpt lat="45.590744789661734" lon="4.766375459651907"><ele>158.6</ele><time>2026-05-02T15:16:33.999Z</time></trkpt><trkpt lat="45.59071817303465" lon="4.766236043533904"><ele>158.2</ele><time>2026-05-02T15:16:34.999Z</time></trkpt><trkpt lat="45.5906902243912" lon="4.766093108256649"><ele>157.79999999999998</ele><time>2026-05-02T15:16:35.999Z</time></trkpt><trkpt lat="45.59065999633034" lon="4.765946909160918"><ele>157.4</ele><time>2026-05-02T15:16:36.999Z</time></trkpt><trkpt lat="45.59062914875757" lon="4.765811046431169"><ele>157.0</ele><time>2026-05-02T15:16:37.999Z</time></trkpt><trkpt lat="45.5906079728537" lon="4.765661733856533"><ele>157.0</ele><time>2026-05-02T15:16:38.999Z</time></trkpt><trkpt lat="45.59057812219233" lon="4.765507000543483"><ele>157.0</ele><time>2026-05-02T15:16:39.999Z</time></trkpt><trkpt lat="45.59055025602711" lon="4.7653505616687095"><ele>157.0</ele><time>2026-05-02T15:16:40.999Z</time></trkpt><trkpt lat="45.590535966299825" lon="4.765203100294047"><ele>157.0</ele><time>2026-05-02T15:16:41.999Z</time></trkpt><trkpt lat="45.59051098708682" lon="4.76505383743055"><ele>157.0</ele><time>2026-05-02T15:16:42.999Z</time></trkpt><trkpt lat="45.59047256090517" lon="4.764917718861913"><ele>157.0</ele><time>2026-05-02T15:16:43.999Z</time></trkpt><trkpt lat="45.59044816496671" lon="4.764770871250385"><ele>157.0</ele><time>2026-05-02T15:16:44.999Z</time></trkpt><trkpt lat="45.59043177963341" lon="4.764623012899589"><ele>157.0</ele><time>2026-05-02T15:16:45.999Z</time></trkpt><trkpt lat="45.590405442930916" lon="4.7644762683773285"><ele>157.0</ele><time>2026-05-02T15:16:46.999Z</time></trkpt><trkpt lat="45.5903802925434" lon="4.764327160543487"><ele>157.0</ele><time>2026-05-02T15:16:47.999Z</time></trkpt><trkpt lat="45.59035091739511" lon="4.764174655313254"><ele>157.25</ele><time>2026-05-02T15:16:48.999Z</time></trkpt><trkpt lat="45.59031259082906" lon="4.764028147991776"><ele>157.5</ele><time>2026-05-02T15:16:49.999Z</time></trkpt><trkpt lat="45.590286412213864" lon="4.763867478850006"><ele>157.75</ele><time>2026-05-02T15:16:50.999Z</time></trkpt><trkpt lat="45.5902751733602" lon="4.76370757277804"><ele>158.0</ele><time>2026-05-02T15:16:51.999Z</time></trkpt><trkpt lat="45.59025093052338" lon="4.76354793582905"><ele>158.20000000000002</ele><time>2026-05-02T15:16:52.999Z</time></trkpt><trkpt lat="45.590220281561926" lon="4.763390218220739"><ele>158.4</ele><time>2026-05-02T15:16:53.999Z</time></trkpt><trkpt lat="45.590191967359544" lon="4.76323339811006"><ele>158.60000000000002</ele><time>2026-05-02T15:16:54.999Z</time></trkpt><trkpt lat="45.59016279114393" lon="4.763085443243955"><ele>158.8</ele><time>2026-05-02T15:16:55.999Z</time></trkpt><trkpt lat="45.59014031320043" lon="4.762953494914114"><ele>159.0</ele><time>2026-05-02T15:16:56.999Z</time></trkpt><trkpt lat="45.59011441047124" lon="4.762815588201789"><ele>159.2</ele><time>2026-05-02T15:16:57.999Z</time></trkpt><trkpt lat="45.5900871632583" lon="4.762684874520903"><ele>159.4</ele><time>2026-05-02T15:16:58.999Z</time></trkpt><trkpt lat="45.590067085986014" lon="4.762569639361054"><ele>159.6</ele><time>2026-05-02T15:16:59.999Z</time></trkpt><trkpt lat="45.590044876567006" lon="4.762463226723539"><ele>159.8</ele><time>2026-05-02T15:17:00.999Z</time></trkpt><trkpt lat="45.59001446178033" lon="4.7623050530940105"><ele>160.0</ele><time>2026-05-02T15:17:02.999Z</time></trkpt><trkpt lat="45.589995070952405" lon="4.762191458218003"><ele>160.0</ele><time>2026-05-02T15:17:04.999Z</time></trkpt><trkpt lat="45.58995167888839" lon="4.762021500450623"><ele>160.0</ele><time>2026-05-02T15:17:11Z</time></trkpt><trkpt lat="45.58993853106413" lon="4.761897531025212"><ele>160.0</ele><time>2026-05-02T15:17:12Z</time></trkpt><trkpt lat="45.589904379676234" lon="4.76173688479354"><ele>160.0</ele><time>2026-05-02T15:17:14Z</time></trkpt><trkpt lat="45.58978399808644" lon="4.761712713403762"><ele>160.0</ele><time>2026-05-02T15:17:15Z</time></trkpt><trkpt lat="45.589701750493035" lon="4.761680184756499"><ele>160.0</ele><time>2026-05-02T15:17:16Z</time></trkpt><trkpt lat="45.5896100922975" lon="4.76162727430305"><ele>160.0</ele><time>2026-05-02T15:17:17Z</time></trkpt><trkpt lat="45.58949978967722" lon="4.761575483728498"><ele>160.0</ele><time>2026-05-02T15:17:18Z</time></trkpt><trkpt lat="45.58939025243245" lon="4.761523249495826"><ele>160.0</ele><time>2026-05-02T15:17:19Z</time></trkpt><trkpt lat="45.58928956641547" lon="4.761477552864248"><ele>160.0</ele><time>2026-05-02T15:17:20Z</time></trkpt><trkpt lat="45.5891958965624" lon="4.761435782915726"><ele>160.0</ele><time>2026-05-02T15:17:21Z</time></trkpt><trkpt lat="45.589103081387066" lon="4.761385933022476"><ele>160.0</ele><time>2026-05-02T15:17:22Z</time></trkpt><trkpt lat="45.589003837061135" lon="4.761358310018127"><ele>160.0</ele><time>2026-05-02T15:17:23Z</time></trkpt><trkpt lat="45.58890928298722" lon="4.761336938936853"><ele>160.0</ele><time>2026-05-02T15:17:24Z</time></trkpt><trkpt lat="45.588816520865144" lon="4.761309848340408"><ele>160.0</ele><time>2026-05-02T15:17:25Z</time></trkpt><trkpt lat="45.588724628303865" lon="4.761267965482122"><ele>160.0</ele><time>2026-05-02T15:17:26Z</time></trkpt><trkpt lat="45.588644092612974" lon="4.761186976095843"><ele>160.0</ele><time>2026-05-02T15:17:27Z</time></trkpt><trkpt lat="45.5885817108334" lon="4.761064896890859"><ele>160.0</ele><time>2026-05-02T15:17:28Z</time></trkpt><trkpt lat="45.58853848111263" lon="4.760927979899592"><ele>160.0</ele><time>2026-05-02T15:17:29Z</time></trkpt><trkpt lat="45.58849982637967" lon="4.760828178726584"><ele>159.83333333333334</ele><time>2026-05-02T15:17:30Z</time></trkpt><trkpt lat="45.588461919847305" lon="4.7607363333086665"><ele>159.66666666666669</ele><time>2026-05-02T15:17:31Z</time></trkpt><trkpt lat="45.58840733512119" lon="4.760616257315952"><ele>159.5</ele><time>2026-05-02T15:17:33Z</time></trkpt><trkpt lat="45.58836311321272" lon="4.760521004270015"><ele>159.33333333333334</ele><time>2026-05-02T15:17:36Z</time></trkpt><trkpt lat="45.58831126878983" lon="4.76042614853044"><ele>159.16666666666666</ele><time>2026-05-02T15:18:14Z</time></trkpt><trkpt lat="45.58827604615422" lon="4.760334951860956"><ele>159.0</ele><time>2026-05-02T15:18:16Z</time></trkpt><trkpt lat="45.588225998515874" lon="4.760210143160563"><ele>159.66666666666666</ele><time>2026-05-02T15:18:18Z</time></trkpt><trkpt lat="45.5881977279973" lon="4.760081080069676"><ele>160.33333333333334</ele><time>2026-05-02T15:18:20Z</time></trkpt><trkpt lat="45.58822621885754" lon="4.75999888460322"><ele>161.0</ele><time>2026-05-02T15:18:21Z</time></trkpt><trkpt lat="45.588277250569064" lon="4.759879556640193"><ele>161.66666666666669</ele><time>2026-05-02T15:18:23Z</time></trkpt><trkpt lat="45.58830748722072" lon="4.75977041143366"><ele>162.33333333333334</ele><time>2026-05-02T15:18:25Z</time></trkpt><trkpt lat="45.58834295270083" lon="4.759684606998129"><ele>163.0</ele><time>2026-05-02T15:18:29Z</time></trkpt><trkpt lat="45.58838187790172" lon="4.759569552667378"><ele>163.0</ele><time>2026-05-02T15:18:54Z</time></trkpt><trkpt lat="45.58842612817519" lon="4.759483221594077"><ele>163.0</ele><time>2026-05-02T15:18:56Z</time></trkpt><trkpt lat="45.58848911902398" lon="4.75934286297708"><ele>163.0</ele><time>2026-05-02T15:18:58Z</time></trkpt><trkpt lat="45.58855928596721" lon="4.759204666863848"><ele>163.0</ele><time>2026-05-02T15:19:00Z</time></trkpt><trkpt lat="45.58859663010193" lon="4.759120997029864"><ele>163.0</ele><time>2026-05-02T15:19:01Z</time></trkpt><trkpt lat="45.58862066485184" lon="4.75897293716668"><ele>163.2</ele><time>2026-05-02T15:19:02.999Z</time></trkpt><trkpt lat="45.58860528569587" lon="4.758829531137815"><ele>163.4</ele><time>2026-05-02T15:19:04.999Z</time></trkpt><trkpt lat="45.58853695596028" lon="4.758682210378072"><ele>163.6</ele><time>2026-05-02T15:19:06.999Z</time></trkpt><trkpt lat="45.588486275085096" lon="4.758601043141437"><ele>163.79999999999998</ele><time>2026-05-02T15:19:07.999Z</time></trkpt><trkpt lat="45.58841756964586" lon="4.758518291011703"><ele>164.0</ele><time>2026-05-02T15:19:08.999Z</time></trkpt><trkpt lat="45.58834795119323" lon="4.758413274108094"><ele>165.0</ele><time>2026-05-02T15:19:09.999Z</time></trkpt><trkpt lat="45.58827261349371" lon="4.758296755669549"><ele>166.0</ele><time>2026-05-02T15:19:10.999Z</time></trkpt><trkpt lat="45.588195354903014" lon="4.758176053824216"><ele>167.0</ele><time>2026-05-02T15:19:11.999Z</time></trkpt><trkpt lat="45.5881208732999" lon="4.758043345474147"><ele>168.0</ele><time>2026-05-02T15:19:12.999Z</time></trkpt><trkpt lat="45.588055669443996" lon="4.757910064338802"><ele>168.0</ele><time>2026-05-02T15:19:14Z</time></trkpt><trkpt lat="45.587998768385745" lon="4.757782033080058"><ele>168.0</ele><time>2026-05-02T15:19:15Z</time></trkpt><trkpt lat="45.5879551597972" lon="4.757653286207092"><ele>168.0</ele><time>2026-05-02T15:19:16Z</time></trkpt><trkpt lat="45.58792975425076" lon="4.757514770948992"><ele>168.0</ele><time>2026-05-02T15:19:17Z</time></trkpt><trkpt lat="45.587913632809396" lon="4.757369401195053"><ele>168.0</ele><time>2026-05-02T15:19:18Z</time></trkpt><trkpt lat="45.587896050053125" lon="4.757223889514276"><ele>168.0</ele><time>2026-05-02T15:19:19Z</time></trkpt><trkpt lat="45.587864977529215" lon="4.7570669166471395"><ele>168.0</ele><time>2026-05-02T15:19:20Z</time></trkpt><trkpt lat="45.587847639436035" lon="4.756909114186495"><ele>168.0</ele><time>2026-05-02T15:19:21Z</time></trkpt><trkpt lat="45.587824210204765" lon="4.756754912810339"><ele>168.0</ele><time>2026-05-02T15:19:22Z</time></trkpt><trkpt lat="45.58778453559771" lon="4.756623585285449"><ele>168.0</ele><time>2026-05-02T15:19:23Z</time></trkpt><trkpt lat="45.587769783798535" lon="4.756470171441374"><ele>168.0</ele><time>2026-05-02T15:19:24Z</time></trkpt><trkpt lat="45.587760870004324" lon="4.756310400585738"><ele>168.0</ele><time>2026-05-02T15:19:25Z</time></trkpt><trkpt lat="45.58775072413135" lon="4.756144820354435"><ele>168.0</ele><time>2026-05-02T15:19:26Z</time></trkpt><trkpt lat="45.58773882448442" lon="4.75598303197525"><ele>168.0</ele><time>2026-05-02T15:19:27Z</time></trkpt><trkpt lat="45.58772589431409" lon="4.755813905239242"><ele>169.25</ele><time>2026-05-02T15:19:28Z</time></trkpt><trkpt lat="45.58771790373544" lon="4.7556523779398665"><ele>170.5</ele><time>2026-05-02T15:19:29Z</time></trkpt><trkpt lat="45.58771757091572" lon="4.755488020869239"><ele>171.75</ele><time>2026-05-02T15:19:30Z</time></trkpt><trkpt lat="45.58773551293275" lon="4.755324310692588"><ele>173.0</ele><time>2026-05-02T15:19:31Z</time></trkpt><trkpt lat="45.58777816506064" lon="4.755157044588995"><ele>173.4</ele><time>2026-05-02T15:19:32Z</time></trkpt><trkpt lat="45.587816589005065" lon="4.754983928083597"><ele>173.8</ele><time>2026-05-02T15:19:33Z</time></trkpt><trkpt lat="45.587847567089106" lon="4.754817555372811"><ele>174.2</ele><time>2026-05-02T15:19:34Z</time></trkpt><trkpt lat="45.587874590655105" lon="4.754667153740168"><ele>174.6</ele><time>2026-05-02T15:19:35Z</time></trkpt><trkpt lat="45.5878946016823" lon="4.754540501525515"><ele>175.0</ele><time>2026-05-02T15:19:36Z</time></trkpt><trkpt lat="45.58789579309458" lon="4.754418927152199"><ele>177.2</ele><time>2026-05-02T15:19:37Z</time></trkpt><trkpt lat="45.587856531424585" lon="4.754311307043833"><ele>179.4</ele><time>2026-05-02T15:19:38Z</time></trkpt><trkpt lat="45.58779043657771" lon="4.75421767792759"><ele>181.60000000000002</ele><time>2026-05-02T15:19:39Z</time></trkpt><trkpt lat="45.58770349474868" lon="4.75412894232001"><ele>183.8</ele><time>2026-05-02T15:19:40Z</time></trkpt><trkpt lat="45.58761271355214" lon="4.754045209864458"><ele>186.0</ele><time>2026-05-02T15:19:41Z</time></trkpt><trkpt lat="45.58752985199775" lon="4.753951233341435"><ele>186.0</ele><time>2026-05-02T15:19:42Z</time></trkpt><trkpt lat="45.58744190205724" lon="4.753844651666908"><ele>186.0</ele><time>2026-05-02T15:19:43Z</time></trkpt><trkpt lat="45.58735263896401" lon="4.753722470956631"><ele>186.0</ele><time>2026-05-02T15:19:44Z</time></trkpt><trkpt lat="45.58726816278681" lon="4.753579364004799"><ele>186.0</ele><time>2026-05-02T15:19:45Z</time></trkpt><trkpt lat="45.587194404752516" lon="4.753409045647717"><ele>184.75</ele><time>2026-05-02T15:19:46Z</time></trkpt><trkpt lat="45.58712718455058" lon="4.75324972785284"><ele>183.5</ele><time>2026-05-02T15:19:47Z</time></trkpt><trkpt lat="45.58706223699206" lon="4.753101214624206"><ele>182.25</ele><time>2026-05-02T15:19:48Z</time></trkpt><trkpt lat="45.58700311030147" lon="4.752958436481262"><ele>181.0</ele><time>2026-05-02T15:19:49Z</time></trkpt><trkpt lat="45.58696600152816" lon="4.752810799418956"><ele>183.0</ele><time>2026-05-02T15:19:50Z</time></trkpt><trkpt lat="45.586927554398365" lon="4.752673944315878"><ele>185.0</ele><time>2026-05-02T15:19:51Z</time></trkpt><trkpt lat="45.5868916734004" lon="4.752537593794779"><ele>187.0</ele><time>2026-05-02T15:19:52Z</time></trkpt><trkpt lat="45.586847284224724" lon="4.752421283612142"><ele>189.0</ele><time>2026-05-02T15:19:53Z</time></trkpt><trkpt lat="45.58679318879213" lon="4.752303805274843"><ele>191.0</ele><time>2026-05-02T15:19:54Z</time></trkpt><trkpt lat="45.58672997089488" lon="4.752200146614162"><ele>191.0</ele><time>2026-05-02T15:19:55Z</time></trkpt><trkpt lat="45.58666629055581" lon="4.752086859539409"><ele>191.0</ele><time>2026-05-02T15:19:56Z</time></trkpt><trkpt lat="45.58660186227164" lon="4.75196375309892"><ele>191.0</ele><time>2026-05-02T15:19:57Z</time></trkpt><trkpt lat="45.586537917087696" lon="4.751833715516613"><ele>191.0</ele><time>2026-05-02T15:19:58Z</time></trkpt><trkpt lat="45.58649007926765" lon="4.751684192333274"><ele>191.0</ele><time>2026-05-02T15:19:59Z</time></trkpt><trkpt lat="45.58644996205014" lon="4.7515275732146485"><ele>195.0</ele><time>2026-05-02T15:20:00Z</time></trkpt><trkpt lat="45.58642627300441" lon="4.751358604904444"><ele>199.0</ele><time>2026-05-02T15:20:01Z</time></trkpt><trkpt lat="45.58640955223555" lon="4.751187024446217"><ele>203.0</ele><time>2026-05-02T15:20:02Z</time></trkpt><trkpt lat="45.586370247081604" lon="4.750996353358261"><ele>207.0</ele><time>2026-05-02T15:20:03Z</time></trkpt><trkpt lat="45.58632298669912" lon="4.7508309033526475"><ele>203.5</ele><time>2026-05-02T15:20:04Z</time></trkpt><trkpt lat="45.58627803008019" lon="4.750677243696468"><ele>200.0</ele><time>2026-05-02T15:20:05Z</time></trkpt><trkpt lat="45.586226985165595" lon="4.750522351813754"><ele>196.5</ele><time>2026-05-02T15:20:06Z</time></trkpt><trkpt lat="45.58617423931553" lon="4.750358577173196"><ele>193.0</ele><time>2026-05-02T15:20:07Z</time></trkpt><trkpt lat="45.58613626875144" lon="4.750204923959287"><ele>193.0</ele><time>2026-05-02T15:20:08Z</time></trkpt><trkpt lat="45.58610389059015" lon="4.7500437018000135"><ele>193.0</ele><time>2026-05-02T15:20:09Z</time></trkpt><trkpt lat="45.586086105124004" lon="4.749879625350339"><ele>193.0</ele><time>2026-05-02T15:20:10Z</time></trkpt><trkpt lat="45.586075984531874" lon="4.749718182234629"><ele>193.0</ele><time>2026-05-02T15:20:11Z</time></trkpt><trkpt lat="45.586074182319" lon="4.749555490603827"><ele>193.0</ele><time>2026-05-02T15:20:12Z</time></trkpt><trkpt lat="45.58608863898286" lon="4.749401988219471"><ele>193.0</ele><time>2026-05-02T15:20:13Z</time></trkpt><trkpt lat="45.58613131878381" lon="4.7492506694499825"><ele>193.0</ele><time>2026-05-02T15:20:14Z</time></trkpt><trkpt lat="45.58619203329" lon="4.749128526426518"><ele>193.0</ele><time>2026-05-02T15:20:15Z</time></trkpt><trkpt lat="45.58624483365131" lon="4.749012872342688"><ele>193.0</ele><time>2026-05-02T15:20:16Z</time></trkpt><trkpt lat="45.586274609458826" lon="4.748882952280858"><ele>196.75</ele><time>2026-05-02T15:20:17Z</time></trkpt><trkpt lat="45.5862680452451" lon="4.748735633915078"><ele>200.5</ele><time>2026-05-02T15:20:18Z</time></trkpt><trkpt lat="45.58622580384895" lon="4.748593423081315"><ele>204.25</ele><time>2026-05-02T15:20:19Z</time></trkpt><trkpt lat="45.58615063367407" lon="4.748479060878984"><ele>208.0</ele><time>2026-05-02T15:20:20Z</time></trkpt><trkpt lat="45.586062610751625" lon="4.748340739457592"><ele>208.0</ele><time>2026-05-02T15:20:21Z</time></trkpt><trkpt lat="45.58597652470321" lon="4.7481521317153"><ele>208.0</ele><time>2026-05-02T15:20:22Z</time></trkpt><trkpt lat="45.585910127397554" lon="4.747942111228282"><ele>208.0</ele><time>2026-05-02T15:20:23Z</time></trkpt><trkpt lat="45.58583858501441" lon="4.747710533371184"><ele>213.33333333333331</ele><time>2026-05-02T15:20:24Z</time></trkpt><trkpt lat="45.58574768570269" lon="4.74747599342932"><ele>218.66666666666669</ele><time>2026-05-02T15:20:25Z</time></trkpt><trkpt lat="45.58563831833835" lon="4.747248757150781"><ele>224.0</ele><time>2026-05-02T15:20:26Z</time></trkpt><trkpt lat="45.58554073165468" lon="4.747039954832593"><ele>220.75</ele><time>2026-05-02T15:20:27Z</time></trkpt><trkpt lat="45.58549133353963" lon="4.746840016434431"><ele>217.5</ele><time>2026-05-02T15:20:28Z</time></trkpt><trkpt lat="45.58545532279819" lon="4.7466468753421"><ele>214.25</ele><time>2026-05-02T15:20:29Z</time></trkpt><trkpt lat="45.58538285469204" lon="4.746476859681821"><ele>211.0</ele><time>2026-05-02T15:20:30Z</time></trkpt><trkpt lat="45.58527329072273" lon="4.746363714898555"><ele>211.0</ele><time>2026-05-02T15:20:31Z</time></trkpt><trkpt lat="45.5851563393948" lon="4.746248584925691"><ele>211.0</ele><time>2026-05-02T15:20:32Z</time></trkpt><trkpt lat="45.58505934544403" lon="4.746082818730611"><ele>211.0</ele><time>2026-05-02T15:20:33Z</time></trkpt><trkpt lat="45.584991432179464" lon="4.745877605320881"><ele>216.25</ele><time>2026-05-02T15:20:34Z</time></trkpt><trkpt lat="45.58493450469977" lon="4.745692738133516"><ele>221.5</ele><time>2026-05-02T15:20:35Z</time></trkpt><trkpt lat="45.584887459651945" lon="4.745500830405017"><ele>226.75</ele><time>2026-05-02T15:20:36Z</time></trkpt><trkpt lat="45.5848507130754" lon="4.745290867440642"><ele>232.0</ele><time>2026-05-02T15:20:37Z</time></trkpt><trkpt lat="45.58484675522235" lon="4.745080989898467"><ele>235.0</ele><time>2026-05-02T15:20:38Z</time></trkpt><trkpt lat="45.58483668858824" lon="4.744863424353479"><ele>238.0</ele><time>2026-05-02T15:20:39Z</time></trkpt><trkpt lat="45.584815419588594" lon="4.744642733048875"><ele>241.0</ele><time>2026-05-02T15:20:40Z</time></trkpt><trkpt lat="45.58476881678831" lon="4.744419772499949"><ele>242.5</ele><time>2026-05-02T15:20:41Z</time></trkpt><trkpt lat="45.58471714743584" lon="4.744226527341859"><ele>244.0</ele><time>2026-05-02T15:20:42Z</time></trkpt><trkpt lat="45.58466553268467" lon="4.74404038841158"><ele>245.5</ele><time>2026-05-02T15:20:43Z</time></trkpt><trkpt lat="45.58462542785506" lon="4.743873946551748"><ele>247.0</ele><time>2026-05-02T15:20:44Z</time></trkpt><trkpt lat="45.584576818546246" lon="4.743717028876479"><ele>247.0</ele><time>2026-05-02T15:20:45Z</time></trkpt><trkpt lat="45.584528430845204" lon="4.74354836492556"><ele>247.0</ele><time>2026-05-02T15:20:46Z</time></trkpt><trkpt lat="45.58448985419705" lon="4.743393029242208"><ele>247.0</ele><time>2026-05-02T15:20:47Z</time></trkpt><trkpt lat="45.5844583338213" lon="4.743247384306283"><ele>247.0</ele><time>2026-05-02T15:20:48Z</time></trkpt><trkpt lat="45.58444224362202" lon="4.7431012335325455"><ele>249.6</ele><time>2026-05-02T15:20:49Z</time></trkpt><trkpt lat="45.5844518651955" lon="4.742948040401358"><ele>252.2</ele><time>2026-05-02T15:20:50Z</time></trkpt><trkpt lat="45.584467545061514" lon="4.742788226293828"><ele>254.8</ele><time>2026-05-02T15:20:51Z</time></trkpt><trkpt lat="45.584517209496966" lon="4.742644055007834"><ele>257.4</ele><time>2026-05-02T15:20:52Z</time></trkpt><trkpt lat="45.58457526177439" lon="4.7425119642594336"><ele>260.0</ele><time>2026-05-02T15:20:53Z</time></trkpt><trkpt lat="45.584640034078504" lon="4.7423934925093"><ele>260.0</ele><time>2026-05-02T15:20:54Z</time></trkpt><trkpt lat="45.58468955919576" lon="4.742277186946321"><ele>260.0</ele><time>2026-05-02T15:20:55Z</time></trkpt><trkpt lat="45.584700390664466" lon="4.7421426348482605"><ele>260.0</ele><time>2026-05-02T15:20:56Z</time></trkpt><trkpt lat="45.58469520027536" lon="4.741982744853976"><ele>260.0</ele><time>2026-05-02T15:20:57Z</time></trkpt><trkpt lat="45.584660548180935" lon="4.741804159888694"><ele>260.0</ele><time>2026-05-02T15:20:58Z</time></trkpt><trkpt lat="45.58463209763393" lon="4.741641650337297"><ele>260.0</ele><time>2026-05-02T15:20:59Z</time></trkpt><trkpt lat="45.58463766169429" lon="4.7414644188870545"><ele>260.0</ele><time>2026-05-02T15:21:00Z</time></trkpt><trkpt lat="45.58466258927449" lon="4.7412882156022995"><ele>260.0</ele><time>2026-05-02T15:21:01Z</time></trkpt><trkpt lat="45.58468338764056" lon="4.741101529151462"><ele>260.0</ele><time>2026-05-02T15:21:02Z</time></trkpt><trkpt lat="45.58469500832605" lon="4.7409190375972186"><ele>261.5</ele><time>2026-05-02T15:21:03Z</time></trkpt><trkpt lat="45.58471671005035" lon="4.7407388293039725"><ele>263.0</ele><time>2026-05-02T15:21:04Z</time></trkpt><trkpt lat="45.58473717875488" lon="4.74055029744069"><ele>264.5</ele><time>2026-05-02T15:21:05Z</time></trkpt><trkpt lat="45.58475268628741" lon="4.740374721635882"><ele>266.0</ele><time>2026-05-02T15:21:06Z</time></trkpt><trkpt lat="45.58477008462146" lon="4.7402194981367645"><ele>266.40000000000003</ele><time>2026-05-02T15:21:07Z</time></trkpt><trkpt lat="45.58478140937559" lon="4.740071912711759"><ele>266.8</ele><time>2026-05-02T15:21:08Z</time></trkpt><trkpt lat="45.584802452062725" lon="4.739923288347364"><ele>267.20000000000005</ele><time>2026-05-02T15:21:09Z</time></trkpt><trkpt lat="45.58481291847468" lon="4.739744021574349"><ele>267.6</ele><time>2026-05-02T15:21:10Z</time></trkpt><trkpt lat="45.5848249113173" lon="4.73959786819215"><ele>268.0</ele><time>2026-05-02T15:21:11Z</time></trkpt><trkpt lat="45.584828590085756" lon="4.739444287053198"><ele>268.0</ele><time>2026-05-02T15:21:12Z</time></trkpt><trkpt lat="45.58481831468144" lon="4.739296101882974"><ele>268.0</ele><time>2026-05-02T15:21:13Z</time></trkpt><trkpt lat="45.58479162589552" lon="4.739161549003973"><ele>268.0</ele><time>2026-05-02T15:21:14Z</time></trkpt><trkpt lat="45.58477516203573" lon="4.739035477142584"><ele>268.0</ele><time>2026-05-02T15:21:15Z</time></trkpt><trkpt lat="45.584762182536345" lon="4.7389302038204475"><ele>268.0</ele><time>2026-05-02T15:21:16Z</time></trkpt><trkpt lat="45.58476963962948" lon="4.738831126304692"><ele>268.0</ele><time>2026-05-02T15:21:17Z</time></trkpt><trkpt lat="45.58479958936105" lon="4.738733326406523"><ele>268.0</ele><time>2026-05-02T15:21:18Z</time></trkpt><trkpt lat="45.584865592253685" lon="4.738640274374814"><ele>268.0</ele><time>2026-05-02T15:21:19Z</time></trkpt><trkpt lat="45.584959777801444" lon="4.738549065664069"><ele>268.0</ele><time>2026-05-02T15:21:20Z</time></trkpt><trkpt lat="45.585073511262614" lon="4.738465332275631"><ele>268.0</ele><time>2026-05-02T15:21:21Z</time></trkpt><trkpt lat="45.58521836053553" lon="4.738376615543537"><ele>272.0</ele><time>2026-05-02T15:21:22Z</time></trkpt><trkpt lat="45.5853776477708" lon="4.738267181051569"><ele>276.0</ele><time>2026-05-02T15:21:23Z</time></trkpt><trkpt lat="45.58553335823418" lon="4.738154805265877"><ele>280.0</ele><time>2026-05-02T15:21:24Z</time></trkpt><trkpt lat="45.58566365113579" lon="4.738058245520081"><ele>280.0</ele><time>2026-05-02T15:21:25Z</time></trkpt><trkpt lat="45.58576881554185" lon="4.737942217547599"><ele>280.0</ele><time>2026-05-02T15:21:26Z</time></trkpt><trkpt lat="45.58584399016217" lon="4.737802203571539"><ele>280.0</ele><time>2026-05-02T15:21:27Z</time></trkpt><trkpt lat="45.585923282247165" lon="4.737662186159944"><ele>280.0</ele><time>2026-05-02T15:21:28Z</time></trkpt><trkpt lat="45.58603163422908" lon="4.737562085627982"><ele>280.75</ele><time>2026-05-02T15:21:29Z</time></trkpt><trkpt lat="45.586164153334785" lon="4.73749459567734"><ele>281.5</ele><time>2026-05-02T15:21:30Z</time></trkpt><trkpt lat="45.58629709862341" lon="4.7374379540012646"><ele>282.25</ele><time>2026-05-02T15:21:31Z</time></trkpt><trkpt lat="45.586437683003716" lon="4.7373920781722365"><ele>283.0</ele><time>2026-05-02T15:21:32Z</time></trkpt><trkpt lat="45.58657774699826" lon="4.737367329486947"><ele>283.0</ele><time>2026-05-02T15:21:33Z</time></trkpt><trkpt lat="45.58670607476498" lon="4.737379933239015"><ele>283.0</ele><time>2026-05-02T15:21:34Z</time></trkpt><trkpt lat="45.58683468621183" lon="4.737386916699948"><ele>283.0</ele><time>2026-05-02T15:21:35Z</time></trkpt><trkpt lat="45.5869667565434" lon="4.737348729770249"><ele>283.0</ele><time>2026-05-02T15:21:36Z</time></trkpt><trkpt lat="45.58710695707092" lon="4.737272371492879"><ele>286.66666666666663</ele><time>2026-05-02T15:21:37Z</time></trkpt><trkpt lat="45.587256472851095" lon="4.737184609963829"><ele>290.3333333333333</ele><time>2026-05-02T15:21:38Z</time></trkpt><trkpt lat="45.58739233855596" lon="4.737110897590644"><ele>294.0</ele><time>2026-05-02T15:21:39Z</time></trkpt><trkpt lat="45.58754187621799" lon="4.737047799094537"><ele>294.0</ele><time>2026-05-02T15:21:40Z</time></trkpt><trkpt lat="45.58769192948306" lon="4.736976505398004"><ele>294.0</ele><time>2026-05-02T15:21:41Z</time></trkpt><trkpt lat="45.587822603508876" lon="4.736902424592342"><ele>294.0</ele><time>2026-05-02T15:21:42Z</time></trkpt><trkpt lat="45.58793201838247" lon="4.736828850388331"><ele>294.0</ele><time>2026-05-02T15:21:43Z</time></trkpt><trkpt lat="45.58803945823009" lon="4.736761680460034"><ele>293.75</ele><time>2026-05-02T15:21:44Z</time></trkpt><trkpt lat="45.58813576320523" lon="4.7366844506976244"><ele>293.5</ele><time>2026-05-02T15:21:45Z</time></trkpt><trkpt lat="45.58822390492923" lon="4.7365724781592355"><ele>293.25</ele><time>2026-05-02T15:21:46Z</time></trkpt><trkpt lat="45.588302044692576" lon="4.736409957537102"><ele>293.0</ele><time>2026-05-02T15:21:47Z</time></trkpt><trkpt lat="45.58839908598101" lon="4.736237939423342"><ele>293.0</ele><time>2026-05-02T15:21:48Z</time></trkpt><trkpt lat="45.588487537521004" lon="4.7361172870663655"><ele>293.0</ele><time>2026-05-02T15:21:49Z</time></trkpt><trkpt lat="45.588591116876756" lon="4.736014760045496"><ele>293.0</ele><time>2026-05-02T15:21:50Z</time></trkpt><trkpt lat="45.58870486144368" lon="4.73591964442205"><ele>293.0</ele><time>2026-05-02T15:21:51Z</time></trkpt><trkpt lat="45.58881926898613" lon="4.735824420939901"><ele>293.0</ele><time>2026-05-02T15:21:52Z</time></trkpt><trkpt lat="45.588931654430546" lon="4.735704650862434"><ele>293.0</ele><time>2026-05-02T15:21:53Z</time></trkpt><trkpt lat="45.58903751341186" lon="4.735558994482217"><ele>293.0</ele><time>2026-05-02T15:21:54Z</time></trkpt><trkpt lat="45.58913762459922" lon="4.735399156420289"><ele>293.0</ele><time>2026-05-02T15:21:55Z</time></trkpt><trkpt lat="45.58923294157465" lon="4.7352210816343066"><ele>292.6666666666667</ele><time>2026-05-02T15:21:56Z</time></trkpt><trkpt lat="45.58933333595158" lon="4.735043596726521"><ele>292.3333333333333</ele><time>2026-05-02T15:21:57Z</time></trkpt><trkpt lat="45.58944164417647" lon="4.7348646286492215"><ele>292.0</ele><time>2026-05-02T15:21:58Z</time></trkpt><trkpt lat="45.58954423773059" lon="4.73471020484291"><ele>292.0</ele><time>2026-05-02T15:21:59Z</time></trkpt><trkpt lat="45.589634090849884" lon="4.734578160156113"><ele>292.0</ele><time>2026-05-02T15:22:00Z</time></trkpt><trkpt lat="45.589718437379666" lon="4.734452739988339"><ele>292.0</ele><time>2026-05-02T15:22:01Z</time></trkpt><trkpt lat="45.58979468310778" lon="4.734330479821448"><ele>292.0</ele><time>2026-05-02T15:22:02Z</time></trkpt><trkpt lat="45.58987000269704" lon="4.73419240413003"><ele>292.0</ele><time>2026-05-02T15:22:03Z</time></trkpt><trkpt lat="45.589930153935065" lon="4.7340360940091895"><ele>292.0</ele><time>2026-05-02T15:22:04Z</time></trkpt><trkpt lat="45.58997030128288" lon="4.7338634883362545"><ele>292.0</ele><time>2026-05-02T15:22:05Z</time></trkpt><trkpt lat="45.58997523289325" lon="4.733674205553104"><ele>292.0</ele><time>2026-05-02T15:22:06Z</time></trkpt><trkpt lat="45.58995954025378" lon="4.733477865059509"><ele>292.0</ele><time>2026-05-02T15:22:07Z</time></trkpt><trkpt lat="45.5899539088124" lon="4.73330502461223"><ele>292.0</ele><time>2026-05-02T15:22:08Z</time></trkpt><trkpt lat="45.58996417826112" lon="4.733137407191662"><ele>292.0</ele><time>2026-05-02T15:22:09Z</time></trkpt><trkpt lat="45.589978927862006" lon="4.732956948174866"><ele>292.0</ele><time>2026-05-02T15:22:10Z</time></trkpt><trkpt lat="45.590002434009975" lon="4.732771834324483"><ele>292.25</ele><time>2026-05-02T15:22:11Z</time></trkpt><trkpt lat="45.59003994950474" lon="4.732595926086232"><ele>292.5</ele><time>2026-05-02T15:22:12Z</time></trkpt><trkpt lat="45.59009059929461" lon="4.7324268776048335"><ele>292.75</ele><time>2026-05-02T15:22:13Z</time></trkpt><trkpt lat="45.59015054776634" lon="4.732260081956902"><ele>293.0</ele><time>2026-05-02T15:22:14Z</time></trkpt><trkpt lat="45.590222202937525" lon="4.732105392786858"><ele>293.0</ele><time>2026-05-02T15:22:15Z</time></trkpt><trkpt lat="45.59029395979058" lon="4.73195495066885"><ele>293.0</ele><time>2026-05-02T15:22:16Z</time></trkpt><trkpt lat="45.590346062595955" lon="4.731789650889884"><ele>293.0</ele><time>2026-05-02T15:22:17Z</time></trkpt><trkpt lat="45.59038073592236" lon="4.731615808204727"><ele>293.0</ele><time>2026-05-02T15:22:18Z</time></trkpt><trkpt lat="45.5904050846326" lon="4.731436149532724"><ele>293.0</ele><time>2026-05-02T15:22:19Z</time></trkpt><trkpt lat="45.59041177878219" lon="4.731251491282568"><ele>293.0</ele><time>2026-05-02T15:22:20Z</time></trkpt><trkpt lat="45.590409878429675" lon="4.731064007602952"><ele>293.0</ele><time>2026-05-02T15:22:21Z</time></trkpt><trkpt lat="45.590398573162794" lon="4.730872273572299"><ele>293.0</ele><time>2026-05-02T15:22:22Z</time></trkpt><trkpt lat="45.59040289165703" lon="4.73069636659225"><ele>293.0</ele><time>2026-05-02T15:22:23Z</time></trkpt><trkpt lat="45.59040509659518" lon="4.730509855928488"><ele>293.0</ele><time>2026-05-02T15:22:24Z</time></trkpt><trkpt lat="45.590414674769555" lon="4.730308208650023"><ele>293.0</ele><time>2026-05-02T15:22:25Z</time></trkpt><trkpt lat="45.590434140358404" lon="4.730120971871707"><ele>293.0</ele><time>2026-05-02T15:22:26Z</time></trkpt><trkpt lat="45.59045700409442" lon="4.729913766405024"><ele>293.25</ele><time>2026-05-02T15:22:27Z</time></trkpt><trkpt lat="45.59049036044516" lon="4.7297039453556735"><ele>293.5</ele><time>2026-05-02T15:22:28Z</time></trkpt><trkpt lat="45.59053724702788" lon="4.729504649681148"><ele>293.75</ele><time>2026-05-02T15:22:29Z</time></trkpt><trkpt lat="45.59057186285066" lon="4.729299074568773"><ele>294.0</ele><time>2026-05-02T15:22:30Z</time></trkpt><trkpt lat="45.590609458979856" lon="4.729048177523184"><ele>294.0</ele><time>2026-05-02T15:22:31Z</time></trkpt><trkpt lat="45.59064867858765" lon="4.728751816371864"><ele>294.0</ele><time>2026-05-02T15:22:32Z</time></trkpt><trkpt lat="45.59068798692313" lon="4.72843327819486"><ele>294.0</ele><time>2026-05-02T15:22:33Z</time></trkpt><trkpt lat="45.59072624323215" lon="4.728098618765718"><ele>294.5</ele><time>2026-05-02T15:22:34Z</time></trkpt><trkpt lat="45.59074778457515" lon="4.727772101377895"><ele>295.0</ele><time>2026-05-02T15:22:35Z</time></trkpt><trkpt lat="45.590788147161874" lon="4.7274600036229435"><ele>296.0</ele><time>2026-05-02T15:22:36Z</time></trkpt><trkpt lat="45.59082186296568" lon="4.7271625295702195"><ele>297.0</ele><time>2026-05-02T15:22:37Z</time></trkpt><trkpt lat="45.59089425468202" lon="4.72691435473706"><ele>298.0</ele><time>2026-05-02T15:22:38Z</time></trkpt><trkpt lat="45.590965392382756" lon="4.726672209013891"><ele>299.3333333333333</ele><time>2026-05-02T15:22:39Z</time></trkpt><trkpt lat="45.591032531675864" lon="4.7264211193435095"><ele>300.6666666666667</ele><time>2026-05-02T15:22:40Z</time></trkpt><trkpt lat="45.59112135031266" lon="4.726189526450214"><ele>302.0</ele><time>2026-05-02T15:22:41Z</time></trkpt><trkpt lat="45.59122526089699" lon="4.725985235816285"><ele>302.0</ele><time>2026-05-02T15:22:42Z</time></trkpt><trkpt lat="45.59133145340465" lon="4.725786015147473"><ele>302.0</ele><time>2026-05-02T15:22:43Z</time></trkpt><trkpt lat="45.59143525932294" lon="4.725586533400131"><ele>302.0</ele><time>2026-05-02T15:22:44Z</time></trkpt><trkpt lat="45.591543747016644" lon="4.725417031436946"><ele>302.0</ele><time>2026-05-02T15:22:45Z</time></trkpt><trkpt lat="45.59164507685281" lon="4.725252455062835"><ele>302.0</ele><time>2026-05-02T15:22:46Z</time></trkpt><trkpt lat="45.59175267838353" lon="4.725086306371845"><ele>302.0</ele><time>2026-05-02T15:22:47Z</time></trkpt><trkpt lat="45.591871238913285" lon="4.724917054388993"><ele>302.33333333333337</ele><time>2026-05-02T15:22:48Z</time></trkpt><trkpt lat="45.59198530355761" lon="4.724747967291952"><ele>302.6666666666667</ele><time>2026-05-02T15:22:49Z</time></trkpt><trkpt lat="45.59208443162177" lon="4.724578472539995"><ele>303.0</ele><time>2026-05-02T15:22:50Z</time></trkpt><trkpt lat="45.59219198315911" lon="4.724426143854104"><ele>304.3333333333333</ele><time>2026-05-02T15:22:51Z</time></trkpt><trkpt lat="45.59230759827526" lon="4.724264615942552"><ele>305.66666666666663</ele><time>2026-05-02T15:22:52Z</time></trkpt><trkpt lat="45.592428123993905" lon="4.724095101975244"><ele>307.0</ele><time>2026-05-02T15:22:53Z</time></trkpt><trkpt lat="45.592552623544364" lon="4.723924616342319"><ele>307.0</ele><time>2026-05-02T15:22:54Z</time></trkpt><trkpt lat="45.592672474823196" lon="4.723749296764933"><ele>307.0</ele><time>2026-05-02T15:22:55Z</time></trkpt><trkpt lat="45.59278447683996" lon="4.723588927279352"><ele>307.0</ele><time>2026-05-02T15:22:56Z</time></trkpt><trkpt lat="45.59289069794854" lon="4.72343393937246"><ele>305.3333333333333</ele><time>2026-05-02T15:22:57Z</time></trkpt><trkpt lat="45.59299263963357" lon="4.723281958583538"><ele>303.6666666666667</ele><time>2026-05-02T15:22:58Z</time></trkpt><trkpt lat="45.59309465463407" lon="4.723123252209391"><ele>302.0</ele><time>2026-05-02T15:22:59Z</time></trkpt><trkpt lat="45.593189055110685" lon="4.722953934808364"><ele>302.0</ele><time>2026-05-02T15:23:00Z</time></trkpt><trkpt lat="45.593277983805635" lon="4.722769310042914"><ele>302.0</ele><time>2026-05-02T15:23:01Z</time></trkpt><trkpt lat="45.593363628472304" lon="4.722574649843446"><ele>302.0</ele><time>2026-05-02T15:23:02Z</time></trkpt><trkpt lat="45.59344062489288" lon="4.722374325768286"><ele>302.0</ele><time>2026-05-02T15:23:03Z</time></trkpt><trkpt lat="45.59351179286871" lon="4.722166319488714"><ele>302.0</ele><time>2026-05-02T15:23:04Z</time></trkpt><trkpt lat="45.593583155568034" lon="4.721942115429371"><ele>302.0</ele><time>2026-05-02T15:23:05Z</time></trkpt><trkpt lat="45.59365245728184" lon="4.721724711784712"><ele>300.33333333333337</ele><time>2026-05-02T15:23:06Z</time></trkpt><trkpt lat="45.5937305307826" lon="4.721519650684324"><ele>298.6666666666667</ele><time>2026-05-02T15:23:07Z</time></trkpt><trkpt lat="45.59382310358161" lon="4.7213043222098925"><ele>297.0</ele><time>2026-05-02T15:23:08Z</time></trkpt><trkpt lat="45.59392303584253" lon="4.72109054382627"><ele>297.3333333333333</ele><time>2026-05-02T15:23:09Z</time></trkpt><trkpt lat="45.59402828922459" lon="4.7208984543342005"><ele>297.66666666666663</ele><time>2026-05-02T15:23:10Z</time></trkpt><trkpt lat="45.59412970497532" lon="4.720706448629895"><ele>298.0</ele><time>2026-05-02T15:23:11Z</time></trkpt><trkpt lat="45.59422914431241" lon="4.7205136247589365"><ele>298.0</ele><time>2026-05-02T15:23:12Z</time></trkpt><trkpt lat="45.59432800697018" lon="4.720313539923959"><ele>298.0</ele><time>2026-05-02T15:23:13Z</time></trkpt><trkpt lat="45.59442231045283" lon="4.7201285455805895"><ele>298.0</ele><time>2026-05-02T15:23:14Z</time></trkpt><trkpt lat="45.594514006295455" lon="4.719953274210617"><ele>298.0</ele><time>2026-05-02T15:23:15Z</time></trkpt><trkpt lat="45.594597270289434" lon="4.719763100289293"><ele>298.0</ele><time>2026-05-02T15:23:16Z</time></trkpt><trkpt lat="45.594662043250665" lon="4.71955729122172"><ele>298.0</ele><time>2026-05-02T15:23:17Z</time></trkpt><trkpt lat="45.59470920936572" lon="4.719337727298686"><ele>298.66666666666663</ele><time>2026-05-02T15:23:18Z</time></trkpt><trkpt lat="45.59474379471166" lon="4.71909832439484"><ele>299.3333333333333</ele><time>2026-05-02T15:23:19Z</time></trkpt><trkpt lat="45.59476886748261" lon="4.718847236013414"><ele>300.0</ele><time>2026-05-02T15:23:20Z</time></trkpt><trkpt lat="45.59479101744635" lon="4.718614917389358"><ele>301.0</ele><time>2026-05-02T15:23:21Z</time></trkpt><trkpt lat="45.5948152861524" lon="4.7183992890364275"><ele>302.0</ele><time>2026-05-02T15:23:22Z</time></trkpt><trkpt lat="45.5948411678882" lon="4.7181799073887545"><ele>303.0</ele><time>2026-05-02T15:23:23Z</time></trkpt><trkpt lat="45.59486688626808" lon="4.717944649572035"><ele>303.6666666666667</ele><time>2026-05-02T15:23:24Z</time></trkpt><trkpt lat="45.59489780207179" lon="4.717687357014899"><ele>304.33333333333337</ele><time>2026-05-02T15:23:25Z</time></trkpt><trkpt lat="45.59493179790515" lon="4.717421266058148"><ele>305.0</ele><time>2026-05-02T15:23:26Z</time></trkpt><trkpt lat="45.594967145553525" lon="4.717158424355581"><ele>305.0</ele><time>2026-05-02T15:23:27Z</time></trkpt><trkpt lat="45.59500082737167" lon="4.716914746898284"><ele>305.0</ele><time>2026-05-02T15:23:28Z</time></trkpt><trkpt lat="45.59503492435606" lon="4.716684832819176"><ele>305.0</ele><time>2026-05-02T15:23:29Z</time></trkpt><trkpt lat="45.59507037092583" lon="4.716446176637136"><ele>305.0</ele><time>2026-05-02T15:23:30Z</time></trkpt><trkpt lat="45.595114828667114" lon="4.716162393049378"><ele>305.0</ele><time>2026-05-02T15:23:31Z</time></trkpt><trkpt lat="45.59517521705566" lon="4.715857014444372"><ele>305.0</ele><time>2026-05-02T15:23:32Z</time></trkpt><trkpt lat="45.59525019197603" lon="4.71554073398109"><ele>305.0</ele><time>2026-05-02T15:23:33Z</time></trkpt><trkpt lat="45.59532657592644" lon="4.715204861517045"><ele>305.0</ele><time>2026-05-02T15:23:34Z</time></trkpt><trkpt lat="45.59542251404347" lon="4.714871945073506"><ele>305.0</ele><time>2026-05-02T15:23:35Z</time></trkpt><trkpt lat="45.59550612233423" lon="4.714523995584021"><ele>305.0</ele><time>2026-05-02T15:23:36Z</time></trkpt><trkpt lat="45.59559159460291" lon="4.714168288745259"><ele>305.0</ele><time>2026-05-02T15:23:37Z</time></trkpt><trkpt lat="45.595666164090304" lon="4.7138067204085266"><ele>305.0</ele><time>2026-05-02T15:23:38Z</time></trkpt><trkpt lat="45.595759534518415" lon="4.713450563380115"><ele>305.5</ele><time>2026-05-02T15:23:39Z</time></trkpt><trkpt lat="45.595849352431976" lon="4.713095844623738"><ele>306.0</ele><time>2026-05-02T15:23:40Z</time></trkpt><trkpt lat="45.59592879436671" lon="4.712768285450336"><ele>306.5</ele><time>2026-05-02T15:23:41Z</time></trkpt><trkpt lat="45.596009616580815" lon="4.712453938708916"><ele>307.0</ele><time>2026-05-02T15:23:42Z</time></trkpt><trkpt lat="45.596119470698994" lon="4.712167654678879"><ele>307.5</ele><time>2026-05-02T15:23:43Z</time></trkpt><trkpt lat="45.59621954832333" lon="4.711878651399344"><ele>308.0</ele><time>2026-05-02T15:23:44Z</time></trkpt><trkpt lat="45.59633678473506" lon="4.711600413154885"><ele>308.0</ele><time>2026-05-02T15:23:45Z</time></trkpt><trkpt lat="45.59645190956768" lon="4.711320492732995"><ele>308.0</ele><time>2026-05-02T15:23:46Z</time></trkpt><trkpt lat="45.59655870643652" lon="4.711038584234331"><ele>309.5</ele><time>2026-05-02T15:23:47Z</time></trkpt><trkpt lat="45.59666716980202" lon="4.710755806669022"><ele>311.0</ele><time>2026-05-02T15:23:48Z</time></trkpt><trkpt lat="45.59677835436968" lon="4.710474423852667"><ele>311.33333333333337</ele><time>2026-05-02T15:23:49Z</time></trkpt><trkpt lat="45.59688499594289" lon="4.710202087965844"><ele>311.6666666666667</ele><time>2026-05-02T15:23:50Z</time></trkpt><trkpt lat="45.59698717349444" lon="4.709925982245954"><ele>312.0</ele><time>2026-05-02T15:23:51Z</time></trkpt><trkpt lat="45.59708252140227" lon="4.709647748906382"><ele>313.0</ele><time>2026-05-02T15:23:52Z</time></trkpt><trkpt lat="45.597174963395034" lon="4.7093645049140145"><ele>314.0</ele><time>2026-05-02T15:23:53Z</time></trkpt><trkpt lat="45.59726752700967" lon="4.709076169087519"><ele>315.0</ele><time>2026-05-02T15:23:54Z</time></trkpt><trkpt lat="45.59736881408878" lon="4.7087959127169565"><ele>315.0</ele><time>2026-05-02T15:23:55Z</time></trkpt><trkpt lat="45.59747361923153" lon="4.708523138192464"><ele>315.0</ele><time>2026-05-02T15:23:56Z</time></trkpt><trkpt lat="45.59761572799827" lon="4.7082931570933715"><ele>315.0</ele><time>2026-05-02T15:23:57Z</time></trkpt><trkpt lat="45.59774330862312" lon="4.708048153101521"><ele>314.6666666666667</ele><time>2026-05-02T15:23:58Z</time></trkpt><trkpt lat="45.597888878650494" lon="4.707832848019262"><ele>314.33333333333337</ele><time>2026-05-02T15:23:59Z</time></trkpt><trkpt lat="45.59802470617501" lon="4.707605608251638"><ele>314.0</ele><time>2026-05-02T15:24:00Z</time></trkpt><trkpt lat="45.598167991804175" lon="4.707363603435794"><ele>314.0</ele><time>2026-05-02T15:24:01Z</time></trkpt><trkpt lat="45.598313908842684" lon="4.707116985919597"><ele>314.0</ele><time>2026-05-02T15:24:02Z</time></trkpt><trkpt lat="45.59845822166729" lon="4.70687184336572"><ele>314.33333333333337</ele><time>2026-05-02T15:24:03Z</time></trkpt><trkpt lat="45.59858984465817" lon="4.706641534565094"><ele>314.6666666666667</ele><time>2026-05-02T15:24:04Z</time></trkpt><trkpt lat="45.59870515573909" lon="4.706394872266236"><ele>315.0</ele><time>2026-05-02T15:24:05Z</time></trkpt><trkpt lat="45.59880972124758" lon="4.706134718402812"><ele>313.0</ele><time>2026-05-02T15:24:06Z</time></trkpt><trkpt lat="45.598911659850025" lon="4.705875720060082"><ele>311.0</ele><time>2026-05-02T15:24:07Z</time></trkpt><trkpt lat="45.59901260244145" lon="4.705632961971332"><ele>309.0</ele><time>2026-05-02T15:24:08Z</time></trkpt><trkpt lat="45.59910913775376" lon="4.705404284140143"><ele>309.3333333333333</ele><time>2026-05-02T15:24:09Z</time></trkpt><trkpt lat="45.59919357663149" lon="4.705191679005564"><ele>309.66666666666663</ele><time>2026-05-02T15:24:10Z</time></trkpt><trkpt lat="45.5992631136543" lon="4.704972208153353"><ele>310.0</ele><time>2026-05-02T15:24:11Z</time></trkpt><trkpt lat="45.599302063758955" lon="4.704745735535701"><ele>310.0</ele><time>2026-05-02T15:24:12Z</time></trkpt><trkpt lat="45.599321364795266" lon="4.704503472610592"><ele>310.0</ele><time>2026-05-02T15:24:13Z</time></trkpt><trkpt lat="45.59933401646414" lon="4.704242837203476"><ele>310.0</ele><time>2026-05-02T15:24:14Z</time></trkpt><trkpt lat="45.59934728062696" lon="4.703967389115984"><ele>310.0</ele><time>2026-05-02T15:24:15Z</time></trkpt><trkpt lat="45.5993602078024" lon="4.703698073150471"><ele>310.0</ele><time>2026-05-02T15:24:16Z</time></trkpt><trkpt lat="45.59937253242694" lon="4.70344950483299"><ele>310.0</ele><time>2026-05-02T15:24:17Z</time></trkpt><trkpt lat="45.59938591394759" lon="4.703210958760569"><ele>310.66666666666663</ele><time>2026-05-02T15:24:18Z</time></trkpt><trkpt lat="45.59942169172475" lon="4.702973463471002"><ele>311.3333333333333</ele><time>2026-05-02T15:24:19Z</time></trkpt><trkpt lat="45.59949530440712" lon="4.70273941624365"><ele>312.0</ele><time>2026-05-02T15:24:20Z</time></trkpt><trkpt lat="45.59958380070646" lon="4.702489839489734"><ele>309.5</ele><time>2026-05-02T15:24:21Z</time></trkpt><trkpt lat="45.59967663286664" lon="4.702207548656194"><ele>307.0</ele><time>2026-05-02T15:24:22Z</time></trkpt><trkpt lat="45.599770510844436" lon="4.701900473544626"><ele>307.0</ele><time>2026-05-02T15:24:23Z</time></trkpt><trkpt lat="45.59986499714758" lon="4.701569708004232"><ele>307.0</ele><time>2026-05-02T15:24:24Z</time></trkpt><trkpt lat="45.599960695616446" lon="4.701249310125518"><ele>308.5</ele><time>2026-05-02T15:24:25Z</time></trkpt><trkpt lat="45.60005119038075" lon="4.700957048026547"><ele>310.0</ele><time>2026-05-02T15:24:26Z</time></trkpt><trkpt lat="45.60016471426371" lon="4.700669280080432"><ele>310.0</ele><time>2026-05-02T15:24:27Z</time></trkpt><trkpt lat="45.60029214873881" lon="4.700376442242982"><ele>310.0</ele><time>2026-05-02T15:24:28Z</time></trkpt><trkpt lat="45.60043172699761" lon="4.7000908657800045"><ele>308.0</ele><time>2026-05-02T15:24:29Z</time></trkpt><trkpt lat="45.60057868338972" lon="4.699806504093644"><ele>306.0</ele><time>2026-05-02T15:24:30Z</time></trkpt><trkpt lat="45.60071834580371" lon="4.6995166956464685"><ele>307.0</ele><time>2026-05-02T15:24:31Z</time></trkpt><trkpt lat="45.60086064265316" lon="4.6992275195443325"><ele>308.0</ele><time>2026-05-02T15:24:32Z</time></trkpt><trkpt lat="45.60098835199355" lon="4.69896023639786"><ele>308.0</ele><time>2026-05-02T15:24:33Z</time></trkpt><trkpt lat="45.60110847503068" lon="4.698708625869105"><ele>308.0</ele><time>2026-05-02T15:24:34Z</time></trkpt><trkpt lat="45.60122722629049" lon="4.698460422259667"><ele>308.0</ele><time>2026-05-02T15:24:35Z</time></trkpt><trkpt lat="45.60134188454649" lon="4.698240080115551"><ele>307.0</ele><time>2026-05-02T15:24:36Z</time></trkpt><trkpt lat="45.60146898652808" lon="4.698035277013494"><ele>306.0</ele><time>2026-05-02T15:24:37Z</time></trkpt><trkpt lat="45.60162009951877" lon="4.697847529231635"><ele>305.0</ele><time>2026-05-02T15:24:38Z</time></trkpt><trkpt lat="45.60179094474585" lon="4.697667485075571"><ele>305.0</ele><time>2026-05-02T15:24:39Z</time></trkpt><trkpt lat="45.601944673158435" lon="4.697479994709889"><ele>305.0</ele><time>2026-05-02T15:24:40Z</time></trkpt><trkpt lat="45.60207549859537" lon="4.697293928678555"><ele>305.0</ele><time>2026-05-02T15:24:41Z</time></trkpt><trkpt lat="45.60218692091247" lon="4.6970958577307815"><ele>303.6666666666667</ele><time>2026-05-02T15:24:42Z</time></trkpt><trkpt lat="45.602292005638866" lon="4.696880263336515"><ele>302.3333333333333</ele><time>2026-05-02T15:24:43Z</time></trkpt><trkpt lat="45.60238274850688" lon="4.696641376949892"><ele>301.0</ele><time>2026-05-02T15:24:44Z</time></trkpt><trkpt lat="45.602477779751595" lon="4.696395613308711"><ele>301.0</ele><time>2026-05-02T15:24:45Z</time></trkpt><trkpt lat="45.6025690687679" lon="4.69613837190738"><ele>301.0</ele><time>2026-05-02T15:24:46Z</time></trkpt><trkpt lat="45.602651596483696" lon="4.69586217634576"><ele>301.0</ele><time>2026-05-02T15:24:47Z</time></trkpt><trkpt lat="45.60272326658994" lon="4.69555849436562"><ele>300.0</ele><time>2026-05-02T15:24:48Z</time></trkpt><trkpt lat="45.60278372482766" lon="4.6952425651828"><ele>299.0</ele><time>2026-05-02T15:24:49Z</time></trkpt><trkpt lat="45.602835297723466" lon="4.694911903283059"><ele>296.5</ele><time>2026-05-02T15:24:50Z</time></trkpt><trkpt lat="45.60289755710974" lon="4.694574374621052"><ele>294.0</ele><time>2026-05-02T15:24:51Z</time></trkpt><trkpt lat="45.60296163665931" lon="4.694226715454068"><ele>294.0</ele><time>2026-05-02T15:24:52Z</time></trkpt><trkpt lat="45.60302572389169" lon="4.693880576316668"><ele>294.0</ele><time>2026-05-02T15:24:53Z</time></trkpt><trkpt lat="45.60309014656865" lon="4.6935439996053105"><ele>294.0</ele><time>2026-05-02T15:24:54Z</time></trkpt><trkpt lat="45.60316490821188" lon="4.6932357547414885"><ele>294.0</ele><time>2026-05-02T15:24:55Z</time></trkpt><trkpt lat="45.60324203719516" lon="4.692957409947902"><ele>294.0</ele><time>2026-05-02T15:24:56Z</time></trkpt><trkpt lat="45.60332758397915" lon="4.6927043573339065"><ele>294.6666666666667</ele><time>2026-05-02T15:24:57Z</time></trkpt><trkpt lat="45.603401412469694" lon="4.692472508618658"><ele>295.33333333333337</ele><time>2026-05-02T15:24:58Z</time></trkpt><trkpt lat="45.60347265502126" lon="4.692251032499129"><ele>296.0</ele><time>2026-05-02T15:24:59Z</time></trkpt><trkpt lat="45.60353908988824" lon="4.692035465593662"><ele>295.75</ele><time>2026-05-02T15:25:00Z</time></trkpt><trkpt lat="45.60360196491655" lon="4.691833017244401"><ele>295.5</ele><time>2026-05-02T15:25:01Z</time></trkpt><trkpt lat="45.603661721451466" lon="4.691641365096315"><ele>295.25</ele><time>2026-05-02T15:25:02Z</time></trkpt><trkpt lat="45.603715241346094" lon="4.691458121573395"><ele>295.0</ele><time>2026-05-02T15:25:03Z</time></trkpt><trkpt lat="45.603768588754754" lon="4.69129065500387"><ele>295.0</ele><time>2026-05-02T15:25:04Z</time></trkpt><trkpt lat="45.6038255371683" lon="4.691114056694737"><ele>295.0</ele><time>2026-05-02T15:25:05Z</time></trkpt><trkpt lat="45.60388127100774" lon="4.690938153242202"><ele>295.0</ele><time>2026-05-02T15:25:06Z</time></trkpt><trkpt lat="45.60394149432491" lon="4.69076347189435"><ele>295.0</ele><time>2026-05-02T15:25:07Z</time></trkpt><trkpt lat="45.60400512283139" lon="4.690602227994439"><ele>295.75</ele><time>2026-05-02T15:25:08Z</time></trkpt><trkpt lat="45.60407661798476" lon="4.690449281338486"><ele>296.5</ele><time>2026-05-02T15:25:09Z</time></trkpt><trkpt lat="45.60415803363986" lon="4.690292299587588"><ele>297.25</ele><time>2026-05-02T15:25:10Z</time></trkpt><trkpt lat="45.604228189841706" lon="4.6901460394693855"><ele>298.0</ele><time>2026-05-02T15:25:11Z</time></trkpt><trkpt lat="45.60428524755928" lon="4.690026987183619"><ele>298.0</ele><time>2026-05-02T15:25:12Z</time></trkpt><trkpt lat="45.60433614692176" lon="4.689917241441625"><ele>298.0</ele><time>2026-05-02T15:25:13Z</time></trkpt><trkpt lat="45.60438338370269" lon="4.6898180459877254"><ele>298.0</ele><time>2026-05-02T15:25:14Z</time></trkpt><trkpt lat="45.604429681975134" lon="4.689731556292454"><ele>298.0</ele><time>2026-05-02T15:25:15Z</time></trkpt><trkpt lat="45.60448031297979" lon="4.689661734122752"><ele>298.0</ele><time>2026-05-02T15:25:16Z</time></trkpt><trkpt lat="45.60456135144186" lon="4.689590506816345"><ele>298.0</ele><time>2026-05-02T15:25:18Z</time></trkpt><trkpt lat="45.604669817183925" lon="4.68955814486801"><ele>298.0</ele><time>2026-05-02T15:25:20Z</time></trkpt><trkpt lat="45.60474539517955" lon="4.689550719220108"><ele>298.0</ele><time>2026-05-02T15:25:21Z</time></trkpt><trkpt lat="45.604821111083005" lon="4.689492537636063"><ele>298.0</ele><time>2026-05-02T15:25:22Z</time></trkpt><trkpt lat="45.60486570906273" lon="4.689394821806744"><ele>298.0</ele><time>2026-05-02T15:25:23Z</time></trkpt><trkpt lat="45.60487423713665" lon="4.689295187915076"><ele>298.0</ele><time>2026-05-02T15:25:24Z</time></trkpt><trkpt lat="45.60485768809214" lon="4.689175766953588"><ele>298.0</ele><time>2026-05-02T15:25:25Z</time></trkpt><trkpt lat="45.604847525527546" lon="4.689042751537257"><ele>298.0</ele><time>2026-05-02T15:25:26Z</time></trkpt><trkpt lat="45.60487668270143" lon="4.688906557878474"><ele>298.0</ele><time>2026-05-02T15:25:27Z</time></trkpt><trkpt lat="45.60493312234631" lon="4.688753884075055"><ele>298.0</ele><time>2026-05-02T15:25:28Z</time></trkpt><trkpt lat="45.60500624470261" lon="4.688546157248845"><ele>298.0</ele><time>2026-05-02T15:25:29Z</time></trkpt><trkpt lat="45.60505999522621" lon="4.688293402939007"><ele>298.0</ele><time>2026-05-02T15:25:30Z</time></trkpt><trkpt lat="45.605099172580374" lon="4.688019620960792"><ele>298.0</ele><time>2026-05-02T15:25:31Z</time></trkpt><trkpt lat="45.60512112448479" lon="4.68772518629449"><ele>298.0</ele><time>2026-05-02T15:25:32Z</time></trkpt><trkpt lat="45.60514446484952" lon="4.687426375349761"><ele>298.0</ele><time>2026-05-02T15:25:33Z</time></trkpt><trkpt lat="45.605206307691496" lon="4.687120666936379"><ele>298.0</ele><time>2026-05-02T15:25:34Z</time></trkpt><trkpt lat="45.605265791319" lon="4.686826582620613"><ele>298.0</ele><time>2026-05-02T15:25:35Z</time></trkpt><trkpt lat="45.60530451720816" lon="4.686563586109952"><ele>299.0</ele><time>2026-05-02T15:25:36Z</time></trkpt><trkpt lat="45.605371634909076" lon="4.686335430940961"><ele>300.0</ele><time>2026-05-02T15:25:37Z</time></trkpt><trkpt lat="45.60543169333264" lon="4.6861371877451585"><ele>301.0</ele><time>2026-05-02T15:25:38Z</time></trkpt><trkpt lat="45.60550897941262" lon="4.685955762430591"><ele>302.0</ele><time>2026-05-02T15:25:39Z</time></trkpt><trkpt lat="45.605613109530026" lon="4.685779999655"><ele>303.0</ele><time>2026-05-02T15:25:40Z</time></trkpt><trkpt lat="45.605743655274345" lon="4.685620426158519"><ele>304.0</ele><time>2026-05-02T15:25:41Z</time></trkpt><trkpt lat="45.60588881630748" lon="4.685481128911117"><ele>304.0</ele><time>2026-05-02T15:25:42Z</time></trkpt><trkpt lat="45.60605718025273" lon="4.685367437713767"><ele>304.0</ele><time>2026-05-02T15:25:43Z</time></trkpt><trkpt lat="45.60623210331884" lon="4.6852538336366685"><ele>304.0</ele><time>2026-05-02T15:25:44Z</time></trkpt><trkpt lat="45.6064185424149" lon="4.685156500546116"><ele>305.3333333333333</ele><time>2026-05-02T15:25:45Z</time></trkpt><trkpt lat="45.60660074128548" lon="4.685038623343588"><ele>306.6666666666667</ele><time>2026-05-02T15:25:46Z</time></trkpt><trkpt lat="45.606773026980974" lon="4.684917037026173"><ele>308.0</ele><time>2026-05-02T15:25:47Z</time></trkpt><trkpt lat="45.60691921781175" lon="4.684782672640902"><ele>308.33333333333337</ele><time>2026-05-02T15:25:48Z</time></trkpt><trkpt lat="45.60704077234073" lon="4.684628104822005"><ele>308.6666666666667</ele><time>2026-05-02T15:25:49Z</time></trkpt><trkpt lat="45.607149584577506" lon="4.684454175180193"><ele>309.0</ele><time>2026-05-02T15:25:50Z</time></trkpt><trkpt lat="45.607254679727475" lon="4.684257160978254"><ele>310.0</ele><time>2026-05-02T15:25:51Z</time></trkpt><trkpt lat="45.60736901623928" lon="4.68403604437887"><ele>311.0</ele><time>2026-05-02T15:25:52Z</time></trkpt><trkpt lat="45.607495324972696" lon="4.683804024206198"><ele>312.0</ele><time>2026-05-02T15:25:53Z</time></trkpt><trkpt lat="45.60762732269029" lon="4.6835669454665245"><ele>312.6666666666667</ele><time>2026-05-02T15:25:54Z</time></trkpt><trkpt lat="45.60775513352319" lon="4.683327848636158"><ele>313.33333333333337</ele><time>2026-05-02T15:25:55Z</time></trkpt><trkpt lat="45.60786842372586" lon="4.683114763286581"><ele>314.0</ele><time>2026-05-02T15:25:56Z</time></trkpt><trkpt lat="45.60796944231763" lon="4.6829329259086"><ele>314.0</ele><time>2026-05-02T15:25:57Z</time></trkpt><trkpt lat="45.608056524896135" lon="4.682773482327391"><ele>314.0</ele><time>2026-05-02T15:25:58Z</time></trkpt><trkpt lat="45.60813622390696" lon="4.6826182836142385"><ele>314.0</ele><time>2026-05-02T15:25:59Z</time></trkpt><trkpt lat="45.608207423950255" lon="4.682471266414083"><ele>314.0</ele><time>2026-05-02T15:26:00Z</time></trkpt><trkpt lat="45.60826807971936" lon="4.6823406857898044"><ele>314.5</ele><time>2026-05-02T15:26:01Z</time></trkpt><trkpt lat="45.60832032624981" lon="4.682228281157057"><ele>315.0</ele><time>2026-05-02T15:26:02Z</time></trkpt><trkpt lat="45.608363323914666" lon="4.682132238063283"><ele>315.5</ele><time>2026-05-02T15:26:03Z</time></trkpt><trkpt lat="45.60839959798281" lon="4.682051487102644"><ele>316.0</ele><time>2026-05-02T15:26:04Z</time></trkpt><trkpt lat="45.608435732320515" lon="4.681969729783326"><ele>316.5</ele><time>2026-05-02T15:26:05Z</time></trkpt><trkpt lat="45.60846925080544" lon="4.681893437038596"><ele>317.0</ele><time>2026-05-02T15:26:06Z</time></trkpt><trkpt lat="45.60854441960792" lon="4.681722041855744"><ele>317.8</ele><time>2026-05-02T15:26:08Z</time></trkpt><trkpt lat="45.60860192333633" lon="4.681593186518107"><ele>318.6</ele><time>2026-05-02T15:26:09Z</time></trkpt><trkpt lat="45.608643606722474" lon="4.681503880655267"><ele>319.40000000000003</ele><time>2026-05-02T15:26:10Z</time></trkpt><trkpt lat="45.60870264879847" lon="4.6813695290550665"><ele>320.2</ele><time>2026-05-02T15:26:12Z</time></trkpt><trkpt lat="45.608757158384066" lon="4.681238959121547"><ele>321.0</ele><time>2026-05-02T15:26:13Z</time></trkpt><trkpt lat="45.608827329361" lon="4.6810530339879675"><ele>321.25</ele><time>2026-05-02T15:26:14Z</time></trkpt><trkpt lat="45.608883776708566" lon="4.680871889740237"><ele>321.5</ele><time>2026-05-02T15:26:15Z</time></trkpt><trkpt lat="45.60891736124411" lon="4.680680913970121"><ele>321.75</ele><time>2026-05-02T15:26:16Z</time></trkpt><trkpt lat="45.60893195109143" lon="4.680497295098722"><ele>322.0</ele><time>2026-05-02T15:26:17Z</time></trkpt><trkpt lat="45.608924396809655" lon="4.680299448994284"><ele>322.5</ele><time>2026-05-02T15:26:18Z</time></trkpt><trkpt lat="45.60890541688492" lon="4.68009490377589"><ele>323.0</ele><time>2026-05-02T15:26:19Z</time></trkpt><trkpt lat="45.60888590720718" lon="4.67990621284517"><ele>323.5</ele><time>2026-05-02T15:26:20Z</time></trkpt><trkpt lat="45.60885766093925" lon="4.679731944420336"><ele>324.0</ele><time>2026-05-02T15:26:21Z</time></trkpt><trkpt lat="45.6088430417793" lon="4.679538573739361"><ele>324.0</ele><time>2026-05-02T15:26:22Z</time></trkpt><trkpt lat="45.60887597421991" lon="4.6793356441489795"><ele>324.0</ele><time>2026-05-02T15:26:23Z</time></trkpt><trkpt lat="45.60890692825192" lon="4.679123843822863"><ele>324.0</ele><time>2026-05-02T15:26:24Z</time></trkpt><trkpt lat="45.608962498631946" lon="4.67891512420524"><ele>324.0</ele><time>2026-05-02T15:26:25Z</time></trkpt><trkpt lat="45.60904163333994" lon="4.678732112958327"><ele>324.0</ele><time>2026-05-02T15:26:26Z</time></trkpt><trkpt lat="45.60913561942721" lon="4.678557261947579"><ele>324.0</ele><time>2026-05-02T15:26:27Z</time></trkpt><trkpt lat="45.609249849190235" lon="4.6784134164999855"><ele>324.5</ele><time>2026-05-02T15:26:28Z</time></trkpt><trkpt lat="45.609357220184116" lon="4.678254890679681"><ele>325.0</ele><time>2026-05-02T15:26:29Z</time></trkpt><trkpt lat="45.609474971920314" lon="4.678130679362659"><ele>325.5</ele><time>2026-05-02T15:26:30Z</time></trkpt><trkpt lat="45.609575123849865" lon="4.6780028144699735"><ele>326.0</ele><time>2026-05-02T15:26:31Z</time></trkpt><trkpt lat="45.60967729494964" lon="4.677876709816793"><ele>326.0</ele><time>2026-05-02T15:26:32Z</time></trkpt><trkpt lat="45.60981490815472" lon="4.677792334327509"><ele>326.0</ele><time>2026-05-02T15:26:33Z</time></trkpt><trkpt lat="45.609948245577094" lon="4.67767272727836"><ele>326.0</ele><time>2026-05-02T15:26:34Z</time></trkpt><trkpt lat="45.61010218117801" lon="4.677561675164368"><ele>326.33333333333337</ele><time>2026-05-02T15:26:35Z</time></trkpt><trkpt lat="45.61025324845556" lon="4.677440685631809"><ele>326.6666666666667</ele><time>2026-05-02T15:26:36Z</time></trkpt><trkpt lat="45.610396177981556" lon="4.6773301470782"><ele>327.0</ele><time>2026-05-02T15:26:37Z</time></trkpt><trkpt lat="45.61052746573976" lon="4.677227215125031"><ele>327.6666666666667</ele><time>2026-05-02T15:26:38Z</time></trkpt><trkpt lat="45.61065797694071" lon="4.677111424599391"><ele>328.33333333333337</ele><time>2026-05-02T15:26:39Z</time></trkpt><trkpt lat="45.61079415384121" lon="4.6769951458662"><ele>329.0</ele><time>2026-05-02T15:26:40Z</time></trkpt><trkpt lat="45.610924767337885" lon="4.6768660609313"><ele>329.33333333333337</ele><time>2026-05-02T15:26:41Z</time></trkpt><trkpt lat="45.611055167851525" lon="4.676732660680597"><ele>329.6666666666667</ele><time>2026-05-02T15:26:42Z</time></trkpt><trkpt lat="45.611188965512454" lon="4.676603383265983"><ele>330.0</ele><time>2026-05-02T15:26:43Z</time></trkpt><trkpt lat="45.61131815588115" lon="4.676474356006593"><ele>330.0</ele><time>2026-05-02T15:26:44Z</time></trkpt><trkpt lat="45.611435913582994" lon="4.676353561376039"><ele>330.0</ele><time>2026-05-02T15:26:45Z</time></trkpt><trkpt lat="45.61155298647197" lon="4.6762505303288595"><ele>330.0</ele><time>2026-05-02T15:26:46Z</time></trkpt><trkpt lat="45.611656534751475" lon="4.676150535498921"><ele>330.0</ele><time>2026-05-02T15:26:47Z</time></trkpt><trkpt lat="45.611754978542464" lon="4.676054833772726"><ele>329.25</ele><time>2026-05-02T15:26:48Z</time></trkpt><trkpt lat="45.611852537513315" lon="4.67594259209437"><ele>328.5</ele><time>2026-05-02T15:26:49Z</time></trkpt><trkpt lat="45.611932935377446" lon="4.675795421764787"><ele>327.75</ele><time>2026-05-02T15:26:50Z</time></trkpt><trkpt lat="45.61203095070569" lon="4.675608964752663"><ele>327.0</ele><time>2026-05-02T15:26:51Z</time></trkpt><trkpt lat="45.612127079845735" lon="4.675402097825442"><ele>330.3333333333333</ele><time>2026-05-02T15:26:52Z</time></trkpt><trkpt lat="45.61219993284444" lon="4.675214366167775"><ele>333.66666666666663</ele><time>2026-05-02T15:26:53Z</time></trkpt><trkpt lat="45.612278775688516" lon="4.675021604742471"><ele>337.0</ele><time>2026-05-02T15:26:54Z</time></trkpt><trkpt lat="45.61236128568347" lon="4.67483233318025"><ele>337.0</ele><time>2026-05-02T15:26:55Z</time></trkpt><trkpt lat="45.612458214758554" lon="4.67464434518507"><ele>337.0</ele><time>2026-05-02T15:26:56Z</time></trkpt><trkpt lat="45.6125701065406" lon="4.674474725793715"><ele>337.0</ele><time>2026-05-02T15:26:57Z</time></trkpt><trkpt lat="45.61266021234686" lon="4.674321148340667"><ele>336.0</ele><time>2026-05-02T15:26:58Z</time></trkpt><trkpt lat="45.61274686796029" lon="4.674175292918995"><ele>335.0</ele><time>2026-05-02T15:26:59Z</time></trkpt><trkpt lat="45.612831045885855" lon="4.674026277997181"><ele>334.0</ele><time>2026-05-02T15:27:00Z</time></trkpt><trkpt lat="45.61292143010078" lon="4.673872415405847"><ele>333.0</ele><time>2026-05-02T15:27:01Z</time></trkpt><trkpt lat="45.61303124089385" lon="4.673746762086525"><ele>332.5</ele><time>2026-05-02T15:27:02Z</time></trkpt><trkpt lat="45.61315582786713" lon="4.673639717654159"><ele>332.0</ele><time>2026-05-02T15:27:03Z</time></trkpt><trkpt lat="45.61328220381705" lon="4.673553755396995"><ele>331.5</ele><time>2026-05-02T15:27:04Z</time></trkpt><trkpt lat="45.61342199730587" lon="4.6734994814543835"><ele>331.0</ele><time>2026-05-02T15:27:05Z</time></trkpt><trkpt lat="45.613561869898945" lon="4.673452984565345"><ele>332.75</ele><time>2026-05-02T15:27:06Z</time></trkpt><trkpt lat="45.6136964466287" lon="4.673427323870951"><ele>334.5</ele><time>2026-05-02T15:27:07Z</time></trkpt><trkpt lat="45.613818388057254" lon="4.673397462376183"><ele>336.25</ele><time>2026-05-02T15:27:08Z</time></trkpt><trkpt lat="45.61394357241096" lon="4.67337715674853"><ele>338.0</ele><time>2026-05-02T15:27:09Z</time></trkpt><trkpt lat="45.61407434374441" lon="4.673358481039388"><ele>338.0</ele><time>2026-05-02T15:27:10Z</time></trkpt><trkpt lat="45.614205462967554" lon="4.673347402953178"><ele>338.0</ele><time>2026-05-02T15:27:11Z</time></trkpt><trkpt lat="45.61432816262449" lon="4.673339539070023"><ele>338.0</ele><time>2026-05-02T15:27:12Z</time></trkpt><trkpt lat="45.614448031202166" lon="4.673325061625556"><ele>338.0</ele><time>2026-05-02T15:27:13Z</time></trkpt><trkpt lat="45.614563580224775" lon="4.6732756566385385"><ele>340.0</ele><time>2026-05-02T15:27:14Z</time></trkpt><trkpt lat="45.614670977425185" lon="4.6731882664104845"><ele>342.0</ele><time>2026-05-02T15:27:15Z</time></trkpt><trkpt lat="45.61476443359641" lon="4.673087114031647"><ele>344.0</ele><time>2026-05-02T15:27:16Z</time></trkpt><trkpt lat="45.61484212251925" lon="4.672990664163729"><ele>346.0</ele><time>2026-05-02T15:27:17Z</time></trkpt><trkpt lat="45.61491218207096" lon="4.672875970312994"><ele>344.5</ele><time>2026-05-02T15:27:18Z</time></trkpt><trkpt lat="45.6149825649764" lon="4.672719263647821"><ele>343.0</ele><time>2026-05-02T15:27:19Z</time></trkpt><trkpt lat="45.61505205489684" lon="4.672527491353814"><ele>341.5</ele><time>2026-05-02T15:27:20Z</time></trkpt><trkpt lat="45.615103193229814" lon="4.672324965553212"><ele>340.0</ele><time>2026-05-02T15:27:21Z</time></trkpt><trkpt lat="45.61520712558851" lon="4.67213949093944"><ele>340.0</ele><time>2026-05-02T15:27:22Z</time></trkpt><trkpt lat="45.615289643676164" lon="4.671947328571803"><ele>340.0</ele><time>2026-05-02T15:27:23Z</time></trkpt><trkpt lat="45.61536900040325" lon="4.671766485716845"><ele>340.0</ele><time>2026-05-02T15:27:24Z</time></trkpt><trkpt lat="45.61543720718444" lon="4.671585927163083"><ele>339.75</ele><time>2026-05-02T15:27:25Z</time></trkpt><trkpt lat="45.61550141941343" lon="4.671414577894611"><ele>339.5</ele><time>2026-05-02T15:27:26Z</time></trkpt><trkpt lat="45.61556868368774" lon="4.671270546738092"><ele>339.25</ele><time>2026-05-02T15:27:27.001Z</time></trkpt><trkpt lat="45.61563501245268" lon="4.6711373216633145"><ele>339.0</ele><time>2026-05-02T15:27:28.001Z</time></trkpt><trkpt lat="45.61568368577043" lon="4.671007211109404"><ele>338.2857142857143</ele><time>2026-05-02T15:27:29.001Z</time></trkpt><trkpt lat="45.61573487973798" lon="4.6709005114193065"><ele>337.5714285714286</ele><time>2026-05-02T15:27:30.001Z</time></trkpt><trkpt lat="45.61577838404008" lon="4.670814864051579"><ele>336.8571428571429</ele><time>2026-05-02T15:27:31.001Z</time></trkpt><trkpt lat="45.61581465842991" lon="4.670736144068447"><ele>336.1428571428571</ele><time>2026-05-02T15:27:32.001Z</time></trkpt><trkpt lat="45.61585700987439" lon="4.670661721197978"><ele>335.42857142857144</ele><time>2026-05-02T15:27:33.001Z</time></trkpt><trkpt lat="45.61592491133485" lon="4.670625183584542"><ele>334.7142857142857</ele><time>2026-05-02T15:27:34.001Z</time></trkpt><trkpt lat="45.61599789488112" lon="4.670611866403146"><ele>334.0</ele><time>2026-05-02T15:27:35.001Z</time></trkpt><trkpt lat="45.61606546609139" lon="4.670460364058162"><ele>334.0</ele><time>2026-05-02T15:27:37.001Z</time></trkpt><trkpt lat="45.6160553191003" lon="4.670339789635854"><ele>334.0</ele><time>2026-05-02T15:27:38Z</time></trkpt><trkpt lat="45.616053333792905" lon="4.670215805985507"><ele>334.0</ele><time>2026-05-02T15:27:39Z</time></trkpt><trkpt lat="45.6160861420215" lon="4.670107232999315"><ele>334.0</ele><time>2026-05-02T15:27:40Z</time></trkpt><trkpt lat="45.61613163236566" lon="4.670026114436856"><ele>334.0</ele><time>2026-05-02T15:27:41Z</time></trkpt><trkpt lat="45.616192004556694" lon="4.669947947270306"><ele>334.0</ele><time>2026-05-02T15:27:42Z</time></trkpt><trkpt lat="45.616262259772505" lon="4.669853849966093"><ele>335.0</ele><time>2026-05-02T15:27:43Z</time></trkpt><trkpt lat="45.61634675892502" lon="4.669715665803517"><ele>336.0</ele><time>2026-05-02T15:27:44Z</time></trkpt><trkpt lat="45.616458045774955" lon="4.669510527370362"><ele>337.0</ele><time>2026-05-02T15:27:45Z</time></trkpt><trkpt lat="45.616580205790264" lon="4.669328120874493"><ele>338.0</ele><time>2026-05-02T15:27:46Z</time></trkpt><trkpt lat="45.6167175120528" lon="4.669123626091426"><ele>339.0</ele><time>2026-05-02T15:27:47Z</time></trkpt><trkpt lat="45.61686066427196" lon="4.668908929138667"><ele>340.0</ele><time>2026-05-02T15:27:48Z</time></trkpt><trkpt lat="45.617005268186574" lon="4.668719215474978"><ele>341.3333333333333</ele><time>2026-05-02T15:27:49Z</time></trkpt><trkpt lat="45.6171356404764" lon="4.668551582362749"><ele>342.6666666666667</ele><time>2026-05-02T15:27:50Z</time></trkpt><trkpt lat="45.61727410340041" lon="4.668414283306073"><ele>344.0</ele><time>2026-05-02T15:27:51Z</time></trkpt><trkpt lat="45.61740563351355" lon="4.668277714464337"><ele>344.0</ele><time>2026-05-02T15:27:52Z</time></trkpt><trkpt lat="45.617550820700686" lon="4.668178902967586"><ele>344.0</ele><time>2026-05-02T15:27:53Z</time></trkpt><trkpt lat="45.617700418334714" lon="4.668124957043036"><ele>344.0</ele><time>2026-05-02T15:27:54Z</time></trkpt><trkpt lat="45.617856947701036" lon="4.668065578432687"><ele>342.6666666666667</ele><time>2026-05-02T15:27:55Z</time></trkpt><trkpt lat="45.61801277752733" lon="4.66801173647074"><ele>341.3333333333333</ele><time>2026-05-02T15:27:56Z</time></trkpt><trkpt lat="45.618158310019425" lon="4.667928984007057"><ele>340.0</ele><time>2026-05-02T15:27:57Z</time></trkpt><trkpt lat="45.618283464191705" lon="4.667824753686158"><ele>340.66666666666663</ele><time>2026-05-02T15:27:58Z</time></trkpt><trkpt lat="45.618405310686015" lon="4.667678609922552"><ele>341.3333333333333</ele><time>2026-05-02T15:27:59Z</time></trkpt><trkpt lat="45.618538371565506" lon="4.667526206167059"><ele>342.0</ele><time>2026-05-02T15:28:00Z</time></trkpt><trkpt lat="45.61867607456784" lon="4.66738665055143"><ele>342.0</ele><time>2026-05-02T15:28:01Z</time></trkpt><trkpt lat="45.61880980912045" lon="4.66724575223004"><ele>342.0</ele><time>2026-05-02T15:28:02Z</time></trkpt><trkpt lat="45.61894567070281" lon="4.667104690775073"><ele>342.0</ele><time>2026-05-02T15:28:03Z</time></trkpt><trkpt lat="45.61910352762192" lon="4.667008414940422"><ele>342.3333333333333</ele><time>2026-05-02T15:28:04Z</time></trkpt><trkpt lat="45.61925432038414" lon="4.666906012760257"><ele>342.66666666666663</ele><time>2026-05-02T15:28:05Z</time></trkpt><trkpt lat="45.61942369136617" lon="4.666830653103178"><ele>343.0</ele><time>2026-05-02T15:28:06Z</time></trkpt><trkpt lat="45.61958924295117" lon="4.666747579741342"><ele>343.0</ele><time>2026-05-02T15:28:07Z</time></trkpt><trkpt lat="45.61974214320191" lon="4.666669528103028"><ele>343.0</ele><time>2026-05-02T15:28:08Z</time></trkpt><trkpt lat="45.6198780072833" lon="4.666606812514664"><ele>343.0</ele><time>2026-05-02T15:28:09Z</time></trkpt><trkpt lat="45.62000247922079" lon="4.6665620479500545"><ele>343.0</ele><time>2026-05-02T15:28:10Z</time></trkpt><trkpt lat="45.62011933361448" lon="4.666554945618775"><ele>343.0</ele><time>2026-05-02T15:28:11Z</time></trkpt><trkpt lat="45.62024102030935" lon="4.666582507110422"><ele>343.0</ele><time>2026-05-02T15:28:12Z</time></trkpt><trkpt lat="45.620362762219195" lon="4.666638112748062"><ele>343.0</ele><time>2026-05-02T15:28:13Z</time></trkpt><trkpt lat="45.62050494453617" lon="4.666713655188226"><ele>343.0</ele><time>2026-05-02T15:28:14Z</time></trkpt><trkpt lat="45.620654015972384" lon="4.66676412106651"><ele>345.0</ele><time>2026-05-02T15:28:15Z</time></trkpt><trkpt lat="45.62078683682735" lon="4.666802006813371"><ele>347.0</ele><time>2026-05-02T15:28:16Z</time></trkpt><trkpt lat="45.620916490900335" lon="4.666833978044904"><ele>349.0</ele><time>2026-05-02T15:28:17Z</time></trkpt><trkpt lat="45.62104434093837" lon="4.666848299325257"><ele>351.0</ele><time>2026-05-02T15:28:18Z</time></trkpt><trkpt lat="45.62117167718768" lon="4.666812739287986"><ele>354.0</ele><time>2026-05-02T15:28:19Z</time></trkpt><trkpt lat="45.62129331511182" lon="4.666725485372558"><ele>357.0</ele><time>2026-05-02T15:28:20Z</time></trkpt><trkpt lat="45.621415522037694" lon="4.66660740291918"><ele>360.0</ele><time>2026-05-02T15:28:21Z</time></trkpt><trkpt lat="45.62153131567766" lon="4.66646058796428"><ele>363.0</ele><time>2026-05-02T15:28:22Z</time></trkpt><trkpt lat="45.62164533438532" lon="4.66630693666346"><ele>363.0</ele><time>2026-05-02T15:28:23Z</time></trkpt><trkpt lat="45.621768487465324" lon="4.666161377325428"><ele>363.0</ele><time>2026-05-02T15:28:24Z</time></trkpt><trkpt lat="45.6218971690421" lon="4.666017988612222"><ele>363.0</ele><time>2026-05-02T15:28:25Z</time></trkpt><trkpt lat="45.62202619664672" lon="4.665874301679759"><ele>364.75</ele><time>2026-05-02T15:28:26Z</time></trkpt><trkpt lat="45.622144087122244" lon="4.665751730938319"><ele>366.5</ele><time>2026-05-02T15:28:27Z</time></trkpt><trkpt lat="45.62225580131825" lon="4.66562759048958"><ele>368.25</ele><time>2026-05-02T15:28:28Z</time></trkpt><trkpt lat="45.622382644554285" lon="4.6655250119915515"><ele>370.0</ele><time>2026-05-02T15:28:29Z</time></trkpt><trkpt lat="45.622523525652724" lon="4.665466793737283"><ele>370.0</ele><time>2026-05-02T15:28:30Z</time></trkpt><trkpt lat="45.62267174715152" lon="4.665439819095255"><ele>370.0</ele><time>2026-05-02T15:28:31Z</time></trkpt><trkpt lat="45.62282690955588" lon="4.665449554769399"><ele>370.0</ele><time>2026-05-02T15:28:32Z</time></trkpt><trkpt lat="45.6229810241948" lon="4.6654969297943305"><ele>372.0</ele><time>2026-05-02T15:28:33Z</time></trkpt><trkpt lat="45.623125405124675" lon="4.665580186345074"><ele>374.0</ele><time>2026-05-02T15:28:34Z</time></trkpt><trkpt lat="45.623268850898" lon="4.665704998988997"><ele>376.0</ele><time>2026-05-02T15:28:35Z</time></trkpt><trkpt lat="45.62336797317941" lon="4.66585309854844"><ele>376.0</ele><time>2026-05-02T15:28:36Z</time></trkpt><trkpt lat="45.623443723354235" lon="4.66598959772347"><ele>376.0</ele><time>2026-05-02T15:28:37Z</time></trkpt><trkpt lat="45.62351037996484" lon="4.666104931308095"><ele>376.0</ele><time>2026-05-02T15:28:38Z</time></trkpt><trkpt lat="45.623572075361054" lon="4.666196001273166"><ele>376.0</ele><time>2026-05-02T15:28:39Z</time></trkpt><trkpt lat="45.623622510518636" lon="4.66626834355644"><ele>376.0</ele><time>2026-05-02T15:28:40Z</time></trkpt><trkpt lat="45.62368701197188" lon="4.666363126954128"><ele>376.0</ele><time>2026-05-02T15:28:42Z</time></trkpt><trkpt lat="45.62377804590958" lon="4.666263043757097"><ele>376.0</ele><time>2026-05-02T15:28:43Z</time></trkpt><trkpt lat="45.623831672159774" lon="4.66615504686586"><ele>376.0</ele><time>2026-05-02T15:28:44Z</time></trkpt><trkpt lat="45.62389276907623" lon="4.6659932780238975"><ele>376.0</ele><time>2026-05-02T15:28:45Z</time></trkpt><trkpt lat="45.623952959023974" lon="4.665810042392939"><ele>376.0</ele><time>2026-05-02T15:28:46Z</time></trkpt><trkpt lat="45.6239879823156" lon="4.665622439832461"><ele>376.0</ele><time>2026-05-02T15:28:47Z</time></trkpt><trkpt lat="45.62399480260279" lon="4.665425416106231"><ele>376.0</ele><time>2026-05-02T15:28:48Z</time></trkpt><trkpt lat="45.62403046601142" lon="4.665230941408623"><ele>376.0</ele><time>2026-05-02T15:28:49Z</time></trkpt><trkpt lat="45.62408444461732" lon="4.665019662651756"><ele>376.0</ele><time>2026-05-02T15:28:50Z</time></trkpt><trkpt lat="45.62413096913765" lon="4.664793235980295"><ele>376.0</ele><time>2026-05-02T15:28:51Z</time></trkpt><trkpt lat="45.624187240798776" lon="4.66457880154345"><ele>376.0</ele><time>2026-05-02T15:28:52Z</time></trkpt><trkpt lat="45.62425013892522" lon="4.664400300909615"><ele>374.25</ele><time>2026-05-02T15:28:53Z</time></trkpt><trkpt lat="45.62431647948291" lon="4.6642319927343445"><ele>372.5</ele><time>2026-05-02T15:28:54Z</time></trkpt><trkpt lat="45.624390554815044" lon="4.664073247253588"><ele>370.75</ele><time>2026-05-02T15:28:55Z</time></trkpt><trkpt lat="45.62447723429583" lon="4.6639103036641485"><ele>369.0</ele><time>2026-05-02T15:28:56Z</time></trkpt><trkpt lat="45.624556789673385" lon="4.663731982414478"><ele>371.5</ele><time>2026-05-02T15:28:57Z</time></trkpt><trkpt lat="45.62464786380609" lon="4.6635873766125675"><ele>374.0</ele><time>2026-05-02T15:28:58Z</time></trkpt><trkpt lat="45.62473077869053" lon="4.663428293007781"><ele>376.5</ele><time>2026-05-02T15:28:59Z</time></trkpt><trkpt lat="45.62481490536035" lon="4.663265430721205"><ele>379.0</ele><time>2026-05-02T15:29:00Z</time></trkpt><trkpt lat="45.62490244765961" lon="4.66310203108928"><ele>379.0</ele><time>2026-05-02T15:29:01Z</time></trkpt><trkpt lat="45.62498597481475" lon="4.6629464047148925"><ele>379.0</ele><time>2026-05-02T15:29:02Z</time></trkpt><trkpt lat="45.6250650271839" lon="4.6628036472048855"><ele>379.0</ele><time>2026-05-02T15:29:03Z</time></trkpt><trkpt lat="45.625143261193976" lon="4.662660160895734"><ele>379.0</ele><time>2026-05-02T15:29:04Z</time></trkpt><trkpt lat="45.62521096516062" lon="4.662504976537301"><ele>379.25</ele><time>2026-05-02T15:29:05Z</time></trkpt><trkpt lat="45.625292139636535" lon="4.662345005871473"><ele>379.5</ele><time>2026-05-02T15:29:06Z</time></trkpt><trkpt lat="45.62536936537334" lon="4.662172777325308"><ele>379.75</ele><time>2026-05-02T15:29:07Z</time></trkpt><trkpt lat="45.625445694373155" lon="4.661995335138187"><ele>380.0</ele><time>2026-05-02T15:29:08Z</time></trkpt><trkpt lat="45.625523197702286" lon="4.661812478556328"><ele>380.0</ele><time>2026-05-02T15:29:09Z</time></trkpt><trkpt lat="45.625589245130676" lon="4.661647430399392"><ele>380.0</ele><time>2026-05-02T15:29:10Z</time></trkpt><trkpt lat="45.625647503116475" lon="4.6614869694398084"><ele>380.0</ele><time>2026-05-02T15:29:11Z</time></trkpt><trkpt lat="45.62571043751519" lon="4.661327660859058"><ele>380.0</ele><time>2026-05-02T15:29:12Z</time></trkpt><trkpt lat="45.625774143422085" lon="4.661158213585768"><ele>378.5</ele><time>2026-05-02T15:29:13Z</time></trkpt><trkpt lat="45.62584227561493" lon="4.660982808298941"><ele>377.0</ele><time>2026-05-02T15:29:14Z</time></trkpt><trkpt lat="45.62590838445892" lon="4.660797648966269"><ele>375.5</ele><time>2026-05-02T15:29:15Z</time></trkpt><trkpt lat="45.62596037441268" lon="4.660598526189775"><ele>374.0</ele><time>2026-05-02T15:29:16Z</time></trkpt><trkpt lat="45.62600588967307" lon="4.660415402632761"><ele>372.5</ele><time>2026-05-02T15:29:17Z</time></trkpt><trkpt lat="45.62605539027311" lon="4.6602521162879444"><ele>371.0</ele><time>2026-05-02T15:29:18Z</time></trkpt><trkpt lat="45.62609235746813" lon="4.660077319194908"><ele>369.5</ele><time>2026-05-02T15:29:19Z</time></trkpt><trkpt lat="45.62616770308601" lon="4.659911612107727"><ele>368.0</ele><time>2026-05-02T15:29:20Z</time></trkpt><trkpt lat="45.626268067752584" lon="4.659767270413325"><ele>370.4</ele><time>2026-05-02T15:29:21Z</time></trkpt><trkpt lat="45.62634260399331" lon="4.659626221320005"><ele>372.79999999999995</ele><time>2026-05-02T15:29:22Z</time></trkpt><trkpt lat="45.62639713877539" lon="4.659484339584472"><ele>375.2</ele><time>2026-05-02T15:29:23Z</time></trkpt><trkpt lat="45.626442408085296" lon="4.659344611230623"><ele>377.6</ele><time>2026-05-02T15:29:24Z</time></trkpt><trkpt lat="45.62646769361336" lon="4.659212268757742"><ele>380.0</ele><time>2026-05-02T15:29:25Z</time></trkpt><trkpt lat="45.62649129374469" lon="4.659113168910793"><ele>380.0</ele><time>2026-05-02T15:29:26Z</time></trkpt><trkpt lat="45.626540877995204" lon="4.658941921263371"><ele>380.0</ele><time>2026-05-02T15:29:28Z</time></trkpt><trkpt lat="45.62656758163356" lon="4.658829709692414"><ele>380.0</ele><time>2026-05-02T15:29:29Z</time></trkpt><trkpt lat="45.62659599754094" lon="4.658732580244972"><ele>380.0</ele><time>2026-05-02T15:29:30Z</time></trkpt><trkpt lat="45.626620248160364" lon="4.658627647914153"><ele>380.0</ele><time>2026-05-02T15:29:31Z</time></trkpt><trkpt lat="45.626659398265986" lon="4.658465169470486"><ele>379.0</ele><time>2026-05-02T15:29:32Z</time></trkpt><trkpt lat="45.626726571834396" lon="4.658241158881545"><ele>378.0</ele><time>2026-05-02T15:29:33Z</time></trkpt><trkpt lat="45.626794714041885" lon="4.65798773973355"><ele>377.0</ele><time>2026-05-02T15:29:34Z</time></trkpt><trkpt lat="45.62686254043178" lon="4.65773630426668"><ele>376.0</ele><time>2026-05-02T15:29:35Z</time></trkpt><trkpt lat="45.62690786994433" lon="4.657511883182575"><ele>375.0</ele><time>2026-05-02T15:29:36Z</time></trkpt><trkpt lat="45.626939816243414" lon="4.657304754725086"><ele>374.0</ele><time>2026-05-02T15:29:37Z</time></trkpt><trkpt lat="45.626963723304726" lon="4.657085627376868"><ele>376.75</ele><time>2026-05-02T15:29:38Z</time></trkpt><trkpt lat="45.627001282928006" lon="4.656886158230422"><ele>379.5</ele><time>2026-05-02T15:29:39Z</time></trkpt><trkpt lat="45.627055512351625" lon="4.656711997600259"><ele>382.25</ele><time>2026-05-02T15:29:40Z</time></trkpt><trkpt lat="45.627127044461304" lon="4.65657304832421"><ele>385.0</ele><time>2026-05-02T15:29:41Z</time></trkpt><trkpt lat="45.627223046223406" lon="4.656475590177795"><ele>385.0</ele><time>2026-05-02T15:29:42Z</time></trkpt><trkpt lat="45.62732836523418" lon="4.656417349157604"><ele>385.0</ele><time>2026-05-02T15:29:43Z</time></trkpt><trkpt lat="45.627457018332585" lon="4.656387473191465"><ele>385.0</ele><time>2026-05-02T15:29:44Z</time></trkpt><trkpt lat="45.62759722696259" lon="4.656353720183948"><ele>385.0</ele><time>2026-05-02T15:29:45Z</time></trkpt><trkpt lat="45.62774197771985" lon="4.656323454365447"><ele>384.0</ele><time>2026-05-02T15:29:46Z</time></trkpt><trkpt lat="45.627878076653424" lon="4.656242481897414"><ele>383.0</ele><time>2026-05-02T15:29:47Z</time></trkpt><trkpt lat="45.62800679741873" lon="4.6561190018526375"><ele>382.0</ele><time>2026-05-02T15:29:48Z</time></trkpt><trkpt lat="45.62813581220424" lon="4.655977895449794"><ele>382.0</ele><time>2026-05-02T15:29:49Z</time></trkpt><trkpt lat="45.62826914843662" lon="4.6558427797648045"><ele>382.0</ele><time>2026-05-02T15:29:50Z</time></trkpt><trkpt lat="45.62839514117204" lon="4.655723590302075"><ele>382.0</ele><time>2026-05-02T15:29:51Z</time></trkpt><trkpt lat="45.62850840648697" lon="4.655611711884948"><ele>382.0</ele><time>2026-05-02T15:29:52Z</time></trkpt><trkpt lat="45.62862622447812" lon="4.6554878232804215"><ele>382.0</ele><time>2026-05-02T15:29:53Z</time></trkpt><trkpt lat="45.62874145976467" lon="4.655337304436099"><ele>382.0</ele><time>2026-05-02T15:29:54Z</time></trkpt><trkpt lat="45.62883530025323" lon="4.655148568285246"><ele>382.75</ele><time>2026-05-02T15:29:55Z</time></trkpt><trkpt lat="45.62892387508866" lon="4.654952157061312"><ele>383.5</ele><time>2026-05-02T15:29:56Z</time></trkpt><trkpt lat="45.62900221943883" lon="4.654779890808302"><ele>384.25</ele><time>2026-05-02T15:29:57Z</time></trkpt><trkpt lat="45.62907562370722" lon="4.654635706615414"><ele>385.0</ele><time>2026-05-02T15:29:58Z</time></trkpt><trkpt lat="45.62914440161428" lon="4.654503470228197"><ele>384.5</ele><time>2026-05-02T15:29:59Z</time></trkpt><trkpt lat="45.62921098788023" lon="4.654378247011857"><ele>384.0</ele><time>2026-05-02T15:30:00Z</time></trkpt><trkpt lat="45.62926183954805" lon="4.654242438307094"><ele>383.5</ele><time>2026-05-02T15:30:01Z</time></trkpt><trkpt lat="45.62929903182704" lon="4.654069713098192"><ele>383.0</ele><time>2026-05-02T15:30:02Z</time></trkpt><trkpt lat="45.62928585624527" lon="4.653869707936139"><ele>383.0</ele><time>2026-05-02T15:30:03Z</time></trkpt><trkpt lat="45.62924664730077" lon="4.653680940754385"><ele>383.0</ele><time>2026-05-02T15:30:04Z</time></trkpt><trkpt lat="45.62920591123106" lon="4.653507364552411"><ele>383.0</ele><time>2026-05-02T15:30:05Z</time></trkpt><trkpt lat="45.629176429176276" lon="4.653351350571016"><ele>383.0</ele><time>2026-05-02T15:30:06Z</time></trkpt><trkpt lat="45.62915692358737" lon="4.6531937013092115"><ele>384.0</ele><time>2026-05-02T15:30:07Z</time></trkpt><trkpt lat="45.629173204138084" lon="4.653038491724505"><ele>385.0</ele><time>2026-05-02T15:30:08Z</time></trkpt><trkpt lat="45.6291880085846" lon="4.652875358713519"><ele>386.0</ele><time>2026-05-02T15:30:09Z</time></trkpt><trkpt lat="45.629212229917556" lon="4.652698404875462"><ele>387.0</ele><time>2026-05-02T15:30:10Z</time></trkpt><trkpt lat="45.629249825821766" lon="4.652502432354841"><ele>388.66666666666663</ele><time>2026-05-02T15:30:11Z</time></trkpt><trkpt lat="45.62928380455917" lon="4.652290253880543"><ele>390.3333333333333</ele><time>2026-05-02T15:30:12Z</time></trkpt><trkpt lat="45.62929176299906" lon="4.65205838827303"><ele>392.0</ele><time>2026-05-02T15:30:13Z</time></trkpt><trkpt lat="45.629278458224235" lon="4.651815837571678"><ele>393.3333333333333</ele><time>2026-05-02T15:30:14Z</time></trkpt><trkpt lat="45.62926453935452" lon="4.651563793004054"><ele>394.66666666666663</ele><time>2026-05-02T15:30:15Z</time></trkpt><trkpt lat="45.62924995769575" lon="4.651307402287819"><ele>396.0</ele><time>2026-05-02T15:30:16Z</time></trkpt><trkpt lat="45.62924332769305" lon="4.651084882107251"><ele>396.33333333333337</ele><time>2026-05-02T15:30:17Z</time></trkpt><trkpt lat="45.62923073196437" lon="4.650854751476619"><ele>396.6666666666667</ele><time>2026-05-02T15:30:18Z</time></trkpt><trkpt lat="45.62923518758992" lon="4.650601718525236"><ele>397.0</ele><time>2026-05-02T15:30:19Z</time></trkpt><trkpt lat="45.62924963974155" lon="4.650338174804361"><ele>397.33333333333337</ele><time>2026-05-02T15:30:20Z</time></trkpt><trkpt lat="45.6292755360334" lon="4.650075269199014"><ele>397.66666666666663</ele><time>2026-05-02T15:30:21Z</time></trkpt><trkpt lat="45.62930803486812" lon="4.649809448785503"><ele>398.0</ele><time>2026-05-02T15:30:22Z</time></trkpt><trkpt lat="45.62933381132053" lon="4.649547038954266"><ele>399.0</ele><time>2026-05-02T15:30:23Z</time></trkpt><trkpt lat="45.62935440053255" lon="4.6492919083294835"><ele>400.0</ele><time>2026-05-02T15:30:24Z</time></trkpt><trkpt lat="45.62937058020884" lon="4.649063553133832"><ele>401.0</ele><time>2026-05-02T15:30:25Z</time></trkpt><trkpt lat="45.62938134353046" lon="4.648825509022085"><ele>402.0</ele><time>2026-05-02T15:30:26Z</time></trkpt><trkpt lat="45.629369407221105" lon="4.648569290820559"><ele>403.0</ele><time>2026-05-02T15:30:27Z</time></trkpt><trkpt lat="45.62933903816024" lon="4.64831456015022"><ele>404.0</ele><time>2026-05-02T15:30:28Z</time></trkpt><trkpt lat="45.629309217149924" lon="4.648086418019783"><ele>404.0</ele><time>2026-05-02T15:30:29Z</time></trkpt><trkpt lat="45.629288015584756" lon="4.647867538981597"><ele>404.0</ele><time>2026-05-02T15:30:30Z</time></trkpt><trkpt lat="45.62929774401676" lon="4.647642181672917"><ele>404.0</ele><time>2026-05-02T15:30:31Z</time></trkpt><trkpt lat="45.62932687550692" lon="4.647419724609185"><ele>404.3333333333333</ele><time>2026-05-02T15:30:32Z</time></trkpt><trkpt lat="45.62937661168059" lon="4.647224345362808"><ele>404.66666666666663</ele><time>2026-05-02T15:30:33Z</time></trkpt><trkpt lat="45.62944494831029" lon="4.647044039838873"><ele>405.0</ele><time>2026-05-02T15:30:34Z</time></trkpt><trkpt lat="45.62952965030278" lon="4.646846001574937"><ele>405.0</ele><time>2026-05-02T15:30:35Z</time></trkpt><trkpt lat="45.62961779073871" lon="4.646609100075091"><ele>405.0</ele><time>2026-05-02T15:30:36Z</time></trkpt><trkpt lat="45.62972251095888" lon="4.64636160053813"><ele>405.0</ele><time>2026-05-02T15:30:37Z</time></trkpt><trkpt lat="45.6298271188888" lon="4.646118580595627"><ele>405.0</ele><time>2026-05-02T15:30:38Z</time></trkpt><trkpt lat="45.62992045876679" lon="4.645905256094869"><ele>405.0</ele><time>2026-05-02T15:30:39Z</time></trkpt><trkpt lat="45.63000844266913" lon="4.645708119748391"><ele>405.0</ele><time>2026-05-02T15:30:40Z</time></trkpt><trkpt lat="45.630090213589575" lon="4.645514514375287"><ele>405.0</ele><time>2026-05-02T15:30:41Z</time></trkpt><trkpt lat="45.63017064276056" lon="4.6453108331048725"><ele>405.0</ele><time>2026-05-02T15:30:42Z</time></trkpt><trkpt lat="45.63024958885034" lon="4.645130629195676"><ele>405.0</ele><time>2026-05-02T15:30:43Z</time></trkpt><trkpt lat="45.63031331488633" lon="4.644980302038602"><ele>405.0</ele><time>2026-05-02T15:30:44Z</time></trkpt><trkpt lat="45.63036124786795" lon="4.644831825874587"><ele>407.25</ele><time>2026-05-02T15:30:45Z</time></trkpt><trkpt lat="45.630403574984236" lon="4.644665193945041"><ele>409.5</ele><time>2026-05-02T15:30:46Z</time></trkpt><trkpt lat="45.63043385303069" lon="4.644482577300518"><ele>411.75</ele><time>2026-05-02T15:30:47Z</time></trkpt><trkpt lat="45.630441049011885" lon="4.644289714724062"><ele>414.0</ele><time>2026-05-02T15:30:48Z</time></trkpt><trkpt lat="45.63043435771054" lon="4.644075554565076"><ele>414.0</ele><time>2026-05-02T15:30:49Z</time></trkpt><trkpt lat="45.63042924090754" lon="4.643840937483662"><ele>414.0</ele><time>2026-05-02T15:30:50Z</time></trkpt><trkpt lat="45.63042334182452" lon="4.643609982827082"><ele>414.0</ele><time>2026-05-02T15:30:51Z</time></trkpt><trkpt lat="45.6304218453122" lon="4.643420242692"><ele>415.6</ele><time>2026-05-02T15:30:52Z</time></trkpt><trkpt lat="45.630418131715366" lon="4.643260079448205"><ele>417.2</ele><time>2026-05-02T15:30:53Z</time></trkpt><trkpt lat="45.63041117855403" lon="4.643107282236756"><ele>418.8</ele><time>2026-05-02T15:30:54Z</time></trkpt><trkpt lat="45.63039974027308" lon="4.642982172593584"><ele>420.40000000000003</ele><time>2026-05-02T15:30:55Z</time></trkpt><trkpt lat="45.63037713762353" lon="4.642878232264356"><ele>422.0</ele><time>2026-05-02T15:30:56Z</time></trkpt><trkpt lat="45.630346459582086" lon="4.642776531651107"><ele>423.0</ele><time>2026-05-02T15:30:57Z</time></trkpt><trkpt lat="45.63032195151858" lon="4.642689760142495"><ele>424.0</ele><time>2026-05-02T15:30:58Z</time></trkpt><trkpt lat="45.63031664877625" lon="4.642536086915102"><ele>425.00000000000006</ele><time>2026-05-02T15:31:00Z</time></trkpt><trkpt lat="45.63039219223757" lon="4.6424923051445885"><ele>426.0</ele><time>2026-05-02T15:31:02Z</time></trkpt><trkpt lat="45.630501468465226" lon="4.642591043596983"><ele>427.0</ele><time>2026-05-02T15:31:04Z</time></trkpt><trkpt lat="45.63055011744816" lon="4.642691790785454"><ele>425.75</ele><time>2026-05-02T15:31:05Z</time></trkpt><trkpt lat="45.63062519663067" lon="4.642844485423311"><ele>424.5</ele><time>2026-05-02T15:31:06Z</time></trkpt><trkpt lat="45.63072071143291" lon="4.643013084862975"><ele>423.25</ele><time>2026-05-02T15:31:07Z</time></trkpt><trkpt lat="45.63082319169568" lon="4.643181513997808"><ele>422.0</ele><time>2026-05-02T15:31:08Z</time></trkpt><trkpt lat="45.63091177336426" lon="4.643316342048389"><ele>422.0</ele><time>2026-05-02T15:31:09Z</time></trkpt><trkpt lat="45.63098196997758" lon="4.643420106345464"><ele>422.0</ele><time>2026-05-02T15:31:10Z</time></trkpt><trkpt lat="45.63104574822348" lon="4.643514581544663"><ele>422.0</ele><time>2026-05-02T15:31:11Z</time></trkpt><trkpt lat="45.63112277592519" lon="4.6435925927062485"><ele>422.0</ele><time>2026-05-02T15:31:12Z</time></trkpt><trkpt lat="45.63121415318391" lon="4.643631306993296"><ele>422.0</ele><time>2026-05-02T15:31:13Z</time></trkpt><trkpt lat="45.63131965167595" lon="4.643639526829809"><ele>424.25</ele><time>2026-05-02T15:31:14Z</time></trkpt><trkpt lat="45.63143926876188" lon="4.643616910424978"><ele>426.5</ele><time>2026-05-02T15:31:15Z</time></trkpt><trkpt lat="45.63157579717861" lon="4.643583863307702"><ele>428.75</ele><time>2026-05-02T15:31:16Z</time></trkpt><trkpt lat="45.63172187306037" lon="4.643564917124999"><ele>431.0</ele><time>2026-05-02T15:31:17Z</time></trkpt><trkpt lat="45.631878777884495" lon="4.6435337582929"><ele>433.0</ele><time>2026-05-02T15:31:18Z</time></trkpt><trkpt lat="45.63204835184502" lon="4.643506407729967"><ele>435.0</ele><time>2026-05-02T15:31:19Z</time></trkpt><trkpt lat="45.63221691582451" lon="4.643478369848217"><ele>437.0</ele><time>2026-05-02T15:31:20Z</time></trkpt><trkpt lat="45.632391899918204" lon="4.643452536213915"><ele>437.0</ele><time>2026-05-02T15:31:21Z</time></trkpt><trkpt lat="45.63256668545439" lon="4.643418993225312"><ele>437.0</ele><time>2026-05-02T15:31:22Z</time></trkpt><trkpt lat="45.63272671877935" lon="4.643399650485767"><ele>437.0</ele><time>2026-05-02T15:31:23Z</time></trkpt><trkpt lat="45.63287396929441" lon="4.643370607173435"><ele>437.5</ele><time>2026-05-02T15:31:24Z</time></trkpt><trkpt lat="45.63301555727727" lon="4.643343388874088"><ele>438.0</ele><time>2026-05-02T15:31:25Z</time></trkpt><trkpt lat="45.63313873774963" lon="4.643321472546091"><ele>438.5</ele><time>2026-05-02T15:31:26Z</time></trkpt><trkpt lat="45.63325293124562" lon="4.643306138652423"><ele>439.0</ele><time>2026-05-02T15:31:27Z</time></trkpt><trkpt lat="45.633359646338654" lon="4.643291730240031"><ele>439.0</ele><time>2026-05-02T15:31:28Z</time></trkpt><trkpt lat="45.63347135703818" lon="4.643258340321786"><ele>439.0</ele><time>2026-05-02T15:31:29Z</time></trkpt><trkpt lat="45.633580867628204" lon="4.643233745606315"><ele>439.0</ele><time>2026-05-02T15:31:30Z</time></trkpt><trkpt lat="45.63366807594326" lon="4.643198407894003"><ele>439.0</ele><time>2026-05-02T15:31:31Z</time></trkpt><trkpt lat="45.63375917529549" lon="4.643161144986254"><ele>439.0</ele><time>2026-05-02T15:31:32Z</time></trkpt><trkpt lat="45.633848360678606" lon="4.643124501545463"><ele>439.50000000000006</ele><time>2026-05-02T15:31:33Z</time></trkpt><trkpt lat="45.63392694858478" lon="4.64307802232642"><ele>440.0</ele><time>2026-05-02T15:31:34Z</time></trkpt><trkpt lat="45.633991885523095" lon="4.643019846953769"><ele>440.5</ele><time>2026-05-02T15:31:35Z</time></trkpt><trkpt lat="45.63403395790066" lon="4.642940159589476"><ele>441.0</ele><time>2026-05-02T15:31:36Z</time></trkpt><trkpt lat="45.63404929879436" lon="4.6428226399884815"><ele>441.50000000000006</ele><time>2026-05-02T15:31:37Z</time></trkpt><trkpt lat="45.63403667962088" lon="4.6426873646429545"><ele>442.0</ele><time>2026-05-02T15:31:38Z</time></trkpt><trkpt lat="45.63399195427056" lon="4.642557143600795"><ele>443.20000000000005</ele><time>2026-05-02T15:31:39Z</time></trkpt><trkpt lat="45.63391693274862" lon="4.6424541199457545"><ele>444.40000000000003</ele><time>2026-05-02T15:31:40Z</time></trkpt><trkpt lat="45.63382039092293" lon="4.6424005100344745"><ele>445.59999999999997</ele><time>2026-05-02T15:31:41Z</time></trkpt><trkpt lat="45.63371995940559" lon="4.642409524520998"><ele>446.79999999999995</ele><time>2026-05-02T15:31:42Z</time></trkpt><trkpt lat="45.63361091847084" lon="4.64245169483594"><ele>448.0</ele><time>2026-05-02T15:31:43Z</time></trkpt><trkpt lat="45.633485286361235" lon="4.642446275828532"><ele>448.2</ele><time>2026-05-02T15:31:44Z</time></trkpt><trkpt lat="45.63337201222742" lon="4.642431709075796"><ele>448.4</ele><time>2026-05-02T15:31:45Z</time></trkpt><trkpt lat="45.6332783389722" lon="4.6423943473696045"><ele>448.59999999999997</ele><time>2026-05-02T15:31:46Z</time></trkpt><trkpt lat="45.63318865768023" lon="4.6423457164620725"><ele>448.79999999999995</ele><time>2026-05-02T15:31:47Z</time></trkpt><trkpt lat="45.633112026438795" lon="4.642239491581758"><ele>449.0</ele><time>2026-05-02T15:31:48Z</time></trkpt><trkpt lat="45.63305650353453" lon="4.642089041010657"><ele>449.5</ele><time>2026-05-02T15:31:49Z</time></trkpt><trkpt lat="45.632964439273515" lon="4.641955744727557"><ele>450.0</ele><time>2026-05-02T15:31:50Z</time></trkpt><trkpt lat="45.63289251193702" lon="4.641820532282824"><ele>450.5</ele><time>2026-05-02T15:31:51Z</time></trkpt><trkpt lat="45.632829283454875" lon="4.641705298998613"><ele>451.0</ele><time>2026-05-02T15:31:52Z</time></trkpt><trkpt lat="45.63276347417799" lon="4.6415908200678855"><ele>451.0</ele><time>2026-05-02T15:31:53Z</time></trkpt><trkpt lat="45.63269755642056" lon="4.6414666366730755"><ele>451.0</ele><time>2026-05-02T15:31:54Z</time></trkpt><trkpt lat="45.63263296704588" lon="4.641344037611086"><ele>451.0</ele><time>2026-05-02T15:31:55Z</time></trkpt><trkpt lat="45.63257972043819" lon="4.641211555151773"><ele>451.0</ele><time>2026-05-02T15:31:56Z</time></trkpt><trkpt lat="45.63254499154024" lon="4.641066955126346"><ele>451.0</ele><time>2026-05-02T15:31:57Z</time></trkpt><trkpt lat="45.63255794385066" lon="4.640910526457995"><ele>452.4</ele><time>2026-05-02T15:31:58Z</time></trkpt><trkpt lat="45.63257114597263" lon="4.6407643973261745"><ele>453.8</ele><time>2026-05-02T15:31:59Z</time></trkpt><trkpt lat="45.63259421562797" lon="4.640620991823105"><ele>455.19999999999993</ele><time>2026-05-02T15:32:00Z</time></trkpt><trkpt lat="45.6326133700243" lon="4.64047838327393"><ele>456.59999999999997</ele><time>2026-05-02T15:32:01Z</time></trkpt><trkpt lat="45.632648487975096" lon="4.640365615472044"><ele>458.0</ele><time>2026-05-02T15:32:02Z</time></trkpt><trkpt lat="45.63268380411209" lon="4.640194163575004"><ele>458.71428571428567</ele><time>2026-05-02T15:32:04Z</time></trkpt><trkpt lat="45.63271256641726" lon="4.640102843984253"><ele>459.42857142857144</ele><time>2026-05-02T15:32:05Z</time></trkpt><trkpt lat="45.63274165229475" lon="4.640010081521214"><ele>460.1428571428571</ele><time>2026-05-02T15:32:06Z</time></trkpt><trkpt lat="45.63277221460151" lon="4.639917648475177"><ele>460.85714285714283</ele><time>2026-05-02T15:32:07Z</time></trkpt><trkpt lat="45.63279886587225" lon="4.639821742908802"><ele>461.57142857142856</ele><time>2026-05-02T15:32:08Z</time></trkpt><trkpt lat="45.63284969291693" lon="4.639756668584436"><ele>462.2857142857143</ele><time>2026-05-02T15:32:09Z</time></trkpt><trkpt lat="45.63289504488602" lon="4.639692107043703"><ele>463.0</ele><time>2026-05-02T15:32:10Z</time></trkpt><trkpt lat="45.632930572886416" lon="4.639598667006915"><ele>464.33333333333337</ele><time>2026-05-02T15:32:11Z</time></trkpt><trkpt lat="45.63298037018009" lon="4.639498425671312"><ele>465.6666666666667</ele><time>2026-05-02T15:32:12Z</time></trkpt><trkpt lat="45.6330222363547" lon="4.6393989771771444"><ele>467.0</ele><time>2026-05-02T15:32:13Z</time></trkpt><trkpt lat="45.63306197304582" lon="4.639294679034256"><ele>468.33333333333337</ele><time>2026-05-02T15:32:14Z</time></trkpt><trkpt lat="45.63312621825996" lon="4.639219865730234"><ele>469.6666666666667</ele><time>2026-05-02T15:32:15Z</time></trkpt><trkpt lat="45.633179485425416" lon="4.639141605160553"><ele>471.0</ele><time>2026-05-02T15:32:16Z</time></trkpt><trkpt lat="45.633244244823295" lon="4.639083508933484"><ele>471.5</ele><time>2026-05-02T15:32:17Z</time></trkpt><trkpt lat="45.633316643330204" lon="4.63904835125097"><ele>472.0</ele><time>2026-05-02T15:32:18Z</time></trkpt><trkpt lat="45.63339375688985" lon="4.638983230190106"><ele>472.5</ele><time>2026-05-02T15:32:19Z</time></trkpt><trkpt lat="45.63346141471193" lon="4.638935112370314"><ele>473.0</ele><time>2026-05-02T15:32:20Z</time></trkpt><trkpt lat="45.633530644200846" lon="4.63886597367287"><ele>473.5</ele><time>2026-05-02T15:32:21Z</time></trkpt><trkpt lat="45.633603863144174" lon="4.638787339858542"><ele>474.0</ele><time>2026-05-02T15:32:22Z</time></trkpt><trkpt lat="45.63366981201131" lon="4.6387011457320595"><ele>474.6666666666667</ele><time>2026-05-02T15:32:23Z</time></trkpt><trkpt lat="45.63374580970729" lon="4.6386358160106695"><ele>475.33333333333337</ele><time>2026-05-02T15:32:24Z</time></trkpt><trkpt lat="45.633807279769535" lon="4.638568781274023"><ele>476.0</ele><time>2026-05-02T15:32:25Z</time></trkpt><trkpt lat="45.63386444168005" lon="4.638506750628854"><ele>476.6666666666667</ele><time>2026-05-02T15:32:26Z</time></trkpt><trkpt lat="45.633916727216786" lon="4.63843906852118"><ele>477.33333333333337</ele><time>2026-05-02T15:32:27Z</time></trkpt><trkpt lat="45.633952217097566" lon="4.638361491622452"><ele>478.0</ele><time>2026-05-02T15:32:28Z</time></trkpt><trkpt lat="45.634010309296414" lon="4.638273469607558"><ele>478.59999999999997</ele><time>2026-05-02T15:32:30Z</time></trkpt><trkpt lat="45.63408035026145" lon="4.638232092222728"><ele>479.19999999999993</ele><time>2026-05-02T15:32:32Z</time></trkpt><trkpt lat="45.63415684661036" lon="4.638124375772198"><ele>479.8</ele><time>2026-05-02T15:32:34Z</time></trkpt><trkpt lat="45.634108903857566" lon="4.637973053822377"><ele>480.4</ele><time>2026-05-02T15:32:36Z</time></trkpt><trkpt lat="45.63410597840445" lon="4.637871088265817"><ele>481.0</ele><time>2026-05-02T15:32:37Z</time></trkpt><trkpt lat="45.63410886375343" lon="4.63774473662409"><ele>482.0</ele><time>2026-05-02T15:32:38Z</time></trkpt><trkpt lat="45.63410446316169" lon="4.637577249989472"><ele>483.0</ele><time>2026-05-02T15:32:39Z</time></trkpt><trkpt lat="45.634076074901714" lon="4.637419734792507"><ele>484.0</ele><time>2026-05-02T15:32:40Z</time></trkpt><trkpt lat="45.63403819205763" lon="4.637251237964108"><ele>485.0</ele><time>2026-05-02T15:32:41Z</time></trkpt><trkpt lat="45.63400191040408" lon="4.637085757969376"><ele>486.25</ele><time>2026-05-02T15:32:42Z</time></trkpt><trkpt lat="45.63397515324384" lon="4.636921576244757"><ele>487.5</ele><time>2026-05-02T15:32:43Z</time></trkpt><trkpt lat="45.633965492790885" lon="4.636751590177462"><ele>488.75</ele><time>2026-05-02T15:32:44Z</time></trkpt><trkpt lat="45.633973772314064" lon="4.636576154825559"><ele>490.0</ele><time>2026-05-02T15:32:45Z</time></trkpt><trkpt lat="45.633976451100196" lon="4.6363885051893"><ele>490.0</ele><time>2026-05-02T15:32:46Z</time></trkpt><trkpt lat="45.63399198438169" lon="4.636201701757859"><ele>490.0</ele><time>2026-05-02T15:32:47Z</time></trkpt><trkpt lat="45.634003256912806" lon="4.636009173762204"><ele>490.0</ele><time>2026-05-02T15:32:48Z</time></trkpt><trkpt lat="45.63402756312944" lon="4.635812477970405"><ele>490.0</ele><time>2026-05-02T15:32:49Z</time></trkpt><trkpt lat="45.63406686713674" lon="4.635634635149739"><ele>491.0</ele><time>2026-05-02T15:32:50Z</time></trkpt><trkpt lat="45.634113868862634" lon="4.635460744725649"><ele>492.0</ele><time>2026-05-02T15:32:51Z</time></trkpt><trkpt lat="45.63417700817508" lon="4.635280297922215"><ele>493.0</ele><time>2026-05-02T15:32:52Z</time></trkpt><trkpt lat="45.634248997504706" lon="4.635102903747526"><ele>494.0</ele><time>2026-05-02T15:32:53Z</time></trkpt><trkpt lat="45.634338106327206" lon="4.634941897252531"><ele>494.0</ele><time>2026-05-02T15:32:54Z</time></trkpt><trkpt lat="45.634406229817046" lon="4.634772961852759"><ele>494.0</ele><time>2026-05-02T15:32:55Z</time></trkpt><trkpt lat="45.63447951743032" lon="4.634619171270654"><ele>494.0</ele><time>2026-05-02T15:32:56Z</time></trkpt><trkpt lat="45.63453691763248" lon="4.63445147484563"><ele>494.0</ele><time>2026-05-02T15:32:57Z</time></trkpt><trkpt lat="45.63459239450573" lon="4.6343010684424675"><ele>497.4</ele><time>2026-05-02T15:32:58Z</time></trkpt><trkpt lat="45.63462574079096" lon="4.634166209074015"><ele>500.79999999999995</ele><time>2026-05-02T15:32:59Z</time></trkpt><trkpt lat="45.634656897433246" lon="4.634024478109107"><ele>504.20000000000005</ele><time>2026-05-02T15:33:00Z</time></trkpt><trkpt lat="45.634687778752166" lon="4.633877093774946"><ele>507.6</ele><time>2026-05-02T15:33:01Z</time></trkpt><trkpt lat="45.634721100907385" lon="4.633747549923938"><ele>511.0</ele><time>2026-05-02T15:33:02Z</time></trkpt><trkpt lat="45.6347496000469" lon="4.6336377393206325"><ele>511.1666666666667</ele><time>2026-05-02T15:33:03Z</time></trkpt><trkpt lat="45.634769494391634" lon="4.633533323296584"><ele>511.33333333333337</ele><time>2026-05-02T15:33:04Z</time></trkpt><trkpt lat="45.63477446191299" lon="4.633431678518385"><ele>511.5</ele><time>2026-05-02T15:33:05Z</time></trkpt><trkpt lat="45.634754394654564" lon="4.633319108418798"><ele>511.66666666666663</ele><time>2026-05-02T15:33:06Z</time></trkpt><trkpt lat="45.634703876335365" lon="4.63322593770677"><ele>511.8333333333333</ele><time>2026-05-02T15:33:07Z</time></trkpt><trkpt lat="45.6346229319197" lon="4.633168652027282"><ele>512.0</ele><time>2026-05-02T15:33:08Z</time></trkpt><trkpt lat="45.63453159907043" lon="4.633174281317329"><ele>511.6</ele><time>2026-05-02T15:33:09Z</time></trkpt><trkpt lat="45.63445254222028" lon="4.633241765392399"><ele>511.20000000000005</ele><time>2026-05-02T15:33:10Z</time></trkpt><trkpt lat="45.634379091743966" lon="4.63333825912211"><ele>510.8</ele><time>2026-05-02T15:33:11Z</time></trkpt><trkpt lat="45.634291523179314" lon="4.633438781846034"><ele>510.4</ele><time>2026-05-02T15:33:12Z</time></trkpt><trkpt lat="45.63418104126296" lon="4.633560436505233"><ele>510.0</ele><time>2026-05-02T15:33:13Z</time></trkpt><trkpt lat="45.63407030364978" lon="4.633681917532429"><ele>508.5</ele><time>2026-05-02T15:33:14Z</time></trkpt><trkpt lat="45.6339549230407" lon="4.6337706183982865"><ele>507.0</ele><time>2026-05-02T15:33:15Z</time></trkpt><trkpt lat="45.63385267301846" lon="4.633867039909696"><ele>505.5</ele><time>2026-05-02T15:33:16Z</time></trkpt><trkpt lat="45.633731018161214" lon="4.6339336000588345"><ele>504.0</ele><time>2026-05-02T15:33:17Z</time></trkpt><trkpt lat="45.63361666582661" lon="4.633965076327979"><ele>504.0</ele><time>2026-05-02T15:33:18Z</time></trkpt><trkpt lat="45.63349624137973" lon="4.6339434753203035"><ele>504.0</ele><time>2026-05-02T15:33:19Z</time></trkpt><trkpt lat="45.63338621279899" lon="4.633929349802851"><ele>504.0</ele><time>2026-05-02T15:33:20Z</time></trkpt><trkpt lat="45.633293213775985" lon="4.633831719357786"><ele>504.0</ele><time>2026-05-02T15:33:21Z</time></trkpt><trkpt lat="45.63321474635303" lon="4.633726111461478"><ele>507.0</ele><time>2026-05-02T15:33:22Z</time></trkpt><trkpt lat="45.6331526754647" lon="4.6335955214616495"><ele>510.0</ele><time>2026-05-02T15:33:23Z</time></trkpt><trkpt lat="45.63307480743412" lon="4.633450232342002"><ele>513.0</ele><time>2026-05-02T15:33:24Z</time></trkpt><trkpt lat="45.633010715137864" lon="4.633262517644529"><ele>516.0</ele><time>2026-05-02T15:33:25Z</time></trkpt><trkpt lat="45.6329400280301" lon="4.633076985922173"><ele>516.0</ele><time>2026-05-02T15:33:26Z</time></trkpt><trkpt lat="45.63286834988758" lon="4.63290566901827"><ele>516.0</ele><time>2026-05-02T15:33:27Z</time></trkpt><trkpt lat="45.63280341511567" lon="4.632734693378388"><ele>516.0</ele><time>2026-05-02T15:33:28Z</time></trkpt><trkpt lat="45.632752302806935" lon="4.632549169195639"><ele>516.0</ele><time>2026-05-02T15:33:29Z</time></trkpt><trkpt lat="45.6327087234326" lon="4.632352875437926"><ele>516.0</ele><time>2026-05-02T15:33:30Z</time></trkpt><trkpt lat="45.632665343882095" lon="4.63216042246723"><ele>516.0</ele><time>2026-05-02T15:33:31Z</time></trkpt><trkpt lat="45.632633762269855" lon="4.63196020437722"><ele>516.0</ele><time>2026-05-02T15:33:32Z</time></trkpt><trkpt lat="45.63261163251974" lon="4.631751201736746"><ele>516.0</ele><time>2026-05-02T15:33:33Z</time></trkpt><trkpt lat="45.632599519381905" lon="4.631529108276731"><ele>516.0</ele><time>2026-05-02T15:33:34Z</time></trkpt><trkpt lat="45.63260177860745" lon="4.63130317084129"><ele>516.0</ele><time>2026-05-02T15:33:35Z</time></trkpt><trkpt lat="45.632604374210125" lon="4.631102476352844"><ele>516.0</ele><time>2026-05-02T15:33:36Z</time></trkpt><trkpt lat="45.63260011961202" lon="4.63092709936838"><ele>516.0</ele><time>2026-05-02T15:33:37Z</time></trkpt><trkpt lat="45.632600130983356" lon="4.630753390663119"><ele>516.2</ele><time>2026-05-02T15:33:38Z</time></trkpt><trkpt lat="45.63260507682419" lon="4.630594836402523"><ele>516.4000000000001</ele><time>2026-05-02T15:33:39Z</time></trkpt><trkpt lat="45.63262528169888" lon="4.630447940357921"><ele>516.6</ele><time>2026-05-02T15:33:40Z</time></trkpt><trkpt lat="45.632671407667985" lon="4.630314177274549"><ele>516.8000000000001</ele><time>2026-05-02T15:33:41Z</time></trkpt><trkpt lat="45.63274088179694" lon="4.6301962808984065"><ele>517.0</ele><time>2026-05-02T15:33:42Z</time></trkpt><trkpt lat="45.6328363309779" lon="4.6301014675471555"><ele>521.0</ele><time>2026-05-02T15:33:43Z</time></trkpt><trkpt lat="45.63294683356844" lon="4.630031552156388"><ele>525.0</ele><time>2026-05-02T15:33:44Z</time></trkpt><trkpt lat="45.633064512404395" lon="4.629958907385136"><ele>529.0</ele><time>2026-05-02T15:33:45Z</time></trkpt><trkpt lat="45.633175922677" lon="4.629881315101998"><ele>533.0</ele><time>2026-05-02T15:33:46Z</time></trkpt><trkpt lat="45.63327701883346" lon="4.6297771260968945"><ele>533.0</ele><time>2026-05-02T15:33:47Z</time></trkpt><trkpt lat="45.633364426082515" lon="4.6296448775923675"><ele>533.0</ele><time>2026-05-02T15:33:48Z</time></trkpt><trkpt lat="45.6334315003643" lon="4.629494962511199"><ele>533.0</ele><time>2026-05-02T15:33:49Z</time></trkpt><trkpt lat="45.63347973746458" lon="4.6293284135050445"><ele>533.0</ele><time>2026-05-02T15:33:50Z</time></trkpt><trkpt lat="45.63351418039919" lon="4.629168364853604"><ele>533.0</ele><time>2026-05-02T15:33:51Z</time></trkpt><trkpt lat="45.63352359203509" lon="4.629023250942186"><ele>533.0</ele><time>2026-05-02T15:33:52Z</time></trkpt><trkpt lat="45.63350500334533" lon="4.628886180324532"><ele>533.0</ele><time>2026-05-02T15:33:53Z</time></trkpt><trkpt lat="45.633468480829755" lon="4.628760339109889"><ele>533.0</ele><time>2026-05-02T15:33:54Z</time></trkpt><trkpt lat="45.63342045929445" lon="4.628646346470986"><ele>533.0</ele><time>2026-05-02T15:33:55Z</time></trkpt><trkpt lat="45.63336544961458" lon="4.628542481304644"><ele>533.8</ele><time>2026-05-02T15:33:56Z</time></trkpt><trkpt lat="45.63331046598737" lon="4.628435875509265"><ele>534.5999999999999</ele><time>2026-05-02T15:33:57Z</time></trkpt><trkpt lat="45.63327035593914" lon="4.628300989016957"><ele>535.4000000000001</ele><time>2026-05-02T15:33:58Z</time></trkpt><trkpt lat="45.63325402070537" lon="4.6281533010354545"><ele>536.2</ele><time>2026-05-02T15:33:59Z</time></trkpt><trkpt lat="45.63324656824051" lon="4.628002640630381"><ele>537.0</ele><time>2026-05-02T15:34:00Z</time></trkpt><trkpt lat="45.63325260224624" lon="4.627846554834343"><ele>537.0</ele><time>2026-05-02T15:34:01Z</time></trkpt><trkpt lat="45.633275620233945" lon="4.627696183559758"><ele>537.0</ele><time>2026-05-02T15:34:02Z</time></trkpt><trkpt lat="45.633316082682036" lon="4.627555803222441"><ele>537.0</ele><time>2026-05-02T15:34:03Z</time></trkpt><trkpt lat="45.633365458701256" lon="4.627424690667609"><ele>537.0</ele><time>2026-05-02T15:34:04Z</time></trkpt><trkpt lat="45.63342598089434" lon="4.627308341656469"><ele>537.0</ele><time>2026-05-02T15:34:05Z</time></trkpt><trkpt lat="45.63349759435542" lon="4.627182811829135"><ele>537.0</ele><time>2026-05-02T15:34:06Z</time></trkpt><trkpt lat="45.63358962461003" lon="4.627020780613918"><ele>537.0</ele><time>2026-05-02T15:34:07Z</time></trkpt><trkpt lat="45.63367493403687" lon="4.626874477867897"><ele>537.0</ele><time>2026-05-02T15:34:08Z</time></trkpt><trkpt lat="45.633739338197294" lon="4.626761570603563"><ele>537.0</ele><time>2026-05-02T15:34:09Z</time></trkpt><trkpt lat="45.633801621163364" lon="4.626660848238782"><ele>540.75</ele><time>2026-05-02T15:34:10Z</time></trkpt><trkpt lat="45.63389300578124" lon="4.626538268776615"><ele>544.5</ele><time>2026-05-02T15:34:11Z</time></trkpt><trkpt lat="45.63401962711503" lon="4.626449382564278"><ele>548.25</ele><time>2026-05-02T15:34:12Z</time></trkpt><trkpt lat="45.634105693130245" lon="4.626346460156653"><ele>552.0</ele><time>2026-05-02T15:34:13Z</time></trkpt><trkpt lat="45.63419426427653" lon="4.626277911555418"><ele>552.0</ele><time>2026-05-02T15:34:14Z</time></trkpt><trkpt lat="45.63424301925532" lon="4.626169146074678"><ele>552.0</ele><time>2026-05-02T15:34:15Z</time></trkpt><trkpt lat="45.63424677181735" lon="4.626034177342429"><ele>552.0</ele><time>2026-05-02T15:34:16Z</time></trkpt><trkpt lat="45.63421460865357" lon="4.625895738434415"><ele>552.0</ele><time>2026-05-02T15:34:17Z</time></trkpt><trkpt lat="45.63415977133835" lon="4.625764994221199"><ele>552.0</ele><time>2026-05-02T15:34:18Z</time></trkpt><trkpt lat="45.63407659988707" lon="4.625651044961559"><ele>553.5</ele><time>2026-05-02T15:34:19Z</time></trkpt><trkpt lat="45.63397496924875" lon="4.6255617286362725"><ele>555.0</ele><time>2026-05-02T15:34:20Z</time></trkpt><trkpt lat="45.63385696699407" lon="4.625494654050909"><ele>556.5</ele><time>2026-05-02T15:34:21Z</time></trkpt><trkpt lat="45.63374298440523" lon="4.625430768110851"><ele>558.0</ele><time>2026-05-02T15:34:22Z</time></trkpt><trkpt lat="45.63362894197183" lon="4.625376558331966"><ele>556.6</ele><time>2026-05-02T15:34:23Z</time></trkpt><trkpt lat="45.63353398386884" lon="4.625279101864539"><ele>555.1999999999999</ele><time>2026-05-02T15:34:24Z</time></trkpt><trkpt lat="45.63345325116607" lon="4.625189090547468"><ele>553.8</ele><time>2026-05-02T15:34:25Z</time></trkpt><trkpt lat="45.63339161223851" lon="4.625074937944105"><ele>552.4</ele><time>2026-05-02T15:34:26Z</time></trkpt><trkpt lat="45.63334919488621" lon="4.624945800774956"><ele>551.0</ele><time>2026-05-02T15:34:27Z</time></trkpt><trkpt lat="45.63332841021646" lon="4.624808377341819"><ele>551.0</ele><time>2026-05-02T15:34:28Z</time></trkpt><trkpt lat="45.63329622983787" lon="4.624651990826905"><ele>551.0</ele><time>2026-05-02T15:34:29Z</time></trkpt><trkpt lat="45.633298385408104" lon="4.624477969640501"><ele>551.0</ele><time>2026-05-02T15:34:30Z</time></trkpt><trkpt lat="45.63330648520577" lon="4.624303080027591"><ele>551.0</ele><time>2026-05-02T15:34:31Z</time></trkpt><trkpt lat="45.6333276222692" lon="4.6241537019794325"><ele>551.0</ele><time>2026-05-02T15:34:32Z</time></trkpt><trkpt lat="45.633381423766046" lon="4.6240119336353525"><ele>551.0</ele><time>2026-05-02T15:34:33Z</time></trkpt><trkpt lat="45.633450930035096" lon="4.623877232683211"><ele>551.0</ele><time>2026-05-02T15:34:34Z</time></trkpt><trkpt lat="45.63352997903749" lon="4.623747639635511"><ele>551.0</ele><time>2026-05-02T15:34:35Z</time></trkpt><trkpt lat="45.63362428855429" lon="4.6236324511711"><ele>554.25</ele><time>2026-05-02T15:34:36Z</time></trkpt><trkpt lat="45.63373907697731" lon="4.623559998959315"><ele>557.5</ele><time>2026-05-02T15:34:37Z</time></trkpt><trkpt lat="45.63385209440432" lon="4.623490080427381"><ele>560.75</ele><time>2026-05-02T15:34:38Z</time></trkpt><trkpt lat="45.63397334899761" lon="4.623450931195853"><ele>564.0</ele><time>2026-05-02T15:34:39Z</time></trkpt><trkpt lat="45.63410667866542" lon="4.623423016151781"><ele>564.0</ele><time>2026-05-02T15:34:40Z</time></trkpt><trkpt lat="45.63424149372846" lon="4.623384701574209"><ele>564.0</ele><time>2026-05-02T15:34:41Z</time></trkpt><trkpt lat="45.63438002663916" lon="4.623378381485753"><ele>564.0</ele><time>2026-05-02T15:34:42Z</time></trkpt><trkpt lat="45.634511464427646" lon="4.623417363681108"><ele>564.0</ele><time>2026-05-02T15:34:43Z</time></trkpt><trkpt lat="45.63464380717937" lon="4.623464889718458"><ele>565.6666666666666</ele><time>2026-05-02T15:34:44Z</time></trkpt><trkpt lat="45.63478358888311" lon="4.623504259835594"><ele>567.3333333333333</ele><time>2026-05-02T15:34:45Z</time></trkpt><trkpt lat="45.634925704039624" lon="4.623569402813718"><ele>569.0</ele><time>2026-05-02T15:34:46Z</time></trkpt><trkpt lat="45.63507799935368" lon="4.6236329303625565"><ele>571.0</ele><time>2026-05-02T15:34:47Z</time></trkpt><trkpt lat="45.63522007783712" lon="4.623690979305843"><ele>573.0</ele><time>2026-05-02T15:34:48Z</time></trkpt><trkpt lat="45.63534400044692" lon="4.623742883981908"><ele>575.0</ele><time>2026-05-02T15:34:49Z</time></trkpt><trkpt lat="45.635450184490495" lon="4.6237888271322065"><ele>577.0</ele><time>2026-05-02T15:34:50Z</time></trkpt><trkpt lat="45.63554261654993" lon="4.623824014282282"><ele>578.0</ele><time>2026-05-02T15:34:51Z</time></trkpt><trkpt lat="45.635632706861905" lon="4.623840615532393"><ele>579.0</ele><time>2026-05-02T15:34:52Z</time></trkpt><trkpt lat="45.635728043006715" lon="4.6238231023395056"><ele>580.0</ele><time>2026-05-02T15:34:53Z</time></trkpt><trkpt lat="45.63581339420044" lon="4.623743456123851"><ele>581.0</ele><time>2026-05-02T15:34:54Z</time></trkpt><trkpt lat="45.635878400900424" lon="4.623619116284208"><ele>582.0</ele><time>2026-05-02T15:34:55Z</time></trkpt><trkpt lat="45.63591315240681" lon="4.6234650388705605"><ele>582.0</ele><time>2026-05-02T15:34:56Z</time></trkpt><trkpt lat="45.63591714477177" lon="4.623313000597302"><ele>582.0</ele><time>2026-05-02T15:34:57Z</time></trkpt><trkpt lat="45.63590987227345" lon="4.623153320419058"><ele>582.0</ele><time>2026-05-02T15:34:58Z</time></trkpt><trkpt lat="45.63585154979683" lon="4.62301023116458"><ele>582.0</ele><time>2026-05-02T15:34:59Z</time></trkpt><trkpt lat="45.63577089254413" lon="4.62288322261086"><ele>583.75</ele><time>2026-05-02T15:35:00Z</time></trkpt><trkpt lat="45.63566723463134" lon="4.6227833553944775"><ele>585.5</ele><time>2026-05-02T15:35:01Z</time></trkpt><trkpt lat="45.63555526652454" lon="4.622694108546924"><ele>587.25</ele><time>2026-05-02T15:35:02Z</time></trkpt><trkpt lat="45.63546919244373" lon="4.6225723527301374"><ele>589.0</ele><time>2026-05-02T15:35:03Z</time></trkpt><trkpt lat="45.63539164302416" lon="4.622442756683358"><ele>589.0</ele><time>2026-05-02T15:35:04Z</time></trkpt><trkpt lat="45.635337103462874" lon="4.622294147572745"><ele>589.0</ele><time>2026-05-02T15:35:05Z</time></trkpt><trkpt lat="45.6352809440005" lon="4.622158112351082"><ele>589.0</ele><time>2026-05-02T15:35:06Z</time></trkpt><trkpt lat="45.635290357934856" lon="4.621987934154448"><ele>589.0</ele><time>2026-05-02T15:35:07Z</time></trkpt><trkpt lat="45.63530608059587" lon="4.6218335367509535"><ele>589.0</ele><time>2026-05-02T15:35:08Z</time></trkpt><trkpt lat="45.63535350009587" lon="4.6216987809560495"><ele>589.0</ele><time>2026-05-02T15:35:09Z</time></trkpt><trkpt lat="45.63542728056056" lon="4.621588050028278"><ele>589.0</ele><time>2026-05-02T15:35:10Z</time></trkpt><trkpt lat="45.63551377947719" lon="4.6214949667732075"><ele>589.0</ele><time>2026-05-02T15:35:11Z</time></trkpt><trkpt lat="45.635614742950565" lon="4.6214356219401616"><ele>589.0</ele><time>2026-05-02T15:35:12Z</time></trkpt><trkpt lat="45.63572595314267" lon="4.62140683743452"><ele>589.0</ele><time>2026-05-02T15:35:13Z</time></trkpt><trkpt lat="45.63585659384878" lon="4.621388322061512"><ele>589.0</ele><time>2026-05-02T15:35:14Z</time></trkpt><trkpt lat="45.63600696356934" lon="4.621370769828078"><ele>589.0</ele><time>2026-05-02T15:35:15Z</time></trkpt><trkpt lat="45.63616891090749" lon="4.621376178227171"><ele>589.0</ele><time>2026-05-02T15:35:16Z</time></trkpt><trkpt lat="45.636338599195724" lon="4.621388323117779"><ele>591.6666666666667</ele><time>2026-05-02T15:35:17Z</time></trkpt><trkpt lat="45.636502070501926" lon="4.621373925108395"><ele>594.3333333333334</ele><time>2026-05-02T15:35:18Z</time></trkpt><trkpt lat="45.63666349889274" lon="4.621381365665376"><ele>597.0</ele><time>2026-05-02T15:35:19Z</time></trkpt><trkpt lat="45.63681412746099" lon="4.621385375272073"><ele>597.0</ele><time>2026-05-02T15:35:20Z</time></trkpt><trkpt lat="45.63694672981854" lon="4.62138891903236"><ele>597.0</ele><time>2026-05-02T15:35:21Z</time></trkpt><trkpt lat="45.637068947151455" lon="4.621394235175689"><ele>597.0</ele><time>2026-05-02T15:35:22Z</time></trkpt><trkpt lat="45.63717466022576" lon="4.621400751960905"><ele>597.0</ele><time>2026-05-02T15:35:23Z</time></trkpt><trkpt lat="45.63727370841596" lon="4.621395899311491"><ele>597.2</ele><time>2026-05-02T15:35:24Z</time></trkpt><trkpt lat="45.63736407241722" lon="4.62134783030572"><ele>597.4000000000001</ele><time>2026-05-02T15:35:25Z</time></trkpt><trkpt lat="45.637437454799645" lon="4.621244257154501"><ele>597.5999999999999</ele><time>2026-05-02T15:35:26Z</time></trkpt><trkpt lat="45.63748599349839" lon="4.621099841594844"><ele>597.8</ele><time>2026-05-02T15:35:27Z</time></trkpt><trkpt lat="45.6375249049128" lon="4.620937725559597"><ele>598.0</ele><time>2026-05-02T15:35:28Z</time></trkpt><trkpt lat="45.63757295265186" lon="4.620789414279652"><ele>598.0</ele><time>2026-05-02T15:35:29Z</time></trkpt><trkpt lat="45.637646895548336" lon="4.620669289508708"><ele>598.0</ele><time>2026-05-02T15:35:30Z</time></trkpt><trkpt lat="45.63775681641671" lon="4.620602884038779"><ele>598.0</ele><time>2026-05-02T15:35:31Z</time></trkpt><trkpt lat="45.6378606105735" lon="4.620505712686724"><ele>598.0</ele><time>2026-05-02T15:35:32Z</time></trkpt><trkpt lat="45.637938759849334" lon="4.62041224654678"><ele>601.6</ele><time>2026-05-02T15:35:33Z</time></trkpt><trkpt lat="45.637988849521506" lon="4.62030556260901"><ele>605.1999999999999</ele><time>2026-05-02T15:35:34Z</time></trkpt><trkpt lat="45.63802414344916" lon="4.620189228353461"><ele>608.8</ele><time>2026-05-02T15:35:35Z</time></trkpt><trkpt lat="45.638021865163694" lon="4.620057699089289"><ele>612.4</ele><time>2026-05-02T15:35:36Z</time></trkpt><trkpt lat="45.637973389084394" lon="4.619930532213552"><ele>616.0</ele><time>2026-05-02T15:35:37Z</time></trkpt><trkpt lat="45.637911498156924" lon="4.619855113566371"><ele>614.75</ele><time>2026-05-02T15:35:38Z</time></trkpt><trkpt lat="45.637791033702825" lon="4.619770177635985"><ele>613.5</ele><time>2026-05-02T15:35:39Z</time></trkpt><trkpt lat="45.63766968163294" lon="4.619675132398191"><ele>612.25</ele><time>2026-05-02T15:35:40Z</time></trkpt><trkpt lat="45.637543104610394" lon="4.619571051442524"><ele>611.0</ele><time>2026-05-02T15:35:41Z</time></trkpt><trkpt lat="45.637434048472144" lon="4.619435000725854"><ele>611.0</ele><time>2026-05-02T15:35:42Z</time></trkpt><trkpt lat="45.63732932866616" lon="4.6193115919738155"><ele>611.0</ele><time>2026-05-02T15:35:43Z</time></trkpt><trkpt lat="45.63724151272077" lon="4.619182856048266"><ele>611.0</ele><time>2026-05-02T15:35:44Z</time></trkpt><trkpt lat="45.63716926530598" lon="4.619068903388302"><ele>611.0</ele><time>2026-05-02T15:35:45Z</time></trkpt><trkpt lat="45.63714538374538" lon="4.6189221311509145"><ele>611.0</ele><time>2026-05-02T15:35:46Z</time></trkpt><trkpt lat="45.63712022068787" lon="4.618789973148216"><ele>611.0</ele><time>2026-05-02T15:35:47Z</time></trkpt><trkpt lat="45.637148414964784" lon="4.618638720108376"><ele>611.0</ele><time>2026-05-02T15:35:48Z</time></trkpt><trkpt lat="45.63715848472116" lon="4.618483798655118"><ele>611.0</ele><time>2026-05-02T15:35:49Z</time></trkpt><trkpt lat="45.637230045751004" lon="4.618350635914169"><ele>611.0</ele><time>2026-05-02T15:35:50Z</time></trkpt><trkpt lat="45.6373031572301" lon="4.618219092769857"><ele>612.0</ele><time>2026-05-02T15:35:51Z</time></trkpt><trkpt lat="45.63738362824981" lon="4.618069216883093"><ele>613.0</ele><time>2026-05-02T15:35:52Z</time></trkpt><trkpt lat="45.63749668314013" lon="4.617960279363416"><ele>614.0</ele><time>2026-05-02T15:35:53Z</time></trkpt><trkpt lat="45.637575644075504" lon="4.617842128464594"><ele>615.0</ele><time>2026-05-02T15:35:54Z</time></trkpt><trkpt lat="45.63767824073796" lon="4.617739966185866"><ele>616.5</ele><time>2026-05-02T15:35:55Z</time></trkpt><trkpt lat="45.63781372749928" lon="4.61765758526793"><ele>618.0</ele><time>2026-05-02T15:35:56Z</time></trkpt><trkpt lat="45.637937686668266" lon="4.617565825479079"><ele>619.5</ele><time>2026-05-02T15:35:57Z</time></trkpt><trkpt lat="45.63805649628048" lon="4.61750722112628"><ele>621.0</ele><time>2026-05-02T15:35:58Z</time></trkpt><trkpt lat="45.63816546526498" lon="4.617446496240483"><ele>621.0</ele><time>2026-05-02T15:35:59Z</time></trkpt><trkpt lat="45.63827068065944" lon="4.617381127373093"><ele>621.0</ele><time>2026-05-02T15:36:00Z</time></trkpt><trkpt lat="45.63835368644508" lon="4.6173000359681255"><ele>621.0</ele><time>2026-05-02T15:36:01Z</time></trkpt><trkpt lat="45.638434955341395" lon="4.617200333474507"><ele>621.0</ele><time>2026-05-02T15:36:02Z</time></trkpt><trkpt lat="45.638487439624306" lon="4.617072036333186"><ele>621.0</ele><time>2026-05-02T15:36:03Z</time></trkpt><trkpt lat="45.6385228268484" lon="4.616917415128372"><ele>620.5</ele><time>2026-05-02T15:36:04Z</time></trkpt><trkpt lat="45.638531798047595" lon="4.616752628289509"><ele>620.0</ele><time>2026-05-02T15:36:05Z</time></trkpt><trkpt lat="45.63850341977815" lon="4.616586831021026"><ele>619.5</ele><time>2026-05-02T15:36:06Z</time></trkpt><trkpt lat="45.63843886797299" lon="4.616427323406124"><ele>619.0</ele><time>2026-05-02T15:36:07Z</time></trkpt><trkpt lat="45.638380102031306" lon="4.616245851556273"><ele>619.5</ele><time>2026-05-02T15:36:08Z</time></trkpt><trkpt lat="45.63835185660126" lon="4.616084103081018"><ele>620.0</ele><time>2026-05-02T15:36:09Z</time></trkpt><trkpt lat="45.63835541776652" lon="4.615925812863032"><ele>620.5</ele><time>2026-05-02T15:36:10Z</time></trkpt><trkpt lat="45.63837909214982" lon="4.615754319699074"><ele>621.0</ele><time>2026-05-02T15:36:11Z</time></trkpt><trkpt lat="45.638420367374906" lon="4.615584916905507"><ele>621.0</ele><time>2026-05-02T15:36:12Z</time></trkpt><trkpt lat="45.63845630168865" lon="4.61539736391373"><ele>621.0</ele><time>2026-05-02T15:36:13Z</time></trkpt><trkpt lat="45.638515952063365" lon="4.615212342594863"><ele>621.0</ele><time>2026-05-02T15:36:14Z</time></trkpt><trkpt lat="45.638575447861214" lon="4.6150521911738"><ele>621.0</ele><time>2026-05-02T15:36:15Z</time></trkpt><trkpt lat="45.63864696635751" lon="4.61487689566363"><ele>622.3333333333334</ele><time>2026-05-02T15:36:16Z</time></trkpt><trkpt lat="45.638723907316226" lon="4.6146827321365"><ele>623.6666666666667</ele><time>2026-05-02T15:36:17Z</time></trkpt><trkpt lat="45.63880211047606" lon="4.614471227639954"><ele>625.0</ele><time>2026-05-02T15:36:18Z</time></trkpt><trkpt lat="45.63888258699177" lon="4.614254241359232"><ele>625.0</ele><time>2026-05-02T15:36:19Z</time></trkpt><trkpt lat="45.63896312771487" lon="4.6140388123819465"><ele>625.0</ele><time>2026-05-02T15:36:20Z</time></trkpt><trkpt lat="45.63904666746672" lon="4.613818265174144"><ele>625.0</ele><time>2026-05-02T15:36:21Z</time></trkpt><trkpt lat="45.639130830233434" lon="4.613597776945637"><ele>626.0</ele><time>2026-05-02T15:36:22Z</time></trkpt><trkpt lat="45.63921597784016" lon="4.613375195545005"><ele>627.0</ele><time>2026-05-02T15:36:23Z</time></trkpt><trkpt lat="45.639291540092735" lon="4.613173109362639"><ele>628.0</ele><time>2026-05-02T15:36:24Z</time></trkpt><trkpt lat="45.63936235862369" lon="4.612988768511104"><ele>630.75</ele><time>2026-05-02T15:36:25Z</time></trkpt><trkpt lat="45.63943667491455" lon="4.612819290877026"><ele>633.5</ele><time>2026-05-02T15:36:26Z</time></trkpt><trkpt lat="45.6394975524252" lon="4.612659716758936"><ele>636.25</ele><time>2026-05-02T15:36:27Z</time></trkpt><trkpt lat="45.63955060895105" lon="4.612520216306831"><ele>639.0</ele><time>2026-05-02T15:36:28Z</time></trkpt><trkpt lat="45.639598787854865" lon="4.612386293175707"><ele>632.25</ele><time>2026-05-02T15:36:29Z</time></trkpt><trkpt lat="45.63963676534637" lon="4.612255918059188"><ele>625.5</ele><time>2026-05-02T15:36:30Z</time></trkpt><trkpt lat="45.63965804011861" lon="4.612109827993273"><ele>618.75</ele><time>2026-05-02T15:36:31Z</time></trkpt><trkpt lat="45.63967941286094" lon="4.6119408170874365"><ele>612.0</ele><time>2026-05-02T15:36:32Z</time></trkpt><trkpt lat="45.63966342919967" lon="4.611757528294965"><ele>612.0</ele><time>2026-05-02T15:36:33Z</time></trkpt><trkpt lat="45.63964443078931" lon="4.611561692830911"><ele>612.0</ele><time>2026-05-02T15:36:34Z</time></trkpt><trkpt lat="45.63960608075971" lon="4.611366802947947"><ele>612.0</ele><time>2026-05-02T15:36:35Z</time></trkpt><trkpt lat="45.63956555387056" lon="4.6111978731725385"><ele>612.0</ele><time>2026-05-02T15:36:36Z</time></trkpt><trkpt lat="45.639536490837" lon="4.611042041357908"><ele>614.0</ele><time>2026-05-02T15:36:37Z</time></trkpt><trkpt lat="45.63949856010645" lon="4.610905960852481"><ele>616.0</ele><time>2026-05-02T15:36:38Z</time></trkpt><trkpt lat="45.639472936112206" lon="4.610773775427377"><ele>618.0</ele><time>2026-05-02T15:36:39Z</time></trkpt><trkpt lat="45.6394328336002" lon="4.610633262166377"><ele>620.0</ele><time>2026-05-02T15:36:40Z</time></trkpt><trkpt lat="45.639399915406464" lon="4.61046441124432"><ele>622.0</ele><time>2026-05-02T15:36:41Z</time></trkpt><trkpt lat="45.639396016604884" lon="4.610293396613436"><ele>626.2</ele><time>2026-05-02T15:36:42Z</time></trkpt><trkpt lat="45.639424232225714" lon="4.610141403589425"><ele>630.4000000000001</ele><time>2026-05-02T15:36:43Z</time></trkpt><trkpt lat="45.63949253511912" lon="4.610027163392643"><ele>634.5999999999999</ele><time>2026-05-02T15:36:44Z</time></trkpt><trkpt lat="45.639572841572644" lon="4.60993149238411"><ele>638.8</ele><time>2026-05-02T15:36:45Z</time></trkpt><trkpt lat="45.639670697271214" lon="4.609897632269372"><ele>643.0</ele><time>2026-05-02T15:36:46Z</time></trkpt><trkpt lat="45.63976130787771" lon="4.609914325561008"><ele>643.0</ele><time>2026-05-02T15:36:47Z</time></trkpt><trkpt lat="45.639875686489624" lon="4.609959271938183"><ele>643.0</ele><time>2026-05-02T15:36:48Z</time></trkpt><trkpt lat="45.639972121488896" lon="4.610042491528655"><ele>643.0</ele><time>2026-05-02T15:36:49Z</time></trkpt><trkpt lat="45.64007168612038" lon="4.610135215898007"><ele>643.0</ele><time>2026-05-02T15:36:50Z</time></trkpt><trkpt lat="45.64021001046169" lon="4.610235871704771"><ele>637.0</ele><time>2026-05-02T15:36:51Z</time></trkpt><trkpt lat="45.640364257119955" lon="4.61035813506248"><ele>631.0</ele><time>2026-05-02T15:36:52Z</time></trkpt><trkpt lat="45.640489325819395" lon="4.610456014896614"><ele>625.0</ele><time>2026-05-02T15:36:53Z</time></trkpt><trkpt lat="45.640622805652896" lon="4.610547568143536"><ele>625.0</ele><time>2026-05-02T15:36:54Z</time></trkpt><trkpt lat="45.64076341317777" lon="4.610632276122212"><ele>625.0</ele><time>2026-05-02T15:36:55Z</time></trkpt><trkpt lat="45.64093179173929" lon="4.610717091562746"><ele>625.0</ele><time>2026-05-02T15:36:56Z</time></trkpt><trkpt lat="45.6411176928433" lon="4.610767279865443"><ele>627.6666666666667</ele><time>2026-05-02T15:36:57Z</time></trkpt><trkpt lat="45.64129831835374" lon="4.610807790926869"><ele>630.3333333333334</ele><time>2026-05-02T15:36:58Z</time></trkpt><trkpt lat="45.641458879087786" lon="4.610857300984007"><ele>633.0</ele><time>2026-05-02T15:36:59Z</time></trkpt><trkpt lat="45.64160782756908" lon="4.61092505861753"><ele>633.0</ele><time>2026-05-02T15:37:00Z</time></trkpt><trkpt lat="45.64174565439905" lon="4.611012442660548"><ele>633.0</ele><time>2026-05-02T15:37:01Z</time></trkpt><trkpt lat="45.64187872699064" lon="4.611102636093439"><ele>633.0</ele><time>2026-05-02T15:37:02Z</time></trkpt><trkpt lat="45.64200504298381" lon="4.611149953866738"><ele>633.0</ele><time>2026-05-02T15:37:03Z</time></trkpt><trkpt lat="45.64213547407307" lon="4.611178851987171"><ele>634.0</ele><time>2026-05-02T15:37:04Z</time></trkpt><trkpt lat="45.64228538919795" lon="4.611176807681449"><ele>635.0</ele><time>2026-05-02T15:37:05Z</time></trkpt><trkpt lat="45.64243417794323" lon="4.6111357059318365"><ele>636.0</ele><time>2026-05-02T15:37:06Z</time></trkpt><trkpt lat="45.6425821754995" lon="4.611067470480655"><ele>636.0</ele><time>2026-05-02T15:37:07Z</time></trkpt><trkpt lat="45.642734693373164" lon="4.610990698929744"><ele>636.0</ele><time>2026-05-02T15:37:08Z</time></trkpt><trkpt lat="45.642883505301356" lon="4.610907520429844"><ele>636.0</ele><time>2026-05-02T15:37:09Z</time></trkpt><trkpt lat="45.64301415965733" lon="4.61083771650116"><ele>633.0</ele><time>2026-05-02T15:37:10Z</time></trkpt><trkpt lat="45.643138192205576" lon="4.610801687715557"><ele>630.0</ele><time>2026-05-02T15:37:11Z</time></trkpt><trkpt lat="45.64325958988352" lon="4.610800300430219"><ele>627.0</ele><time>2026-05-02T15:37:12Z</time></trkpt><trkpt lat="45.64339854709824" lon="4.610801369002419"><ele>624.0</ele><time>2026-05-02T15:37:13Z</time></trkpt><trkpt lat="45.643537007186644" lon="4.6108161750458825"><ele>620.6</ele><time>2026-05-02T15:37:14Z</time></trkpt><trkpt lat="45.643646510098534" lon="4.610826340779092"><ele>617.2</ele><time>2026-05-02T15:37:15Z</time></trkpt><trkpt lat="45.64375176405077" lon="4.610819542058928"><ele>613.8000000000001</ele><time>2026-05-02T15:37:16Z</time></trkpt><trkpt lat="45.643851222782835" lon="4.610789720371506"><ele>610.4</ele><time>2026-05-02T15:37:17Z</time></trkpt><trkpt lat="45.64394880725869" lon="4.61071555800359"><ele>607.0</ele><time>2026-05-02T15:37:18Z</time></trkpt><trkpt lat="45.644020982015306" lon="4.610616672181042"><ele>607.0</ele><time>2026-05-02T15:37:19Z</time></trkpt><trkpt lat="45.644077123871895" lon="4.610482216196608"><ele>607.0</ele><time>2026-05-02T15:37:20Z</time></trkpt><trkpt lat="45.64409460933894" lon="4.610324931755445"><ele>607.0</ele><time>2026-05-02T15:37:21Z</time></trkpt><trkpt lat="45.644092033789654" lon="4.610148594128186"><ele>607.0</ele><time>2026-05-02T15:37:22Z</time></trkpt><trkpt lat="45.644076183615965" lon="4.60994156422736"><ele>609.5</ele><time>2026-05-02T15:37:23Z</time></trkpt><trkpt lat="45.64404610512681" lon="4.609741340866546"><ele>612.0</ele><time>2026-05-02T15:37:24Z</time></trkpt><trkpt lat="45.64401504403206" lon="4.609574838113554"><ele>614.5</ele><time>2026-05-02T15:37:25Z</time></trkpt><trkpt lat="45.643996591729625" lon="4.6094417881859835"><ele>617.0</ele><time>2026-05-02T15:37:26Z</time></trkpt><trkpt lat="45.64399254098692" lon="4.6092871176035395"><ele>618.2</ele><time>2026-05-02T15:37:27Z</time></trkpt><trkpt lat="45.64402721595657" lon="4.609150677532444"><ele>619.4000000000001</ele><time>2026-05-02T15:37:28Z</time></trkpt><trkpt lat="45.644091171461895" lon="4.609030798549439"><ele>620.5999999999999</ele><time>2026-05-02T15:37:29Z</time></trkpt><trkpt lat="45.64418094328401" lon="4.608937810865593"><ele>621.8</ele><time>2026-05-02T15:37:30Z</time></trkpt><trkpt lat="45.64430248431457" lon="4.608889092181461"><ele>623.0</ele><time>2026-05-02T15:37:31Z</time></trkpt><trkpt lat="45.644430236400254" lon="4.608868399456337"><ele>622.5</ele><time>2026-05-02T15:37:32Z</time></trkpt><trkpt lat="45.64455834042246" lon="4.608877406004756"><ele>622.0</ele><time>2026-05-02T15:37:33Z</time></trkpt><trkpt lat="45.64468459857736" lon="4.608939453408655"><ele>621.5</ele><time>2026-05-02T15:37:34Z</time></trkpt><trkpt lat="45.644799613219355" lon="4.609007732743945"><ele>621.0</ele><time>2026-05-02T15:37:35Z</time></trkpt><trkpt lat="45.644932769014616" lon="4.609083731900474"><ele>621.0</ele><time>2026-05-02T15:37:36Z</time></trkpt><trkpt lat="45.645064022555886" lon="4.609195049697216"><ele>621.0</ele><time>2026-05-02T15:37:37Z</time></trkpt><trkpt lat="45.64518899477282" lon="4.609284339764754"><ele>621.0</ele><time>2026-05-02T15:37:38Z</time></trkpt><trkpt lat="45.64528739257591" lon="4.60934450812544"><ele>621.0</ele><time>2026-05-02T15:37:39Z</time></trkpt><trkpt lat="45.64538941380458" lon="4.609392865709816"><ele>618.5</ele><time>2026-05-02T15:37:40Z</time></trkpt><trkpt lat="45.64549816495556" lon="4.609404128067832"><ele>616.0</ele><time>2026-05-02T15:37:41Z</time></trkpt><trkpt lat="45.64561134660039" lon="4.609354304938034"><ele>613.5</ele><time>2026-05-02T15:37:42Z</time></trkpt><trkpt lat="45.645709515448445" lon="4.609271419423401"><ele>611.0</ele><time>2026-05-02T15:37:43Z</time></trkpt><trkpt lat="45.645778144087714" lon="4.609139366619062"><ele>611.0</ele><time>2026-05-02T15:37:44Z</time></trkpt><trkpt lat="45.645836877342774" lon="4.608975381612442"><ele>611.0</ele><time>2026-05-02T15:37:45Z</time></trkpt><trkpt lat="45.645914028116465" lon="4.608806789657364"><ele>611.0</ele><time>2026-05-02T15:37:46Z</time></trkpt><trkpt lat="45.6459634240604" lon="4.608628856888101"><ele>611.0</ele><time>2026-05-02T15:37:47Z</time></trkpt><trkpt lat="45.646005541995386" lon="4.608474063609758"><ele>613.25</ele><time>2026-05-02T15:37:48Z</time></trkpt><trkpt lat="45.64602570766249" lon="4.60830263687276"><ele>615.5</ele><time>2026-05-02T15:37:49Z</time></trkpt><trkpt lat="45.64604297114152" lon="4.608113365403478"><ele>617.75</ele><time>2026-05-02T15:37:50Z</time></trkpt><trkpt lat="45.646081475203516" lon="4.607932096888858"><ele>620.0</ele><time>2026-05-02T15:37:50.999Z</time></trkpt><trkpt lat="45.64609924675452" lon="4.607783185103061"><ele>619.4</ele><time>2026-05-02T15:37:51.999Z</time></trkpt><trkpt lat="45.64612247637005" lon="4.607650698516209"><ele>618.8</ele><time>2026-05-02T15:37:52.999Z</time></trkpt><trkpt lat="45.64616509711499" lon="4.607513586414799"><ele>618.2</ele><time>2026-05-02T15:37:53.999Z</time></trkpt><trkpt lat="45.64624126975776" lon="4.607406405737684"><ele>617.6</ele><time>2026-05-02T15:37:54.999Z</time></trkpt><trkpt lat="45.64634133098745" lon="4.60733139813014"><ele>617.0</ele><time>2026-05-02T15:37:55.999Z</time></trkpt><trkpt lat="45.64645754791748" lon="4.607296076817533"><ele>617.0</ele><time>2026-05-02T15:37:57Z</time></trkpt><trkpt lat="45.64658535416776" lon="4.607296710276306"><ele>617.0</ele><time>2026-05-02T15:37:58Z</time></trkpt><trkpt lat="45.64672308152585" lon="4.607288442262833"><ele>617.0</ele><time>2026-05-02T15:37:59Z</time></trkpt><trkpt lat="45.64684666024738" lon="4.607322926403652"><ele>617.0</ele><time>2026-05-02T15:38:00Z</time></trkpt><trkpt lat="45.646961534425095" lon="4.607346103488426"><ele>615.4</ele><time>2026-05-02T15:38:01Z</time></trkpt><trkpt lat="45.64708007628882" lon="4.607368748772168"><ele>613.8000000000001</ele><time>2026-05-02T15:38:02Z</time></trkpt><trkpt lat="45.647189632197886" lon="4.607383868942017"><ele>612.2</ele><time>2026-05-02T15:38:03Z</time></trkpt><trkpt lat="45.6472885308759" lon="4.607398730843977"><ele>610.6</ele><time>2026-05-02T15:38:04Z</time></trkpt><trkpt lat="45.64738785224436" lon="4.607405148689583"><ele>609.0</ele><time>2026-05-02T15:38:05Z</time></trkpt><trkpt lat="45.647490699457144" lon="4.6073824957959175"><ele>609.0</ele><time>2026-05-02T15:38:06Z</time></trkpt><trkpt lat="45.64758709646453" lon="4.6073154765231354"><ele>609.0</ele><time>2026-05-02T15:38:07Z</time></trkpt><trkpt lat="45.64766143627988" lon="4.607209282145948"><ele>609.0</ele><time>2026-05-02T15:38:08Z</time></trkpt><trkpt lat="45.64768075997389" lon="4.6070504022742895"><ele>609.0</ele><time>2026-05-02T15:38:09Z</time></trkpt><trkpt lat="45.64768802962081" lon="4.606883776299954"><ele>609.0</ele><time>2026-05-02T15:38:10Z</time></trkpt><trkpt lat="45.647678288737175" lon="4.606726246684567"><ele>610.25</ele><time>2026-05-02T15:38:11Z</time></trkpt><trkpt lat="45.6476261334118" lon="4.606575260933548"><ele>611.5</ele><time>2026-05-02T15:38:12Z</time></trkpt><trkpt lat="45.64754092251855" lon="4.60643756430942"><ele>612.75</ele><time>2026-05-02T15:38:13Z</time></trkpt><trkpt lat="45.64744077435678" lon="4.606315869149124"><ele>614.0</ele><time>2026-05-02T15:38:14Z</time></trkpt><trkpt lat="45.64732321299165" lon="4.606198775738393"><ele>616.6666666666666</ele><time>2026-05-02T15:38:15Z</time></trkpt><trkpt lat="45.647195986028656" lon="4.606045193284251"><ele>619.3333333333334</ele><time>2026-05-02T15:38:16Z</time></trkpt><trkpt lat="45.64704398604952" lon="4.605890802900528"><ele>622.0</ele><time>2026-05-02T15:38:17Z</time></trkpt><trkpt lat="45.64689954715306" lon="4.605776245460193"><ele>622.0</ele><time>2026-05-02T15:38:18Z</time></trkpt><trkpt lat="45.64678675466619" lon="4.605659286499149"><ele>622.0</ele><time>2026-05-02T15:38:19Z</time></trkpt><trkpt lat="45.646681314365395" lon="4.6055512435894395"><ele>622.0</ele><time>2026-05-02T15:38:20Z</time></trkpt><trkpt lat="45.64658147884414" lon="4.605434337842016"><ele>622.0</ele><time>2026-05-02T15:38:21Z</time></trkpt><trkpt lat="45.646514094224536" lon="4.605289395528847"><ele>621.25</ele><time>2026-05-02T15:38:22Z</time></trkpt><trkpt lat="45.64645097653889" lon="4.605138053620299"><ele>620.5</ele><time>2026-05-02T15:38:23Z</time></trkpt><trkpt lat="45.64641184758609" lon="4.604983733616646"><ele>619.75</ele><time>2026-05-02T15:38:24Z</time></trkpt><trkpt lat="45.646420495813146" lon="4.604832464334225"><ele>619.0</ele><time>2026-05-02T15:38:25Z</time></trkpt><trkpt lat="45.64642450423862" lon="4.604663041857419"><ele>619.0</ele><time>2026-05-02T15:38:26Z</time></trkpt><trkpt lat="45.64651785001752" lon="4.604537293054325"><ele>619.0</ele><time>2026-05-02T15:38:27Z</time></trkpt><trkpt lat="45.64660617723861" lon="4.604454449366394"><ele>619.0</ele><time>2026-05-02T15:38:28Z</time></trkpt><trkpt lat="45.64669732969216" lon="4.604374803855452"><ele>619.0</ele><time>2026-05-02T15:38:29Z</time></trkpt><trkpt lat="45.64681553409459" lon="4.6043525457638035"><ele>620.5</ele><time>2026-05-02T15:38:30Z</time></trkpt><trkpt lat="45.64693536327317" lon="4.6043950130635745"><ele>622.0</ele><time>2026-05-02T15:38:31Z</time></trkpt><trkpt lat="45.64705829520435" lon="4.604428368375557"><ele>623.5</ele><time>2026-05-02T15:38:32Z</time></trkpt><trkpt lat="45.64719601474643" lon="4.604444184429501"><ele>625.0</ele><time>2026-05-02T15:38:33Z</time></trkpt><trkpt lat="45.647320882885566" lon="4.60448858022449"><ele>625.0</ele><time>2026-05-02T15:38:34Z</time></trkpt><trkpt lat="45.64742900960656" lon="4.604500871460804"><ele>625.0</ele><time>2026-05-02T15:38:35Z</time></trkpt><trkpt lat="45.64752261551386" lon="4.604465786728885"><ele>625.0</ele><time>2026-05-02T15:38:36Z</time></trkpt><trkpt lat="45.647605700144226" lon="4.604384806977983"><ele>625.0</ele><time>2026-05-02T15:38:37Z</time></trkpt><trkpt lat="45.64767430206147" lon="4.604275613709722"><ele>625.0</ele><time>2026-05-02T15:38:38Z</time></trkpt><trkpt lat="45.647720060012965" lon="4.604135961561537"><ele>625.0</ele><time>2026-05-02T15:38:39Z</time></trkpt><trkpt lat="45.647748357221694" lon="4.603958374599357"><ele>625.0</ele><time>2026-05-02T15:38:40Z</time></trkpt><trkpt lat="45.64778595435448" lon="4.603735917718433"><ele>625.0</ele><time>2026-05-02T15:38:41Z</time></trkpt><trkpt lat="45.64784128398199" lon="4.603471580117063"><ele>622.0</ele><time>2026-05-02T15:38:42Z</time></trkpt><trkpt lat="45.64791937400614" lon="4.6031971831320675"><ele>619.0</ele><time>2026-05-02T15:38:43Z</time></trkpt><trkpt lat="45.64798887452933" lon="4.602942921324387"><ele>616.0</ele><time>2026-05-02T15:38:44Z</time></trkpt><trkpt lat="45.64806972407784" lon="4.602690354461479"><ele>616.0</ele><time>2026-05-02T15:38:45Z</time></trkpt><trkpt lat="45.648159098349986" lon="4.602429709000513"><ele>616.0</ele><time>2026-05-02T15:38:46Z</time></trkpt><trkpt lat="45.64825406938975" lon="4.60219544010859"><ele>616.0</ele><time>2026-05-02T15:38:47Z</time></trkpt><trkpt lat="45.648347959051705" lon="4.601984481064405"><ele>618.5</ele><time>2026-05-02T15:38:48Z</time></trkpt><trkpt lat="45.64844634431777" lon="4.6018121493960535"><ele>621.0</ele><time>2026-05-02T15:38:49Z</time></trkpt><trkpt lat="45.64855098316751" lon="4.601686143039298"><ele>623.5</ele><time>2026-05-02T15:38:50Z</time></trkpt><trkpt lat="45.64864971953929" lon="4.601561964688944"><ele>626.0</ele><time>2026-05-02T15:38:51Z</time></trkpt><trkpt lat="45.64872269123126" lon="4.60143955425129"><ele>626.2</ele><time>2026-05-02T15:38:52Z</time></trkpt><trkpt lat="45.64881239961934" lon="4.601374189139036"><ele>626.4000000000001</ele><time>2026-05-02T15:38:53Z</time></trkpt><trkpt lat="45.64889666386798" lon="4.6013159395034675"><ele>626.6</ele><time>2026-05-02T15:38:54Z</time></trkpt><trkpt lat="45.648998787577135" lon="4.601380273886642"><ele>626.8000000000001</ele><time>2026-05-02T15:38:55Z</time></trkpt><trkpt lat="45.64909098673426" lon="4.6014289373846085"><ele>627.0</ele><time>2026-05-02T15:38:56Z</time></trkpt><trkpt lat="45.64915014736875" lon="4.601558977455155"><ele>627.0</ele><time>2026-05-02T15:38:57Z</time></trkpt><trkpt lat="45.64915501164444" lon="4.60172095251424"><ele>627.0</ele><time>2026-05-02T15:38:58Z</time></trkpt><trkpt lat="45.649182686402256" lon="4.601869194101357"><ele>627.0</ele><time>2026-05-02T15:38:59Z</time></trkpt><trkpt lat="45.64920795631638" lon="4.602079620367899"><ele>627.0</ele><time>2026-05-02T15:39:00Z</time></trkpt><trkpt lat="45.64925146057243" lon="4.602277695776952"><ele>624.5</ele><time>2026-05-02T15:39:01Z</time></trkpt><trkpt lat="45.6493061529325" lon="4.602435854323512"><ele>622.0</ele><time>2026-05-02T15:39:02Z</time></trkpt><trkpt lat="45.64938248429522" lon="4.602581001140239"><ele>619.5</ele><time>2026-05-02T15:39:03Z</time></trkpt><trkpt lat="45.64949200395645" lon="4.602696532067172"><ele>617.0</ele><time>2026-05-02T15:39:04Z</time></trkpt><trkpt lat="45.64963395801794" lon="4.60280895459466"><ele>618.6666666666666</ele><time>2026-05-02T15:39:05Z</time></trkpt><trkpt lat="45.64979039499821" lon="4.602963624271257"><ele>620.3333333333334</ele><time>2026-05-02T15:39:06Z</time></trkpt><trkpt lat="45.64995143948087" lon="4.60309590034143"><ele>622.0</ele><time>2026-05-02T15:39:07Z</time></trkpt><trkpt lat="45.65008703180426" lon="4.603203304932478"><ele>622.0</ele><time>2026-05-02T15:39:08Z</time></trkpt><trkpt lat="45.6501846731434" lon="4.603362986223529"><ele>622.0</ele><time>2026-05-02T15:39:09Z</time></trkpt><trkpt lat="45.65029335675922" lon="4.603515827834954"><ele>622.0</ele><time>2026-05-02T15:39:10Z</time></trkpt><trkpt lat="45.65040453869768" lon="4.603680127065756"><ele>622.75</ele><time>2026-05-02T15:39:11Z</time></trkpt><trkpt lat="45.650504077191" lon="4.603849019010059"><ele>623.5</ele><time>2026-05-02T15:39:12Z</time></trkpt><trkpt lat="45.650604302705304" lon="4.6039764618375445"><ele>624.25</ele><time>2026-05-02T15:39:13Z</time></trkpt><trkpt lat="45.650698826156734" lon="4.604110781116835"><ele>625.0</ele><time>2026-05-02T15:39:14Z</time></trkpt><trkpt lat="45.65081172547854" lon="4.604209723277094"><ele>625.0</ele><time>2026-05-02T15:39:15Z</time></trkpt><trkpt lat="45.650937459523355" lon="4.6042554661045045"><ele>625.0</ele><time>2026-05-02T15:39:16Z</time></trkpt><trkpt lat="45.65108334158346" lon="4.604254179339031"><ele>625.0</ele><time>2026-05-02T15:39:17Z</time></trkpt><trkpt lat="45.65123961307316" lon="4.604270056532595"><ele>625.0</ele><time>2026-05-02T15:39:18Z</time></trkpt><trkpt lat="45.651387868068696" lon="4.604274253162166"><ele>626.75</ele><time>2026-05-02T15:39:19Z</time></trkpt><trkpt lat="45.65151831984484" lon="4.604259900662028"><ele>628.5</ele><time>2026-05-02T15:39:20Z</time></trkpt><trkpt lat="45.65164378226209" lon="4.604255092496345"><ele>630.25</ele><time>2026-05-02T15:39:21Z</time></trkpt><trkpt lat="45.65177031338334" lon="4.604219185593429"><ele>632.0</ele><time>2026-05-02T15:39:22Z</time></trkpt><trkpt lat="45.65189711268489" lon="4.604139925513013"><ele>629.3333333333333</ele><time>2026-05-02T15:39:23Z</time></trkpt><trkpt lat="45.652019270108354" lon="4.604016613775481"><ele>626.6666666666666</ele><time>2026-05-02T15:39:24Z</time></trkpt><trkpt lat="45.65214047991688" lon="4.603857600995449"><ele>624.0</ele><time>2026-05-02T15:39:25Z</time></trkpt><trkpt lat="45.65225199968468" lon="4.603701718329584"><ele>627.25</ele><time>2026-05-02T15:39:26Z</time></trkpt><trkpt lat="45.65236867363384" lon="4.603605367769543"><ele>630.5</ele><time>2026-05-02T15:39:27Z</time></trkpt><trkpt lat="45.65248380300172" lon="4.603512370676876"><ele>633.75</ele><time>2026-05-02T15:39:28Z</time></trkpt><trkpt lat="45.65261416307419" lon="4.60342329205098"><ele>637.0</ele><time>2026-05-02T15:39:29Z</time></trkpt><trkpt lat="45.6527377986875" lon="4.603306393872809"><ele>636.5</ele><time>2026-05-02T15:39:30Z</time></trkpt><trkpt lat="45.65285124044086" lon="4.603203515817407"><ele>636.0</ele><time>2026-05-02T15:39:31Z</time></trkpt><trkpt lat="45.65295213632827" lon="4.603082488609402"><ele>635.5</ele><time>2026-05-02T15:39:32Z</time></trkpt><trkpt lat="45.653061667857195" lon="4.6029456446100765"><ele>635.0</ele><time>2026-05-02T15:39:33Z</time></trkpt><trkpt lat="45.653143148779336" lon="4.602802261181654"><ele>635.0</ele><time>2026-05-02T15:39:34Z</time></trkpt><trkpt lat="45.65322083804716" lon="4.602632185769094"><ele>635.0</ele><time>2026-05-02T15:39:35Z</time></trkpt><trkpt lat="45.65329271719696" lon="4.602453418824833"><ele>635.0</ele><time>2026-05-02T15:39:36Z</time></trkpt><trkpt lat="45.65335772777074" lon="4.602243048440801"><ele>635.0</ele><time>2026-05-02T15:39:37Z</time></trkpt><trkpt lat="45.65341683266888" lon="4.602046145060158"><ele>639.25</ele><time>2026-05-02T15:39:38Z</time></trkpt><trkpt lat="45.653473631940976" lon="4.601857962124489"><ele>643.5</ele><time>2026-05-02T15:39:39Z</time></trkpt><trkpt lat="45.65352051567203" lon="4.601657309298128"><ele>647.75</ele><time>2026-05-02T15:39:40Z</time></trkpt><trkpt lat="45.65360463228172" lon="4.601476363734479"><ele>652.0</ele><time>2026-05-02T15:39:41Z</time></trkpt><trkpt lat="45.65365986452921" lon="4.60127066570628"><ele>646.75</ele><time>2026-05-02T15:39:42Z</time></trkpt><trkpt lat="45.653729252759" lon="4.601078166396626"><ele>641.5</ele><time>2026-05-02T15:39:43Z</time></trkpt><trkpt lat="45.65378973963674" lon="4.600896627543847"><ele>636.25</ele><time>2026-05-02T15:39:44Z</time></trkpt><trkpt lat="45.653838912824696" lon="4.600721091446662"><ele>631.0</ele><time>2026-05-02T15:39:45Z</time></trkpt><trkpt lat="45.653886647469534" lon="4.600567537202979"><ele>631.0</ele><time>2026-05-02T15:39:46Z</time></trkpt><trkpt lat="45.653951323785385" lon="4.600444683729868"><ele>631.0</ele><time>2026-05-02T15:39:47Z</time></trkpt><trkpt lat="45.65400494900484" lon="4.600313062788736"><ele>631.0</ele><time>2026-05-02T15:39:48Z</time></trkpt><trkpt lat="45.65410170080487" lon="4.6002231971715615"><ele>631.0</ele><time>2026-05-02T15:39:49Z</time></trkpt><trkpt lat="45.65420727592423" lon="4.600222721426389"><ele>631.0</ele><time>2026-05-02T15:39:50Z</time></trkpt><trkpt lat="45.6543135720619" lon="4.600232187162002"><ele>631.75</ele><time>2026-05-02T15:39:51Z</time></trkpt><trkpt lat="45.65441372642107" lon="4.6002135976562455"><ele>632.5</ele><time>2026-05-02T15:39:52Z</time></trkpt><trkpt lat="45.65451267042202" lon="4.600138841880547"><ele>633.25</ele><time>2026-05-02T15:39:53Z</time></trkpt><trkpt lat="45.6546187785622" lon="4.600060497234885"><ele>634.0</ele><time>2026-05-02T15:39:54Z</time></trkpt><trkpt lat="45.65471960583452" lon="4.599969215597436"><ele>634.0</ele><time>2026-05-02T15:39:55Z</time></trkpt><trkpt lat="45.65480592958812" lon="4.599848710936914"><ele>634.0</ele><time>2026-05-02T15:39:56Z</time></trkpt><trkpt lat="45.654883823895005" lon="4.599705480631503"><ele>634.0</ele><time>2026-05-02T15:39:57Z</time></trkpt><trkpt lat="45.6549523794994" lon="4.5995489346420095"><ele>634.0</ele><time>2026-05-02T15:39:58Z</time></trkpt><trkpt lat="45.65501847055064" lon="4.599380457230603"><ele>639.0</ele><time>2026-05-02T15:39:58.999Z</time></trkpt><trkpt lat="45.655096570193116" lon="4.599223866818215"><ele>644.0</ele><time>2026-05-02T15:39:59.999Z</time></trkpt><trkpt lat="45.65515191280496" lon="4.59906132880214"><ele>649.0</ele><time>2026-05-02T15:40:00.999Z</time></trkpt><trkpt lat="45.655194289835045" lon="4.598899678345022"><ele>654.0</ele><time>2026-05-02T15:40:01.999Z</time></trkpt><trkpt lat="45.65522876197248" lon="4.598733266543879"><ele>656.5</ele><time>2026-05-02T15:40:03Z</time></trkpt><trkpt lat="45.655248501821234" lon="4.598566668365276"><ele>659.0</ele><time>2026-05-02T15:40:04Z</time></trkpt><trkpt lat="45.65526984209897" lon="4.598416522156948"><ele>661.5</ele><time>2026-05-02T15:40:05Z</time></trkpt><trkpt lat="45.655310198137414" lon="4.598265877763819"><ele>664.0</ele><time>2026-05-02T15:40:06Z</time></trkpt><trkpt lat="45.65537850450994" lon="4.598138352043554"><ele>657.5</ele><time>2026-05-02T15:40:07Z</time></trkpt><trkpt lat="45.6554752203469" lon="4.598021672211472"><ele>651.0</ele><time>2026-05-02T15:40:08Z</time></trkpt><trkpt lat="45.6555700174113" lon="4.597910595096436"><ele>644.5</ele><time>2026-05-02T15:40:09Z</time></trkpt><trkpt lat="45.65567872094344" lon="4.597894880425981"><ele>638.0</ele><time>2026-05-02T15:40:10Z</time></trkpt><trkpt lat="45.65576256400715" lon="4.59783614814159"><ele>640.25</ele><time>2026-05-02T15:40:11Z</time></trkpt><trkpt lat="45.65585843552726" lon="4.597776967453985"><ele>642.5</ele><time>2026-05-02T15:40:12Z</time></trkpt><trkpt lat="45.655960497217386" lon="4.597694922762796"><ele>644.75</ele><time>2026-05-02T15:40:13Z</time></trkpt><trkpt lat="45.656066109572855" lon="4.597599272742523"><ele>647.0</ele><time>2026-05-02T15:40:14Z</time></trkpt><trkpt lat="45.65616573072316" lon="4.597486069667209"><ele>647.0</ele><time>2026-05-02T15:40:15Z</time></trkpt><trkpt lat="45.65627813853788" lon="4.597355055600262"><ele>647.0</ele><time>2026-05-02T15:40:16Z</time></trkpt><trkpt lat="45.65637014341506" lon="4.597247497685732"><ele>647.0</ele><time>2026-05-02T15:40:17Z</time></trkpt><trkpt lat="45.656450485070216" lon="4.597121085304314"><ele>647.0</ele><time>2026-05-02T15:40:18Z</time></trkpt><trkpt lat="45.65656285310967" lon="4.597016643047011"><ele>649.8</ele><time>2026-05-02T15:40:19Z</time></trkpt><trkpt lat="45.656654979777066" lon="4.5969090957315295"><ele>652.6</ele><time>2026-05-02T15:40:20Z</time></trkpt><trkpt lat="45.656736354484096" lon="4.59681158011414"><ele>655.4</ele><time>2026-05-02T15:40:21Z</time></trkpt><trkpt lat="45.65681103009353" lon="4.596716367828592"><ele>658.1999999999999</ele><time>2026-05-02T15:40:22Z</time></trkpt><trkpt lat="45.65687616043975" lon="4.596634499646062"><ele>661.0</ele><time>2026-05-02T15:40:23Z</time></trkpt><trkpt lat="45.65692707589535" lon="4.596570927763062"><ele>661.5</ele><time>2026-05-02T15:40:24Z</time></trkpt><trkpt lat="45.657021609846545" lon="4.5964644565019315"><ele>662.0</ele><time>2026-05-02T15:40:26Z</time></trkpt><trkpt lat="45.65710210101313" lon="4.596402618193379"><ele>662.5</ele><time>2026-05-02T15:40:28Z</time></trkpt><trkpt lat="45.65701198804233" lon="4.596127522186419"><ele>663.0</ele><time>2026-05-02T15:40:29Z</time></trkpt><trkpt lat="45.656968453630256" lon="4.5960080956039135"><ele>662.5999999999999</ele><time>2026-05-02T15:40:30Z</time></trkpt><trkpt lat="45.656928481591066" lon="4.59587628036237"><ele>662.1999999999999</ele><time>2026-05-02T15:40:31Z</time></trkpt><trkpt lat="45.65685718225891" lon="4.595769837533694"><ele>661.8</ele><time>2026-05-02T15:40:32Z</time></trkpt><trkpt lat="45.6567855038352" lon="4.5956552678389535"><ele>661.4</ele><time>2026-05-02T15:40:33Z</time></trkpt><trkpt lat="45.65669856221973" lon="4.595551584029191"><ele>661.0</ele><time>2026-05-02T15:40:34Z</time></trkpt><trkpt lat="45.656606314573736" lon="4.595468672771049"><ele>661.0</ele><time>2026-05-02T15:40:35Z</time></trkpt><trkpt lat="45.65652579935228" lon="4.5954144045320495"><ele>661.0</ele><time>2026-05-02T15:40:36Z</time></trkpt><trkpt lat="45.65644015567297" lon="4.595325635729361"><ele>661.0</ele><time>2026-05-02T15:40:37Z</time></trkpt><trkpt lat="45.656297431089186" lon="4.5952224739563485"><ele>661.0</ele><time>2026-05-02T15:40:38Z</time></trkpt><trkpt lat="45.65613899265901" lon="4.5951124983854825"><ele>663.3333333333334</ele><time>2026-05-02T15:40:39Z</time></trkpt><trkpt lat="45.65598528940372" lon="4.595001833969493"><ele>665.6666666666666</ele><time>2026-05-02T15:40:40Z</time></trkpt><trkpt lat="45.65585380251877" lon="4.594886539895952"><ele>668.0</ele><time>2026-05-02T15:40:41Z</time></trkpt><trkpt lat="45.65575411420811" lon="4.594757856736274"><ele>668.0</ele><time>2026-05-02T15:40:42Z</time></trkpt><trkpt lat="45.65565936094382" lon="4.59460084985277"><ele>668.0</ele><time>2026-05-02T15:40:43Z</time></trkpt><trkpt lat="45.6555850189299" lon="4.5944198522984365"><ele>668.0</ele><time>2026-05-02T15:40:44Z</time></trkpt><trkpt lat="45.65549667229703" lon="4.594220747215876"><ele>665.6666666666666</ele><time>2026-05-02T15:40:45Z</time></trkpt><trkpt lat="45.65542926589131" lon="4.59400342540111"><ele>663.3333333333334</ele><time>2026-05-02T15:40:46Z</time></trkpt><trkpt lat="45.65536392255536" lon="4.593781066332769"><ele>661.0</ele><time>2026-05-02T15:40:47Z</time></trkpt><trkpt lat="45.65529364514404" lon="4.593566740172022"><ele>667.3333333333334</ele><time>2026-05-02T15:40:48Z</time></trkpt><trkpt lat="45.65521687070895" lon="4.5933440477822725"><ele>673.6666666666666</ele><time>2026-05-02T15:40:49Z</time></trkpt><trkpt lat="45.65513441342613" lon="4.593127854594498"><ele>680.0</ele><time>2026-05-02T15:40:50Z</time></trkpt><trkpt lat="45.655042779113145" lon="4.592912277142966"><ele>676.6666666666666</ele><time>2026-05-02T15:40:51Z</time></trkpt><trkpt lat="45.65495093927062" lon="4.592698883809638"><ele>673.3333333333334</ele><time>2026-05-02T15:40:52Z</time></trkpt><trkpt lat="45.654866558591834" lon="4.592514090359335"><ele>670.0</ele><time>2026-05-02T15:40:53Z</time></trkpt><trkpt lat="45.65478269851458" lon="4.592354173263228"><ele>670.0</ele><time>2026-05-02T15:40:54Z</time></trkpt><trkpt lat="45.65469696181789" lon="4.5922225412205675"><ele>670.0</ele><time>2026-05-02T15:40:55Z</time></trkpt><trkpt lat="45.65460579489066" lon="4.592109645036802"><ele>670.0</ele><time>2026-05-02T15:40:56Z</time></trkpt><trkpt lat="45.65452462839559" lon="4.591971591148126"><ele>670.0</ele><time>2026-05-02T15:40:57Z</time></trkpt><trkpt lat="45.654446854767194" lon="4.591856851315563"><ele>668.8</ele><time>2026-05-02T15:40:58Z</time></trkpt><trkpt lat="45.65439006428596" lon="4.5917439505660385"><ele>667.6</ele><time>2026-05-02T15:40:59Z</time></trkpt><trkpt lat="45.654362710111734" lon="4.591602203454051"><ele>666.4000000000001</ele><time>2026-05-02T15:41:00Z</time></trkpt><trkpt lat="45.65438084469187" lon="4.591450325182623"><ele>665.2</ele><time>2026-05-02T15:41:01Z</time></trkpt><trkpt lat="45.6544252231378" lon="4.591303391717768"><ele>664.0</ele><time>2026-05-02T15:41:02Z</time></trkpt><trkpt lat="45.654501609034924" lon="4.591185752293348"><ele>666.0</ele><time>2026-05-02T15:41:03Z</time></trkpt><trkpt lat="45.65458357535451" lon="4.591057301691695"><ele>668.0</ele><time>2026-05-02T15:41:04Z</time></trkpt><trkpt lat="45.65467461185247" lon="4.590935641145807"><ele>670.0</ele><time>2026-05-02T15:41:05Z</time></trkpt><trkpt lat="45.65475334705664" lon="4.590802122252822"><ele>672.0</ele><time>2026-05-02T15:41:06Z</time></trkpt><trkpt lat="45.654786713368715" lon="4.590645735907041"><ele>672.0</ele><time>2026-05-02T15:41:07Z</time></trkpt><trkpt lat="45.65479790429934" lon="4.5904436293696085"><ele>672.0</ele><time>2026-05-02T15:41:08Z</time></trkpt><trkpt lat="45.654804330708416" lon="4.590230481328906"><ele>672.0</ele><time>2026-05-02T15:41:09Z</time></trkpt><trkpt lat="45.65480294344589" lon="4.5900130712559815"><ele>672.0</ele><time>2026-05-02T15:41:10Z</time></trkpt><trkpt lat="45.654773767241345" lon="4.589804012308727"><ele>672.3333333333334</ele><time>2026-05-02T15:41:11Z</time></trkpt><trkpt lat="45.654726277492614" lon="4.589606785248644"><ele>672.6666666666667</ele><time>2026-05-02T15:41:12Z</time></trkpt><trkpt lat="45.65465209428737" lon="4.589419797459479"><ele>673.0</ele><time>2026-05-02T15:41:13Z</time></trkpt><trkpt lat="45.65456404321076" lon="4.589228229196574"><ele>673.0</ele><time>2026-05-02T15:41:14Z</time></trkpt><trkpt lat="45.65448258887814" lon="4.589025284712368"><ele>673.0</ele><time>2026-05-02T15:41:15Z</time></trkpt><trkpt lat="45.654400113351784" lon="4.588820610077201"><ele>673.0</ele><time>2026-05-02T15:41:16Z</time></trkpt><trkpt lat="45.65432804623342" lon="4.588612384535668"><ele>680.6666666666667</ele><time>2026-05-02T15:41:17Z</time></trkpt><trkpt lat="45.65424015320966" lon="4.588416437408242"><ele>688.3333333333334</ele><time>2026-05-02T15:41:18Z</time></trkpt><trkpt lat="45.65415369380411" lon="4.588237651005778"><ele>696.0</ele><time>2026-05-02T15:41:19Z</time></trkpt><trkpt lat="45.65405374736589" lon="4.588076404374586"><ele>696.0</ele><time>2026-05-02T15:41:20Z</time></trkpt><trkpt lat="45.653949761039534" lon="4.58792452881576"><ele>696.0</ele><time>2026-05-02T15:41:21Z</time></trkpt><trkpt lat="45.65383010129788" lon="4.587800478652833"><ele>696.0</ele><time>2026-05-02T15:41:22Z</time></trkpt><trkpt lat="45.65371217599811" lon="4.587685841502398"><ele>696.0</ele><time>2026-05-02T15:41:23Z</time></trkpt><trkpt lat="45.65357987928081" lon="4.587591660314066"><ele>698.1999999999999</ele><time>2026-05-02T15:41:24Z</time></trkpt><trkpt lat="45.65344461489943" lon="4.587549114811203"><ele>700.4</ele><time>2026-05-02T15:41:25Z</time></trkpt><trkpt lat="45.65333968585029" lon="4.587486478659561"><ele>702.6</ele><time>2026-05-02T15:41:26Z</time></trkpt><trkpt lat="45.65325807513112" lon="4.587439845685413"><ele>704.8</ele><time>2026-05-02T15:41:27Z</time></trkpt><trkpt lat="45.653173054021764" lon="4.587356189665352"><ele>707.0</ele><time>2026-05-02T15:41:28Z</time></trkpt><trkpt lat="45.65310671601307" lon="4.587245827745577"><ele>707.0</ele><time>2026-05-02T15:41:29Z</time></trkpt><trkpt lat="45.653058181206234" lon="4.5871042494050345"><ele>707.0</ele><time>2026-05-02T15:41:30Z</time></trkpt><trkpt lat="45.65306094981088" lon="4.586919757690073"><ele>707.0</ele><time>2026-05-02T15:41:31Z</time></trkpt><trkpt lat="45.65308645653908" lon="4.586739514261613"><ele>707.0</ele><time>2026-05-02T15:41:32Z</time></trkpt><trkpt lat="45.653153865191456" lon="4.5865662559273925"><ele>707.75</ele><time>2026-05-02T15:41:33Z</time></trkpt><trkpt lat="45.653244963878244" lon="4.586410256806971"><ele>708.5</ele><time>2026-05-02T15:41:34Z</time></trkpt><trkpt lat="45.65336719210508" lon="4.586297738663392"><ele>709.25</ele><time>2026-05-02T15:41:35Z</time></trkpt><trkpt lat="45.65349242594657" lon="4.586189445563344"><ele>710.0</ele><time>2026-05-02T15:41:36Z</time></trkpt><trkpt lat="45.653626966802506" lon="4.586119280020491"><ele>710.0</ele><time>2026-05-02T15:41:37Z</time></trkpt><trkpt lat="45.65375947617149" lon="4.586034659882217"><ele>710.0</ele><time>2026-05-02T15:41:38Z</time></trkpt><trkpt lat="45.65389475245383" lon="4.585930447453673"><ele>710.0</ele><time>2026-05-02T15:41:39Z</time></trkpt><trkpt lat="45.65402750017456" lon="4.5858192655935275"><ele>710.0</ele><time>2026-05-02T15:41:40Z</time></trkpt><trkpt lat="45.65416163895335" lon="4.58569771961941"><ele>710.0</ele><time>2026-05-02T15:41:41Z</time></trkpt><trkpt lat="45.65427668320011" lon="4.585527358304554"><ele>710.0</ele><time>2026-05-02T15:41:42Z</time></trkpt><trkpt lat="45.654382706773085" lon="4.58534661125087"><ele>705.0</ele><time>2026-05-02T15:41:43Z</time></trkpt><trkpt lat="45.6544730861994" lon="4.585149506742363"><ele>700.0</ele><time>2026-05-02T15:41:43.999Z</time></trkpt><trkpt lat="45.654547380572296" lon="4.584949502906421"><ele>695.0</ele><time>2026-05-02T15:41:44.999Z</time></trkpt><trkpt lat="45.65459128800685" lon="4.584731377606742"><ele>695.0</ele><time>2026-05-02T15:41:45.999Z</time></trkpt><trkpt lat="45.65463286720672" lon="4.5845180813937745"><ele>695.0</ele><time>2026-05-02T15:41:46.999Z</time></trkpt><trkpt lat="45.65466936013155" lon="4.584289212275634"><ele>695.0</ele><time>2026-05-02T15:41:47.999Z</time></trkpt><trkpt lat="45.65467807878106" lon="4.584053242147466"><ele>695.6666666666666</ele><time>2026-05-02T15:41:48.999Z</time></trkpt><trkpt lat="45.65466203948262" lon="4.583817690501963"><ele>696.3333333333334</ele><time>2026-05-02T15:41:49.999Z</time></trkpt><trkpt lat="45.65462983232891" lon="4.583586080978571"><ele>697.0</ele><time>2026-05-02T15:41:50.999Z</time></trkpt><trkpt lat="45.654593118938436" lon="4.583353661751971"><ele>695.0</ele><time>2026-05-02T15:41:51.999Z</time></trkpt><trkpt lat="45.654532265715616" lon="4.583130125720155"><ele>693.0</ele><time>2026-05-02T15:41:52.999Z</time></trkpt><trkpt lat="45.65446893515915" lon="4.582928607769678"><ele>691.0</ele><time>2026-05-02T15:41:53.999Z</time></trkpt><trkpt lat="45.654449912616506" lon="4.582757350358248"><ele>689.0</ele><time>2026-05-02T15:41:54.999Z</time></trkpt><trkpt lat="45.65443221711009" lon="4.582577587773852"><ele>687.5</ele><time>2026-05-02T15:41:55.999Z</time></trkpt><trkpt lat="45.65442970106135" lon="4.5824042822219875"><ele>686.0</ele><time>2026-05-02T15:41:56.999Z</time></trkpt><trkpt lat="45.654435866092435" lon="4.582226378801414"><ele>684.5</ele><time>2026-05-02T15:41:57.999Z</time></trkpt><trkpt lat="45.654452806451644" lon="4.582045515420848"><ele>683.0</ele><time>2026-05-02T15:41:58.999Z</time></trkpt><trkpt lat="45.65447439808533" lon="4.5818577814790595"><ele>683.0</ele><time>2026-05-02T15:41:59.999Z</time></trkpt><trkpt lat="45.65448256320945" lon="4.581684627311148"><ele>683.0</ele><time>2026-05-02T15:42:00.999Z</time></trkpt><trkpt lat="45.65449880827602" lon="4.581517014358805"><ele>683.0</ele><time>2026-05-02T15:42:01.999Z</time></trkpt><trkpt lat="45.65449123642333" lon="4.58136150209601"><ele>683.0</ele><time>2026-05-02T15:42:02.999Z</time></trkpt><trkpt lat="45.654437788144605" lon="4.581204396388964"><ele>689.0</ele><time>2026-05-02T15:42:03.999Z</time></trkpt><trkpt lat="45.654361118692314" lon="4.581072365502922"><ele>695.0</ele><time>2026-05-02T15:42:04.999Z</time></trkpt><trkpt lat="45.654262259120514" lon="4.580972101471924"><ele>701.0</ele><time>2026-05-02T15:42:05.999Z</time></trkpt><trkpt lat="45.654167545392085" lon="4.580890489839367"><ele>707.0</ele><time>2026-05-02T15:42:06.999Z</time></trkpt><trkpt lat="45.654104751451385" lon="4.580785713411477"><ele>713.0</ele><time>2026-05-02T15:42:07.999Z</time></trkpt><trkpt lat="45.65407573375882" lon="4.580655317930191"><ele>713.0</ele><time>2026-05-02T15:42:09Z</time></trkpt><trkpt lat="45.65409657853203" lon="4.5805173594321404"><ele>713.0</ele><time>2026-05-02T15:42:10Z</time></trkpt><trkpt lat="45.65415481188042" lon="4.580375434990273"><ele>713.0</ele><time>2026-05-02T15:42:11Z</time></trkpt><trkpt lat="45.654230470719156" lon="4.580252235687237"><ele>713.0</ele><time>2026-05-02T15:42:12Z</time></trkpt><trkpt lat="45.654330332936304" lon="4.580155851991593"><ele>713.0</ele><time>2026-05-02T15:42:13Z</time></trkpt><trkpt lat="45.654442248637764" lon="4.580091914939994"><ele>711.5</ele><time>2026-05-02T15:42:14Z</time></trkpt><trkpt lat="45.654579753347186" lon="4.5800984623593575"><ele>710.0</ele><time>2026-05-02T15:42:15Z</time></trkpt><trkpt lat="45.654711890126556" lon="4.580082899706426"><ele>708.5</ele><time>2026-05-02T15:42:16Z</time></trkpt><trkpt lat="45.654843451115795" lon="4.580051302948267"><ele>707.0</ele><time>2026-05-02T15:42:17Z</time></trkpt><trkpt lat="45.65494953826794" lon="4.580030935543268"><ele>707.0</ele><time>2026-05-02T15:42:18Z</time></trkpt><trkpt lat="45.65503025870079" lon="4.579945266440457"><ele>707.0</ele><time>2026-05-02T15:42:19Z</time></trkpt><trkpt lat="45.655072849158735" lon="4.579814189823809"><ele>707.0</ele><time>2026-05-02T15:42:20Z</time></trkpt><trkpt lat="45.65508253474657" lon="4.57966887081344"><ele>707.0</ele><time>2026-05-02T15:42:21Z</time></trkpt><trkpt lat="45.655069839658786" lon="4.579501480071231"><ele>707.0</ele><time>2026-05-02T15:42:22Z</time></trkpt><trkpt lat="45.65504047427266" lon="4.57931770214726"><ele>707.6666666666666</ele><time>2026-05-02T15:42:23Z</time></trkpt><trkpt lat="45.65499868949431" lon="4.579109181669527"><ele>708.3333333333334</ele><time>2026-05-02T15:42:24Z</time></trkpt><trkpt lat="45.65494139719466" lon="4.578857341428278"><ele>709.0</ele><time>2026-05-02T15:42:25Z</time></trkpt><trkpt lat="45.654893325391804" lon="4.578604777146796"><ele>709.0</ele><time>2026-05-02T15:42:26Z</time></trkpt><trkpt lat="45.6548507318691" lon="4.578342346345748"><ele>709.0</ele><time>2026-05-02T15:42:27Z</time></trkpt><trkpt lat="45.6548087264668" lon="4.578077139186194"><ele>709.0</ele><time>2026-05-02T15:42:28Z</time></trkpt><trkpt lat="45.65476296306054" lon="4.577819497411885"><ele>710.6666666666667</ele><time>2026-05-02T15:42:29Z</time></trkpt><trkpt lat="45.65472175532372" lon="4.577562956262899"><ele>712.3333333333334</ele><time>2026-05-02T15:42:30Z</time></trkpt><trkpt lat="45.65467783077357" lon="4.57731152979306"><ele>714.0</ele><time>2026-05-02T15:42:31Z</time></trkpt><trkpt lat="45.6546365630277" lon="4.577065223845772"><ele>715.0</ele><time>2026-05-02T15:42:32Z</time></trkpt><trkpt lat="45.65460513312448" lon="4.576854667345734"><ele>716.0</ele><time>2026-05-02T15:42:33Z</time></trkpt><trkpt lat="45.65458037418939" lon="4.576677376506064"><ele>717.0</ele><time>2026-05-02T15:42:34Z</time></trkpt><trkpt lat="45.65455501903772" lon="4.576512172150128"><ele>718.0</ele><time>2026-05-02T15:42:35Z</time></trkpt><trkpt lat="45.654545648789174" lon="4.576363031118213"><ele>718.0</ele><time>2026-05-02T15:42:36Z</time></trkpt><trkpt lat="45.6545298280332" lon="4.576227785750346"><ele>718.0</ele><time>2026-05-02T15:42:37Z</time></trkpt><trkpt lat="45.65457512282754" lon="4.576125518785048"><ele>718.0</ele><time>2026-05-02T15:42:38Z</time></trkpt><trkpt lat="45.654635579548255" lon="4.575978273007522"><ele>718.0</ele><time>2026-05-02T15:42:39Z</time></trkpt><trkpt lat="45.6547327299298" lon="4.575924174967063"><ele>718.0</ele><time>2026-05-02T15:42:40Z</time></trkpt><trkpt lat="45.65481521402011" lon="4.575847626920328"><ele>719.25</ele><time>2026-05-02T15:42:41Z</time></trkpt><trkpt lat="45.65492469768338" lon="4.575756964798586"><ele>720.5</ele><time>2026-05-02T15:42:42Z</time></trkpt><trkpt lat="45.655014313799434" lon="4.5755896173709365"><ele>721.75</ele><time>2026-05-02T15:42:43Z</time></trkpt><trkpt lat="45.65506305833708" lon="4.575394282216775"><ele>723.0</ele><time>2026-05-02T15:42:44Z</time></trkpt><trkpt lat="45.65509591016372" lon="4.575187462615326"><ele>724.75</ele><time>2026-05-02T15:42:45Z</time></trkpt><trkpt lat="45.65512519490877" lon="4.57498729837695"><ele>726.5</ele><time>2026-05-02T15:42:46Z</time></trkpt><trkpt lat="45.65515757319418" lon="4.574807662040263"><ele>728.25</ele><time>2026-05-02T15:42:47Z</time></trkpt><trkpt lat="45.65518552759107" lon="4.574638017653524"><ele>730.0</ele><time>2026-05-02T15:42:48Z</time></trkpt><trkpt lat="45.65519695124598" lon="4.574488397063017"><ele>730.5</ele><time>2026-05-02T15:42:49Z</time></trkpt><trkpt lat="45.65518668012555" lon="4.574337988177843"><ele>731.0</ele><time>2026-05-02T15:42:50Z</time></trkpt><trkpt lat="45.65513003434088" lon="4.574198199301266"><ele>731.5</ele><time>2026-05-02T15:42:51Z</time></trkpt><trkpt lat="45.655049751655746" lon="4.574069833463441"><ele>732.0</ele><time>2026-05-02T15:42:52Z</time></trkpt><trkpt lat="45.65495374407265" lon="4.5739330750656695"><ele>732.0</ele><time>2026-05-02T15:42:53Z</time></trkpt><trkpt lat="45.65486706773967" lon="4.573759558645276"><ele>732.0</ele><time>2026-05-02T15:42:54Z</time></trkpt><trkpt lat="45.654766833101064" lon="4.573599983450617"><ele>732.0</ele><time>2026-05-02T15:42:55Z</time></trkpt><trkpt lat="45.654674063142274" lon="4.573452292166739"><ele>732.0</ele><time>2026-05-02T15:42:56Z</time></trkpt><trkpt lat="45.654600488262744" lon="4.573322138885949"><ele>731.6</ele><time>2026-05-02T15:42:57Z</time></trkpt><trkpt lat="45.654543704452806" lon="4.573212113829148"><ele>731.2</ele><time>2026-05-02T15:42:58Z</time></trkpt><trkpt lat="45.654546437946316" lon="4.573051295902871"><ele>730.8</ele><time>2026-05-02T15:42:59Z</time></trkpt><trkpt lat="45.65456152299221" lon="4.572893384930884"><ele>730.4</ele><time>2026-05-02T15:43:00Z</time></trkpt><trkpt lat="45.65464069516382" lon="4.572767275909927"><ele>730.0</ele><time>2026-05-02T15:43:01Z</time></trkpt><trkpt lat="45.654709353292894" lon="4.572628220395948"><ele>730.0</ele><time>2026-05-02T15:43:02Z</time></trkpt><trkpt lat="45.654800569068804" lon="4.572475131038488"><ele>730.0</ele><time>2026-05-02T15:43:03Z</time></trkpt><trkpt lat="45.654901403948294" lon="4.572306132227598"><ele>730.0</ele><time>2026-05-02T15:43:04Z</time></trkpt><trkpt lat="45.65497322130948" lon="4.572138023397704"><ele>730.0</ele><time>2026-05-02T15:43:05Z</time></trkpt><trkpt lat="45.655010281510535" lon="4.5719654391832645"><ele>730.5</ele><time>2026-05-02T15:43:06Z</time></trkpt><trkpt lat="45.655017676484086" lon="4.571775494307621"><ele>731.0</ele><time>2026-05-02T15:43:07Z</time></trkpt><trkpt lat="45.6550009560939" lon="4.571577987567094"><ele>731.5</ele><time>2026-05-02T15:43:08Z</time></trkpt><trkpt lat="45.654956521524" lon="4.571375318309411"><ele>732.0</ele><time>2026-05-02T15:43:09Z</time></trkpt><trkpt lat="45.65489783663905" lon="4.571167632289835"><ele>732.0</ele><time>2026-05-02T15:43:10Z</time></trkpt><trkpt lat="45.654833580815975" lon="4.570949085485842"><ele>732.0</ele><time>2026-05-02T15:43:11Z</time></trkpt><trkpt lat="45.65477174130828" lon="4.570757573457141"><ele>732.0</ele><time>2026-05-02T15:43:12Z</time></trkpt><trkpt lat="45.654711521881985" lon="4.570603077839093"><ele>732.0</ele><time>2026-05-02T15:43:13Z</time></trkpt><trkpt lat="45.654651954530635" lon="4.5704657210277215"><ele>732.4000000000001</ele><time>2026-05-02T15:43:14Z</time></trkpt><trkpt lat="45.654579117547506" lon="4.5703472368408"><ele>732.8000000000001</ele><time>2026-05-02T15:43:15Z</time></trkpt><trkpt lat="45.6545141744738" lon="4.570234219292249"><ele>733.2</ele><time>2026-05-02T15:43:16Z</time></trkpt><trkpt lat="45.65445999944758" lon="4.57013874760884"><ele>733.6</ele><time>2026-05-02T15:43:17Z</time></trkpt><trkpt lat="45.65441588353182" lon="4.570031959055537"><ele>734.0</ele><time>2026-05-02T15:43:18Z</time></trkpt><trkpt lat="45.654390916176126" lon="4.5699059246086"><ele>734.0</ele><time>2026-05-02T15:43:19Z</time></trkpt><trkpt lat="45.65441730133447" lon="4.569776338438586"><ele>734.0</ele><time>2026-05-02T15:43:20Z</time></trkpt><trkpt lat="45.654462842981644" lon="4.569654604274685"><ele>734.0</ele><time>2026-05-02T15:43:21Z</time></trkpt><trkpt lat="45.65454223098644" lon="4.5695863924485325"><ele>734.0</ele><time>2026-05-02T15:43:22Z</time></trkpt><trkpt lat="45.6546425110576" lon="4.56957700277408"><ele>734.0</ele><time>2026-05-02T15:43:23Z</time></trkpt><trkpt lat="45.65473959109819" lon="4.569564268558042"><ele>736.0</ele><time>2026-05-02T15:43:24Z</time></trkpt><trkpt lat="45.654888255605954" lon="4.569525012642939"><ele>738.0</ele><time>2026-05-02T15:43:25Z</time></trkpt><trkpt lat="45.6550214597897" lon="4.5695177560730444"><ele>740.0</ele><time>2026-05-02T15:43:26Z</time></trkpt><trkpt lat="45.65517126494547" lon="4.569493917865673"><ele>742.0</ele><time>2026-05-02T15:43:27Z</time></trkpt><trkpt lat="45.65532231712195" lon="4.569459925373305"><ele>742.0</ele><time>2026-05-02T15:43:28Z</time></trkpt><trkpt lat="45.65547609194879" lon="4.569419025010704"><ele>742.0</ele><time>2026-05-02T15:43:29Z</time></trkpt><trkpt lat="45.65561858705146" lon="4.569381348200153"><ele>742.0</ele><time>2026-05-02T15:43:30Z</time></trkpt><trkpt lat="45.65574105869341" lon="4.569335659176423"><ele>742.0</ele><time>2026-05-02T15:43:31Z</time></trkpt><trkpt lat="45.65584897778365" lon="4.569291746732331"><ele>742.0</ele><time>2026-05-02T15:43:32Z</time></trkpt><trkpt lat="45.65594331988697" lon="4.569241598133688"><ele>742.0</ele><time>2026-05-02T15:43:33Z</time></trkpt><trkpt lat="45.65602199589902" lon="4.569189101863379"><ele>742.0</ele><time>2026-05-02T15:43:34Z</time></trkpt><trkpt lat="45.6560871874533" lon="4.569134155133607"><ele>742.0</ele><time>2026-05-02T15:43:35Z</time></trkpt><trkpt lat="45.65615230069067" lon="4.569066125901009"><ele>742.0</ele><time>2026-05-02T15:43:36Z</time></trkpt><trkpt lat="45.656206891135426" lon="4.568968851909282"><ele>742.0</ele><time>2026-05-02T15:43:37Z</time></trkpt><trkpt lat="45.656237882861745" lon="4.568839783095068"><ele>742.0</ele><time>2026-05-02T15:43:38Z</time></trkpt><trkpt lat="45.656250766786904" lon="4.568700889745729"><ele>742.0</ele><time>2026-05-02T15:43:39Z</time></trkpt><trkpt lat="45.656225766412945" lon="4.568547206082764"><ele>742.0</ele><time>2026-05-02T15:43:40Z</time></trkpt><trkpt lat="45.65616037443113" lon="4.568385604529498"><ele>742.0</ele><time>2026-05-02T15:43:41Z</time></trkpt><trkpt lat="45.656114751225054" lon="4.56824436718265"><ele>742.0</ele><time>2026-05-02T15:43:42Z</time></trkpt><trkpt lat="45.65607700077906" lon="4.568111417335682"><ele>742.0</ele><time>2026-05-02T15:43:42.999Z</time></trkpt><trkpt lat="45.65606296185772" lon="4.567967377227421"><ele>742.0</ele><time>2026-05-02T15:43:43.999Z</time></trkpt><trkpt lat="45.65605035812035" lon="4.567809920096684"><ele>742.0</ele><time>2026-05-02T15:43:44.999Z</time></trkpt><trkpt lat="45.6560654546375" lon="4.567642066556362"><ele>742.0</ele><time>2026-05-02T15:43:45.999Z</time></trkpt><trkpt lat="45.65612592278437" lon="4.567485995484496"><ele>739.75</ele><time>2026-05-02T15:43:46.999Z</time></trkpt><trkpt lat="45.6561881690591" lon="4.567324165908744"><ele>737.5</ele><time>2026-05-02T15:43:47.999Z</time></trkpt><trkpt lat="45.656248542358924" lon="4.567164096681677"><ele>735.25</ele><time>2026-05-02T15:43:48.999Z</time></trkpt><trkpt lat="45.656312298086824" lon="4.566985324972702"><ele>733.0</ele><time>2026-05-02T15:43:49.999Z</time></trkpt><trkpt lat="45.65637548577185" lon="4.566803720537239"><ele>733.0</ele><time>2026-05-02T15:43:50.999Z</time></trkpt><trkpt lat="45.65644316711073" lon="4.566636448216118"><ele>733.0</ele><time>2026-05-02T15:43:51.999Z</time></trkpt><trkpt lat="45.656508484507555" lon="4.566495624135721"><ele>733.0</ele><time>2026-05-02T15:43:52.999Z</time></trkpt><trkpt lat="45.65658224682617" lon="4.566370332859142"><ele>733.0</ele><time>2026-05-02T15:43:53.999Z</time></trkpt><trkpt lat="45.65667226672742" lon="4.566276493728186"><ele>733.0</ele><time>2026-05-02T15:43:54.999Z</time></trkpt><trkpt lat="45.656776850381846" lon="4.566227654882273"><ele>733.0</ele><time>2026-05-02T15:43:55.999Z</time></trkpt><trkpt lat="45.656892438806786" lon="4.566244033217689"><ele>733.0</ele><time>2026-05-02T15:43:56.999Z</time></trkpt><trkpt lat="45.656995202959905" lon="4.566287005374645"><ele>733.0</ele><time>2026-05-02T15:43:57.999Z</time></trkpt><trkpt lat="45.65709565881684" lon="4.566330511364995"><ele>733.0</ele><time>2026-05-02T15:43:58.999Z</time></trkpt><trkpt lat="45.65717868271565" lon="4.5664106154467135"><ele>731.5999999999999</ele><time>2026-05-02T15:43:59.999Z</time></trkpt><trkpt lat="45.65726092783517" lon="4.566468776030456"><ele>730.1999999999999</ele><time>2026-05-02T15:44:00.999Z</time></trkpt><trkpt lat="45.657347153991054" lon="4.566497198700744"><ele>728.8</ele><time>2026-05-02T15:44:01.999Z</time></trkpt><trkpt lat="45.65744451326557" lon="4.566499569742138"><ele>727.4</ele><time>2026-05-02T15:44:02.999Z</time></trkpt><trkpt lat="45.657542044532946" lon="4.566479729477533"><ele>726.0</ele><time>2026-05-02T15:44:03.999Z</time></trkpt><trkpt lat="45.65763960899471" lon="4.566443652587913"><ele>726.0</ele><time>2026-05-02T15:44:04.999Z</time></trkpt><trkpt lat="45.65773016013911" lon="4.5663814884001726"><ele>726.0</ele><time>2026-05-02T15:44:05.999Z</time></trkpt><trkpt lat="45.65779044848479" lon="4.566317280148686"><ele>726.0</ele><time>2026-05-02T15:44:06.999Z</time></trkpt><trkpt lat="45.657838973352604" lon="4.566252072411402"><ele>726.0</ele><time>2026-05-02T15:44:07.999Z</time></trkpt><trkpt lat="45.65792403223128" lon="4.566143726142814"><ele>726.0</ele><time>2026-05-02T15:44:09.999Z</time></trkpt><trkpt lat="45.65800664125257" lon="4.566042996614"><ele>726.1666666666666</ele><time>2026-05-02T15:44:11.999Z</time></trkpt><trkpt lat="45.65805421754778" lon="4.565978484316803"><ele>726.3333333333334</ele><time>2026-05-02T15:44:12.999Z</time></trkpt><trkpt lat="45.65810710309785" lon="4.565904903925752"><ele>726.5</ele><time>2026-05-02T15:44:13.999Z</time></trkpt><trkpt lat="45.65815864763037" lon="4.565818832825356"><ele>726.6666666666667</ele><time>2026-05-02T15:44:15Z</time></trkpt><trkpt lat="45.65821050950433" lon="4.56573511201814"><ele>726.8333333333334</ele><time>2026-05-02T15:44:16Z</time></trkpt><trkpt lat="45.65825606821473" lon="4.565631568264273"><ele>727.0</ele><time>2026-05-02T15:44:17Z</time></trkpt><trkpt lat="45.658319507302075" lon="4.565535514692181"><ele>727.0</ele><time>2026-05-02T15:44:18Z</time></trkpt><trkpt lat="45.658357662190824" lon="4.565414355185215"><ele>727.0</ele><time>2026-05-02T15:44:19Z</time></trkpt><trkpt lat="45.65841659633546" lon="4.565311202306067"><ele>727.0</ele><time>2026-05-02T15:44:20Z</time></trkpt><trkpt lat="45.65847788595186" lon="4.565176222350864"><ele>727.0</ele><time>2026-05-02T15:44:21Z</time></trkpt><trkpt lat="45.658541074207186" lon="4.5650437061955085"><ele>727.0</ele><time>2026-05-02T15:44:22Z</time></trkpt><trkpt lat="45.658597515175536" lon="4.564923490367018"><ele>727.1666666666667</ele><time>2026-05-02T15:44:23Z</time></trkpt><trkpt lat="45.65865695582656" lon="4.5648202611985536"><ele>727.3333333333334</ele><time>2026-05-02T15:44:24Z</time></trkpt><trkpt lat="45.65870687393991" lon="4.56471359793785"><ele>727.5</ele><time>2026-05-02T15:44:25Z</time></trkpt><trkpt lat="45.658737728238805" lon="4.564602378353525"><ele>727.6666666666666</ele><time>2026-05-02T15:44:26Z</time></trkpt><trkpt lat="45.658762897667074" lon="4.564505509303494"><ele>727.8333333333333</ele><time>2026-05-02T15:44:27Z</time></trkpt><trkpt lat="45.65878730366921" lon="4.564418836584928"><ele>728.0</ele><time>2026-05-02T15:44:28Z</time></trkpt><trkpt lat="45.658846084499594" lon="4.56425962514848"><ele>728.0</ele><time>2026-05-02T15:44:30Z</time></trkpt><trkpt lat="45.65889974300056" lon="4.564175728560974"><ele>728.0</ele><time>2026-05-02T15:44:31Z</time></trkpt><trkpt lat="45.658959404667584" lon="4.564114690844076"><ele>728.0</ele><time>2026-05-02T15:44:32Z</time></trkpt><trkpt lat="45.658991526326076" lon="4.564031900484375"><ele>728.0</ele><time>2026-05-02T15:44:33Z</time></trkpt><trkpt lat="45.6589858354935" lon="4.563925355523929"><ele>728.0</ele><time>2026-05-02T15:44:34Z</time></trkpt><trkpt lat="45.65895758116741" lon="4.56380907637579"><ele>728.0</ele><time>2026-05-02T15:44:35Z</time></trkpt><trkpt lat="45.658958596312324" lon="4.563696744193204"><ele>728.2</ele><time>2026-05-02T15:44:36Z</time></trkpt><trkpt lat="45.658987678609925" lon="4.563585061768844"><ele>728.4</ele><time>2026-05-02T15:44:37Z</time></trkpt><trkpt lat="45.65902926497857" lon="4.563454293384165"><ele>728.6</ele><time>2026-05-02T15:44:38Z</time></trkpt><trkpt lat="45.659073965914864" lon="4.563319534160669"><ele>728.8000000000001</ele><time>2026-05-02T15:44:39Z</time></trkpt><trkpt lat="45.659114913148166" lon="4.563183751215456"><ele>729.0</ele><time>2026-05-02T15:44:40Z</time></trkpt><trkpt lat="45.659153517608765" lon="4.563050329247096"><ele>729.0</ele><time>2026-05-02T15:44:41Z</time></trkpt><trkpt lat="45.65919088518827" lon="4.562922953633817"><ele>729.0</ele><time>2026-05-02T15:44:42Z</time></trkpt><trkpt lat="45.65922886063166" lon="4.562795445837344"><ele>729.0</ele><time>2026-05-02T15:44:43Z</time></trkpt><trkpt lat="45.65926308967237" lon="4.562663434086443"><ele>729.0</ele><time>2026-05-02T15:44:44Z</time></trkpt><trkpt lat="45.65930451910962" lon="4.562536831039759"><ele>729.0</ele><time>2026-05-02T15:44:45Z</time></trkpt><trkpt lat="45.659339089653706" lon="4.562411276851679"><ele>729.2</ele><time>2026-05-02T15:44:46Z</time></trkpt><trkpt lat="45.6593691146855" lon="4.562297980892056"><ele>729.4000000000001</ele><time>2026-05-02T15:44:47Z</time></trkpt><trkpt lat="45.6594043989332" lon="4.562165732038892"><ele>729.6</ele><time>2026-05-02T15:44:48Z</time></trkpt><trkpt lat="45.65944192618328" lon="4.5620207546450535"><ele>729.8</ele><time>2026-05-02T15:44:49Z</time></trkpt><trkpt lat="45.65947223629978" lon="4.561868102366493"><ele>730.0</ele><time>2026-05-02T15:44:50Z</time></trkpt><trkpt lat="45.659506523581065" lon="4.561729822279094"><ele>730.0</ele><time>2026-05-02T15:44:51Z</time></trkpt><trkpt lat="45.65953057972772" lon="4.5616084252433495"><ele>730.0</ele><time>2026-05-02T15:44:52Z</time></trkpt><trkpt lat="45.659553350731635" lon="4.561493696668359"><ele>730.0</ele><time>2026-05-02T15:44:53Z</time></trkpt><trkpt lat="45.65957955437894" lon="4.561398875632233"><ele>730.0</ele><time>2026-05-02T15:44:54Z</time></trkpt><trkpt lat="45.65961588148488" lon="4.561249201675355"><ele>730.0</ele><time>2026-05-02T15:44:56Z</time></trkpt><trkpt lat="45.65965781002049" lon="4.5611135455725345"><ele>730.6</ele><time>2026-05-02T15:44:58Z</time></trkpt><trkpt lat="45.65970140609423" lon="4.560907706358628"><ele>731.2</ele><time>2026-05-02T15:45:00Z</time></trkpt><trkpt lat="45.659740389582566" lon="4.560748648967011"><ele>731.8</ele><time>2026-05-02T15:45:01Z</time></trkpt><trkpt lat="45.65976774266634" lon="4.560618833795351"><ele>732.4</ele><time>2026-05-02T15:45:02Z</time></trkpt><trkpt lat="45.65978745419463" lon="4.560512341049433"><ele>733.0</ele><time>2026-05-02T15:45:03Z</time></trkpt><trkpt lat="45.659818227928035" lon="4.560412219040062"><ele>733.1428571428571</ele><time>2026-05-02T15:45:04Z</time></trkpt><trkpt lat="45.65984627980215" lon="4.56031098246445"><ele>733.2857142857142</ele><time>2026-05-02T15:45:05Z</time></trkpt><trkpt lat="45.659868661722705" lon="4.560209669547305"><ele>733.4285714285713</ele><time>2026-05-02T15:45:06Z</time></trkpt><trkpt lat="45.659898058122515" lon="4.560110449968634"><ele>733.5714285714286</ele><time>2026-05-02T15:45:07Z</time></trkpt><trkpt lat="45.65991204212405" lon="4.560006241427792"><ele>733.7142857142858</ele><time>2026-05-02T15:45:08Z</time></trkpt><trkpt lat="45.65994393248146" lon="4.559909416790684"><ele>733.8571428571428</ele><time>2026-05-02T15:45:09Z</time></trkpt><trkpt lat="45.65997612725368" lon="4.559815315211293"><ele>734.0</ele><time>2026-05-02T15:45:10Z</time></trkpt><trkpt lat="45.65999698693197" lon="4.559710554956843"><ele>734.0</ele><time>2026-05-02T15:45:11Z</time></trkpt><trkpt lat="45.66002044059961" lon="4.559614841754181"><ele>734.0</ele><time>2026-05-02T15:45:12Z</time></trkpt><trkpt lat="45.66010410135173" lon="4.559473102147072"><ele>734.0</ele><time>2026-05-02T15:45:14Z</time></trkpt><trkpt lat="45.66017038313298" lon="4.559413784996293"><ele>734.0</ele><time>2026-05-02T15:45:15Z</time></trkpt><trkpt lat="45.66025354149992" lon="4.559387526321892"><ele>734.0</ele><time>2026-05-02T15:45:16Z</time></trkpt><trkpt lat="45.6603385063299" lon="4.559392765975707"><ele>734.0</ele><time>2026-05-02T15:45:17Z</time></trkpt><trkpt lat="45.66040838274312" lon="4.559420540643585"><ele>733.4000000000001</ele><time>2026-05-02T15:45:18Z</time></trkpt><trkpt lat="45.66047205455911" lon="4.559432585789004"><ele>732.8</ele><time>2026-05-02T15:45:19Z</time></trkpt><trkpt lat="45.66053039864934" lon="4.559473332670827"><ele>732.2</ele><time>2026-05-02T15:45:20Z</time></trkpt><trkpt lat="45.66061533385854" lon="4.559563964837997"><ele>731.5999999999999</ele><time>2026-05-02T15:45:22Z</time></trkpt><trkpt lat="45.66072828166575" lon="4.55965632540869"><ele>731.0</ele><time>2026-05-02T15:45:24Z</time></trkpt><trkpt lat="45.660817122307755" lon="4.559739817833617"><ele>731.0</ele><time>2026-05-02T15:45:25Z</time></trkpt><trkpt lat="45.66090395621845" lon="4.559806056961108"><ele>731.0</ele><time>2026-05-02T15:45:26Z</time></trkpt><trkpt lat="45.660971292436" lon="4.559857421935976"><ele>731.0</ele><time>2026-05-02T15:45:27Z</time></trkpt><trkpt lat="45.6610334817513" lon="4.559904767603611"><ele>731.0</ele><time>2026-05-02T15:45:28Z</time></trkpt><trkpt lat="45.66109751179336" lon="4.559931151197585"><ele>731.0</ele><time>2026-05-02T15:45:29Z</time></trkpt><trkpt lat="45.66115251789882" lon="4.55998035545944"><ele>731.0</ele><time>2026-05-02T15:45:30Z</time></trkpt><trkpt lat="45.661213944505" lon="4.560025745295448"><ele>731.0</ele><time>2026-05-02T15:45:31Z</time></trkpt><trkpt lat="45.66128125144403" lon="4.560093074301488"><ele>730.8333333333333</ele><time>2026-05-02T15:45:32Z</time></trkpt><trkpt lat="45.661356188841985" lon="4.560152490518133"><ele>730.6666666666666</ele><time>2026-05-02T15:45:33Z</time></trkpt><trkpt lat="45.661436921598856" lon="4.560217191577918"><ele>730.5</ele><time>2026-05-02T15:45:34Z</time></trkpt><trkpt lat="45.66150679799731" lon="4.560273192061101"><ele>730.3333333333334</ele><time>2026-05-02T15:45:35Z</time></trkpt><trkpt lat="45.66157937979348" lon="4.5603249158051815"><ele>730.1666666666667</ele><time>2026-05-02T15:45:36Z</time></trkpt><trkpt lat="45.66164227939907" lon="4.56036898630999"><ele>730.0</ele><time>2026-05-02T15:45:37Z</time></trkpt><trkpt lat="45.6617012099193" lon="4.56041435527078"><ele>730.0</ele><time>2026-05-02T15:45:38Z</time></trkpt><trkpt lat="45.661762903489404" lon="4.560486080953665"><ele>730.0</ele><time>2026-05-02T15:45:39Z</time></trkpt><trkpt lat="45.66180991661241" lon="4.560567837372841"><ele>730.0</ele><time>2026-05-02T15:45:40Z</time></trkpt><trkpt lat="45.66186229721347" lon="4.56065835353918"><ele>730.0</ele><time>2026-05-02T15:45:41Z</time></trkpt><trkpt lat="45.66192038570585" lon="4.560746415756832"><ele>730.0</ele><time>2026-05-02T15:45:41.999Z</time></trkpt><trkpt lat="45.66198434572052" lon="4.560829330615482"><ele>730.0</ele><time>2026-05-02T15:45:42.999Z</time></trkpt><trkpt lat="45.6620448128558" lon="4.560897478799433"><ele>730.2</ele><time>2026-05-02T15:45:43.999Z</time></trkpt><trkpt lat="45.662125715494355" lon="4.560988544725896"><ele>730.4</ele><time>2026-05-02T15:45:44.999Z</time></trkpt><trkpt lat="45.662200506304295" lon="4.561090360571738"><ele>730.5999999999999</ele><time>2026-05-02T15:45:45.999Z</time></trkpt><trkpt lat="45.66225843879443" lon="4.561176211526501"><ele>730.8</ele><time>2026-05-02T15:45:46.999Z</time></trkpt><trkpt lat="45.66231362667571" lon="4.561266111526802"><ele>731.0</ele><time>2026-05-02T15:45:47.999Z</time></trkpt><trkpt lat="45.66237981390408" lon="4.561357980475524"><ele>731.0</ele><time>2026-05-02T15:45:48.999Z</time></trkpt><trkpt lat="45.66245619322692" lon="4.561430030532303"><ele>731.0</ele><time>2026-05-02T15:45:49.999Z</time></trkpt><trkpt lat="45.66255172347508" lon="4.561480030810201"><ele>731.0</ele><time>2026-05-02T15:45:50.999Z</time></trkpt><trkpt lat="45.662680465700596" lon="4.561507996352482"><ele>731.0</ele><time>2026-05-02T15:45:51.999Z</time></trkpt><trkpt lat="45.66281977853213" lon="4.561545559456597"><ele>731.0</ele><time>2026-05-02T15:45:52.999Z</time></trkpt><trkpt lat="45.66295076349801" lon="4.561585958771987"><ele>731.0</ele><time>2026-05-02T15:45:53.999Z</time></trkpt><trkpt lat="45.66306708741276" lon="4.561621700875158"><ele>731.0</ele><time>2026-05-02T15:45:54.999Z</time></trkpt><trkpt lat="45.663167159607184" lon="4.561655504567944"><ele>731.0</ele><time>2026-05-02T15:45:55.999Z</time></trkpt><trkpt lat="45.66325729250472" lon="4.561686465138802"><ele>731.0</ele><time>2026-05-02T15:45:56.999Z</time></trkpt><trkpt lat="45.663338204143194" lon="4.5617310314525055"><ele>731.0</ele><time>2026-05-02T15:45:57.999Z</time></trkpt><trkpt lat="45.66341227606886" lon="4.561805790541772"><ele>731.0</ele><time>2026-05-02T15:45:58.999Z</time></trkpt><trkpt lat="45.66348388840973" lon="4.561913569355679"><ele>731.0</ele><time>2026-05-02T15:45:59.999Z</time></trkpt><trkpt lat="45.663569882310384" lon="4.56205681699453"><ele>731.0</ele><time>2026-05-02T15:46:00.999Z</time></trkpt><trkpt lat="45.66368123563686" lon="4.562202874267451"><ele>731.0</ele><time>2026-05-02T15:46:01.999Z</time></trkpt><trkpt lat="45.66379893663314" lon="4.562320113568788"><ele>731.0</ele><time>2026-05-02T15:46:02.999Z</time></trkpt><trkpt lat="45.663908940706165" lon="4.562407486436072"><ele>731.0</ele><time>2026-05-02T15:46:03.999Z</time></trkpt><trkpt lat="45.664009456813694" lon="4.562481500952609"><ele>731.0</ele><time>2026-05-02T15:46:04.999Z</time></trkpt><trkpt lat="45.66411281114364" lon="4.562558409178186"><ele>731.0</ele><time>2026-05-02T15:46:05.999Z</time></trkpt><trkpt lat="45.664227991832036" lon="4.56262927953401"><ele>731.0</ele><time>2026-05-02T15:46:06.999Z</time></trkpt><trkpt lat="45.66434997341854" lon="4.562691335635342"><ele>731.0</ele><time>2026-05-02T15:46:07.999Z</time></trkpt><trkpt lat="45.66447233065739" lon="4.562748601505662"><ele>731.0</ele><time>2026-05-02T15:46:08.999Z</time></trkpt><trkpt lat="45.66459853062884" lon="4.562805014849203"><ele>732.25</ele><time>2026-05-02T15:46:09.999Z</time></trkpt><trkpt lat="45.664726478182516" lon="4.562856622026505"><ele>733.5</ele><time>2026-05-02T15:46:10.999Z</time></trkpt><trkpt lat="45.6648456273336" lon="4.562900631175202"><ele>734.75</ele><time>2026-05-02T15:46:11.999Z</time></trkpt><trkpt lat="45.66495795149787" lon="4.562931307809006"><ele>736.0</ele><time>2026-05-02T15:46:12.999Z</time></trkpt><trkpt lat="45.66507462852304" lon="4.562953511226417"><ele>736.0</ele><time>2026-05-02T15:46:13.999Z</time></trkpt><trkpt lat="45.66521690689042" lon="4.562998221563761"><ele>736.0</ele><time>2026-05-02T15:46:14.999Z</time></trkpt><trkpt lat="45.66534053134857" lon="4.563085487646476"><ele>736.0</ele><time>2026-05-02T15:46:15.999Z</time></trkpt><trkpt lat="45.665446906418374" lon="4.563195065653544"><ele>736.0</ele><time>2026-05-02T15:46:16.999Z</time></trkpt><trkpt lat="45.66553046560774" lon="4.563334551882751"><ele>735.25</ele><time>2026-05-02T15:46:17.999Z</time></trkpt><trkpt lat="45.66559715441562" lon="4.5635089535846305"><ele>734.5</ele><time>2026-05-02T15:46:18.999Z</time></trkpt><trkpt lat="45.66564848238954" lon="4.563676754514769"><ele>733.75</ele><time>2026-05-02T15:46:19.999Z</time></trkpt><trkpt lat="45.66571627250009" lon="4.563824178026159"><ele>733.0</ele><time>2026-05-02T15:46:21Z</time></trkpt><trkpt lat="45.6657954967927" lon="4.563937458910373"><ele>733.0</ele><time>2026-05-02T15:46:22Z</time></trkpt><trkpt lat="45.66588878953137" lon="4.5640219980059324"><ele>733.0</ele><time>2026-05-02T15:46:23Z</time></trkpt><trkpt lat="45.665985437743544" lon="4.564079216034832"><ele>733.0</ele><time>2026-05-02T15:46:24Z</time></trkpt><trkpt lat="45.66610300900888" lon="4.564126215613333"><ele>733.0</ele><time>2026-05-02T15:46:25Z</time></trkpt><trkpt lat="45.66622451655702" lon="4.564121354558729"><ele>731.25</ele><time>2026-05-02T15:46:26Z</time></trkpt><trkpt lat="45.66634916847971" lon="4.564118697755682"><ele>729.5</ele><time>2026-05-02T15:46:27Z</time></trkpt><trkpt lat="45.66647289140939" lon="4.564141659219778"><ele>727.75</ele><time>2026-05-02T15:46:28Z</time></trkpt><trkpt lat="45.666594962188235" lon="4.564189314535401"><ele>726.0</ele><time>2026-05-02T15:46:29Z</time></trkpt><trkpt lat="45.66671377687183" lon="4.564266616372326"><ele>726.0</ele><time>2026-05-02T15:46:30Z</time></trkpt><trkpt lat="45.666816310607615" lon="4.564391718977864"><ele>726.0</ele><time>2026-05-02T15:46:31Z</time></trkpt><trkpt lat="45.666905953270316" lon="4.564523904934459"><ele>726.0</ele><time>2026-05-02T15:46:32Z</time></trkpt><trkpt lat="45.66696131771544" lon="4.564667503103091"><ele>726.0</ele><time>2026-05-02T15:46:33Z</time></trkpt><trkpt lat="45.66700474357018" lon="4.564820229288065"><ele>725.75</ele><time>2026-05-02T15:46:34Z</time></trkpt><trkpt lat="45.667071655963206" lon="4.565008165517261"><ele>725.5</ele><time>2026-05-02T15:46:35Z</time></trkpt><trkpt lat="45.66713055998982" lon="4.5652140731921795"><ele>725.25</ele><time>2026-05-02T15:46:36Z</time></trkpt><trkpt lat="45.667187530535884" lon="4.565391627305892"><ele>725.0</ele><time>2026-05-02T15:46:37Z</time></trkpt><trkpt lat="45.6672472091162" lon="4.565552379881345"><ele>727.25</ele><time>2026-05-02T15:46:38Z</time></trkpt><trkpt lat="45.66732167368173" lon="4.5656680525398174"><ele>729.5</ele><time>2026-05-02T15:46:39Z</time></trkpt><trkpt lat="45.667414235613954" lon="4.565746061244342"><ele>731.75</ele><time>2026-05-02T15:46:40Z</time></trkpt><trkpt lat="45.66753114274472" lon="4.5657729831315566"><ele>734.0</ele><time>2026-05-02T15:46:41Z</time></trkpt><trkpt lat="45.667655280294724" lon="4.565767965984999"><ele>734.0</ele><time>2026-05-02T15:46:42Z</time></trkpt><trkpt lat="45.66781258581994" lon="4.565744650016468"><ele>734.0</ele><time>2026-05-02T15:46:43Z</time></trkpt><trkpt lat="45.667965938258995" lon="4.565732416027074"><ele>734.0</ele><time>2026-05-02T15:46:44Z</time></trkpt><trkpt lat="45.66809942099963" lon="4.565722034593765"><ele>734.0</ele><time>2026-05-02T15:46:45Z</time></trkpt><trkpt lat="45.66822869714883" lon="4.565674071005587"><ele>734.0</ele><time>2026-05-02T15:46:46Z</time></trkpt><trkpt lat="45.66835037387957" lon="4.565592292912116"><ele>734.0</ele><time>2026-05-02T15:46:47Z</time></trkpt><trkpt lat="45.66847599541155" lon="4.565524102408803"><ele>734.0</ele><time>2026-05-02T15:46:48Z</time></trkpt><trkpt lat="45.66859644526059" lon="4.565490249687138"><ele>734.0</ele><time>2026-05-02T15:46:49Z</time></trkpt><trkpt lat="45.66871969757941" lon="4.565523672374066"><ele>734.5</ele><time>2026-05-02T15:46:50Z</time></trkpt><trkpt lat="45.66885027456974" lon="4.565548726768358"><ele>735.0</ele><time>2026-05-02T15:46:51Z</time></trkpt><trkpt lat="45.668979601105725" lon="4.565614452173548"><ele>735.5</ele><time>2026-05-02T15:46:52Z</time></trkpt><trkpt lat="45.669108401420154" lon="4.565657076267874"><ele>736.0</ele><time>2026-05-02T15:46:53Z</time></trkpt><trkpt lat="45.66924351227222" lon="4.565649013519894"><ele>736.0</ele><time>2026-05-02T15:46:54Z</time></trkpt><trkpt lat="45.6693783653616" lon="4.565602873968767"><ele>736.0</ele><time>2026-05-02T15:46:55Z</time></trkpt><trkpt lat="45.66952477735198" lon="4.565540828119068"><ele>736.0</ele><time>2026-05-02T15:46:56Z</time></trkpt><trkpt lat="45.66967296095344" lon="4.56547585875234"><ele>736.0</ele><time>2026-05-02T15:46:57Z</time></trkpt><trkpt lat="45.66982563645049" lon="4.565407866103545"><ele>735.0</ele><time>2026-05-02T15:46:58Z</time></trkpt><trkpt lat="45.66998203390842" lon="4.565337605301465"><ele>734.0</ele><time>2026-05-02T15:46:59Z</time></trkpt><trkpt lat="45.670137052087924" lon="4.5652752307247635"><ele>733.0</ele><time>2026-05-02T15:47:00Z</time></trkpt><trkpt lat="45.67027227588581" lon="4.565192420358054"><ele>733.3333333333334</ele><time>2026-05-02T15:47:01Z</time></trkpt><trkpt lat="45.67040989058438" lon="4.565099689763192"><ele>733.6666666666666</ele><time>2026-05-02T15:47:02Z</time></trkpt><trkpt lat="45.670549175073255" lon="4.564984801862474"><ele>734.0</ele><time>2026-05-02T15:47:03Z</time></trkpt><trkpt lat="45.67068928584181" lon="4.564850473440506"><ele>734.0</ele><time>2026-05-02T15:47:04Z</time></trkpt><trkpt lat="45.67082485329837" lon="4.56471903438597"><ele>734.0</ele><time>2026-05-02T15:47:05Z</time></trkpt><trkpt lat="45.67094541888284" lon="4.564604564694924"><ele>734.0</ele><time>2026-05-02T15:47:06Z</time></trkpt><trkpt lat="45.67105954421778" lon="4.564505560815923"><ele>734.0</ele><time>2026-05-02T15:47:07Z</time></trkpt><trkpt lat="45.671165994751426" lon="4.564414018281325"><ele>733.5</ele><time>2026-05-02T15:47:08Z</time></trkpt><trkpt lat="45.67126915057035" lon="4.564328494736183"><ele>733.0</ele><time>2026-05-02T15:47:09Z</time></trkpt><trkpt lat="45.6713929355779" lon="4.564287660231609"><ele>732.5</ele><time>2026-05-02T15:47:10Z</time></trkpt><trkpt lat="45.67152736169311" lon="4.564265202514397"><ele>732.0</ele><time>2026-05-02T15:47:11Z</time></trkpt><trkpt lat="45.67167152032207" lon="4.564288993383945"><ele>732.0</ele><time>2026-05-02T15:47:12Z</time></trkpt><trkpt lat="45.67182097779727" lon="4.564332429304569"><ele>732.0</ele><time>2026-05-02T15:47:13Z</time></trkpt><trkpt lat="45.67194081797641" lon="4.564443584160339"><ele>732.0</ele><time>2026-05-02T15:47:14Z</time></trkpt><trkpt lat="45.67203967956609" lon="4.564557531165372"><ele>732.0</ele><time>2026-05-02T15:47:15Z</time></trkpt><trkpt lat="45.67211677109365" lon="4.564692907592786"><ele>729.75</ele><time>2026-05-02T15:47:16Z</time></trkpt><trkpt lat="45.6721547252482" lon="4.564849293937118"><ele>727.5</ele><time>2026-05-02T15:47:17Z</time></trkpt><trkpt lat="45.67219616874307" lon="4.565026816976807"><ele>725.25</ele><time>2026-05-02T15:47:18Z</time></trkpt><trkpt lat="45.672196604810345" lon="4.565214612990669"><ele>723.0</ele><time>2026-05-02T15:47:19Z</time></trkpt><trkpt lat="45.672175048986865" lon="4.565421292565568"><ele>722.0</ele><time>2026-05-02T15:47:20Z</time></trkpt><trkpt lat="45.67215111213688" lon="4.5656311120902044"><ele>721.0</ele><time>2026-05-02T15:47:21Z</time></trkpt><trkpt lat="45.672116232431165" lon="4.565845822519376"><ele>720.0</ele><time>2026-05-02T15:47:22Z</time></trkpt><trkpt lat="45.672093983957204" lon="4.566058812932063"><ele>719.75</ele><time>2026-05-02T15:47:23Z</time></trkpt><trkpt lat="45.67206029023556" lon="4.566248654663022"><ele>719.5</ele><time>2026-05-02T15:47:24Z</time></trkpt><trkpt lat="45.67204154611406" lon="4.566431926860095"><ele>719.25</ele><time>2026-05-02T15:47:25Z</time></trkpt><trkpt lat="45.67204171329292" lon="4.5666088341451205"><ele>719.0</ele><time>2026-05-02T15:47:26Z</time></trkpt><trkpt lat="45.6720570120802" lon="4.56678091340037"><ele>719.0</ele><time>2026-05-02T15:47:27Z</time></trkpt><trkpt lat="45.672079933969684" lon="4.566936080470265"><ele>719.0</ele><time>2026-05-02T15:47:28Z</time></trkpt><trkpt lat="45.67212681892467" lon="4.567074530401656"><ele>719.0</ele><time>2026-05-02T15:47:29Z</time></trkpt><trkpt lat="45.67220421978018" lon="4.567194281190999"><ele>719.0</ele><time>2026-05-02T15:47:30Z</time></trkpt><trkpt lat="45.67230006694416" lon="4.567276141916917"><ele>719.0</ele><time>2026-05-02T15:47:31Z</time></trkpt><trkpt lat="45.67241534678939" lon="4.567307060037736"><ele>719.0</ele><time>2026-05-02T15:47:32Z</time></trkpt><trkpt lat="45.67253934767052" lon="4.567296454070677"><ele>719.0</ele><time>2026-05-02T15:47:33Z</time></trkpt><trkpt lat="45.67265988968608" lon="4.567228398519481"><ele>719.0</ele><time>2026-05-02T15:47:34Z</time></trkpt><trkpt lat="45.67279127180273" lon="4.567145798074054"><ele>719.0</ele><time>2026-05-02T15:47:35Z</time></trkpt><trkpt lat="45.67293881059641" lon="4.567074812434844"><ele>719.0</ele><time>2026-05-02T15:47:36Z</time></trkpt><trkpt lat="45.673090204869524" lon="4.567068939341102"><ele>719.0</ele><time>2026-05-02T15:47:37Z</time></trkpt><trkpt lat="45.673239432108396" lon="4.567097576641901"><ele>719.0</ele><time>2026-05-02T15:47:38Z</time></trkpt><trkpt lat="45.67338132524772" lon="4.567145715754456"><ele>719.0</ele><time>2026-05-02T15:47:39Z</time></trkpt><trkpt lat="45.67351004930931" lon="4.567198904841174"><ele>720.25</ele><time>2026-05-02T15:47:40Z</time></trkpt><trkpt lat="45.67363079442552" lon="4.567267682838274"><ele>721.5</ele><time>2026-05-02T15:47:40.999Z</time></trkpt><trkpt lat="45.67376038573315" lon="4.567321987326048"><ele>722.75</ele><time>2026-05-02T15:47:41.999Z</time></trkpt><trkpt lat="45.67387829369671" lon="4.5673911104572245"><ele>724.0</ele><time>2026-05-02T15:47:42.999Z</time></trkpt><trkpt lat="45.673971621218904" lon="4.5674784773914485"><ele>724.0</ele><time>2026-05-02T15:47:43.999Z</time></trkpt><trkpt lat="45.67403673554555" lon="4.5676043250454565"><ele>724.0</ele><time>2026-05-02T15:47:44.999Z</time></trkpt><trkpt lat="45.67412382687121" lon="4.567702577329897"><ele>724.0</ele><time>2026-05-02T15:47:45.999Z</time></trkpt><trkpt lat="45.67419842390947" lon="4.567815186805413"><ele>724.0</ele><time>2026-05-02T15:47:46.999Z</time></trkpt><trkpt lat="45.67428861984328" lon="4.5678891910337684"><ele>724.0</ele><time>2026-05-02T15:47:47.999Z</time></trkpt><trkpt lat="45.67439904436826" lon="4.567922437059358"><ele>723.5</ele><time>2026-05-02T15:47:48.999Z</time></trkpt><trkpt lat="45.674529112521235" lon="4.567928729595168"><ele>723.0</ele><time>2026-05-02T15:47:49.999Z</time></trkpt><trkpt lat="45.67467893542663" lon="4.567905267830089"><ele>722.5</ele><time>2026-05-02T15:47:50.999Z</time></trkpt><trkpt lat="45.674836545078584" lon="4.567879295812966"><ele>722.0</ele><time>2026-05-02T15:47:51.999Z</time></trkpt><trkpt lat="45.67499634632087" lon="4.56786784146193"><ele>722.0</ele><time>2026-05-02T15:47:52.999Z</time></trkpt><trkpt lat="45.67516161459773" lon="4.567865799130301"><ele>722.0</ele><time>2026-05-02T15:47:53.999Z</time></trkpt><trkpt lat="45.67533503655011" lon="4.5678734657364295"><ele>722.0</ele><time>2026-05-02T15:47:54.999Z</time></trkpt><trkpt lat="45.675505036525216" lon="4.567875960378753"><ele>723.0</ele><time>2026-05-02T15:47:55.999Z</time></trkpt><trkpt lat="45.675671716499586" lon="4.567876850738555"><ele>724.0</ele><time>2026-05-02T15:47:56.999Z</time></trkpt><trkpt lat="45.675822224548654" lon="4.56789927257859"><ele>725.0</ele><time>2026-05-02T15:47:57.999Z</time></trkpt><trkpt lat="45.675965873599374" lon="4.5679697010089555"><ele>727.0</ele><time>2026-05-02T15:47:58.999Z</time></trkpt><trkpt lat="45.67611767965654" lon="4.56802867122147"><ele>729.0</ele><time>2026-05-02T15:47:59.999Z</time></trkpt><trkpt lat="45.67625971960394" lon="4.568114343027671"><ele>731.0</ele><time>2026-05-02T15:48:00.999Z</time></trkpt><trkpt lat="45.676404478770586" lon="4.5681978862589405"><ele>731.0</ele><time>2026-05-02T15:48:01.999Z</time></trkpt><trkpt lat="45.676559160518146" lon="4.568282070069522"><ele>731.0</ele><time>2026-05-02T15:48:02.999Z</time></trkpt><trkpt lat="45.67670335251839" lon="4.568343562339473"><ele>731.0</ele><time>2026-05-02T15:48:03.999Z</time></trkpt><trkpt lat="45.67684828133673" lon="4.56837288874681"><ele>731.6666666666666</ele><time>2026-05-02T15:48:04.999Z</time></trkpt><trkpt lat="45.67699952765978" lon="4.568351055727389"><ele>732.3333333333334</ele><time>2026-05-02T15:48:05.999Z</time></trkpt><trkpt lat="45.67716404305385" lon="4.568311511639991"><ele>733.0</ele><time>2026-05-02T15:48:06.999Z</time></trkpt><trkpt lat="45.67734541552866" lon="4.568306872880752"><ele>733.0</ele><time>2026-05-02T15:48:07.999Z</time></trkpt><trkpt lat="45.67751470398052" lon="4.568285901861043"><ele>733.0</ele><time>2026-05-02T15:48:08.999Z</time></trkpt><trkpt lat="45.67767142720312" lon="4.568267382712544"><ele>733.0</ele><time>2026-05-02T15:48:09.999Z</time></trkpt><trkpt lat="45.67783049486619" lon="4.568264148526537"><ele>734.0</ele><time>2026-05-02T15:48:10.999Z</time></trkpt><trkpt lat="45.67798058105594" lon="4.568287099614425"><ele>735.0</ele><time>2026-05-02T15:48:11.999Z</time></trkpt><trkpt lat="45.678123739167795" lon="4.568337440799106"><ele>736.0</ele><time>2026-05-02T15:48:12.999Z</time></trkpt><trkpt lat="45.67825569382003" lon="4.568423744233275"><ele>737.0</ele><time>2026-05-02T15:48:13.999Z</time></trkpt><trkpt lat="45.67837750345947" lon="4.568538033723302"><ele>737.0</ele><time>2026-05-02T15:48:14.999Z</time></trkpt><trkpt lat="45.678505552400416" lon="4.568636442417059"><ele>737.0</ele><time>2026-05-02T15:48:15.999Z</time></trkpt><trkpt lat="45.67862029762947" lon="4.568747482268241"><ele>737.0</ele><time>2026-05-02T15:48:16.999Z</time></trkpt><trkpt lat="45.67872839765437" lon="4.56884265904055"><ele>737.0</ele><time>2026-05-02T15:48:17.999Z</time></trkpt><trkpt lat="45.678828423293915" lon="4.568928700921643"><ele>738.0</ele><time>2026-05-02T15:48:18.999Z</time></trkpt><trkpt lat="45.6789209140746" lon="4.56901127357362"><ele>739.0</ele><time>2026-05-02T15:48:19.999Z</time></trkpt><trkpt lat="45.67902525744644" lon="4.56908910189963"><ele>740.0</ele><time>2026-05-02T15:48:20.999Z</time></trkpt><trkpt lat="45.67913920244539" lon="4.569143877172225"><ele>741.0</ele><time>2026-05-02T15:48:21.999Z</time></trkpt><trkpt lat="45.67926281871325" lon="4.569166156384012"><ele>741.0</ele><time>2026-05-02T15:48:22.999Z</time></trkpt><trkpt lat="45.679401611240436" lon="4.5691471234892305"><ele>741.0</ele><time>2026-05-02T15:48:23.999Z</time></trkpt><trkpt lat="45.67955732228842" lon="4.569095725187817"><ele>741.0</ele><time>2026-05-02T15:48:24.999Z</time></trkpt><trkpt lat="45.6797261486371" lon="4.569040635939066"><ele>742.6666666666666</ele><time>2026-05-02T15:48:25.999Z</time></trkpt><trkpt lat="45.679904918590566" lon="4.568991759924494"><ele>744.3333333333333</ele><time>2026-05-02T15:48:27Z</time></trkpt><trkpt lat="45.68008143064083" lon="4.568949430200246"><ele>746.0</ele><time>2026-05-02T15:48:28Z</time></trkpt><trkpt lat="45.6802348784084" lon="4.568920343480384"><ele>747.0</ele><time>2026-05-02T15:48:29Z</time></trkpt><trkpt lat="45.68037482269449" lon="4.568897528734949"><ele>748.0</ele><time>2026-05-02T15:48:30Z</time></trkpt><trkpt lat="45.68051557353497" lon="4.568900746121214"><ele>749.0</ele><time>2026-05-02T15:48:31Z</time></trkpt><trkpt lat="45.68065063353729" lon="4.568966330900955"><ele>750.0</ele><time>2026-05-02T15:48:32Z</time></trkpt><trkpt lat="45.68078852551121" lon="4.569008674470692"><ele>750.0</ele><time>2026-05-02T15:48:33Z</time></trkpt><trkpt lat="45.68091484675858" lon="4.5690814388776415"><ele>750.0</ele><time>2026-05-02T15:48:34Z</time></trkpt><trkpt lat="45.68102986210259" lon="4.569131810587608"><ele>750.0</ele><time>2026-05-02T15:48:35Z</time></trkpt><trkpt lat="45.68113595257828" lon="4.56915286322327"><ele>750.0</ele><time>2026-05-02T15:48:36Z</time></trkpt><trkpt lat="45.68123837599736" lon="4.56914580725001"><ele>750.8</ele><time>2026-05-02T15:48:37Z</time></trkpt><trkpt lat="45.68134592124306" lon="4.569109836166658"><ele>751.6</ele><time>2026-05-02T15:48:38Z</time></trkpt><trkpt lat="45.681436015484046" lon="4.5690548892210305"><ele>752.4000000000001</ele><time>2026-05-02T15:48:39Z</time></trkpt><trkpt lat="45.681512112976435" lon="4.568970090052352"><ele>753.2</ele><time>2026-05-02T15:48:40Z</time></trkpt><trkpt lat="45.6815929818606" lon="4.568874738944422"><ele>754.0</ele><time>2026-05-02T15:48:41Z</time></trkpt><trkpt lat="45.681677031510276" lon="4.568793323480824"><ele>754.0</ele><time>2026-05-02T15:48:42Z</time></trkpt><trkpt lat="45.681776330294376" lon="4.568749761293633"><ele>754.0</ele><time>2026-05-02T15:48:43Z</time></trkpt><trkpt lat="45.68188358930248" lon="4.568755996523718"><ele>754.0</ele><time>2026-05-02T15:48:44Z</time></trkpt><trkpt lat="45.68197298162985" lon="4.568811445087703"><ele>754.0</ele><time>2026-05-02T15:48:45Z</time></trkpt><trkpt lat="45.68203490043546" lon="4.5689004779026865"><ele>754.0</ele><time>2026-05-02T15:48:46Z</time></trkpt><trkpt lat="45.6820550316535" lon="4.569015689276855"><ele>754.0</ele><time>2026-05-02T15:48:47Z</time></trkpt><trkpt lat="45.68205765619262" lon="4.569154990036126"><ele>754.0</ele><time>2026-05-02T15:48:48Z</time></trkpt><trkpt lat="45.68207184146855" lon="4.569340725791681"><ele>754.0</ele><time>2026-05-02T15:48:49Z</time></trkpt><trkpt lat="45.68209173453735" lon="4.569560935885972"><ele>754.0</ele><time>2026-05-02T15:48:50Z</time></trkpt><trkpt lat="45.68211585977124" lon="4.569827663987638"><ele>754.0</ele><time>2026-05-02T15:48:51Z</time></trkpt><trkpt lat="45.68213558140915" lon="4.570076602833854"><ele>754.0</ele><time>2026-05-02T15:48:52Z</time></trkpt><trkpt lat="45.68214500631375" lon="4.570299007970242"><ele>754.0</ele><time>2026-05-02T15:48:53Z</time></trkpt><trkpt lat="45.682145138268055" lon="4.570524157462613"><ele>754.6666666666667</ele><time>2026-05-02T15:48:54Z</time></trkpt><trkpt lat="45.68212851118693" lon="4.570740354079059"><ele>755.3333333333334</ele><time>2026-05-02T15:48:55Z</time></trkpt><trkpt lat="45.68206829319222" lon="4.570933499885193"><ele>756.0</ele><time>2026-05-02T15:48:56Z</time></trkpt><trkpt lat="45.68201513946771" lon="4.571145835400543"><ele>755.0</ele><time>2026-05-02T15:48:57Z</time></trkpt><trkpt lat="45.68195036068677" lon="4.5713581914449755"><ele>754.0</ele><time>2026-05-02T15:48:58Z</time></trkpt><trkpt lat="45.68190037248605" lon="4.57157688589018"><ele>753.0</ele><time>2026-05-02T15:48:59Z</time></trkpt><trkpt lat="45.68187006255283" lon="4.571800985641544"><ele>757.6666666666666</ele><time>2026-05-02T15:49:00Z</time></trkpt><trkpt lat="45.681860643051635" lon="4.5720314277405905"><ele>762.3333333333333</ele><time>2026-05-02T15:49:01Z</time></trkpt><trkpt lat="45.681853232548605" lon="4.572246696903395"><ele>767.0</ele><time>2026-05-02T15:49:02Z</time></trkpt><trkpt lat="45.68186377497688" lon="4.572443624529397"><ele>767.0</ele><time>2026-05-02T15:49:03Z</time></trkpt><trkpt lat="45.68190184972525" lon="4.57263319452225"><ele>767.0</ele><time>2026-05-02T15:49:04Z</time></trkpt><trkpt lat="45.68197232199954" lon="4.572805578036849"><ele>767.0</ele><time>2026-05-02T15:49:05Z</time></trkpt><trkpt lat="45.68206847062285" lon="4.5729632362047035"><ele>767.0</ele><time>2026-05-02T15:49:06Z</time></trkpt><trkpt lat="45.68218100985865" lon="4.573117176513147"><ele>766.25</ele><time>2026-05-02T15:49:07Z</time></trkpt><trkpt lat="45.682284055880274" lon="4.573270273416031"><ele>765.5</ele><time>2026-05-02T15:49:08Z</time></trkpt><trkpt lat="45.68237453288337" lon="4.573416047211564"><ele>764.75</ele><time>2026-05-02T15:49:09Z</time></trkpt><trkpt lat="45.68244773547864" lon="4.573549804135001"><ele>764.0</ele><time>2026-05-02T15:49:10Z</time></trkpt><trkpt lat="45.682511722637976" lon="4.573696487347206"><ele>766.0</ele><time>2026-05-02T15:49:11Z</time></trkpt><trkpt lat="45.68257223784178" lon="4.573864362850294"><ele>768.0</ele><time>2026-05-02T15:49:12Z</time></trkpt><trkpt lat="45.6826305223756" lon="4.574042008779618"><ele>770.0</ele><time>2026-05-02T15:49:13Z</time></trkpt><trkpt lat="45.682691645458505" lon="4.574221006445548"><ele>772.0</ele><time>2026-05-02T15:49:14Z</time></trkpt><trkpt lat="45.68275854868185" lon="4.574388290343489"><ele>772.25</ele><time>2026-05-02T15:49:15Z</time></trkpt><trkpt lat="45.68284314569711" lon="4.574531236426414"><ele>772.5</ele><time>2026-05-02T15:49:16Z</time></trkpt><trkpt lat="45.68296421921907" lon="4.574633358424009"><ele>772.75</ele><time>2026-05-02T15:49:17Z</time></trkpt><trkpt lat="45.68310833757977" lon="4.574714307048938"><ele>773.0</ele><time>2026-05-02T15:49:18Z</time></trkpt><trkpt lat="45.683263990484434" lon="4.574772614897473"><ele>773.0</ele><time>2026-05-02T15:49:19Z</time></trkpt><trkpt lat="45.683428185292314" lon="4.574831206583614"><ele>773.0</ele><time>2026-05-02T15:49:20Z</time></trkpt><trkpt lat="45.68357394630112" lon="4.574903015926881"><ele>773.0</ele><time>2026-05-02T15:49:21Z</time></trkpt><trkpt lat="45.68370968496447" lon="4.574993239811941"><ele>773.5</ele><time>2026-05-02T15:49:22Z</time></trkpt><trkpt lat="45.683836857568366" lon="4.575101805441402"><ele>774.0</ele><time>2026-05-02T15:49:23Z</time></trkpt><trkpt lat="45.68394316728669" lon="4.575249082702077"><ele>774.5</ele><time>2026-05-02T15:49:24Z</time></trkpt><trkpt lat="45.68406218398795" lon="4.575376606239347"><ele>775.0</ele><time>2026-05-02T15:49:25Z</time></trkpt><trkpt lat="45.68415998970497" lon="4.575520987028992"><ele>775.0</ele><time>2026-05-02T15:49:26Z</time></trkpt><trkpt lat="45.6842398309869" lon="4.575660410289954"><ele>775.0</ele><time>2026-05-02T15:49:27Z</time></trkpt><trkpt lat="45.68432124088466" lon="4.575798779663686"><ele>775.0</ele><time>2026-05-02T15:49:28Z</time></trkpt><trkpt lat="45.68440931680842" lon="4.57592412993067"><ele>775.0</ele><time>2026-05-02T15:49:29Z</time></trkpt><trkpt lat="45.684498756556714" lon="4.576007893360321"><ele>774.0</ele><time>2026-05-02T15:49:30Z</time></trkpt><trkpt lat="45.68461641112934" lon="4.576070671047928"><ele>773.0</ele><time>2026-05-02T15:49:31Z</time></trkpt><trkpt lat="45.68476032596882" lon="4.576116944708575"><ele>772.0</ele><time>2026-05-02T15:49:32Z</time></trkpt><trkpt lat="45.68491307992297" lon="4.576165637347184"><ele>771.0</ele><time>2026-05-02T15:49:33Z</time></trkpt><trkpt lat="45.68504867307294" lon="4.5762188135512"><ele>771.0</ele><time>2026-05-02T15:49:34Z</time></trkpt><trkpt lat="45.685176586509776" lon="4.5762713774332715"><ele>771.0</ele><time>2026-05-02T15:49:35Z</time></trkpt><trkpt lat="45.68529780339702" lon="4.576314832232478"><ele>771.0</ele><time>2026-05-02T15:49:36Z</time></trkpt><trkpt lat="45.68540328774305" lon="4.5763560763211615"><ele>771.0</ele><time>2026-05-02T15:49:37Z</time></trkpt><trkpt lat="45.68548839628127" lon="4.576387987345349"><ele>770.6666666666666</ele><time>2026-05-02T15:49:38Z</time></trkpt><trkpt lat="45.68555577782586" lon="4.576409954369632"><ele>770.3333333333333</ele><time>2026-05-02T15:49:39Z</time></trkpt><trkpt lat="45.68565729412637" lon="4.576441383543729"><ele>770.0</ele><time>2026-05-02T15:49:41Z</time></trkpt><trkpt lat="45.685729924942684" lon="4.576460606549663"><ele>769.6666666666666</ele><time>2026-05-02T15:49:43Z</time></trkpt><trkpt lat="45.6858055493796" lon="4.576484582746706"><ele>769.3333333333333</ele><time>2026-05-02T15:49:45.999Z</time></trkpt><trkpt lat="45.685885735703174" lon="4.5764901478286575"><ele>769.0</ele><time>2026-05-02T15:49:50.999Z</time></trkpt><trkpt lat="45.685952562155556" lon="4.576527942439897"><ele>768.9999999999999</ele><time>2026-05-02T15:49:51.999Z</time></trkpt><trkpt lat="45.686026518366035" lon="4.576549820608064"><ele>769.0</ele><time>2026-05-02T15:49:52.999Z</time></trkpt><trkpt lat="45.68610260466708" lon="4.576560347461343"><ele>769.0</ele><time>2026-05-02T15:49:53.999Z</time></trkpt><trkpt lat="45.68618012628694" lon="4.576591779195389"><ele>769.0</ele><time>2026-05-02T15:49:54.999Z</time></trkpt><trkpt lat="45.686277562561145" lon="4.576625060648259"><ele>768.9999999999999</ele><time>2026-05-02T15:49:55.999Z</time></trkpt><trkpt lat="45.686380059485565" lon="4.576652233563689"><ele>769.0</ele><time>2026-05-02T15:49:56.999Z</time></trkpt><trkpt lat="45.68648075563324" lon="4.576680111674253"><ele>769.2</ele><time>2026-05-02T15:49:57.999Z</time></trkpt><trkpt lat="45.68657906792769" lon="4.576702614838886"><ele>769.4000000000001</ele><time>2026-05-02T15:49:58.999Z</time></trkpt><trkpt lat="45.68667331870589" lon="4.576713048994541"><ele>769.6</ele><time>2026-05-02T15:49:59.999Z</time></trkpt><trkpt lat="45.686771202949345" lon="4.576718601530343"><ele>769.8</ele><time>2026-05-02T15:50:00.999Z</time></trkpt><trkpt lat="45.68687974136544" lon="4.576726353664895"><ele>770.0</ele><time>2026-05-02T15:50:01.999Z</time></trkpt><trkpt lat="45.68699814685707" lon="4.576735259675719"><ele>769.5</ele><time>2026-05-02T15:50:02.999Z</time></trkpt><trkpt lat="45.68712214665995" lon="4.576745989580306"><ele>769.0</ele><time>2026-05-02T15:50:03.999Z</time></trkpt><trkpt lat="45.68725268744527" lon="4.576754241215358"><ele>768.5</ele><time>2026-05-02T15:50:04.999Z</time></trkpt><trkpt lat="45.687375040180655" lon="4.576769383816398"><ele>768.0</ele><time>2026-05-02T15:50:05.999Z</time></trkpt><trkpt lat="45.68748596140259" lon="4.576790523574283"><ele>768.0</ele><time>2026-05-02T15:50:06.999Z</time></trkpt><trkpt lat="45.68759165733518" lon="4.576805758649179"><ele>768.0</ele><time>2026-05-02T15:50:07.999Z</time></trkpt><trkpt lat="45.68771129445639" lon="4.576814485166766"><ele>768.0</ele><time>2026-05-02T15:50:08.999Z</time></trkpt><trkpt lat="45.68781488552758" lon="4.576811533356135"><ele>768.0</ele><time>2026-05-02T15:50:09.999Z</time></trkpt><trkpt lat="45.687934064661995" lon="4.576792093812218"><ele>766.5</ele><time>2026-05-02T15:50:10.999Z</time></trkpt><trkpt lat="45.688055140698076" lon="4.576724011983537"><ele>765.0</ele><time>2026-05-02T15:50:11.999Z</time></trkpt><trkpt lat="45.6881906473501" lon="4.576638061464149"><ele>763.5</ele><time>2026-05-02T15:50:12.999Z</time></trkpt><trkpt lat="45.68832647576046" lon="4.5765460112891585"><ele>762.0</ele><time>2026-05-02T15:50:13.999Z</time></trkpt><trkpt lat="45.688437280821695" lon="4.576467958956763"><ele>762.0</ele><time>2026-05-02T15:50:14.999Z</time></trkpt><trkpt lat="45.68853530504376" lon="4.576393947861986"><ele>762.0</ele><time>2026-05-02T15:50:15.999Z</time></trkpt><trkpt lat="45.68862140011992" lon="4.576309509113149"><ele>762.0</ele><time>2026-05-02T15:50:16.999Z</time></trkpt><trkpt lat="45.68868969539515" lon="4.5762081068512455"><ele>762.0</ele><time>2026-05-02T15:50:17.999Z</time></trkpt><trkpt lat="45.68874019013869" lon="4.576081517302018"><ele>762.0</ele><time>2026-05-02T15:50:18.999Z</time></trkpt><trkpt lat="45.68876397408643" lon="4.575933358283032"><ele>762.25</ele><time>2026-05-02T15:50:19.999Z</time></trkpt><trkpt lat="45.68876556275363" lon="4.57576927053904"><ele>762.5</ele><time>2026-05-02T15:50:20.999Z</time></trkpt><trkpt lat="45.68876881662251" lon="4.575597295836498"><ele>762.75</ele><time>2026-05-02T15:50:21.999Z</time></trkpt><trkpt lat="45.68880881226304" lon="4.575417599296591"><ele>763.0</ele><time>2026-05-02T15:50:22.999Z</time></trkpt><trkpt lat="45.68885701552094" lon="4.575241580238034"><ele>763.0</ele><time>2026-05-02T15:50:23.999Z</time></trkpt><trkpt lat="45.68886619948889" lon="4.575079876284998"><ele>763.0</ele><time>2026-05-02T15:50:24.999Z</time></trkpt><trkpt lat="45.68886851683205" lon="4.574917571123164"><ele>763.0</ele><time>2026-05-02T15:50:25.999Z</time></trkpt><trkpt lat="45.68887444287628" lon="4.574759869329595"><ele>763.0</ele><time>2026-05-02T15:50:26.999Z</time></trkpt><trkpt lat="45.68887886058393" lon="4.5746175980485"><ele>763.0</ele><time>2026-05-02T15:50:27.999Z</time></trkpt><trkpt lat="45.68890258488873" lon="4.574479670052795"><ele>765.0</ele><time>2026-05-02T15:50:28.999Z</time></trkpt><trkpt lat="45.688953959919836" lon="4.574353064476035"><ele>767.0</ele><time>2026-05-02T15:50:29.999Z</time></trkpt><trkpt lat="45.68903115612482" lon="4.5742584912337"><ele>769.0</ele><time>2026-05-02T15:50:30.999Z</time></trkpt><trkpt lat="45.689126178121136" lon="4.574177602233879"><ele>771.0</ele><time>2026-05-02T15:50:31.999Z</time></trkpt><trkpt lat="45.68923010160264" lon="4.574136959782978"><ele>773.0</ele><time>2026-05-02T15:50:33Z</time></trkpt><trkpt lat="45.689342982578985" lon="4.574147611694412"><ele>772.4</ele><time>2026-05-02T15:50:34Z</time></trkpt><trkpt lat="45.689426363274315" lon="4.574197187142323"><ele>771.8</ele><time>2026-05-02T15:50:35Z</time></trkpt><trkpt lat="45.689543427531866" lon="4.574251482928891"><ele>771.2</ele><time>2026-05-02T15:50:36Z</time></trkpt><trkpt lat="45.689642203120535" lon="4.574325756225332"><ele>770.6</ele><time>2026-05-02T15:50:37Z</time></trkpt><trkpt lat="45.6897382659588" lon="4.5743524635066235"><ele>770.0</ele><time>2026-05-02T15:50:38Z</time></trkpt><trkpt lat="45.689836117472254" lon="4.5743334870898416"><ele>770.0</ele><time>2026-05-02T15:50:39Z</time></trkpt><trkpt lat="45.68993320721054" lon="4.574262275886266"><ele>770.0</ele><time>2026-05-02T15:50:40Z</time></trkpt><trkpt lat="45.6900211150223" lon="4.574159913562356"><ele>770.0</ele><time>2026-05-02T15:50:41Z</time></trkpt><trkpt lat="45.69010091821217" lon="4.574037054348937"><ele>770.0</ele><time>2026-05-02T15:50:42Z</time></trkpt><trkpt lat="45.690193988145104" lon="4.57391716294834"><ele>770.5</ele><time>2026-05-02T15:50:43Z</time></trkpt><trkpt lat="45.69026390450271" lon="4.57375671465286"><ele>771.0</ele><time>2026-05-02T15:50:44Z</time></trkpt><trkpt lat="45.69034972760979" lon="4.57363669312862"><ele>771.5</ele><time>2026-05-02T15:50:45Z</time></trkpt><trkpt lat="45.690414353234026" lon="4.573512413988202"><ele>772.0</ele><time>2026-05-02T15:50:46Z</time></trkpt><trkpt lat="45.69047868273549" lon="4.57340135378308"><ele>772.0</ele><time>2026-05-02T15:50:47Z</time></trkpt><trkpt lat="45.69056685813844" lon="4.573309499221402"><ele>772.0</ele><time>2026-05-02T15:50:48Z</time></trkpt><trkpt lat="45.690659687281375" lon="4.573214103581107"><ele>772.0</ele><time>2026-05-02T15:50:49Z</time></trkpt><trkpt lat="45.690742797295854" lon="4.573124640891811"><ele>772.0</ele><time>2026-05-02T15:50:50Z</time></trkpt><trkpt lat="45.69081900939963" lon="4.573061395388117"><ele>772.0</ele><time>2026-05-02T15:50:51Z</time></trkpt><trkpt lat="45.69088634114164" lon="4.572992271527578"><ele>774.25</ele><time>2026-05-02T15:50:52Z</time></trkpt><trkpt lat="45.69094233158745" lon="4.572852507832449"><ele>776.5</ele><time>2026-05-02T15:50:53Z</time></trkpt><trkpt lat="45.69099633445014" lon="4.572724219333839"><ele>778.75</ele><time>2026-05-02T15:50:54Z</time></trkpt><trkpt lat="45.69101286330699" lon="4.572558325183826"><ele>781.0</ele><time>2026-05-02T15:50:55Z</time></trkpt><trkpt lat="45.69104094425474" lon="4.57239541452462"><ele>781.0</ele><time>2026-05-02T15:50:56Z</time></trkpt><trkpt lat="45.69102928295434" lon="4.572226357140057"><ele>781.0</ele><time>2026-05-02T15:50:57Z</time></trkpt><trkpt lat="45.69102465249053" lon="4.572075356311846"><ele>781.0</ele><time>2026-05-02T15:50:58Z</time></trkpt><trkpt lat="45.69104521706641" lon="4.57196005961087"><ele>781.0</ele><time>2026-05-02T15:50:59Z</time></trkpt><trkpt lat="45.691071464246484" lon="4.571844152081119"><ele>781.0</ele><time>2026-05-02T15:51:00Z</time></trkpt><trkpt lat="45.69111341176171" lon="4.57172349362136"><ele>781.1999999999999</ele><time>2026-05-02T15:51:01Z</time></trkpt><trkpt lat="45.69118736987096" lon="4.571652633335141"><ele>781.4</ele><time>2026-05-02T15:51:02Z</time></trkpt><trkpt lat="45.691270968652624" lon="4.571597940472001"><ele>781.6</ele><time>2026-05-02T15:51:03Z</time></trkpt><trkpt lat="45.69137789581413" lon="4.5716427846427194"><ele>781.8</ele><time>2026-05-02T15:51:04Z</time></trkpt><trkpt lat="45.69147480151131" lon="4.571704483099462"><ele>782.0</ele><time>2026-05-02T15:51:05Z</time></trkpt><trkpt lat="45.69155237706893" lon="4.571833580023822"><ele>782.0</ele><time>2026-05-02T15:51:06Z</time></trkpt><trkpt lat="45.69160555167446" lon="4.571985402453637"><ele>782.0</ele><time>2026-05-02T15:51:07Z</time></trkpt><trkpt lat="45.69166127710504" lon="4.572149088941093"><ele>782.0</ele><time>2026-05-02T15:51:08Z</time></trkpt><trkpt lat="45.69171130508709" lon="4.572331691796365"><ele>782.0</ele><time>2026-05-02T15:51:09Z</time></trkpt><trkpt lat="45.69178317560199" lon="4.572480995829538"><ele>780.8</ele><time>2026-05-02T15:51:10Z</time></trkpt><trkpt lat="45.691848413614494" lon="4.572602125832804"><ele>779.6</ele><time>2026-05-02T15:51:11Z</time></trkpt><trkpt lat="45.69192501963745" lon="4.572691136050271"><ele>778.4</ele><time>2026-05-02T15:51:12Z</time></trkpt><trkpt lat="45.692022374122054" lon="4.572720510056012"><ele>777.1999999999999</ele><time>2026-05-02T15:51:13Z</time></trkpt><trkpt lat="45.69212275997602" lon="4.572677967956777"><ele>776.0</ele><time>2026-05-02T15:51:14Z</time></trkpt><trkpt lat="45.692234370348416" lon="4.572664730377272"><ele>776.4</ele><time>2026-05-02T15:51:15Z</time></trkpt><trkpt lat="45.692351619959815" lon="4.572667331251046"><ele>776.8</ele><time>2026-05-02T15:51:16Z</time></trkpt><trkpt lat="45.692437411082125" lon="4.572749154784933"><ele>777.1999999999999</ele><time>2026-05-02T15:51:17Z</time></trkpt><trkpt lat="45.69249297976257" lon="4.572870826717472"><ele>777.5999999999999</ele><time>2026-05-02T15:51:18Z</time></trkpt><trkpt lat="45.692526675412196" lon="4.573014581556513"><ele>778.0</ele><time>2026-05-02T15:51:19Z</time></trkpt><trkpt lat="45.692581525314516" lon="4.573177767073644"><ele>778.0</ele><time>2026-05-02T15:51:20Z</time></trkpt><trkpt lat="45.69261914929236" lon="4.573366155327616"><ele>778.0</ele><time>2026-05-02T15:51:21Z</time></trkpt><trkpt lat="45.69267591874558" lon="4.57355187415613"><ele>778.0</ele><time>2026-05-02T15:51:22Z</time></trkpt><trkpt lat="45.69275348412697" lon="4.573720088631957"><ele>778.0</ele><time>2026-05-02T15:51:23Z</time></trkpt><trkpt lat="45.69285192219373" lon="4.57386402152386"><ele>778.75</ele><time>2026-05-02T15:51:24Z</time></trkpt><trkpt lat="45.69296972522557" lon="4.573977280639638"><ele>779.5</ele><time>2026-05-02T15:51:25Z</time></trkpt><trkpt lat="45.69309811801277" lon="4.5740656140500215"><ele>780.25</ele><time>2026-05-02T15:51:26Z</time></trkpt><trkpt lat="45.69323703119442" lon="4.5741261764678605"><ele>781.0</ele><time>2026-05-02T15:51:27Z</time></trkpt><trkpt lat="45.69338392396929" lon="4.574143582070997"><ele>781.0</ele><time>2026-05-02T15:51:28Z</time></trkpt><trkpt lat="45.69354647264816" lon="4.574150013235667"><ele>781.0</ele><time>2026-05-02T15:51:29Z</time></trkpt><trkpt lat="45.69368007174885" lon="4.574221837931007"><ele>781.0</ele><time>2026-05-02T15:51:30Z</time></trkpt><trkpt lat="45.69380225337901" lon="4.57430429946753"><ele>781.0</ele><time>2026-05-02T15:51:31Z</time></trkpt><trkpt lat="45.69391519088693" lon="4.574432669718424"><ele>782.0</ele><time>2026-05-02T15:51:32Z</time></trkpt><trkpt lat="45.69405648577479" lon="4.574554076440322"><ele>783.0</ele><time>2026-05-02T15:51:33Z</time></trkpt><trkpt lat="45.694204797011686" lon="4.574722054589439"><ele>784.0</ele><time>2026-05-02T15:51:34Z</time></trkpt><trkpt lat="45.69435424922666" lon="4.574885422628939"><ele>785.6666666666666</ele><time>2026-05-02T15:51:35Z</time></trkpt><trkpt lat="45.69449042714773" lon="4.5750242019735"><ele>787.3333333333333</ele><time>2026-05-02T15:51:36Z</time></trkpt><trkpt lat="45.69461468428198" lon="4.575154635712679"><ele>789.0</ele><time>2026-05-02T15:51:37Z</time></trkpt><trkpt lat="45.69472394732507" lon="4.575271125515304"><ele>787.0</ele><time>2026-05-02T15:51:38Z</time></trkpt><trkpt lat="45.694821364741706" lon="4.575361236434963"><ele>785.0</ele><time>2026-05-02T15:51:39Z</time></trkpt><trkpt lat="45.694922449421036" lon="4.575434819346306"><ele>783.0</ele><time>2026-05-02T15:51:40Z</time></trkpt><trkpt lat="45.69503859373875" lon="4.575471226435737"><ele>781.0</ele><time>2026-05-02T15:51:41Z</time></trkpt><trkpt lat="45.69516697125823" lon="4.575461750154402"><ele>781.6666666666666</ele><time>2026-05-02T15:51:42Z</time></trkpt><trkpt lat="45.69530529461327" lon="4.575413748649002"><ele>782.3333333333333</ele><time>2026-05-02T15:51:43Z</time></trkpt><trkpt lat="45.69544887535371" lon="4.575349036899961"><ele>783.0</ele><time>2026-05-02T15:51:44Z</time></trkpt><trkpt lat="45.69559726874655" lon="4.57527028374746"><ele>783.0</ele><time>2026-05-02T15:51:45Z</time></trkpt><trkpt lat="45.69574432341811" lon="4.575154888886559"><ele>783.0</ele><time>2026-05-02T15:51:46Z</time></trkpt><trkpt lat="45.695893798206704" lon="4.575025798588978"><ele>783.0</ele><time>2026-05-02T15:51:47Z</time></trkpt><trkpt lat="45.69605315815784" lon="4.574896117212401"><ele>785.0</ele><time>2026-05-02T15:51:48Z</time></trkpt><trkpt lat="45.696207295193005" lon="4.574769655965829"><ele>787.0</ele><time>2026-05-02T15:51:49Z</time></trkpt><trkpt lat="45.69635381718784" lon="4.574647248254238"><ele>789.0</ele><time>2026-05-02T15:51:50Z</time></trkpt><trkpt lat="45.696493653964666" lon="4.574519237531213"><ele>789.0</ele><time>2026-05-02T15:51:51Z</time></trkpt><trkpt lat="45.69663029715374" lon="4.574361613348173"><ele>789.0</ele><time>2026-05-02T15:51:52Z</time></trkpt><trkpt lat="45.6967827792227" lon="4.5742112035477565"><ele>789.0</ele><time>2026-05-02T15:51:53Z</time></trkpt><trkpt lat="45.69692286942646" lon="4.574036908232899"><ele>787.6666666666667</ele><time>2026-05-02T15:51:54Z</time></trkpt><trkpt lat="45.697043361934924" lon="4.573872845237638"><ele>786.3333333333334</ele><time>2026-05-02T15:51:55Z</time></trkpt><trkpt lat="45.69715034907877" lon="4.573708448767636"><ele>785.0</ele><time>2026-05-02T15:51:56Z</time></trkpt><trkpt lat="45.69724250226079" lon="4.573552136228309"><ele>785.0</ele><time>2026-05-02T15:51:57Z</time></trkpt><trkpt lat="45.69732166225106" lon="4.573415145870401"><ele>785.0</ele><time>2026-05-02T15:51:58Z</time></trkpt><trkpt lat="45.69739297736756" lon="4.573271420534092"><ele>785.0</ele><time>2026-05-02T15:51:59Z</time></trkpt><trkpt lat="45.69747811539037" lon="4.573159467074236"><ele>785.0</ele><time>2026-05-02T15:51:59.999Z</time></trkpt><trkpt lat="45.69756291200882" lon="4.573062254811634"><ele>785.0</ele><time>2026-05-02T15:52:00.999Z</time></trkpt><trkpt lat="45.69766851156746" lon="4.572993605369764"><ele>785.0</ele><time>2026-05-02T15:52:01.999Z</time></trkpt><trkpt lat="45.69778618123021" lon="4.572982495220796"><ele>785.0</ele><time>2026-05-02T15:52:02.999Z</time></trkpt><trkpt lat="45.697896794039906" lon="4.572978457183356"><ele>785.0</ele><time>2026-05-02T15:52:03.999Z</time></trkpt><trkpt lat="45.69804411218535" lon="4.572938921180058"><ele>785.0</ele><time>2026-05-02T15:52:04.999Z</time></trkpt><trkpt lat="45.698197741242865" lon="4.572901621753169"><ele>785.0</ele><time>2026-05-02T15:52:05.999Z</time></trkpt><trkpt lat="45.69828946077553" lon="4.5728176892521075"><ele>785.0</ele><time>2026-05-02T15:52:06.999Z</time></trkpt><trkpt lat="45.69840411379234" lon="4.57270006990022"><ele>785.0</ele><time>2026-05-02T15:52:07.999Z</time></trkpt><trkpt lat="45.69850675122333" lon="4.572573517708707"><ele>775.6666666666667</ele><time>2026-05-02T15:52:08.999Z</time></trkpt><trkpt lat="45.698610242561315" lon="4.572423634274721"><ele>766.3333333333334</ele><time>2026-05-02T15:52:09.999Z</time></trkpt><trkpt lat="45.69873142507556" lon="4.572237223019272"><ele>757.0</ele><time>2026-05-02T15:52:10.999Z</time></trkpt><trkpt lat="45.69884978031325" lon="4.572061238936354"><ele>762.6666666666667</ele><time>2026-05-02T15:52:11.999Z</time></trkpt><trkpt lat="45.69896393809207" lon="4.5718827474695765"><ele>768.3333333333334</ele><time>2026-05-02T15:52:12.999Z</time></trkpt><trkpt lat="45.69907957119043" lon="4.571704585231133"><ele>774.0</ele><time>2026-05-02T15:52:13.999Z</time></trkpt><trkpt lat="45.6991894821681" lon="4.571533418614112"><ele>774.0</ele><time>2026-05-02T15:52:14.999Z</time></trkpt><trkpt lat="45.69929080427971" lon="4.571375699031497"><ele>774.0</ele><time>2026-05-02T15:52:15.999Z</time></trkpt><trkpt lat="45.69938615947383" lon="4.571227039283375"><ele>774.0</ele><time>2026-05-02T15:52:16.999Z</time></trkpt><trkpt lat="45.69945408750429" lon="4.571046949363701"><ele>774.0</ele><time>2026-05-02T15:52:17.999Z</time></trkpt><trkpt lat="45.699512588142106" lon="4.570883342367729"><ele>775.4000000000001</ele><time>2026-05-02T15:52:18.999Z</time></trkpt><trkpt lat="45.699563008486344" lon="4.5707164611242685"><ele>776.8</ele><time>2026-05-02T15:52:19.999Z</time></trkpt><trkpt lat="45.69960463281977" lon="4.570579941600134"><ele>778.2</ele><time>2026-05-02T15:52:20.999Z</time></trkpt><trkpt lat="45.69964836474768" lon="4.570447231680381"><ele>779.5999999999999</ele><time>2026-05-02T15:52:21.999Z</time></trkpt><trkpt lat="45.699737083601974" lon="4.5703848449210405"><ele>781.0</ele><time>2026-05-02T15:52:22.999Z</time></trkpt><trkpt lat="45.69984111161395" lon="4.570322934271385"><ele>781.0</ele><time>2026-05-02T15:52:23.999Z</time></trkpt><trkpt lat="45.699967387666646" lon="4.57030688288488"><ele>781.0</ele><time>2026-05-02T15:52:24.999Z</time></trkpt><trkpt lat="45.70010840764377" lon="4.570310682067942"><ele>781.0</ele><time>2026-05-02T15:52:25.999Z</time></trkpt><trkpt lat="45.70022348175929" lon="4.570343640369641"><ele>781.0</ele><time>2026-05-02T15:52:26.999Z</time></trkpt><trkpt lat="45.700338927388636" lon="4.570308164635473"><ele>776.0</ele><time>2026-05-02T15:52:27.999Z</time></trkpt><trkpt lat="45.700454990233894" lon="4.570266367512712"><ele>771.0</ele><time>2026-05-02T15:52:28.999Z</time></trkpt><trkpt lat="45.70057549748439" lon="4.570178875525324"><ele>766.0</ele><time>2026-05-02T15:52:29.999Z</time></trkpt><trkpt lat="45.700697424795734" lon="4.570058820141948"><ele>761.0</ele><time>2026-05-02T15:52:30.999Z</time></trkpt><trkpt lat="45.700805235286396" lon="4.5699292531524085"><ele>761.0</ele><time>2026-05-02T15:52:31.999Z</time></trkpt><trkpt lat="45.700921093959266" lon="4.5697881955563755"><ele>761.0</ele><time>2026-05-02T15:52:32.999Z</time></trkpt><trkpt lat="45.70097352051805" lon="4.56967111569504"><ele>761.0</ele><time>2026-05-02T15:52:33.999Z</time></trkpt><trkpt lat="45.70106899055674" lon="4.569574508460217"><ele>761.0</ele><time>2026-05-02T15:52:34.999Z</time></trkpt><trkpt lat="45.701178600117295" lon="4.569435061181231"><ele>763.1999999999999</ele><time>2026-05-02T15:52:35.999Z</time></trkpt><trkpt lat="45.701257425876" lon="4.569319012349571"><ele>765.4</ele><time>2026-05-02T15:52:36.999Z</time></trkpt><trkpt lat="45.70133653871523" lon="4.569219281669028"><ele>767.6</ele><time>2026-05-02T15:52:37.999Z</time></trkpt><trkpt lat="45.70142926150305" lon="4.569166749806591"><ele>769.8</ele><time>2026-05-02T15:52:39Z</time></trkpt><trkpt lat="45.70150880735737" lon="4.569146281284829"><ele>772.0</ele><time>2026-05-02T15:52:40Z</time></trkpt><trkpt lat="45.70159702977936" lon="4.56914208037145"><ele>772.0</ele><time>2026-05-02T15:52:41Z</time></trkpt><trkpt lat="45.701674196524316" lon="4.569255363894175"><ele>772.0</ele><time>2026-05-02T15:52:42Z</time></trkpt><trkpt lat="45.70174842511767" lon="4.569373281288945"><ele>772.0</ele><time>2026-05-02T15:52:43Z</time></trkpt><trkpt lat="45.701804289929015" lon="4.569530746026244"><ele>772.0</ele><time>2026-05-02T15:52:44Z</time></trkpt><trkpt lat="45.701866715962225" lon="4.5697119551449745"><ele>779.0</ele><time>2026-05-02T15:52:45Z</time></trkpt><trkpt lat="45.701943721341486" lon="4.569922557331781"><ele>786.0</ele><time>2026-05-02T15:52:46Z</time></trkpt><trkpt lat="45.70199850157508" lon="4.570144205905819"><ele>793.0</ele><time>2026-05-02T15:52:47Z</time></trkpt><trkpt lat="45.70207177584869" lon="4.570351277959077"><ele>788.6666666666666</ele><time>2026-05-02T15:52:48Z</time></trkpt><trkpt lat="45.70212179333273" lon="4.570568406855363"><ele>784.3333333333333</ele><time>2026-05-02T15:52:49Z</time></trkpt><trkpt lat="45.70216655997232" lon="4.570792344549557"><ele>780.0</ele><time>2026-05-02T15:52:50Z</time></trkpt><trkpt lat="45.702193084754946" lon="4.571017340163933"><ele>777.6666666666667</ele><time>2026-05-02T15:52:51Z</time></trkpt><trkpt lat="45.7022092024094" lon="4.57124667750216"><ele>775.3333333333334</ele><time>2026-05-02T15:52:52Z</time></trkpt><trkpt lat="45.702229848971676" lon="4.571491558082315"><ele>773.0</ele><time>2026-05-02T15:52:53Z</time></trkpt><trkpt lat="45.70224174556345" lon="4.571742363047901"><ele>773.0</ele><time>2026-05-02T15:52:54Z</time></trkpt><trkpt lat="45.70223487498674" lon="4.571965691325064"><ele>773.0</ele><time>2026-05-02T15:52:55Z</time></trkpt><trkpt lat="45.70224265308902" lon="4.572169157192406"><ele>773.0</ele><time>2026-05-02T15:52:56Z</time></trkpt><trkpt lat="45.702255783461304" lon="4.572410302257375"><ele>771.0</ele><time>2026-05-02T15:52:57Z</time></trkpt><trkpt lat="45.702277928625584" lon="4.572672022603323"><ele>769.0</ele><time>2026-05-02T15:52:58Z</time></trkpt><trkpt lat="45.70229704306815" lon="4.572922571118655"><ele>767.0</ele><time>2026-05-02T15:52:59Z</time></trkpt><trkpt lat="45.70231102991157" lon="4.573151544691472"><ele>766.0</ele><time>2026-05-02T15:53:00Z</time></trkpt><trkpt lat="45.70232165860936" lon="4.573365362540981"><ele>765.0</ele><time>2026-05-02T15:53:01Z</time></trkpt><trkpt lat="45.70233041977096" lon="4.573595852034553"><ele>764.0</ele><time>2026-05-02T15:53:02Z</time></trkpt><trkpt lat="45.70233645960279" lon="4.573820331811189"><ele>763.0</ele><time>2026-05-02T15:53:03Z</time></trkpt><trkpt lat="45.70233735077805" lon="4.574052796365025"><ele>762.0</ele><time>2026-05-02T15:53:04Z</time></trkpt><trkpt lat="45.70232480322753" lon="4.574301714653431"><ele>761.0</ele><time>2026-05-02T15:53:05Z</time></trkpt><trkpt lat="45.702300517500106" lon="4.574540897530772"><ele>760.75</ele><time>2026-05-02T15:53:06Z</time></trkpt><trkpt lat="45.7022691458609" lon="4.574762494365297"><ele>760.5</ele><time>2026-05-02T15:53:07Z</time></trkpt><trkpt lat="45.702240593972654" lon="4.574964879276572"><ele>760.25</ele><time>2026-05-02T15:53:08Z</time></trkpt><trkpt lat="45.702218319711726" lon="4.575151383610046"><ele>760.0</ele><time>2026-05-02T15:53:09Z</time></trkpt><trkpt lat="45.70220619560876" lon="4.575326828889356"><ele>758.25</ele><time>2026-05-02T15:53:10Z</time></trkpt><trkpt lat="45.70222793227248" lon="4.575494704417953"><ele>756.5</ele><time>2026-05-02T15:53:11Z</time></trkpt><trkpt lat="45.70226328339848" lon="4.575659411405915"><ele>754.75</ele><time>2026-05-02T15:53:12Z</time></trkpt><trkpt lat="45.70230648550151" lon="4.575834790676813"><ele>753.0</ele><time>2026-05-02T15:53:13Z</time></trkpt><trkpt lat="45.702375881399384" lon="4.57600033113777"><ele>753.0</ele><time>2026-05-02T15:53:14Z</time></trkpt><trkpt lat="45.702459115367596" lon="4.5761763414087655"><ele>753.0</ele><time>2026-05-02T15:53:15Z</time></trkpt><trkpt lat="45.70255703227842" lon="4.576330986640076"><ele>753.0</ele><time>2026-05-02T15:53:16Z</time></trkpt><trkpt lat="45.70263417216583" lon="4.576495113618986"><ele>753.0</ele><time>2026-05-02T15:53:17Z</time></trkpt><trkpt lat="45.70270645945765" lon="4.576672184545667"><ele>757.0</ele><time>2026-05-02T15:53:18Z</time></trkpt><trkpt lat="45.70275479183951" lon="4.576872379661004"><ele>761.0</ele><time>2026-05-02T15:53:19Z</time></trkpt><trkpt lat="45.702719803092684" lon="4.577095315229063"><ele>765.0</ele><time>2026-05-02T15:53:20Z</time></trkpt><trkpt lat="45.70271847547048" lon="4.577330768899319"><ele>754.6666666666666</ele><time>2026-05-02T15:53:21Z</time></trkpt><trkpt lat="45.70271499258284" lon="4.577571442443904"><ele>744.3333333333333</ele><time>2026-05-02T15:53:22Z</time></trkpt><trkpt lat="45.70271313747972" lon="4.577824757541521"><ele>734.0</ele><time>2026-05-02T15:53:23Z</time></trkpt><trkpt lat="45.70271397535166" lon="4.578081886267281"><ele>733.6666666666666</ele><time>2026-05-02T15:53:24Z</time></trkpt><trkpt lat="45.702719786285066" lon="4.5783412787935305"><ele>733.3333333333334</ele><time>2026-05-02T15:53:25Z</time></trkpt><trkpt lat="45.70274783224469" lon="4.578584273551564"><ele>733.0</ele><time>2026-05-02T15:53:26Z</time></trkpt><trkpt lat="45.702784742855634" lon="4.578834058831822"><ele>740.0</ele><time>2026-05-02T15:53:27Z</time></trkpt><trkpt lat="45.7028123364468" lon="4.579094657870333"><ele>747.0</ele><time>2026-05-02T15:53:28Z</time></trkpt><trkpt lat="45.70285025575102" lon="4.5793531547859505"><ele>754.0</ele><time>2026-05-02T15:53:29Z</time></trkpt><trkpt lat="45.70288384808751" lon="4.579609919189537"><ele>754.0</ele><time>2026-05-02T15:53:30Z</time></trkpt><trkpt lat="45.702904300904784" lon="4.579795305099593"><ele>754.0</ele><time>2026-05-02T15:53:31Z</time></trkpt><trkpt lat="45.70293744633676" lon="4.579980365297391"><ele>754.0</ele><time>2026-05-02T15:53:32Z</time></trkpt><trkpt lat="45.702990842718755" lon="4.580155498325509"><ele>754.0</ele><time>2026-05-02T15:53:33Z</time></trkpt><trkpt lat="45.70305844015747" lon="4.580319744593156"><ele>752.6</ele><time>2026-05-02T15:53:34Z</time></trkpt><trkpt lat="45.70311256443371" lon="4.580465897627516"><ele>751.2</ele><time>2026-05-02T15:53:35Z</time></trkpt><trkpt lat="45.70315916916144" lon="4.580614207125869"><ele>749.8000000000001</ele><time>2026-05-02T15:53:36Z</time></trkpt><trkpt lat="45.70317758385255" lon="4.580757963135085"><ele>748.4000000000001</ele><time>2026-05-02T15:53:37Z</time></trkpt><trkpt lat="45.703177457066474" lon="4.5809260614984195"><ele>747.0</ele><time>2026-05-02T15:53:38Z</time></trkpt><trkpt lat="45.703155247876744" lon="4.581136600683577"><ele>747.0</ele><time>2026-05-02T15:53:39Z</time></trkpt><trkpt lat="45.703121892787024" lon="4.581370786319056"><ele>747.0</ele><time>2026-05-02T15:53:40Z</time></trkpt><trkpt lat="45.70308609232949" lon="4.581596726422742"><ele>747.0</ele><time>2026-05-02T15:53:41Z</time></trkpt><trkpt lat="45.70304736334201" lon="4.581836167266687"><ele>747.0</ele><time>2026-05-02T15:53:42Z</time></trkpt><trkpt lat="45.70301412451503" lon="4.582077056947017"><ele>747.0</ele><time>2026-05-02T15:53:43Z</time></trkpt><trkpt lat="45.702991573153746" lon="4.582303463184764"><ele>747.0</ele><time>2026-05-02T15:53:44Z</time></trkpt><trkpt lat="45.70299487751729" lon="4.582530095136841"><ele>747.0</ele><time>2026-05-02T15:53:45Z</time></trkpt><trkpt lat="45.70301162267507" lon="4.5827292433538025"><ele>747.0</ele><time>2026-05-02T15:53:46Z</time></trkpt><trkpt lat="45.703048167827184" lon="4.582921310400109"><ele>747.0</ele><time>2026-05-02T15:53:47Z</time></trkpt><trkpt lat="45.703104261839634" lon="4.583095488366549"><ele>747.0</ele><time>2026-05-02T15:53:48Z</time></trkpt><trkpt lat="45.70318236365131" lon="4.583266324844891"><ele>743.6666666666666</ele><time>2026-05-02T15:53:49Z</time></trkpt><trkpt lat="45.703276733059354" lon="4.583434662497799"><ele>740.3333333333333</ele><time>2026-05-02T15:53:50Z</time></trkpt><trkpt lat="45.703376609047346" lon="4.583603715138091"><ele>737.0</ele><time>2026-05-02T15:53:51Z</time></trkpt><trkpt lat="45.70348444909561" lon="4.583765834376142"><ele>735.0</ele><time>2026-05-02T15:53:52Z</time></trkpt><trkpt lat="45.703598330093975" lon="4.583885004581429"><ele>733.0</ele><time>2026-05-02T15:53:53Z</time></trkpt><trkpt lat="45.703703062638574" lon="4.5839972350816325"><ele>731.0</ele><time>2026-05-02T15:53:54Z</time></trkpt><trkpt lat="45.70382359240038" lon="4.584085428663011"><ele>729.0</ele><time>2026-05-02T15:53:55Z</time></trkpt><trkpt lat="45.703958757906236" lon="4.5841661262885385"><ele>729.0</ele><time>2026-05-02T15:53:56Z</time></trkpt><trkpt lat="45.70408288010308" lon="4.584233220401644"><ele>729.0</ele><time>2026-05-02T15:53:57Z</time></trkpt><trkpt lat="45.704195500402385" lon="4.584267039638824"><ele>729.0</ele><time>2026-05-02T15:53:57.999Z</time></trkpt><trkpt lat="45.70432471786801" lon="4.584270092317551"><ele>729.0</ele><time>2026-05-02T15:53:58.999Z</time></trkpt><trkpt lat="45.70446086273993" lon="4.584254676045542"><ele>727.25</ele><time>2026-05-02T15:53:59.999Z</time></trkpt><trkpt lat="45.7045978725806" lon="4.584219953259373"><ele>725.5</ele><time>2026-05-02T15:54:00.999Z</time></trkpt><trkpt lat="45.70473824888344" lon="4.584179972232932"><ele>723.75</ele><time>2026-05-02T15:54:01.999Z</time></trkpt><trkpt lat="45.704887983656825" lon="4.58412619854887"><ele>722.0</ele><time>2026-05-02T15:54:02.999Z</time></trkpt><trkpt lat="45.705044245909875" lon="4.584056913552586"><ele>722.0</ele><time>2026-05-02T15:54:03.999Z</time></trkpt><trkpt lat="45.7051816077798" lon="4.5839928733031075"><ele>722.0</ele><time>2026-05-02T15:54:04.999Z</time></trkpt><trkpt lat="45.70529821386297" lon="4.583932862851204"><ele>722.0</ele><time>2026-05-02T15:54:05.999Z</time></trkpt><trkpt lat="45.70540994253763" lon="4.583933775974336"><ele>722.0</ele><time>2026-05-02T15:54:06.999Z</time></trkpt><trkpt lat="45.70552474935903" lon="4.583967833932354"><ele>722.0</ele><time>2026-05-02T15:54:07.999Z</time></trkpt><trkpt lat="45.705662040936204" lon="4.584016406954733"><ele>722.0</ele><time>2026-05-02T15:54:08.999Z</time></trkpt><trkpt lat="45.70580648120944" lon="4.584064911198608"><ele>722.0</ele><time>2026-05-02T15:54:09.999Z</time></trkpt><trkpt lat="45.70594133092176" lon="4.584121786129933"><ele>722.0</ele><time>2026-05-02T15:54:10.999Z</time></trkpt><trkpt lat="45.706066145602506" lon="4.584175497206211"><ele>722.2</ele><time>2026-05-02T15:54:11.999Z</time></trkpt><trkpt lat="45.70617852187015" lon="4.584233668792145"><ele>722.4000000000001</ele><time>2026-05-02T15:54:12.999Z</time></trkpt><trkpt lat="45.70626795021424" lon="4.584291557617241"><ele>722.5999999999999</ele><time>2026-05-02T15:54:13.999Z</time></trkpt><trkpt lat="45.70635129335191" lon="4.584361626706435"><ele>722.8</ele><time>2026-05-02T15:54:14.999Z</time></trkpt><trkpt lat="45.706429308589634" lon="4.584441440188982"><ele>723.0</ele><time>2026-05-02T15:54:15.999Z</time></trkpt><trkpt lat="45.706495069653734" lon="4.58451330703516"><ele>722.2</ele><time>2026-05-02T15:54:16.999Z</time></trkpt><trkpt lat="45.70654644705228" lon="4.584577546164754"><ele>721.4</ele><time>2026-05-02T15:54:17.999Z</time></trkpt><trkpt lat="45.70660585413981" lon="4.584683869267041"><ele>720.6</ele><time>2026-05-02T15:54:19.999Z</time></trkpt><trkpt lat="45.70665425003776" lon="4.584779709444689"><ele>719.8000000000001</ele><time>2026-05-02T15:54:20.999Z</time></trkpt><trkpt lat="45.70672336827602" lon="4.584921622732353"><ele>719.0</ele><time>2026-05-02T15:54:21.999Z</time></trkpt><trkpt lat="45.706752496651035" lon="4.585054927394368"><ele>719.0</ele><time>2026-05-02T15:54:22.999Z</time></trkpt><trkpt lat="45.70677680192516" lon="4.585181652121078"><ele>719.0</ele><time>2026-05-02T15:54:23.999Z</time></trkpt><trkpt lat="45.70679553379172" lon="4.585314403207148"><ele>719.0</ele><time>2026-05-02T15:54:24.999Z</time></trkpt><trkpt lat="45.706823103434225" lon="4.585449633825374"><ele>719.0</ele><time>2026-05-02T15:54:25.999Z</time></trkpt><trkpt lat="45.706831174189155" lon="4.585590135424944"><ele>719.0</ele><time>2026-05-02T15:54:26.999Z</time></trkpt><trkpt lat="45.706842821408834" lon="4.585738748917565"><ele>719.0</ele><time>2026-05-02T15:54:27.999Z</time></trkpt><trkpt lat="45.70684772280576" lon="4.585885756877243"><ele>719.0</ele><time>2026-05-02T15:54:28.999Z</time></trkpt><trkpt lat="45.706857523223704" lon="4.586019965451785"><ele>719.0</ele><time>2026-05-02T15:54:29.999Z</time></trkpt><trkpt lat="45.70686688777197" lon="4.586141300796364"><ele>719.0</ele><time>2026-05-02T15:54:30.999Z</time></trkpt><trkpt lat="45.706871807379734" lon="4.586254092002581"><ele>719.0</ele><time>2026-05-02T15:54:31.999Z</time></trkpt><trkpt lat="45.70686850544529" lon="4.586361569625076"><ele>719.0</ele><time>2026-05-02T15:54:32.999Z</time></trkpt><trkpt lat="45.70688045503152" lon="4.586451780187841"><ele>719.8000000000001</ele><time>2026-05-02T15:54:33.999Z</time></trkpt><trkpt lat="45.70688990515415" lon="4.586592550341787"><ele>720.6</ele><time>2026-05-02T15:54:35.999Z</time></trkpt><trkpt lat="45.70691663848894" lon="4.586730902907935"><ele>721.4</ele><time>2026-05-02T15:54:36.999Z</time></trkpt><trkpt lat="45.706957738741686" lon="4.586889098810674"><ele>722.2</ele><time>2026-05-02T15:54:37.999Z</time></trkpt><trkpt lat="45.70700769587389" lon="4.587023712380931"><ele>723.0</ele><time>2026-05-02T15:54:38.999Z</time></trkpt><trkpt lat="45.70703079039536" lon="4.587149854403588"><ele>720.6666666666666</ele><time>2026-05-02T15:54:39.999Z</time></trkpt><trkpt lat="45.70704694510209" lon="4.587265715775587"><ele>718.3333333333334</ele><time>2026-05-02T15:54:40.999Z</time></trkpt><trkpt lat="45.70706377675446" lon="4.5873753900121965"><ele>716.0</ele><time>2026-05-02T15:54:41.999Z</time></trkpt><trkpt lat="45.70708109051445" lon="4.587476439986163"><ele>713.6666666666667</ele><time>2026-05-02T15:54:42.999Z</time></trkpt><trkpt lat="45.70709800082325" lon="4.587568663363263"><ele>711.3333333333334</ele><time>2026-05-02T15:54:43.999Z</time></trkpt><trkpt lat="45.707111625347956" lon="4.587685135195833"><ele>709.0</ele><time>2026-05-02T15:54:45Z</time></trkpt><trkpt lat="45.70712337288749" lon="4.587855369482984"><ele>708.4000000000001</ele><time>2026-05-02T15:54:46Z</time></trkpt><trkpt lat="45.70713096331022" lon="4.587993853053879"><ele>707.8</ele><time>2026-05-02T15:54:47Z</time></trkpt><trkpt lat="45.70713536617553" lon="4.588119509899701"><ele>707.2</ele><time>2026-05-02T15:54:48Z</time></trkpt><trkpt lat="45.707142253527046" lon="4.588244465213557"><ele>706.5999999999999</ele><time>2026-05-02T15:54:49Z</time></trkpt><trkpt lat="45.707148304096904" lon="4.588390235680415"><ele>706.0</ele><time>2026-05-02T15:54:50Z</time></trkpt><trkpt lat="45.70714608928145" lon="4.588525155831689"><ele>706.0</ele><time>2026-05-02T15:54:51Z</time></trkpt><trkpt lat="45.707144189870775" lon="4.588652769542765"><ele>706.0</ele><time>2026-05-02T15:54:52Z</time></trkpt><trkpt lat="45.70713965415218" lon="4.58875551387426"><ele>706.0</ele><time>2026-05-02T15:54:53Z</time></trkpt><trkpt lat="45.70713723241057" lon="4.588849051953215"><ele>706.0</ele><time>2026-05-02T15:54:54Z</time></trkpt><trkpt lat="45.70713287355046" lon="4.588939717940228"><ele>706.0</ele><time>2026-05-02T15:54:55Z</time></trkpt><trkpt lat="45.70712844163679" lon="4.589038525756223"><ele>706.0</ele><time>2026-05-02T15:54:56Z</time></trkpt><trkpt lat="45.70718511723054" lon="4.5891854961308605"><ele>706.1999999999999</ele><time>2026-05-02T15:54:58Z</time></trkpt><trkpt lat="45.707275005002025" lon="4.589226827696759"><ele>706.4</ele><time>2026-05-02T15:55:00Z</time></trkpt><trkpt lat="45.70734822502878" lon="4.589230798035294"><ele>706.6</ele><time>2026-05-02T15:55:02Z</time></trkpt><trkpt lat="45.707369606848374" lon="4.5890679382589195"><ele>706.8</ele><time>2026-05-02T15:55:04Z</time></trkpt><trkpt lat="45.70735499013769" lon="4.588883113684345"><ele>707.0</ele><time>2026-05-02T15:55:06Z</time></trkpt><trkpt lat="45.70735991346567" lon="4.5887925768710796"><ele>706.8</ele><time>2026-05-02T15:55:07Z</time></trkpt><trkpt lat="45.7073812114295" lon="4.588669579528408"><ele>706.6</ele><time>2026-05-02T15:55:08Z</time></trkpt><trkpt lat="45.7074313235285" lon="4.588533308655087"><ele>706.4</ele><time>2026-05-02T15:55:09Z</time></trkpt><trkpt lat="45.707490717632425" lon="4.58837266247841"><ele>706.1999999999999</ele><time>2026-05-02T15:55:10Z</time></trkpt><trkpt lat="45.70755076084751" lon="4.5882244375088685"><ele>706.0</ele><time>2026-05-02T15:55:11Z</time></trkpt><trkpt lat="45.70759658700173" lon="4.588065155116918"><ele>706.0</ele><time>2026-05-02T15:55:12Z</time></trkpt><trkpt lat="45.70765111221661" lon="4.587956943513257"><ele>706.0</ele><time>2026-05-02T15:55:13Z</time></trkpt><trkpt lat="45.707688328133024" lon="4.587856735339704"><ele>706.0</ele><time>2026-05-02T15:55:14Z</time></trkpt><trkpt lat="45.70772066049054" lon="4.587762306921986"><ele>706.0</ele><time>2026-05-02T15:55:15Z</time></trkpt><trkpt lat="45.70776823059135" lon="4.5876745260342595"><ele>706.0</ele><time>2026-05-02T15:55:16Z</time></trkpt><trkpt lat="45.70781545420011" lon="4.587607463103938"><ele>706.0</ele><time>2026-05-02T15:55:17Z</time></trkpt><trkpt lat="45.707874924895975" lon="4.5875648371456705"><ele>705.6666666666667</ele><time>2026-05-02T15:55:18Z</time></trkpt><trkpt lat="45.70795317459571" lon="4.587589566429567"><ele>705.3333333333334</ele><time>2026-05-02T15:55:19Z</time></trkpt><trkpt lat="45.70804261892991" lon="4.587579001684999"><ele>705.0</ele><time>2026-05-02T15:55:21Z</time></trkpt><trkpt lat="45.70811414919838" lon="4.587623581252321"><ele>704.6666666666666</ele><time>2026-05-02T15:55:23Z</time></trkpt><trkpt lat="45.70811301705831" lon="4.587775987766073"><ele>704.3333333333333</ele><time>2026-05-02T15:55:24Z</time></trkpt><trkpt lat="45.70810375090926" lon="4.587885467442371"><ele>704.0</ele><time>2026-05-02T15:55:25Z</time></trkpt><trkpt lat="45.70809135459531" lon="4.588012819639441"><ele>703.6</ele><time>2026-05-02T15:55:26Z</time></trkpt><trkpt lat="45.70808955176206" lon="4.5881677925405615"><ele>703.2</ele><time>2026-05-02T15:55:27Z</time></trkpt><trkpt lat="45.70806605454416" lon="4.588320944373659"><ele>702.8000000000001</ele><time>2026-05-02T15:55:28Z</time></trkpt><trkpt lat="45.708055591083415" lon="4.588479285183877"><ele>702.4000000000001</ele><time>2026-05-02T15:55:29Z</time></trkpt><trkpt lat="45.70804066466073" lon="4.588607775645851"><ele>702.0</ele><time>2026-05-02T15:55:30Z</time></trkpt><trkpt lat="45.70802154176464" lon="4.58870782215854"><ele>701.6</ele><time>2026-05-02T15:55:31Z</time></trkpt><trkpt lat="45.70801651625457" lon="4.5888532286583015"><ele>701.2</ele><time>2026-05-02T15:55:33Z</time></trkpt><trkpt lat="45.70805415403247" lon="4.589046400693324"><ele>700.8</ele><time>2026-05-02T15:55:35Z</time></trkpt><trkpt lat="45.708087708385854" lon="4.589163359001736"><ele>700.4</ele><time>2026-05-02T15:55:36Z</time></trkpt><trkpt lat="45.70813851904073" lon="4.5892732526193"><ele>700.0</ele><time>2026-05-02T15:55:37Z</time></trkpt><trkpt lat="45.708204515639785" lon="4.589352162189052"><ele>700.0</ele><time>2026-05-02T15:55:38Z</time></trkpt><trkpt lat="45.7082831147666" lon="4.589426428548129"><ele>700.0</ele><time>2026-05-02T15:55:39Z</time></trkpt><trkpt lat="45.708379636330946" lon="4.589500181054786"><ele>700.0</ele><time>2026-05-02T15:55:40Z</time></trkpt><trkpt lat="45.70848821958083" lon="4.58959223387752"><ele>700.0</ele><time>2026-05-02T15:55:41Z</time></trkpt><trkpt lat="45.708602638910534" lon="4.589697410304984"><ele>700.5</ele><time>2026-05-02T15:55:42Z</time></trkpt><trkpt lat="45.708712989326344" lon="4.589801442586681"><ele>701.0</ele><time>2026-05-02T15:55:43Z</time></trkpt><trkpt lat="45.70883500906474" lon="4.589924075124552"><ele>701.5</ele><time>2026-05-02T15:55:44Z</time></trkpt><trkpt lat="45.708940246154896" lon="4.5900776368134375"><ele>702.0</ele><time>2026-05-02T15:55:45Z</time></trkpt><trkpt lat="45.70905106277181" lon="4.590191609024948"><ele>702.0</ele><time>2026-05-02T15:55:46Z</time></trkpt><trkpt lat="45.70915155435029" lon="4.5903168921990165"><ele>702.0</ele><time>2026-05-02T15:55:47Z</time></trkpt><trkpt lat="45.70929381748717" lon="4.5904933785220905"><ele>702.0</ele><time>2026-05-02T15:55:48Z</time></trkpt><trkpt lat="45.709442680693556" lon="4.590684327692672"><ele>702.6666666666666</ele><time>2026-05-02T15:55:49Z</time></trkpt><trkpt lat="45.709576408310845" lon="4.590873578420889"><ele>703.3333333333333</ele><time>2026-05-02T15:55:50Z</time></trkpt><trkpt lat="45.70971291036738" lon="4.591032787836963"><ele>704.0</ele><time>2026-05-02T15:55:51Z</time></trkpt><trkpt lat="45.70986070758023" lon="4.5911902179215325"><ele>700.6666666666666</ele><time>2026-05-02T15:55:52Z</time></trkpt><trkpt lat="45.71000539953979" lon="4.591348169943301"><ele>697.3333333333334</ele><time>2026-05-02T15:55:53Z</time></trkpt><trkpt lat="45.71013876547577" lon="4.591502964788994"><ele>694.0</ele><time>2026-05-02T15:55:54Z</time></trkpt><trkpt lat="45.71027286753222" lon="4.591654283894627"><ele>694.0</ele><time>2026-05-02T15:55:55Z</time></trkpt><trkpt lat="45.71039060800217" lon="4.591807080474822"><ele>694.0</ele><time>2026-05-02T15:55:56Z</time></trkpt><trkpt lat="45.710476138986486" lon="4.591974308432477"><ele>694.0</ele><time>2026-05-02T15:55:57Z</time></trkpt><trkpt lat="45.71057424966917" lon="4.592106889477345"><ele>694.0</ele><time>2026-05-02T15:55:58Z</time></trkpt><trkpt lat="45.71065585933296" lon="4.592279666276623"><ele>688.25</ele><time>2026-05-02T15:55:59Z</time></trkpt><trkpt lat="45.71073023885067" lon="4.592452211018478"><ele>682.5</ele><time>2026-05-02T15:56:00Z</time></trkpt><trkpt lat="45.71079424404221" lon="4.592631256123111"><ele>676.75</ele><time>2026-05-02T15:56:01Z</time></trkpt><trkpt lat="45.71082128869005" lon="4.592800696109041"><ele>671.0</ele><time>2026-05-02T15:56:02Z</time></trkpt><trkpt lat="45.71088779529147" lon="4.592939652087156"><ele>667.0</ele><time>2026-05-02T15:56:03Z</time></trkpt><trkpt lat="45.71096779444742" lon="4.593071941079157"><ele>663.0</ele><time>2026-05-02T15:56:04Z</time></trkpt><trkpt lat="45.71106043577952" lon="4.593202045289979"><ele>659.0</ele><time>2026-05-02T15:56:05Z</time></trkpt><trkpt lat="45.711166626673595" lon="4.593310506312405"><ele>655.0</ele><time>2026-05-02T15:56:06Z</time></trkpt><trkpt lat="45.71127068805812" lon="4.593360735305242"><ele>655.0</ele><time>2026-05-02T15:56:07Z</time></trkpt><trkpt lat="45.71137367629624" lon="4.593345396340816"><ele>655.0</ele><time>2026-05-02T15:56:08Z</time></trkpt><trkpt lat="45.71146415178623" lon="4.593248209027825"><ele>655.0</ele><time>2026-05-02T15:56:08.999Z</time></trkpt><trkpt lat="45.711554483979604" lon="4.593125904923801"><ele>655.0</ele><time>2026-05-02T15:56:09.999Z</time></trkpt><trkpt lat="45.71168532683561" lon="4.5929964910217445"><ele>655.0</ele><time>2026-05-02T15:56:10.999Z</time></trkpt><trkpt lat="45.71181635800285" lon="4.59284606135358"><ele>655.0</ele><time>2026-05-02T15:56:11.999Z</time></trkpt><trkpt lat="45.71195000392024" lon="4.592719262634779"><ele>655.0</ele><time>2026-05-02T15:56:12.999Z</time></trkpt><trkpt lat="45.71208642487382" lon="4.592610557782522"><ele>658.0</ele><time>2026-05-02T15:56:13.999Z</time></trkpt><trkpt lat="45.712238244322066" lon="4.592516753489303"><ele>661.0</ele><time>2026-05-02T15:56:14.999Z</time></trkpt><trkpt lat="45.712390101789275" lon="4.592451521166914"><ele>664.0</ele><time>2026-05-02T15:56:15.999Z</time></trkpt><trkpt lat="45.71256044717336" lon="4.592404707087933"><ele>664.0</ele><time>2026-05-02T15:56:16.999Z</time></trkpt><trkpt lat="45.71273430106281" lon="4.592387174979298"><ele>664.0</ele><time>2026-05-02T15:56:17.999Z</time></trkpt><trkpt lat="45.71289967645273" lon="4.59239044070159"><ele>664.0</ele><time>2026-05-02T15:56:18.999Z</time></trkpt><trkpt lat="45.713034938884995" lon="4.592407687517688"><ele>662.75</ele><time>2026-05-02T15:56:19.999Z</time></trkpt><trkpt lat="45.71315598141906" lon="4.592461754034808"><ele>661.5</ele><time>2026-05-02T15:56:20.999Z</time></trkpt><trkpt lat="45.713269509638685" lon="4.592543453721447"><ele>660.25</ele><time>2026-05-02T15:56:21.999Z</time></trkpt><trkpt lat="45.71334330772134" lon="4.592677395927931"><ele>659.0</ele><time>2026-05-02T15:56:22.999Z</time></trkpt><trkpt lat="45.71339290458755" lon="4.592813618296799"><ele>656.75</ele><time>2026-05-02T15:56:23.999Z</time></trkpt><trkpt lat="45.71342193792561" lon="4.5929576073795495"><ele>654.5</ele><time>2026-05-02T15:56:24.999Z</time></trkpt><trkpt lat="45.713437472339216" lon="4.59314336693473"><ele>652.25</ele><time>2026-05-02T15:56:25.999Z</time></trkpt><trkpt lat="45.71344121559112" lon="4.593375189705275"><ele>650.0</ele><time>2026-05-02T15:56:26.999Z</time></trkpt><trkpt lat="45.713442278232804" lon="4.5936587007538465"><ele>648.3333333333333</ele><time>2026-05-02T15:56:27.999Z</time></trkpt><trkpt lat="45.71344047520841" lon="4.593954786225803"><ele>646.6666666666666</ele><time>2026-05-02T15:56:28.999Z</time></trkpt><trkpt lat="45.71347698605211" lon="4.594232354577061"><ele>645.0</ele><time>2026-05-02T15:56:29.999Z</time></trkpt><trkpt lat="45.71346034466481" lon="4.594500310561305"><ele>644.0</ele><time>2026-05-02T15:56:30.999Z</time></trkpt><trkpt lat="45.71343815991268" lon="4.594762058502581"><ele>643.0</ele><time>2026-05-02T15:56:31.999Z</time></trkpt><trkpt lat="45.71340911738096" lon="4.595025192357844"><ele>642.0</ele><time>2026-05-02T15:56:32.999Z</time></trkpt><trkpt lat="45.713373051247196" lon="4.5952906189970335"><ele>643.0</ele><time>2026-05-02T15:56:33.999Z</time></trkpt><trkpt lat="45.71333078385634" lon="4.595537972767133"><ele>644.0</ele><time>2026-05-02T15:56:34.999Z</time></trkpt><trkpt lat="45.71328151480287" lon="4.59577011457641"><ele>645.0</ele><time>2026-05-02T15:56:35.999Z</time></trkpt><trkpt lat="45.71323140235163" lon="4.595991408103082"><ele>645.0</ele><time>2026-05-02T15:56:36.999Z</time></trkpt><trkpt lat="45.71318033168214" lon="4.596206438281142"><ele>645.0</ele><time>2026-05-02T15:56:37.999Z</time></trkpt><trkpt lat="45.71315863511839" lon="4.596405775705083"><ele>645.0</ele><time>2026-05-02T15:56:38.999Z</time></trkpt><trkpt lat="45.71314448745559" lon="4.596589772070036"><ele>645.0</ele><time>2026-05-02T15:56:39.999Z</time></trkpt><trkpt lat="45.713147410688656" lon="4.596778182446704"><ele>645.0</ele><time>2026-05-02T15:56:40.999Z</time></trkpt><trkpt lat="45.71317195210321" lon="4.596971195008793"><ele>645.0</ele><time>2026-05-02T15:56:41.999Z</time></trkpt><trkpt lat="45.71320348673731" lon="4.597176788728764"><ele>645.0</ele><time>2026-05-02T15:56:42.999Z</time></trkpt><trkpt lat="45.71329055948034" lon="4.597353785360827"><ele>645.0</ele><time>2026-05-02T15:56:43.999Z</time></trkpt><trkpt lat="45.71337267176728" lon="4.597544439258376"><ele>644.6666666666666</ele><time>2026-05-02T15:56:44.999Z</time></trkpt><trkpt lat="45.71348579973311" lon="4.5977067723648535"><ele>644.3333333333333</ele><time>2026-05-02T15:56:45.999Z</time></trkpt><trkpt lat="45.71361495803774" lon="4.59785768033541"><ele>644.0</ele><time>2026-05-02T15:56:46.999Z</time></trkpt><trkpt lat="45.7137619977545" lon="4.59802481601242"><ele>644.0</ele><time>2026-05-02T15:56:47.999Z</time></trkpt><trkpt lat="45.71390953980236" lon="4.5982013306539775"><ele>644.0</ele><time>2026-05-02T15:56:48.999Z</time></trkpt><trkpt lat="45.714035114675994" lon="4.598377828882954"><ele>644.0</ele><time>2026-05-02T15:56:49.999Z</time></trkpt><trkpt lat="45.71415921075829" lon="4.598571070620492"><ele>645.6666666666666</ele><time>2026-05-02T15:56:51Z</time></trkpt><trkpt lat="45.71427819579608" lon="4.598784206574275"><ele>647.3333333333334</ele><time>2026-05-02T15:56:52Z</time></trkpt><trkpt lat="45.714367563200916" lon="4.598978333860163"><ele>649.0</ele><time>2026-05-02T15:56:53Z</time></trkpt><trkpt lat="45.714455263049935" lon="4.599196997712062"><ele>649.0</ele><time>2026-05-02T15:56:54Z</time></trkpt><trkpt lat="45.7145532728708" lon="4.599446175897948"><ele>649.0</ele><time>2026-05-02T15:56:55Z</time></trkpt><trkpt lat="45.7146333380638" lon="4.599661029358728"><ele>649.0</ele><time>2026-05-02T15:56:56Z</time></trkpt><trkpt lat="45.714696049819956" lon="4.5998379058482755"><ele>643.5</ele><time>2026-05-02T15:56:57Z</time></trkpt><trkpt lat="45.714751394287426" lon="4.599994003926542"><ele>638.0</ele><time>2026-05-02T15:56:58Z</time></trkpt><trkpt lat="45.714806299044675" lon="4.600147841410606"><ele>632.5</ele><time>2026-05-02T15:56:59Z</time></trkpt><trkpt lat="45.714861835088854" lon="4.600289000593602"><ele>627.0</ele><time>2026-05-02T15:57:00Z</time></trkpt><trkpt lat="45.714924514955555" lon="4.600403779522906"><ele>623.0</ele><time>2026-05-02T15:57:01Z</time></trkpt><trkpt lat="45.714987180838996" lon="4.600486610799177"><ele>619.0</ele><time>2026-05-02T15:57:02Z</time></trkpt><trkpt lat="45.71509087276428" lon="4.600532187357669"><ele>615.0</ele><time>2026-05-02T15:57:03Z</time></trkpt><trkpt lat="45.7151934607769" lon="4.600531900162422"><ele>611.0</ele><time>2026-05-02T15:57:04Z</time></trkpt><trkpt lat="45.71529833608151" lon="4.6004672119253875"><ele>607.0</ele><time>2026-05-02T15:57:05Z</time></trkpt><trkpt lat="45.71540621748281" lon="4.600357149620756"><ele>611.3333333333334</ele><time>2026-05-02T15:57:06Z</time></trkpt><trkpt lat="45.715541235180716" lon="4.600245586038145"><ele>615.6666666666666</ele><time>2026-05-02T15:57:07Z</time></trkpt><trkpt lat="45.7156729600659" lon="4.600106321852094"><ele>620.0</ele><time>2026-05-02T15:57:08Z</time></trkpt><trkpt lat="45.71581666132388" lon="4.599964324375594"><ele>620.0</ele><time>2026-05-02T15:57:09Z</time></trkpt><trkpt lat="45.71595788102108" lon="4.5998539850127305"><ele>620.0</ele><time>2026-05-02T15:57:10Z</time></trkpt><trkpt lat="45.71608341784861" lon="4.599757435290137"><ele>620.0</ele><time>2026-05-02T15:57:11Z</time></trkpt><trkpt lat="45.71620624233312" lon="4.59964244202662"><ele>623.6666666666666</ele><time>2026-05-02T15:57:12Z</time></trkpt><trkpt lat="45.71632638587813" lon="4.599543682757957"><ele>627.3333333333334</ele><time>2026-05-02T15:57:13Z</time></trkpt><trkpt lat="45.71647256913534" lon="4.599490422210105"><ele>631.0</ele><time>2026-05-02T15:57:14Z</time></trkpt><trkpt lat="45.716641868191104" lon="4.599443738102214"><ele>631.0</ele><time>2026-05-02T15:57:15Z</time></trkpt><trkpt lat="45.71682306303176" lon="4.599414873886461"><ele>631.0</ele><time>2026-05-02T15:57:16Z</time></trkpt><trkpt lat="45.716991258417664" lon="4.599398344844188"><ele>631.0</ele><time>2026-05-02T15:57:17Z</time></trkpt><trkpt lat="45.7171330198516" lon="4.599406364373921"><ele>630.2</ele><time>2026-05-02T15:57:18Z</time></trkpt><trkpt lat="45.71725385896608" lon="4.599386383581956"><ele>629.4000000000001</ele><time>2026-05-02T15:57:19Z</time></trkpt><trkpt lat="45.71734625690616" lon="4.5994018143586395"><ele>628.6</ele><time>2026-05-02T15:57:20Z</time></trkpt><trkpt lat="45.71742075781865" lon="4.5994683523561655"><ele>627.8000000000001</ele><time>2026-05-02T15:57:21Z</time></trkpt><trkpt lat="45.71748280488504" lon="4.59955900583202"><ele>627.0</ele><time>2026-05-02T15:57:22Z</time></trkpt><trkpt lat="45.717515948633874" lon="4.599676333088436"><ele>623.0</ele><time>2026-05-02T15:57:23Z</time></trkpt><trkpt lat="45.717491795581914" lon="4.599814072185728"><ele>619.0</ele><time>2026-05-02T15:57:24Z</time></trkpt><trkpt lat="45.71749505677295" lon="4.600024884938389"><ele>615.0</ele><time>2026-05-02T15:57:25Z</time></trkpt><trkpt lat="45.71747905663524" lon="4.600237061107396"><ele>611.0</ele><time>2026-05-02T15:57:26Z</time></trkpt><trkpt lat="45.7174504247193" lon="4.600426374003123"><ele>608.6666666666666</ele><time>2026-05-02T15:57:27Z</time></trkpt><trkpt lat="45.71742286813172" lon="4.600630292532826"><ele>606.3333333333334</ele><time>2026-05-02T15:57:28Z</time></trkpt><trkpt lat="45.717415456749954" lon="4.6008368166258276"><ele>604.0</ele><time>2026-05-02T15:57:29Z</time></trkpt><trkpt lat="45.717438768507755" lon="4.60108751138906"><ele>603.6666666666667</ele><time>2026-05-02T15:57:30Z</time></trkpt><trkpt lat="45.717458508002835" lon="4.60133886040695"><ele>603.3333333333334</ele><time>2026-05-02T15:57:31Z</time></trkpt><trkpt lat="45.71745936990342" lon="4.601576375967049"><ele>603.0</ele><time>2026-05-02T15:57:32Z</time></trkpt><trkpt lat="45.71745298696303" lon="4.601810384099154"><ele>600.0</ele><time>2026-05-02T15:57:33Z</time></trkpt><trkpt lat="45.71744729133064" lon="4.602058004797169"><ele>597.0</ele><time>2026-05-02T15:57:34Z</time></trkpt><trkpt lat="45.71746050594998" lon="4.602282234147168"><ele>594.0</ele><time>2026-05-02T15:57:35Z</time></trkpt><trkpt lat="45.71748948610027" lon="4.602493194868891"><ele>594.0</ele><time>2026-05-02T15:57:36Z</time></trkpt><trkpt lat="45.71753724739506" lon="4.602686445119776"><ele>594.0</ele><time>2026-05-02T15:57:37Z</time></trkpt><trkpt lat="45.717602349038316" lon="4.602849927000401"><ele>594.0</ele><time>2026-05-02T15:57:38Z</time></trkpt><trkpt lat="45.71768378489048" lon="4.603006372128711"><ele>594.0</ele><time>2026-05-02T15:57:39Z</time></trkpt><trkpt lat="45.71779264727891" lon="4.603155978661062"><ele>595.25</ele><time>2026-05-02T15:57:40Z</time></trkpt><trkpt lat="45.717894422271726" lon="4.603294821299196"><ele>596.5</ele><time>2026-05-02T15:57:41Z</time></trkpt><trkpt lat="45.71799680209766" lon="4.603419052347506"><ele>597.75</ele><time>2026-05-02T15:57:42Z</time></trkpt><trkpt lat="45.71810891007359" lon="4.60350198766422"><ele>599.0</ele><time>2026-05-02T15:57:43Z</time></trkpt><trkpt lat="45.718214740076036" lon="4.603587841208927"><ele>599.0</ele><time>2026-05-02T15:57:44Z</time></trkpt><trkpt lat="45.71833846238399" lon="4.603656150012483"><ele>599.0</ele><time>2026-05-02T15:57:45Z</time></trkpt><trkpt lat="45.71848167263724" lon="4.603716267599638"><ele>599.0</ele><time>2026-05-02T15:57:46Z</time></trkpt><trkpt lat="45.71860774850943" lon="4.603757488884675"><ele>599.0</ele><time>2026-05-02T15:57:47Z</time></trkpt><trkpt lat="45.718712251309704" lon="4.603811853355094"><ele>598.2</ele><time>2026-05-02T15:57:48Z</time></trkpt><trkpt lat="45.718816854445805" lon="4.603850861027368"><ele>597.4</ele><time>2026-05-02T15:57:49Z</time></trkpt><trkpt lat="45.71891634592074" lon="4.603904987404728"><ele>596.6</ele><time>2026-05-02T15:57:50Z</time></trkpt><trkpt lat="45.71899360563065" lon="4.60398486860562"><ele>595.8</ele><time>2026-05-02T15:57:51Z</time></trkpt><trkpt lat="45.71904930222082" lon="4.604074115454178"><ele>595.0</ele><time>2026-05-02T15:57:52Z</time></trkpt><trkpt lat="45.71906344606513" lon="4.604221456743787"><ele>595.0</ele><time>2026-05-02T15:57:53Z</time></trkpt><trkpt lat="45.71906041825521" lon="4.604394120469647"><ele>595.0</ele><time>2026-05-02T15:57:54Z</time></trkpt><trkpt lat="45.719044607303566" lon="4.6045738873097095"><ele>595.0</ele><time>2026-05-02T15:57:55Z</time></trkpt><trkpt lat="45.719014907216305" lon="4.604747789831693"><ele>595.0</ele><time>2026-05-02T15:57:56Z</time></trkpt><trkpt lat="45.718968727096865" lon="4.604880144803862"><ele>594.8</ele><time>2026-05-02T15:57:57Z</time></trkpt><trkpt lat="45.71889639445073" lon="4.604993261080175"><ele>594.6</ele><time>2026-05-02T15:57:58Z</time></trkpt><trkpt lat="45.718804719843035" lon="4.6050276114964435"><ele>594.4</ele><time>2026-05-02T15:57:59Z</time></trkpt><trkpt lat="45.71870899680373" lon="4.6050679158832635"><ele>594.2</ele><time>2026-05-02T15:58:00Z</time></trkpt><trkpt lat="45.71859029057652" lon="4.60513628727815"><ele>594.0</ele><time>2026-05-02T15:58:01Z</time></trkpt><trkpt lat="45.71845143560187" lon="4.605190600947851"><ele>591.6</ele><time>2026-05-02T15:58:02Z</time></trkpt><trkpt lat="45.71833472106983" lon="4.605233923848572"><ele>589.2</ele><time>2026-05-02T15:58:03Z</time></trkpt><trkpt lat="45.71822820996088" lon="4.605287683024407"><ele>586.8000000000001</ele><time>2026-05-02T15:58:04Z</time></trkpt><trkpt lat="45.71813510239037" lon="4.605351313232693"><ele>584.4</ele><time>2026-05-02T15:58:05Z</time></trkpt><trkpt lat="45.71805712499069" lon="4.605426814717812"><ele>582.0</ele><time>2026-05-02T15:58:06Z</time></trkpt><trkpt lat="45.718003677362276" lon="4.605528318791747"><ele>582.0</ele><time>2026-05-02T15:58:07Z</time></trkpt><trkpt lat="45.717936308911455" lon="4.6056282714814785"><ele>582.0</ele><time>2026-05-02T15:58:08Z</time></trkpt><trkpt lat="45.71791132357784" lon="4.605773699939808"><ele>582.0</ele><time>2026-05-02T15:58:09Z</time></trkpt><trkpt lat="45.71790495155237" lon="4.60590670421037"><ele>582.0</ele><time>2026-05-02T15:58:10Z</time></trkpt><trkpt lat="45.7179275201912" lon="4.606045119608709"><ele>582.0</ele><time>2026-05-02T15:58:11Z</time></trkpt><trkpt lat="45.71798172764324" lon="4.606173770350706"><ele>579.0</ele><time>2026-05-02T15:58:12Z</time></trkpt><trkpt lat="45.71807478700562" lon="4.606304781263107"><ele>576.0</ele><time>2026-05-02T15:58:13Z</time></trkpt><trkpt lat="45.7181842556555" lon="4.606467223413339"><ele>573.0</ele><time>2026-05-02T15:58:14Z</time></trkpt><trkpt lat="45.71829845972396" lon="4.606630696749453"><ele>573.0</ele><time>2026-05-02T15:58:15Z</time></trkpt><trkpt lat="45.71842335400187" lon="4.6067757588742575"><ele>573.0</ele><time>2026-05-02T15:58:16Z</time></trkpt><trkpt lat="45.718554610233916" lon="4.6068903511304695"><ele>573.0</ele><time>2026-05-02T15:58:16.999Z</time></trkpt><trkpt lat="45.71868961826118" lon="4.607021743527691"><ele>576.6666666666666</ele><time>2026-05-02T15:58:17.999Z</time></trkpt><trkpt lat="45.71882529718193" lon="4.607154450872667"><ele>580.3333333333333</ele><time>2026-05-02T15:58:18.999Z</time></trkpt><trkpt lat="45.718941913385116" lon="4.607303046200698"><ele>584.0</ele><time>2026-05-02T15:58:19.999Z</time></trkpt><trkpt lat="45.719057723664214" lon="4.607486099560436"><ele>584.0</ele><time>2026-05-02T15:58:20.999Z</time></trkpt><trkpt lat="45.719170690953334" lon="4.607671280275402"><ele>584.0</ele><time>2026-05-02T15:58:21.999Z</time></trkpt><trkpt lat="45.719300200586304" lon="4.607860032416419"><ele>584.0</ele><time>2026-05-02T15:58:22.999Z</time></trkpt><trkpt lat="45.719426624433886" lon="4.608034395605707"><ele>584.3333333333333</ele><time>2026-05-02T15:58:23.999Z</time></trkpt><trkpt lat="45.71955541448872" lon="4.608213287214386"><ele>584.6666666666666</ele><time>2026-05-02T15:58:24.999Z</time></trkpt><trkpt lat="45.719673810831644" lon="4.608377746540883"><ele>585.0</ele><time>2026-05-02T15:58:25.999Z</time></trkpt><trkpt lat="45.71978903527712" lon="4.608531761755537"><ele>580.0</ele><time>2026-05-02T15:58:26.999Z</time></trkpt><trkpt lat="45.719897219111736" lon="4.608670680852979"><ele>575.0</ele><time>2026-05-02T15:58:27.999Z</time></trkpt><trkpt lat="45.719999015326955" lon="4.608801436418229"><ele>570.0</ele><time>2026-05-02T15:58:28.999Z</time></trkpt><trkpt lat="45.7200948646929" lon="4.608915921878168"><ele>565.0</ele><time>2026-05-02T15:58:29.999Z</time></trkpt><trkpt lat="45.72018353836636" lon="4.609027698075208"><ele>566.75</ele><time>2026-05-02T15:58:30.999Z</time></trkpt><trkpt lat="45.72025496917233" lon="4.609132179069968"><ele>568.5</ele><time>2026-05-02T15:58:31.999Z</time></trkpt><trkpt lat="45.72032887645475" lon="4.609253185462185"><ele>570.25</ele><time>2026-05-02T15:58:32.999Z</time></trkpt><trkpt lat="45.72040533970716" lon="4.609399949890544"><ele>572.0</ele><time>2026-05-02T15:58:33.999Z</time></trkpt><trkpt lat="45.720472533556624" lon="4.60955114360605"><ele>572.0</ele><time>2026-05-02T15:58:34.999Z</time></trkpt><trkpt lat="45.72052587916354" lon="4.609687203290341"><ele>572.0</ele><time>2026-05-02T15:58:35.999Z</time></trkpt><trkpt lat="45.72056806812933" lon="4.609808414724456"><ele>572.0</ele><time>2026-05-02T15:58:36.999Z</time></trkpt><trkpt lat="45.72059689903522" lon="4.609909949135116"><ele>572.0</ele><time>2026-05-02T15:58:37.999Z</time></trkpt><trkpt lat="45.72061584547579" lon="4.610024628304934"><ele>572.0</ele><time>2026-05-02T15:58:38.999Z</time></trkpt><trkpt lat="45.72058615690407" lon="4.61013487783609"><ele>572.0</ele><time>2026-05-02T15:58:39.999Z</time></trkpt><trkpt lat="45.72052457812952" lon="4.610225418027658"><ele>572.0</ele><time>2026-05-02T15:58:40.999Z</time></trkpt><trkpt lat="45.72041849502135" lon="4.610262786904152"><ele>572.0</ele><time>2026-05-02T15:58:41.999Z</time></trkpt><trkpt lat="45.720302147544146" lon="4.610282067242578"><ele>572.0</ele><time>2026-05-02T15:58:42.999Z</time></trkpt><trkpt lat="45.72017687838177" lon="4.610259686658678"><ele>572.0</ele><time>2026-05-02T15:58:43.999Z</time></trkpt><trkpt lat="45.72003668004196" lon="4.610222285171087"><ele>569.3333333333333</ele><time>2026-05-02T15:58:44.999Z</time></trkpt><trkpt lat="45.719904163639704" lon="4.610142560590497"><ele>566.6666666666666</ele><time>2026-05-02T15:58:45.999Z</time></trkpt><trkpt lat="45.71975725255184" lon="4.610052172067273"><ele>564.0</ele><time>2026-05-02T15:58:46.999Z</time></trkpt><trkpt lat="45.71960107656671" lon="4.609947305598288"><ele>564.0</ele><time>2026-05-02T15:58:47.999Z</time></trkpt><trkpt lat="45.71943993175308" lon="4.609824044579715"><ele>564.0</ele><time>2026-05-02T15:58:48.999Z</time></trkpt><trkpt lat="45.719282934544324" lon="4.6096936786254705"><ele>564.0</ele><time>2026-05-02T15:58:49.999Z</time></trkpt><trkpt lat="45.719127609659296" lon="4.609557867417641"><ele>561.6666666666666</ele><time>2026-05-02T15:58:50.999Z</time></trkpt><trkpt lat="45.718978831334724" lon="4.609437963470931"><ele>559.3333333333333</ele><time>2026-05-02T15:58:51.999Z</time></trkpt><trkpt lat="45.71882541685855" lon="4.609326906692186"><ele>557.0</ele><time>2026-05-02T15:58:52.999Z</time></trkpt><trkpt lat="45.71866762554729" lon="4.609222023610871"><ele>559.0</ele><time>2026-05-02T15:58:53.999Z</time></trkpt><trkpt lat="45.71850806007397" lon="4.609131146336364"><ele>561.0</ele><time>2026-05-02T15:58:54.999Z</time></trkpt><trkpt lat="45.718344151377636" lon="4.609049982987013"><ele>563.0</ele><time>2026-05-02T15:58:55.999Z</time></trkpt><trkpt lat="45.71817599925229" lon="4.608985187232505"><ele>563.0</ele><time>2026-05-02T15:58:57Z</time></trkpt><trkpt lat="45.718000476746745" lon="4.608934063056127"><ele>563.0</ele><time>2026-05-02T15:58:58Z</time></trkpt><trkpt lat="45.71781239083783" lon="4.608895890937275"><ele>563.0</ele><time>2026-05-02T15:58:59Z</time></trkpt><trkpt lat="45.717623232226586" lon="4.60883177221176"><ele>564.3333333333333</ele><time>2026-05-02T15:59:00Z</time></trkpt><trkpt lat="45.717426617753155" lon="4.608802814837407"><ele>565.6666666666666</ele><time>2026-05-02T15:59:01Z</time></trkpt><trkpt lat="45.7172454767447" lon="4.608755282115091"><ele>567.0</ele><time>2026-05-02T15:59:02Z</time></trkpt><trkpt lat="45.71708507994882" lon="4.608716575074546"><ele>567.0</ele><time>2026-05-02T15:59:03Z</time></trkpt><trkpt lat="45.716935566189136" lon="4.608674575467694"><ele>567.0</ele><time>2026-05-02T15:59:04Z</time></trkpt><trkpt lat="45.71677253203449" lon="4.608625916706603"><ele>567.0</ele><time>2026-05-02T15:59:05Z</time></trkpt><trkpt lat="45.71660319618405" lon="4.608582183666222"><ele>562.25</ele><time>2026-05-02T15:59:06Z</time></trkpt><trkpt lat="45.71645757279878" lon="4.608537583073876"><ele>557.5</ele><time>2026-05-02T15:59:07Z</time></trkpt><trkpt lat="45.71634051731548" lon="4.60850878706805"><ele>552.75</ele><time>2026-05-02T15:59:08Z</time></trkpt><trkpt lat="45.71622011505984" lon="4.6084933459870285"><ele>548.0</ele><time>2026-05-02T15:59:09Z</time></trkpt><trkpt lat="45.716085111101236" lon="4.608510596715312"><ele>547.25</ele><time>2026-05-02T15:59:10Z</time></trkpt><trkpt lat="45.71595036021275" lon="4.608566032240604"><ele>546.5</ele><time>2026-05-02T15:59:11Z</time></trkpt><trkpt lat="45.715843006737096" lon="4.60863823678601"><ele>545.75</ele><time>2026-05-02T15:59:12Z</time></trkpt><trkpt lat="45.715757205126046" lon="4.608720953749019"><ele>545.0</ele><time>2026-05-02T15:59:13Z</time></trkpt><trkpt lat="45.715692111356496" lon="4.608846782748681"><ele>547.75</ele><time>2026-05-02T15:59:14Z</time></trkpt><trkpt lat="45.715661272315074" lon="4.609008677020049"><ele>550.5</ele><time>2026-05-02T15:59:15Z</time></trkpt><trkpt lat="45.71563544471023" lon="4.609191522247776"><ele>553.25</ele><time>2026-05-02T15:59:16Z</time></trkpt><trkpt lat="45.71562027282524" lon="4.609410373855663"><ele>556.0</ele><time>2026-05-02T15:59:17Z</time></trkpt><trkpt lat="45.71560911861118" lon="4.609638452755178"><ele>558.3333333333334</ele><time>2026-05-02T15:59:18Z</time></trkpt><trkpt lat="45.71560873528207" lon="4.609875815293648"><ele>560.6666666666666</ele><time>2026-05-02T15:59:19Z</time></trkpt><trkpt lat="45.71561529206467" lon="4.610120433675355"><ele>563.0</ele><time>2026-05-02T15:59:20Z</time></trkpt><trkpt lat="45.715607466577154" lon="4.610373832465525"><ele>563.6666666666666</ele><time>2026-05-02T15:59:21Z</time></trkpt><trkpt lat="45.715615822773756" lon="4.6106401391489635"><ele>564.3333333333334</ele><time>2026-05-02T15:59:22Z</time></trkpt><trkpt lat="45.715624325077314" lon="4.610911101903445"><ele>565.0</ele><time>2026-05-02T15:59:23Z</time></trkpt><trkpt lat="45.71563269862101" lon="4.6111779609617685"><ele>565.0</ele><time>2026-05-02T15:59:24Z</time></trkpt><trkpt lat="45.71563342458609" lon="4.611429672049403"><ele>565.0</ele><time>2026-05-02T15:59:25Z</time></trkpt><trkpt lat="45.71562692312244" lon="4.611692052035167"><ele>565.0</ele><time>2026-05-02T15:59:26Z</time></trkpt><trkpt lat="45.71560212188063" lon="4.611955268795125"><ele>566.6666666666667</ele><time>2026-05-02T15:59:27Z</time></trkpt><trkpt lat="45.71557279168851" lon="4.612194458131825"><ele>568.3333333333334</ele><time>2026-05-02T15:59:28Z</time></trkpt><trkpt lat="45.71553890448064" lon="4.612404594241053"><ele>570.0</ele><time>2026-05-02T15:59:29Z</time></trkpt><trkpt lat="45.71549643546932" lon="4.612580260089618"><ele>570.0</ele><time>2026-05-02T15:59:30Z</time></trkpt><trkpt lat="45.715439273652514" lon="4.612731170854214"><ele>570.0</ele><time>2026-05-02T15:59:31Z</time></trkpt><trkpt lat="45.715355909385046" lon="4.612844049008392"><ele>570.0</ele><time>2026-05-02T15:59:32Z</time></trkpt><trkpt lat="45.71524539027476" lon="4.612917251647452"><ele>570.0</ele><time>2026-05-02T15:59:33Z</time></trkpt><trkpt lat="45.71512518234584" lon="4.612997533251541"><ele>566.4</ele><time>2026-05-02T15:59:34Z</time></trkpt><trkpt lat="45.71502843937444" lon="4.613092785606662"><ele>562.8</ele><time>2026-05-02T15:59:35Z</time></trkpt><trkpt lat="45.714936252571604" lon="4.613184067614177"><ele>559.2</ele><time>2026-05-02T15:59:36Z</time></trkpt><trkpt lat="45.71486950892929" lon="4.613290207677851"><ele>555.6</ele><time>2026-05-02T15:59:37Z</time></trkpt><trkpt lat="45.714826311298275" lon="4.613419357068904"><ele>552.0</ele><time>2026-05-02T15:59:38Z</time></trkpt><trkpt lat="45.71479500414702" lon="4.61358956400495"><ele>552.75</ele><time>2026-05-02T15:59:39Z</time></trkpt><trkpt lat="45.71479243226769" lon="4.613800160601099"><ele>553.5</ele><time>2026-05-02T15:59:40Z</time></trkpt><trkpt lat="45.71479355304762" lon="4.614007230085051"><ele>554.25</ele><time>2026-05-02T15:59:41Z</time></trkpt><trkpt lat="45.714789137671936" lon="4.6142239032004735"><ele>555.0</ele><time>2026-05-02T15:59:42Z</time></trkpt><trkpt lat="45.71480191429742" lon="4.6145025865919616"><ele>555.0</ele><time>2026-05-02T15:59:43Z</time></trkpt><trkpt lat="45.714817511378605" lon="4.614777303092109"><ele>555.0</ele><time>2026-05-02T15:59:44Z</time></trkpt><trkpt lat="45.714838873446915" lon="4.615064050500356"><ele>555.0</ele><time>2026-05-02T15:59:45Z</time></trkpt><trkpt lat="45.71486308682467" lon="4.61534333725409"><ele>553.0</ele><time>2026-05-02T15:59:46Z</time></trkpt><trkpt lat="45.7148762475628" lon="4.615604238019028"><ele>551.0</ele><time>2026-05-02T15:59:47Z</time></trkpt><trkpt lat="45.71489872838831" lon="4.615842344784384"><ele>549.0</ele><time>2026-05-02T15:59:48Z</time></trkpt><trkpt lat="45.714908186487364" lon="4.6160787327965425"><ele>547.25</ele><time>2026-05-02T15:59:49Z</time></trkpt><trkpt lat="45.714946294796675" lon="4.616284838122051"><ele>545.5</ele><time>2026-05-02T15:59:50Z</time></trkpt><trkpt lat="45.71498827445968" lon="4.616472494755917"><ele>543.75</ele><time>2026-05-02T15:59:51Z</time></trkpt><trkpt lat="45.71506514821282" lon="4.616640874248535"><ele>542.0</ele><time>2026-05-02T15:59:52Z</time></trkpt><trkpt lat="45.71515757801202" lon="4.616818866192467"><ele>543.0</ele><time>2026-05-02T15:59:53Z</time></trkpt><trkpt lat="45.715273184975686" lon="4.617015924731504"><ele>544.0</ele><time>2026-05-02T15:59:54Z</time></trkpt><trkpt lat="45.715396246399344" lon="4.617206295936568"><ele>545.0</ele><time>2026-05-02T15:59:55Z</time></trkpt><trkpt lat="45.71551285560024" lon="4.617368206007143"><ele>545.0</ele><time>2026-05-02T15:59:56Z</time></trkpt><trkpt lat="45.715626851568096" lon="4.617512102160941"><ele>545.0</ele><time>2026-05-02T15:59:57Z</time></trkpt><trkpt lat="45.71575372277301" lon="4.617607274418771"><ele>545.0</ele><time>2026-05-02T15:59:58Z</time></trkpt><trkpt lat="45.71588360552317" lon="4.6177040732244405"><ele>545.0</ele><time>2026-05-02T15:59:59Z</time></trkpt><trkpt lat="45.71602251426714" lon="4.617827624863114"><ele>543.25</ele><time>2026-05-02T16:00:00Z</time></trkpt><trkpt lat="45.71615729700867" lon="4.617954135862258"><ele>541.5</ele><time>2026-05-02T16:00:01Z</time></trkpt><trkpt lat="45.716273355746296" lon="4.618066622613833"><ele>539.75</ele><time>2026-05-02T16:00:02Z</time></trkpt><trkpt lat="45.716374863078336" lon="4.618177009210042"><ele>538.0</ele><time>2026-05-02T16:00:03Z</time></trkpt><trkpt lat="45.716478957639865" lon="4.6182759508944535"><ele>538.0</ele><time>2026-05-02T16:00:04Z</time></trkpt><trkpt lat="45.71659694613989" lon="4.6183582609712275"><ele>538.0</ele><time>2026-05-02T16:00:05Z</time></trkpt><trkpt lat="45.716724524351214" lon="4.618422678319084"><ele>538.0</ele><time>2026-05-02T16:00:06Z</time></trkpt><trkpt lat="45.71684224131683" lon="4.618452091860017"><ele>538.0</ele><time>2026-05-02T16:00:07Z</time></trkpt><trkpt lat="45.716972582080444" lon="4.618445696937095"><ele>537.0</ele><time>2026-05-02T16:00:08Z</time></trkpt><trkpt lat="45.717122300344585" lon="4.618397410760725"><ele>536.0</ele><time>2026-05-02T16:00:09Z</time></trkpt><trkpt lat="45.71728891238788" lon="4.618339578089446"><ele>535.0</ele><time>2026-05-02T16:00:10Z</time></trkpt><trkpt lat="45.71745740482157" lon="4.618292366371264"><ele>535.0</ele><time>2026-05-02T16:00:11Z</time></trkpt><trkpt lat="45.71762451889902" lon="4.618258994833"><ele>535.0</ele><time>2026-05-02T16:00:12Z</time></trkpt><trkpt lat="45.71777598987875" lon="4.618232337772164"><ele>535.0</ele><time>2026-05-02T16:00:13Z</time></trkpt><trkpt lat="45.71790952858229" lon="4.618202137532504"><ele>533.8</ele><time>2026-05-02T16:00:13.999Z</time></trkpt><trkpt lat="45.718028054519145" lon="4.618177640088513"><ele>532.6</ele><time>2026-05-02T16:00:14.999Z</time></trkpt><trkpt lat="45.71813640617183" lon="4.618157991016501"><ele>531.4</ele><time>2026-05-02T16:00:15.999Z</time></trkpt><trkpt lat="45.718236788658075" lon="4.618124472530409"><ele>530.2</ele><time>2026-05-02T16:00:16.999Z</time></trkpt><trkpt lat="45.7183171470963" lon="4.618072762134584"><ele>529.0</ele><time>2026-05-02T16:00:17.999Z</time></trkpt><trkpt lat="45.71840089795556" lon="4.618026588582121"><ele>529.0</ele><time>2026-05-02T16:00:18.999Z</time></trkpt><trkpt lat="45.71847817373196" lon="4.617970929030417"><ele>529.0</ele><time>2026-05-02T16:00:19.999Z</time></trkpt><trkpt lat="45.71856168407975" lon="4.617940404138699"><ele>529.0</ele><time>2026-05-02T16:00:20.999Z</time></trkpt><trkpt lat="45.71863586226403" lon="4.617916727215678"><ele>529.0</ele><time>2026-05-02T16:00:21.999Z</time></trkpt><trkpt lat="45.718723823307954" lon="4.617905488038129"><ele>529.0</ele><time>2026-05-02T16:00:22.999Z</time></trkpt><trkpt lat="45.71881579098039" lon="4.6180147892474945"><ele>532.0</ele><time>2026-05-02T16:00:23.999Z</time></trkpt><trkpt lat="45.71883479920368" lon="4.618174402332227"><ele>535.0</ele><time>2026-05-02T16:00:24.999Z</time></trkpt><trkpt lat="45.71885583696426" lon="4.6183316814956745"><ele>538.0</ele><time>2026-05-02T16:00:25.999Z</time></trkpt><trkpt lat="45.718850342394006" lon="4.618521094366579"><ele>541.0</ele><time>2026-05-02T16:00:26.999Z</time></trkpt><trkpt lat="45.718844277769804" lon="4.618741879454542"><ele>541.0</ele><time>2026-05-02T16:00:27.999Z</time></trkpt><trkpt lat="45.7188363398445" lon="4.618978373261343"><ele>541.0</ele><time>2026-05-02T16:00:28.999Z</time></trkpt><trkpt lat="45.71882178405205" lon="4.619242267579425"><ele>541.0</ele><time>2026-05-02T16:00:29.999Z</time></trkpt><trkpt lat="45.71879953033945" lon="4.619510347694563"><ele>540.6666666666667</ele><time>2026-05-02T16:00:30.999Z</time></trkpt><trkpt lat="45.7187897889367" lon="4.619781430942615"><ele>540.3333333333334</ele><time>2026-05-02T16:00:31.999Z</time></trkpt><trkpt lat="45.7187899552327" lon="4.620031561162079"><ele>540.0</ele><time>2026-05-02T16:00:32.999Z</time></trkpt><trkpt lat="45.71879343309313" lon="4.620250399864294"><ele>537.5</ele><time>2026-05-02T16:00:33.999Z</time></trkpt><trkpt lat="45.71879442978197" lon="4.620428981008671"><ele>535.0</ele><time>2026-05-02T16:00:34.999Z</time></trkpt><trkpt lat="45.71880043276407" lon="4.620591536323996"><ele>532.5</ele><time>2026-05-02T16:00:35.999Z</time></trkpt><trkpt lat="45.71883065318409" lon="4.620750977095158"><ele>530.0</ele><time>2026-05-02T16:00:36.999Z</time></trkpt><trkpt lat="45.71889426450401" lon="4.6208775255095444"><ele>530.0</ele><time>2026-05-02T16:00:37.999Z</time></trkpt><trkpt lat="45.71898523826979" lon="4.620979626352041"><ele>530.0</ele><time>2026-05-02T16:00:38.999Z</time></trkpt><trkpt lat="45.71910058034237" lon="4.621027660232492"><ele>530.0</ele><time>2026-05-02T16:00:39.999Z</time></trkpt><trkpt lat="45.719231824150796" lon="4.6210308868586445"><ele>530.0</ele><time>2026-05-02T16:00:40.999Z</time></trkpt><trkpt lat="45.71939173295834" lon="4.620998266211736"><ele>529.0</ele><time>2026-05-02T16:00:41.999Z</time></trkpt><trkpt lat="45.71958128829451" lon="4.620974081256618"><ele>528.0</ele><time>2026-05-02T16:00:42.999Z</time></trkpt><trkpt lat="45.719768972495565" lon="4.620955028212829"><ele>527.0</ele><time>2026-05-02T16:00:43.999Z</time></trkpt><trkpt lat="45.71993706677385" lon="4.620937955194671"><ele>527.0</ele><time>2026-05-02T16:00:44.999Z</time></trkpt><trkpt lat="45.720080525629314" lon="4.62092020670338"><ele>527.0</ele><time>2026-05-02T16:00:45.999Z</time></trkpt><trkpt lat="45.72021719205756" lon="4.620890309953181"><ele>527.0</ele><time>2026-05-02T16:00:46.999Z</time></trkpt><trkpt lat="45.720363205480375" lon="4.620843650211528"><ele>527.0</ele><time>2026-05-02T16:00:47.999Z</time></trkpt><trkpt lat="45.72049561240274" lon="4.6207568757878485"><ele>530.0</ele><time>2026-05-02T16:00:48.999Z</time></trkpt><trkpt lat="45.72061784088305" lon="4.620629449188121"><ele>533.0</ele><time>2026-05-02T16:00:49.999Z</time></trkpt><trkpt lat="45.72072306026614" lon="4.620492951276331"><ele>536.0</ele><time>2026-05-02T16:00:50.999Z</time></trkpt><trkpt lat="45.72079485019111" lon="4.620336993040478"><ele>539.0</ele><time>2026-05-02T16:00:51.999Z</time></trkpt><trkpt lat="45.72083494749314" lon="4.620202178738445"><ele>539.0</ele><time>2026-05-02T16:00:52.999Z</time></trkpt><trkpt lat="45.72087555156749" lon="4.62007776956705"><ele>539.0</ele><time>2026-05-02T16:00:53.999Z</time></trkpt><trkpt lat="45.72093434107561" lon="4.619969961277974"><ele>539.0</ele><time>2026-05-02T16:00:54.999Z</time></trkpt><trkpt lat="45.721040998166885" lon="4.619918448425365"><ele>539.0</ele><time>2026-05-02T16:00:55.999Z</time></trkpt><trkpt lat="45.721148959207795" lon="4.619900362312121"><ele>539.0</ele><time>2026-05-02T16:00:56.999Z</time></trkpt><trkpt lat="45.721282570021714" lon="4.619899405489289"><ele>535.0</ele><time>2026-05-02T16:00:57.999Z</time></trkpt><trkpt lat="45.72143945923788" lon="4.619936042990752"><ele>531.0</ele><time>2026-05-02T16:00:58.999Z</time></trkpt><trkpt lat="45.72158942229994" lon="4.619957936721897"><ele>527.0</ele><time>2026-05-02T16:00:59.999Z</time></trkpt><trkpt lat="45.72173654494775" lon="4.619977166798463"><ele>527.0</ele><time>2026-05-02T16:01:00.999Z</time></trkpt><trkpt lat="45.72186413769544" lon="4.619957631815071"><ele>527.0</ele><time>2026-05-02T16:01:01.999Z</time></trkpt><trkpt lat="45.72199327137025" lon="4.619890777984203"><ele>527.0</ele><time>2026-05-02T16:01:03Z</time></trkpt><trkpt lat="45.72211195134835" lon="4.619785266048147"><ele>527.0</ele><time>2026-05-02T16:01:04Z</time></trkpt><trkpt lat="45.72221230616287" lon="4.61969280925187"><ele>524.75</ele><time>2026-05-02T16:01:05Z</time></trkpt><trkpt lat="45.72230370508061" lon="4.619610545611151"><ele>522.5</ele><time>2026-05-02T16:01:06Z</time></trkpt><trkpt lat="45.722409358913794" lon="4.619547806333115"><ele>520.25</ele><time>2026-05-02T16:01:07Z</time></trkpt><trkpt lat="45.72252399135343" lon="4.619497938560904"><ele>518.0</ele><time>2026-05-02T16:01:08Z</time></trkpt><trkpt lat="45.72263160046443" lon="4.619486452570091"><ele>523.1999999999999</ele><time>2026-05-02T16:01:09Z</time></trkpt><trkpt lat="45.72273956353692" lon="4.619505489914482"><ele>528.4</ele><time>2026-05-02T16:01:10Z</time></trkpt><trkpt lat="45.72282881077827" lon="4.619577946078705"><ele>533.5999999999999</ele><time>2026-05-02T16:01:11Z</time></trkpt><trkpt lat="45.7228789976646" lon="4.619726481674286"><ele>538.8</ele><time>2026-05-02T16:01:12Z</time></trkpt><trkpt lat="45.72292023856839" lon="4.619872720586708"><ele>544.0</ele><time>2026-05-02T16:01:13Z</time></trkpt><trkpt lat="45.72289809039965" lon="4.62005382185909"><ele>544.0</ele><time>2026-05-02T16:01:14Z</time></trkpt><trkpt lat="45.72288620742736" lon="4.620258852846835"><ele>544.0</ele><time>2026-05-02T16:01:15Z</time></trkpt><trkpt lat="45.72289013137563" lon="4.620491692511787"><ele>544.0</ele><time>2026-05-02T16:01:16Z</time></trkpt><trkpt lat="45.72289553289157" lon="4.62072964812065"><ele>541.3333333333334</ele><time>2026-05-02T16:01:17Z</time></trkpt><trkpt lat="45.722923016298665" lon="4.620964943834697"><ele>538.6666666666666</ele><time>2026-05-02T16:01:18Z</time></trkpt><trkpt lat="45.72299367984767" lon="4.621206654911755"><ele>536.0</ele><time>2026-05-02T16:01:19Z</time></trkpt><trkpt lat="45.72306497004976" lon="4.621444545365086"><ele>533.6666666666666</ele><time>2026-05-02T16:01:20Z</time></trkpt><trkpt lat="45.72312626562622" lon="4.621675706860343"><ele>531.3333333333334</ele><time>2026-05-02T16:01:21Z</time></trkpt><trkpt lat="45.72318008365317" lon="4.621900191904248"><ele>529.0</ele><time>2026-05-02T16:01:22Z</time></trkpt><trkpt lat="45.723253389549555" lon="4.622126283372425"><ele>533.0</ele><time>2026-05-02T16:01:23Z</time></trkpt><trkpt lat="45.72335519224563" lon="4.622333477298137"><ele>537.0</ele><time>2026-05-02T16:01:24Z</time></trkpt><trkpt lat="45.72348471761113" lon="4.622529389875262"><ele>541.0</ele><time>2026-05-02T16:01:25Z</time></trkpt><trkpt lat="45.72362090101031" lon="4.622723512607587"><ele>534.3333333333334</ele><time>2026-05-02T16:01:26Z</time></trkpt><trkpt lat="45.72372913582066" lon="4.622965662251654"><ele>527.6666666666666</ele><time>2026-05-02T16:01:27Z</time></trkpt><trkpt lat="45.72383121480442" lon="4.623191323070781"><ele>521.0</ele><time>2026-05-02T16:01:28Z</time></trkpt><trkpt lat="45.72390931431042" lon="4.623400163321167"><ele>521.0</ele><time>2026-05-02T16:01:29Z</time></trkpt><trkpt lat="45.72398127987883" lon="4.623613004838725"><ele>521.0</ele><time>2026-05-02T16:01:30Z</time></trkpt><trkpt lat="45.72404306815803" lon="4.623808465427914"><ele>521.0</ele><time>2026-05-02T16:01:31Z</time></trkpt><trkpt lat="45.72409982406301" lon="4.624002257184607"><ele>518.25</ele><time>2026-05-02T16:01:32Z</time></trkpt><trkpt lat="45.72414744840368" lon="4.624172029613179"><ele>515.5</ele><time>2026-05-02T16:01:33Z</time></trkpt><trkpt lat="45.72419205288707" lon="4.624342492504487"><ele>512.75</ele><time>2026-05-02T16:01:34Z</time></trkpt><trkpt lat="45.724244750675396" lon="4.6244920675931125"><ele>510.0</ele><time>2026-05-02T16:01:35Z</time></trkpt><trkpt lat="45.7242774160773" lon="4.624624139071924"><ele>509.2</ele><time>2026-05-02T16:01:36Z</time></trkpt><trkpt lat="45.724310558230655" lon="4.624764967256573"><ele>508.4</ele><time>2026-05-02T16:01:37Z</time></trkpt><trkpt lat="45.724372680026555" lon="4.624894216374096"><ele>507.6</ele><time>2026-05-02T16:01:38Z</time></trkpt><trkpt lat="45.72445769269489" lon="4.624995355505904"><ele>506.8</ele><time>2026-05-02T16:01:39Z</time></trkpt><trkpt lat="45.72455596976919" lon="4.62504299879388"><ele>506.0</ele><time>2026-05-02T16:01:40Z</time></trkpt><trkpt lat="45.72466425528153" lon="4.625040187032958"><ele>506.0</ele><time>2026-05-02T16:01:41Z</time></trkpt><trkpt lat="45.724771497448856" lon="4.624988130236493"><ele>506.0</ele><time>2026-05-02T16:01:42Z</time></trkpt><trkpt lat="45.724869624851586" lon="4.624873034797324"><ele>506.0</ele><time>2026-05-02T16:01:43Z</time></trkpt><trkpt lat="45.72494447037746" lon="4.624729561728579"><ele>506.0</ele><time>2026-05-02T16:01:44Z</time></trkpt><trkpt lat="45.724999035137444" lon="4.624547503141407"><ele>507.66666666666663</ele><time>2026-05-02T16:01:45Z</time></trkpt><trkpt lat="45.725044197387405" lon="4.624328940312095"><ele>509.33333333333337</ele><time>2026-05-02T16:01:46Z</time></trkpt><trkpt lat="45.725098986732604" lon="4.6240826803867465"><ele>511.0</ele><time>2026-05-02T16:01:47Z</time></trkpt><trkpt lat="45.72516217277917" lon="4.6238339990764015"><ele>508.6666666666667</ele><time>2026-05-02T16:01:48Z</time></trkpt><trkpt lat="45.72523718352679" lon="4.6236095913458755"><ele>506.33333333333337</ele><time>2026-05-02T16:01:49Z</time></trkpt><trkpt lat="45.72531070797425" lon="4.62341749982035"><ele>504.0</ele><time>2026-05-02T16:01:50Z</time></trkpt><trkpt lat="45.72538383952668" lon="4.623245706256705"><ele>504.0</ele><time>2026-05-02T16:01:51Z</time></trkpt><trkpt lat="45.7254554392847" lon="4.623086341463334"><ele>504.0</ele><time>2026-05-02T16:01:52Z</time></trkpt><trkpt lat="45.725542093711425" lon="4.622942592426556"><ele>504.0</ele><time>2026-05-02T16:01:53Z</time></trkpt><trkpt lat="45.72565432647378" lon="4.6228616132635025"><ele>504.0</ele><time>2026-05-02T16:01:54Z</time></trkpt><trkpt lat="45.725747758498215" lon="4.622794136686037"><ele>504.0</ele><time>2026-05-02T16:01:55Z</time></trkpt><trkpt lat="45.72584889579479" lon="4.622839202519879"><ele>504.0</ele><time>2026-05-02T16:01:56Z</time></trkpt><trkpt lat="45.72591923542399" lon="4.622927838728525"><ele>504.0</ele><time>2026-05-02T16:01:57Z</time></trkpt><trkpt lat="45.725981612289566" lon="4.623043019890753"><ele>504.0</ele><time>2026-05-02T16:01:58Z</time></trkpt><trkpt lat="45.726067045929874" lon="4.623204206272875"><ele>504.0</ele><time>2026-05-02T16:01:59Z</time></trkpt><trkpt lat="45.72617020280687" lon="4.623358170366995"><ele>505.75</ele><time>2026-05-02T16:02:00Z</time></trkpt><trkpt lat="45.726278705144516" lon="4.623447276752261"><ele>507.5</ele><time>2026-05-02T16:02:01Z</time></trkpt><trkpt lat="45.72638629526844" lon="4.623468038252722"><ele>509.25</ele><time>2026-05-02T16:02:02Z</time></trkpt><trkpt lat="45.72649231805137" lon="4.62345529626198"><ele>511.0</ele><time>2026-05-02T16:02:03Z</time></trkpt><trkpt lat="45.72660722390758" lon="4.6234437930412975"><ele>511.0</ele><time>2026-05-02T16:02:04Z</time></trkpt><trkpt lat="45.72671643868751" lon="4.623492444130834"><ele>511.0</ele><time>2026-05-02T16:02:05Z</time></trkpt><trkpt lat="45.72680573391397" lon="4.623628007364939"><ele>511.0</ele><time>2026-05-02T16:02:06Z</time></trkpt><trkpt lat="45.72689948272042" lon="4.623778002662941"><ele>511.0</ele><time>2026-05-02T16:02:07Z</time></trkpt><trkpt lat="45.7269502419108" lon="4.623977050775227"><ele>508.6666666666667</ele><time>2026-05-02T16:02:08Z</time></trkpt><trkpt lat="45.727017602284604" lon="4.624183111332865"><ele>506.33333333333337</ele><time>2026-05-02T16:02:09Z</time></trkpt><trkpt lat="45.727053390909646" lon="4.624417807733234"><ele>504.0</ele><time>2026-05-02T16:02:10Z</time></trkpt><trkpt lat="45.727082928481785" lon="4.624630031884889"><ele>504.0</ele><time>2026-05-02T16:02:11Z</time></trkpt><trkpt lat="45.72709934319148" lon="4.624824715681327"><ele>504.0</ele><time>2026-05-02T16:02:12Z</time></trkpt><trkpt lat="45.72711727100791" lon="4.6249902256717625"><ele>504.0</ele><time>2026-05-02T16:02:13Z</time></trkpt><trkpt lat="45.72714541310592" lon="4.625142535378266"><ele>504.0</ele><time>2026-05-02T16:02:14Z</time></trkpt><trkpt lat="45.72719467420632" lon="4.6252710028034185"><ele>499.75</ele><time>2026-05-02T16:02:15Z</time></trkpt><trkpt lat="45.72727522008123" lon="4.62538111757898"><ele>495.5</ele><time>2026-05-02T16:02:16Z</time></trkpt><trkpt lat="45.72739596823834" lon="4.6254384771510075"><ele>491.25</ele><time>2026-05-02T16:02:17Z</time></trkpt><trkpt lat="45.72751841793876" lon="4.625446675291064"><ele>487.0</ele><time>2026-05-02T16:02:18Z</time></trkpt><trkpt lat="45.72765253994166" lon="4.625421136837785"><ele>485.75</ele><time>2026-05-02T16:02:19Z</time></trkpt><trkpt lat="45.727782421187015" lon="4.625355238985586"><ele>484.5</ele><time>2026-05-02T16:02:20Z</time></trkpt><trkpt lat="45.72791832313824" lon="4.6252624049525455"><ele>483.25</ele><time>2026-05-02T16:02:21Z</time></trkpt><trkpt lat="45.72805705204548" lon="4.625173398503926"><ele>482.0</ele><time>2026-05-02T16:02:22Z</time></trkpt><trkpt lat="45.72819315980195" lon="4.6250701696228775"><ele>486.66666666666663</ele><time>2026-05-02T16:02:23Z</time></trkpt><trkpt lat="45.72831498115126" lon="4.624955519117774"><ele>491.33333333333337</ele><time>2026-05-02T16:02:24Z</time></trkpt><trkpt lat="45.72843065605265" lon="4.624820937244973"><ele>496.0</ele><time>2026-05-02T16:02:25Z</time></trkpt><trkpt lat="45.72854776750629" lon="4.624675036449296"><ele>494.6666666666667</ele><time>2026-05-02T16:02:26Z</time></trkpt><trkpt lat="45.72865442668491" lon="4.624552195616447"><ele>493.33333333333337</ele><time>2026-05-02T16:02:27Z</time></trkpt><trkpt lat="45.728791764343995" lon="4.624455553824564"><ele>492.0</ele><time>2026-05-02T16:02:28Z</time></trkpt><trkpt lat="45.728933747880696" lon="4.624330874800003"><ele>495.5</ele><time>2026-05-02T16:02:28.999Z</time></trkpt><trkpt lat="45.72908222411054" lon="4.624236480089388"><ele>499.0</ele><time>2026-05-02T16:02:29.999Z</time></trkpt><trkpt lat="45.7292230217588" lon="4.624155623552893"><ele>502.5</ele><time>2026-05-02T16:02:30.999Z</time></trkpt><trkpt lat="45.729344624702804" lon="4.6240936900529785"><ele>506.0</ele><time>2026-05-02T16:02:31.999Z</time></trkpt><trkpt lat="45.72946918112743" lon="4.6240261470712545"><ele>505.99999999999994</ele><time>2026-05-02T16:02:32.999Z</time></trkpt><trkpt lat="45.72958122699498" lon="4.623972204857493"><ele>506.0</ele><time>2026-05-02T16:02:33.999Z</time></trkpt><trkpt lat="45.729659830423664" lon="4.623941467805067"><ele>506.0</ele><time>2026-05-02T16:02:34.999Z</time></trkpt><trkpt lat="45.72973851846831" lon="4.623920160358209"><ele>506.0</ele><time>2026-05-02T16:02:35.999Z</time></trkpt><trkpt lat="45.72981253960945" lon="4.623918420046705"><ele>505.99999999999994</ele><time>2026-05-02T16:02:36.999Z</time></trkpt><trkpt lat="45.729873855807796" lon="4.623979910237416"><ele>506.0</ele><time>2026-05-02T16:02:37.999Z</time></trkpt><trkpt lat="45.72990168226756" lon="4.624100446778907"><ele>506.0</ele><time>2026-05-02T16:02:38.999Z</time></trkpt><trkpt lat="45.72987813257582" lon="4.624245845688222"><ele>506.0</ele><time>2026-05-02T16:02:39.999Z</time></trkpt><trkpt lat="45.72980272548115" lon="4.624380058924878"><ele>506.0</ele><time>2026-05-02T16:02:40.999Z</time></trkpt><trkpt lat="45.729744905208904" lon="4.62457485618471"><ele>506.0</ele><time>2026-05-02T16:02:41.999Z</time></trkpt><trkpt lat="45.729644240682305" lon="4.624796193277661"><ele>504.0</ele><time>2026-05-02T16:02:42.999Z</time></trkpt><trkpt lat="45.72953903099235" lon="4.6250176378877885"><ele>502.0</ele><time>2026-05-02T16:02:43.999Z</time></trkpt><trkpt lat="45.72941136529641" lon="4.625230675532228"><ele>500.0</ele><time>2026-05-02T16:02:44.999Z</time></trkpt><trkpt lat="45.72931858185259" lon="4.625431114196329"><ele>500.0</ele><time>2026-05-02T16:02:45.999Z</time></trkpt><trkpt lat="45.72924241599002" lon="4.625606640862323"><ele>500.0</ele><time>2026-05-02T16:02:46.999Z</time></trkpt><trkpt lat="45.729154308817066" lon="4.625771454266494"><ele>500.0</ele><time>2026-05-02T16:02:47.999Z</time></trkpt><trkpt lat="45.72902974135029" lon="4.625897529331252"><ele>500.0</ele><time>2026-05-02T16:02:48.999Z</time></trkpt><trkpt lat="45.72888250970072" lon="4.626022107582753"><ele>497.66666666666663</ele><time>2026-05-02T16:02:49.999Z</time></trkpt><trkpt lat="45.728746572987454" lon="4.626196678575165"><ele>495.33333333333337</ele><time>2026-05-02T16:02:50.999Z</time></trkpt><trkpt lat="45.7285774462021" lon="4.626347071367442"><ele>493.0</ele><time>2026-05-02T16:02:51.999Z</time></trkpt><trkpt lat="45.728405016050495" lon="4.626529146400943"><ele>493.0</ele><time>2026-05-02T16:02:52.999Z</time></trkpt><trkpt lat="45.72823101081687" lon="4.626712884488288"><ele>493.0</ele><time>2026-05-02T16:02:53.999Z</time></trkpt><trkpt lat="45.728062895608375" lon="4.626892231000709"><ele>493.0</ele><time>2026-05-02T16:02:54.999Z</time></trkpt><trkpt lat="45.72789763613972" lon="4.6270682891983315"><ele>490.6666666666667</ele><time>2026-05-02T16:02:55.999Z</time></trkpt><trkpt lat="45.72773341211015" lon="4.627236870820445"><ele>488.33333333333337</ele><time>2026-05-02T16:02:56.999Z</time></trkpt><trkpt lat="45.72756995482029" lon="4.627428641178077"><ele>486.0</ele><time>2026-05-02T16:02:57.999Z</time></trkpt><trkpt lat="45.72740688959752" lon="4.627632178471369"><ele>492.0</ele><time>2026-05-02T16:02:58.999Z</time></trkpt><trkpt lat="45.72724634430454" lon="4.627853471210964"><ele>498.0</ele><time>2026-05-02T16:02:59.999Z</time></trkpt><trkpt lat="45.72707691000561" lon="4.628081764109895"><ele>498.0</ele><time>2026-05-02T16:03:00.999Z</time></trkpt><trkpt lat="45.72690216360931" lon="4.628313614238417"><ele>498.0</ele><time>2026-05-02T16:03:01.999Z</time></trkpt><trkpt lat="45.72672794049683" lon="4.6285401449684125"><ele>494.5</ele><time>2026-05-02T16:03:02.999Z</time></trkpt><trkpt lat="45.726553449935835" lon="4.628768258489402"><ele>491.0</ele><time>2026-05-02T16:03:03.999Z</time></trkpt><trkpt lat="45.72639120416328" lon="4.6289815224510695"><ele>491.0</ele><time>2026-05-02T16:03:04.999Z</time></trkpt><trkpt lat="45.72624818424406" lon="4.629184828522122"><ele>491.0</ele><time>2026-05-02T16:03:05.999Z</time></trkpt><trkpt lat="45.72611704176371" lon="4.629382750993505"><ele>491.0</ele><time>2026-05-02T16:03:06.999Z</time></trkpt><trkpt lat="45.72598942890741" lon="4.629574211856666"><ele>488.3333333333333</ele><time>2026-05-02T16:03:07.999Z</time></trkpt><trkpt lat="45.72586402165827" lon="4.629744987148183"><ele>485.66666666666663</ele><time>2026-05-02T16:03:09Z</time></trkpt><trkpt lat="45.725743864336515" lon="4.629895403305867"><ele>483.0</ele><time>2026-05-02T16:03:10Z</time></trkpt><trkpt lat="45.725621597729436" lon="4.6300421975530455"><ele>483.0</ele><time>2026-05-02T16:03:11Z</time></trkpt><trkpt lat="45.7254947633733" lon="4.630179554669334"><ele>483.0</ele><time>2026-05-02T16:03:12Z</time></trkpt><trkpt lat="45.72536305318116" lon="4.630318902827552"><ele>483.0</ele><time>2026-05-02T16:03:13Z</time></trkpt><trkpt lat="45.725246894924055" lon="4.630505834616082"><ele>480.33333333333337</ele><time>2026-05-02T16:03:14Z</time></trkpt><trkpt lat="45.72513764949255" lon="4.630682004733065"><ele>477.6666666666667</ele><time>2026-05-02T16:03:15Z</time></trkpt><trkpt lat="45.725053379640016" lon="4.630862471538207"><ele>475.0</ele><time>2026-05-02T16:03:16Z</time></trkpt><trkpt lat="45.72497699571606" lon="4.6310417850817975"><ele>478.0</ele><time>2026-05-02T16:03:17Z</time></trkpt><trkpt lat="45.724921988260135" lon="4.631244044497101"><ele>481.0</ele><time>2026-05-02T16:03:18Z</time></trkpt><trkpt lat="45.724898695979505" lon="4.631429353693387"><ele>484.0</ele><time>2026-05-02T16:03:19Z</time></trkpt><trkpt lat="45.724839146616766" lon="4.631590279147646"><ele>487.0</ele><time>2026-05-02T16:03:20Z</time></trkpt><trkpt lat="45.72476333446739" lon="4.631735666904367"><ele>487.0</ele><time>2026-05-02T16:03:21Z</time></trkpt><trkpt lat="45.72465285037886" lon="4.631814086104235"><ele>487.0</ele><time>2026-05-02T16:03:22Z</time></trkpt><trkpt lat="45.72452675575318" lon="4.631872041006475"><ele>487.0</ele><time>2026-05-02T16:03:23Z</time></trkpt><trkpt lat="45.72440886216763" lon="4.631974129598414"><ele>487.0</ele><time>2026-05-02T16:03:24Z</time></trkpt><trkpt lat="45.72430676127211" lon="4.632105330675043"><ele>484.6666666666667</ele><time>2026-05-02T16:03:25Z</time></trkpt><trkpt lat="45.724179891904626" lon="4.632259544890101"><ele>482.33333333333337</ele><time>2026-05-02T16:03:26Z</time></trkpt><trkpt lat="45.72405783670284" lon="4.632438813863729"><ele>480.0</ele><time>2026-05-02T16:03:27Z</time></trkpt><trkpt lat="45.72394103629548" lon="4.632602428132667"><ele>480.0</ele><time>2026-05-02T16:03:28Z</time></trkpt><trkpt lat="45.72382814782724" lon="4.6327436705344445"><ele>480.0</ele><time>2026-05-02T16:03:29Z</time></trkpt><trkpt lat="45.72369554284545" lon="4.632888312013293"><ele>480.0</ele><time>2026-05-02T16:03:30Z</time></trkpt><trkpt lat="45.72354696068881" lon="4.633035062411951"><ele>478.66666666666663</ele><time>2026-05-02T16:03:31Z</time></trkpt><trkpt lat="45.723401886763256" lon="4.633175082117737"><ele>477.3333333333333</ele><time>2026-05-02T16:03:32Z</time></trkpt><trkpt lat="45.72327539184419" lon="4.633297170015359"><ele>476.0</ele><time>2026-05-02T16:03:33Z</time></trkpt><trkpt lat="45.72317088009405" lon="4.633427429989408"><ele>476.0</ele><time>2026-05-02T16:03:34Z</time></trkpt><trkpt lat="45.72306384633077" lon="4.63352819647087"><ele>476.0</ele><time>2026-05-02T16:03:35Z</time></trkpt><trkpt lat="45.722963274968784" lon="4.6336261398962995"><ele>476.0</ele><time>2026-05-02T16:03:36Z</time></trkpt><trkpt lat="45.72286819329566" lon="4.633737913416178"><ele>476.0</ele><time>2026-05-02T16:03:37Z</time></trkpt><trkpt lat="45.722789854035334" lon="4.633864070330875"><ele>475.0</ele><time>2026-05-02T16:03:38Z</time></trkpt><trkpt lat="45.72273796305628" lon="4.63402088888725"><ele>474.0</ele><time>2026-05-02T16:03:39Z</time></trkpt><trkpt lat="45.72270002403902" lon="4.634211410981215"><ele>473.0</ele><time>2026-05-02T16:03:40Z</time></trkpt><trkpt lat="45.722683525885" lon="4.634434915354754"><ele>472.0</ele><time>2026-05-02T16:03:41Z</time></trkpt><trkpt lat="45.7226902248189" lon="4.634665201553683"><ele>471.33333333333337</ele><time>2026-05-02T16:03:42Z</time></trkpt><trkpt lat="45.7227305684799" lon="4.6348918070697795"><ele>470.66666666666663</ele><time>2026-05-02T16:03:43Z</time></trkpt><trkpt lat="45.72280641557653" lon="4.635090240111079"><ele>470.0</ele><time>2026-05-02T16:03:44Z</time></trkpt><trkpt lat="45.722897576428224" lon="4.63526662514549"><ele>469.0</ele><time>2026-05-02T16:03:45Z</time></trkpt><trkpt lat="45.723008012363856" lon="4.635427793436569"><ele>468.0</ele><time>2026-05-02T16:03:46Z</time></trkpt><trkpt lat="45.72314168097618" lon="4.635583049216619"><ele>467.0</ele><time>2026-05-02T16:03:47Z</time></trkpt><trkpt lat="45.723286038854184" lon="4.635721545227527"><ele>467.0</ele><time>2026-05-02T16:03:48Z</time></trkpt><trkpt lat="45.72343693108598" lon="4.635844593967036"><ele>467.0</ele><time>2026-05-02T16:03:49Z</time></trkpt><trkpt lat="45.72358482210696" lon="4.635956711187765"><ele>467.0</ele><time>2026-05-02T16:03:50Z</time></trkpt><trkpt lat="45.72371031529131" lon="4.636103906806069"><ele>466.66666666666663</ele><time>2026-05-02T16:03:51Z</time></trkpt><trkpt lat="45.723805168871436" lon="4.636276479479375"><ele>466.33333333333337</ele><time>2026-05-02T16:03:52Z</time></trkpt><trkpt lat="45.723904865454024" lon="4.636464540864787"><ele>466.0</ele><time>2026-05-02T16:03:53Z</time></trkpt><trkpt lat="45.724017475979245" lon="4.636646835090305"><ele>466.0</ele><time>2026-05-02T16:03:54Z</time></trkpt><trkpt lat="45.72412524199747" lon="4.636793252244571"><ele>466.0</ele><time>2026-05-02T16:03:55Z</time></trkpt><trkpt lat="45.72423868137464" lon="4.636907349662818"><ele>466.0</ele><time>2026-05-02T16:03:56Z</time></trkpt><trkpt lat="45.724355251876155" lon="4.636996945564596"><ele>466.0</ele><time>2026-05-02T16:03:57Z</time></trkpt><trkpt lat="45.724479260138615" lon="4.6370621310775935"><ele>463.75</ele><time>2026-05-02T16:03:58Z</time></trkpt><trkpt lat="45.72461473150349" lon="4.637105976218534"><ele>461.5</ele><time>2026-05-02T16:03:59Z</time></trkpt><trkpt lat="45.72476024123701" lon="4.637117495758997"><ele>459.25</ele><time>2026-05-02T16:04:00Z</time></trkpt><trkpt lat="45.7249041071642" lon="4.6371303455565975"><ele>457.0</ele><time>2026-05-02T16:04:01Z</time></trkpt><trkpt lat="45.72503379702039" lon="4.637095836399847"><ele>457.0</ele><time>2026-05-02T16:04:02Z</time></trkpt><trkpt lat="45.72512966042908" lon="4.63705159940866"><ele>457.00000000000006</ele><time>2026-05-02T16:04:03Z</time></trkpt><trkpt lat="45.725213739435844" lon="4.637018304772646"><ele>457.00000000000006</ele><time>2026-05-02T16:04:04Z</time></trkpt><trkpt lat="45.725294202428344" lon="4.637007186630743"><ele>457.0</ele><time>2026-05-02T16:04:05Z</time></trkpt><trkpt lat="45.7253764569502" lon="4.637063789673616"><ele>457.0</ele><time>2026-05-02T16:04:06Z</time></trkpt><trkpt lat="45.725453800764384" lon="4.637161253038386"><ele>461.0</ele><time>2026-05-02T16:04:07Z</time></trkpt><trkpt lat="45.72547220400067" lon="4.637329635113647"><ele>465.0</ele><time>2026-05-02T16:04:08Z</time></trkpt><trkpt lat="45.72540715161502" lon="4.637489454089209"><ele>469.0</ele><time>2026-05-02T16:04:09Z</time></trkpt><trkpt lat="45.7253597719772" lon="4.637644861938618"><ele>473.0</ele><time>2026-05-02T16:04:10Z</time></trkpt><trkpt lat="45.725272243577436" lon="4.63778801465415"><ele>468.25</ele><time>2026-05-02T16:04:11Z</time></trkpt><trkpt lat="45.725193193595594" lon="4.637952788296096"><ele>463.5</ele><time>2026-05-02T16:04:12Z</time></trkpt><trkpt lat="45.72512892801892" lon="4.6381431000277855"><ele>458.75</ele><time>2026-05-02T16:04:13Z</time></trkpt><trkpt lat="45.72508347369006" lon="4.638319789635056"><ele>454.0</ele><time>2026-05-02T16:04:14Z</time></trkpt><trkpt lat="45.725073881939544" lon="4.63850130861696"><ele>454.75</ele><time>2026-05-02T16:04:15Z</time></trkpt><trkpt lat="45.72509857342914" lon="4.6386945122031"><ele>455.5</ele><time>2026-05-02T16:04:16Z</time></trkpt><trkpt lat="45.725164662896894" lon="4.638879747541107"><ele>456.25</ele><time>2026-05-02T16:04:17Z</time></trkpt><trkpt lat="45.725250009303565" lon="4.639059649866425"><ele>457.0</ele><time>2026-05-02T16:04:18Z</time></trkpt><trkpt lat="45.72534797250418" lon="4.639260922329129"><ele>457.0</ele><time>2026-05-02T16:04:19Z</time></trkpt><trkpt lat="45.72543509429411" lon="4.63945656241143"><ele>457.0</ele><time>2026-05-02T16:04:20Z</time></trkpt><trkpt lat="45.72551203819066" lon="4.639612934692119"><ele>457.0</ele><time>2026-05-02T16:04:21Z</time></trkpt><trkpt lat="45.72560032635469" lon="4.639730179848062"><ele>457.0</ele><time>2026-05-02T16:04:22Z</time></trkpt><trkpt lat="45.72570475319998" lon="4.639805333444823"><ele>456.0</ele><time>2026-05-02T16:04:22.999Z</time></trkpt><trkpt lat="45.72580348368548" lon="4.639868893086975"><ele>455.00000000000006</ele><time>2026-05-02T16:04:23.999Z</time></trkpt><trkpt lat="45.72588723078369" lon="4.639943874532339"><ele>454.00000000000006</ele><time>2026-05-02T16:04:24.999Z</time></trkpt><trkpt lat="45.72593458872082" lon="4.640085078627699"><ele>453.0</ele><time>2026-05-02T16:04:25.999Z</time></trkpt><trkpt lat="45.725939856824766" lon="4.640240271489058"><ele>452.0</ele><time>2026-05-02T16:04:26.999Z</time></trkpt><trkpt lat="45.72593418174098" lon="4.64040597311603"><ele>451.5</ele><time>2026-05-02T16:04:27.999Z</time></trkpt><trkpt lat="45.725879072978394" lon="4.640578956463541"><ele>451.0</ele><time>2026-05-02T16:04:28.999Z</time></trkpt><trkpt lat="45.72580477768186" lon="4.6407671843116"><ele>450.5</ele><time>2026-05-02T16:04:29.999Z</time></trkpt><trkpt lat="45.72572427968618" lon="4.640951816031856"><ele>450.0</ele><time>2026-05-02T16:04:30.999Z</time></trkpt><trkpt lat="45.72560734256434" lon="4.641083450525942"><ele>450.75</ele><time>2026-05-02T16:04:31.999Z</time></trkpt><trkpt lat="45.725500367652856" lon="4.641224471430467"><ele>451.5</ele><time>2026-05-02T16:04:32.999Z</time></trkpt><trkpt lat="45.72537584405424" lon="4.641343573200627"><ele>452.25</ele><time>2026-05-02T16:04:33.999Z</time></trkpt><trkpt lat="45.72525680608146" lon="4.641458426634752"><ele>453.0</ele><time>2026-05-02T16:04:34.999Z</time></trkpt><trkpt lat="45.72512263894753" lon="4.641489504248512"><ele>451.0</ele><time>2026-05-02T16:04:35.999Z</time></trkpt><trkpt lat="45.72498362253804" lon="4.641509739277494"><ele>449.0</ele><time>2026-05-02T16:04:36.999Z</time></trkpt><trkpt lat="45.72485449272459" lon="4.64152664635469"><ele>447.0</ele><time>2026-05-02T16:04:37.999Z</time></trkpt><trkpt lat="45.724734229463714" lon="4.6415024556039794"><ele>445.0</ele><time>2026-05-02T16:04:38.999Z</time></trkpt><trkpt lat="45.72460986959438" lon="4.641519268788616"><ele>445.0</ele><time>2026-05-02T16:04:39.999Z</time></trkpt><trkpt lat="45.72449345209544" lon="4.641610296899772"><ele>445.0</ele><time>2026-05-02T16:04:40.999Z</time></trkpt><trkpt lat="45.7243900800568" lon="4.641740634467489"><ele>445.0</ele><time>2026-05-02T16:04:41.999Z</time></trkpt><trkpt lat="45.724308133717436" lon="4.641901521251231"><ele>445.0</ele><time>2026-05-02T16:04:42.999Z</time></trkpt><trkpt lat="45.724253079152064" lon="4.642102836219731"><ele>442.6666666666667</ele><time>2026-05-02T16:04:43.999Z</time></trkpt><trkpt lat="45.724209952699304" lon="4.642335344845222"><ele>440.33333333333337</ele><time>2026-05-02T16:04:44.999Z</time></trkpt><trkpt lat="45.72416920212211" lon="4.64258435259983"><ele>438.0</ele><time>2026-05-02T16:04:45.999Z</time></trkpt><trkpt lat="45.72414118060204" lon="4.642829126524235"><ele>437.33333333333337</ele><time>2026-05-02T16:04:46.999Z</time></trkpt><trkpt lat="45.72411978534296" lon="4.643057816481527"><ele>436.6666666666667</ele><time>2026-05-02T16:04:47.999Z</time></trkpt><trkpt lat="45.72412577106869" lon="4.6432932018466335"><ele>436.0</ele><time>2026-05-02T16:04:48.999Z</time></trkpt><trkpt lat="45.724161153557915" lon="4.6435384633056485"><ele>435.0</ele><time>2026-05-02T16:04:49.999Z</time></trkpt><trkpt lat="45.72418275877525" lon="4.643799910243087"><ele>434.0</ele><time>2026-05-02T16:04:50.999Z</time></trkpt><trkpt lat="45.724204967060246" lon="4.644043753520908"><ele>433.0</ele><time>2026-05-02T16:04:51.999Z</time></trkpt><trkpt lat="45.724221417151035" lon="4.644284347246216"><ele>432.33333333333337</ele><time>2026-05-02T16:04:52.999Z</time></trkpt><trkpt lat="45.72424928938455" lon="4.644549721454558"><ele>431.66666666666663</ele><time>2026-05-02T16:04:53.999Z</time></trkpt><trkpt lat="45.724264137448884" lon="4.644800631378585"><ele>431.0</ele><time>2026-05-02T16:04:54.999Z</time></trkpt><trkpt lat="45.72429020323337" lon="4.645028495732745"><ele>431.0</ele><time>2026-05-02T16:04:55.999Z</time></trkpt><trkpt lat="45.72432683066541" lon="4.645246114699813"><ele>431.0</ele><time>2026-05-02T16:04:56.999Z</time></trkpt><trkpt lat="45.72438268096309" lon="4.6454415302916585"><ele>431.0</ele><time>2026-05-02T16:04:57.999Z</time></trkpt><trkpt lat="45.724464645302575" lon="4.645629903666553"><ele>431.0</ele><time>2026-05-02T16:04:58.999Z</time></trkpt><trkpt lat="45.724579869448675" lon="4.64580295411312"><ele>431.0</ele><time>2026-05-02T16:04:59.999Z</time></trkpt><trkpt lat="45.72470844744283" lon="4.645971787003429"><ele>431.0</ele><time>2026-05-02T16:05:00.999Z</time></trkpt><trkpt lat="45.724859982787336" lon="4.64610316674579"><ele>429.0</ele><time>2026-05-02T16:05:01.999Z</time></trkpt><trkpt lat="45.72502344218987" lon="4.646207760028531"><ele>427.0</ele><time>2026-05-02T16:05:02.999Z</time></trkpt><trkpt lat="45.72521044262351" lon="4.6462985550399205"><ele>425.0</ele><time>2026-05-02T16:05:03.999Z</time></trkpt><trkpt lat="45.725392299256725" lon="4.646389236337986"><ele>425.0</ele><time>2026-05-02T16:05:04.999Z</time></trkpt><trkpt lat="45.725560113084306" lon="4.6464746713610365"><ele>425.0</ele><time>2026-05-02T16:05:05.999Z</time></trkpt><trkpt lat="45.725721208129436" lon="4.646536296454261"><ele>425.0</ele><time>2026-05-02T16:05:06.999Z</time></trkpt><trkpt lat="45.725878892629105" lon="4.646579565240169"><ele>425.0</ele><time>2026-05-02T16:05:07.999Z</time></trkpt><trkpt lat="45.72602517390191" lon="4.646596098496124"><ele>425.0</ele><time>2026-05-02T16:05:08.999Z</time></trkpt><trkpt lat="45.72616331168588" lon="4.6466021219485825"><ele>425.0</ele><time>2026-05-02T16:05:09.999Z</time></trkpt><trkpt lat="45.72629746312804" lon="4.646618766455364"><ele>425.0</ele><time>2026-05-02T16:05:10.999Z</time></trkpt><trkpt lat="45.72643387168574" lon="4.646643182636171"><ele>425.5</ele><time>2026-05-02T16:05:11.999Z</time></trkpt><trkpt lat="45.72655068397216" lon="4.646649676827695"><ele>426.0</ele><time>2026-05-02T16:05:12.999Z</time></trkpt><trkpt lat="45.72665388298097" lon="4.646627654176243"><ele>426.5</ele><time>2026-05-02T16:05:13.999Z</time></trkpt><trkpt lat="45.72676319747112" lon="4.646585575046728"><ele>427.0</ele><time>2026-05-02T16:05:15Z</time></trkpt><trkpt lat="45.7268753488173" lon="4.646512300373468"><ele>426.6</ele><time>2026-05-02T16:05:16Z</time></trkpt><trkpt lat="45.726968546335904" lon="4.6463755179545325"><ele>426.20000000000005</ele><time>2026-05-02T16:05:17Z</time></trkpt><trkpt lat="45.7270538247958" lon="4.646273912444948"><ele>425.8</ele><time>2026-05-02T16:05:18Z</time></trkpt><trkpt lat="45.72712995694207" lon="4.646198538025565"><ele>425.4</ele><time>2026-05-02T16:05:19Z</time></trkpt><trkpt lat="45.72720580603713" lon="4.646157021006451"><ele>425.0</ele><time>2026-05-02T16:05:20Z</time></trkpt><trkpt lat="45.7272928341428" lon="4.646129393884757"><ele>425.0</ele><time>2026-05-02T16:05:21Z</time></trkpt><trkpt lat="45.72738227249898" lon="4.64622066708397"><ele>425.0</ele><time>2026-05-02T16:05:22Z</time></trkpt><trkpt lat="45.72740588536672" lon="4.646353401264185"><ele>425.0</ele><time>2026-05-02T16:05:23Z</time></trkpt><trkpt lat="45.72737485341735" lon="4.64648931257259"><ele>425.0</ele><time>2026-05-02T16:05:24Z</time></trkpt><trkpt lat="45.72737156783061" lon="4.646654136522785"><ele>425.0</ele><time>2026-05-02T16:05:25Z</time></trkpt><trkpt lat="45.727340164635" lon="4.646882436210987"><ele>424.3333333333333</ele><time>2026-05-02T16:05:26Z</time></trkpt><trkpt lat="45.72730313166976" lon="4.647140541880384"><ele>423.66666666666663</ele><time>2026-05-02T16:05:27Z</time></trkpt><trkpt lat="45.727241189352554" lon="4.647401347257725"><ele>423.0</ele><time>2026-05-02T16:05:28Z</time></trkpt><trkpt lat="45.72716005671239" lon="4.6476500790428865"><ele>423.33333333333337</ele><time>2026-05-02T16:05:29Z</time></trkpt><trkpt lat="45.72706875456698" lon="4.647900941000399"><ele>423.6666666666667</ele><time>2026-05-02T16:05:30Z</time></trkpt><trkpt lat="45.72699525517873" lon="4.648151785853811"><ele>424.0</ele><time>2026-05-02T16:05:31Z</time></trkpt><trkpt lat="45.72691081392811" lon="4.64837588657441"><ele>420.33333333333337</ele><time>2026-05-02T16:05:32Z</time></trkpt><trkpt lat="45.72680615745403" lon="4.648569068049288"><ele>416.66666666666663</ele><time>2026-05-02T16:05:33Z</time></trkpt><trkpt lat="45.726692779226134" lon="4.648765602837182"><ele>413.0</ele><time>2026-05-02T16:05:34Z</time></trkpt><trkpt lat="45.72655394077579" lon="4.648958752520436"><ele>413.0</ele><time>2026-05-02T16:05:35Z</time></trkpt><trkpt lat="45.72640720016211" lon="4.649157728014207"><ele>413.0</ele><time>2026-05-02T16:05:36Z</time></trkpt><trkpt lat="45.72625940236629" lon="4.649354545077668"><ele>413.0</ele><time>2026-05-02T16:05:37Z</time></trkpt><trkpt lat="45.72612356129648" lon="4.649536031724751"><ele>411.0</ele><time>2026-05-02T16:05:38Z</time></trkpt><trkpt lat="45.7260038450931" lon="4.649729006585838"><ele>409.0</ele><time>2026-05-02T16:05:39Z</time></trkpt><trkpt lat="45.72585804651726" lon="4.649898280511387"><ele>407.0</ele><time>2026-05-02T16:05:40Z</time></trkpt><trkpt lat="45.725726447098985" lon="4.650081713411444"><ele>407.0</ele><time>2026-05-02T16:05:41Z</time></trkpt><trkpt lat="45.725606641872346" lon="4.65025300627913"><ele>407.0</ele><time>2026-05-02T16:05:42Z</time></trkpt><trkpt lat="45.72551220509356" lon="4.650427567764541"><ele>407.0</ele><time>2026-05-02T16:05:43Z</time></trkpt><trkpt lat="45.72541796402831" lon="4.650606690206254"><ele>407.0</ele><time>2026-05-02T16:05:44Z</time></trkpt><trkpt lat="45.7253433024703" lon="4.650826165224685"><ele>407.0</ele><time>2026-05-02T16:05:45Z</time></trkpt><trkpt lat="45.7252776681823" lon="4.6510615962262465"><ele>407.0</ele><time>2026-05-02T16:05:46Z</time></trkpt><trkpt lat="45.72523066031064" lon="4.6513171534924025"><ele>405.3333333333333</ele><time>2026-05-02T16:05:47Z</time></trkpt><trkpt lat="45.72521388831008" lon="4.651580244651843"><ele>403.66666666666663</ele><time>2026-05-02T16:05:48Z</time></trkpt><trkpt lat="45.72521770120501" lon="4.65182898329935"><ele>402.0</ele><time>2026-05-02T16:05:49Z</time></trkpt><trkpt lat="45.72524917891928" lon="4.652057379023971"><ele>402.0</ele><time>2026-05-02T16:05:50Z</time></trkpt><trkpt lat="45.72531085468121" lon="4.65226356316882"><ele>402.0</ele><time>2026-05-02T16:05:51Z</time></trkpt><trkpt lat="45.725384064850154" lon="4.6524650574977215"><ele>402.0</ele><time>2026-05-02T16:05:52Z</time></trkpt><trkpt lat="45.725466210266" lon="4.652663209481894"><ele>398.0</ele><time>2026-05-02T16:05:53Z</time></trkpt><trkpt lat="45.72554727125446" lon="4.652853053783022"><ele>394.0</ele><time>2026-05-02T16:05:54Z</time></trkpt><trkpt lat="45.72570089603895" lon="4.653023460805557"><ele>390.0</ele><time>2026-05-02T16:05:55Z</time></trkpt><trkpt lat="45.72585849950478" lon="4.653174136457187"><ele>390.0</ele><time>2026-05-02T16:05:56Z</time></trkpt><trkpt lat="45.72601713933969" lon="4.653333199418978"><ele>390.0</ele><time>2026-05-02T16:05:57Z</time></trkpt><trkpt lat="45.726154405143134" lon="4.653471729109126"><ele>390.0</ele><time>2026-05-02T16:05:58Z</time></trkpt><trkpt lat="45.72625966252433" lon="4.653584391447559"><ele>390.25</ele><time>2026-05-02T16:05:59Z</time></trkpt><trkpt lat="45.7263630464746" lon="4.653707999343724"><ele>390.5</ele><time>2026-05-02T16:06:00Z</time></trkpt><trkpt lat="45.72645939939697" lon="4.6538327418211685"><ele>390.75</ele><time>2026-05-02T16:06:01Z</time></trkpt><trkpt lat="45.72651633237961" lon="4.6540130338518475"><ele>391.0</ele><time>2026-05-02T16:06:02Z</time></trkpt><trkpt lat="45.72655193676456" lon="4.6542168238893975"><ele>391.0</ele><time>2026-05-02T16:06:03Z</time></trkpt><trkpt lat="45.7265938127753" lon="4.654414109624348"><ele>391.0</ele><time>2026-05-02T16:06:04Z</time></trkpt><trkpt lat="45.72658671242346" lon="4.654606382085476"><ele>391.0</ele><time>2026-05-02T16:06:05Z</time></trkpt><trkpt lat="45.72660075475073" lon="4.654779513358881"><ele>391.0</ele><time>2026-05-02T16:06:06Z</time></trkpt><trkpt lat="45.72663955804765" lon="4.654963928214947"><ele>389.5</ele><time>2026-05-02T16:06:07Z</time></trkpt><trkpt lat="45.72669660043012" lon="4.6551349613521635"><ele>388.0</ele><time>2026-05-02T16:06:08Z</time></trkpt><trkpt lat="45.72676288455339" lon="4.655295550255253"><ele>386.5</ele><time>2026-05-02T16:06:09Z</time></trkpt><trkpt lat="45.72683302062031" lon="4.655424766591606"><ele>385.0</ele><time>2026-05-02T16:06:10Z</time></trkpt><trkpt lat="45.72691897409413" lon="4.655542152104329"><ele>384.5</ele><time>2026-05-02T16:06:11Z</time></trkpt><trkpt lat="45.727025107675274" lon="4.655650605808384"><ele>384.0</ele><time>2026-05-02T16:06:12Z</time></trkpt><trkpt lat="45.727161663833414" lon="4.655741206409026"><ele>383.5</ele><time>2026-05-02T16:06:13Z</time></trkpt><trkpt lat="45.727313593804126" lon="4.655843167823925"><ele>383.0</ele><time>2026-05-02T16:06:14Z</time></trkpt><trkpt lat="45.72747002817436" lon="4.655972443816033"><ele>383.0</ele><time>2026-05-02T16:06:15Z</time></trkpt><trkpt lat="45.72762383241568" lon="4.656103757364862"><ele>383.0</ele><time>2026-05-02T16:06:16Z</time></trkpt><trkpt lat="45.727769237696826" lon="4.656229478023263"><ele>383.0</ele><time>2026-05-02T16:06:17Z</time></trkpt><trkpt lat="45.727909224965096" lon="4.65634755019314"><ele>381.0</ele><time>2026-05-02T16:06:18Z</time></trkpt><trkpt lat="45.7280530711589" lon="4.656458507354337"><ele>379.0</ele><time>2026-05-02T16:06:19Z</time></trkpt><trkpt lat="45.72819468309062" lon="4.656581741261691"><ele>377.0</ele><time>2026-05-02T16:06:20Z</time></trkpt><trkpt lat="45.72834253642647" lon="4.65669240044583"><ele>377.0</ele><time>2026-05-02T16:06:21Z</time></trkpt><trkpt lat="45.72849294816947" lon="4.656790239583037"><ele>377.0</ele><time>2026-05-02T16:06:22Z</time></trkpt><trkpt lat="45.72863947305812" lon="4.656871393809773"><ele>377.0</ele><time>2026-05-02T16:06:23Z</time></trkpt><trkpt lat="45.7287822431644" lon="4.656959346038457"><ele>374.33333333333337</ele><time>2026-05-02T16:06:24Z</time></trkpt><trkpt lat="45.72895458664427" lon="4.657048093649362"><ele>371.6666666666667</ele><time>2026-05-02T16:06:25Z</time></trkpt><trkpt lat="45.72913899715082" lon="4.657143835645404"><ele>369.0</ele><time>2026-05-02T16:06:26Z</time></trkpt><trkpt lat="45.72930651311032" lon="4.657225688808004"><ele>368.6666666666667</ele><time>2026-05-02T16:06:26.999Z</time></trkpt><trkpt lat="45.72946324120623" lon="4.657305306216903"><ele>368.33333333333337</ele><time>2026-05-02T16:06:27.999Z</time></trkpt><trkpt lat="45.72960467301369" lon="4.657395403629455"><ele>368.0</ele><time>2026-05-02T16:06:28.999Z</time></trkpt><trkpt lat="45.729726132066205" lon="4.657488987558593"><ele>368.0</ele><time>2026-05-02T16:06:29.999Z</time></trkpt><trkpt lat="45.729839429635504" lon="4.657579890379794"><ele>368.0</ele><time>2026-05-02T16:06:30.999Z</time></trkpt><trkpt lat="45.72995498696173" lon="4.657659214425902"><ele>368.0</ele><time>2026-05-02T16:06:31.999Z</time></trkpt><trkpt lat="45.73008186230642" lon="4.657729722090799"><ele>368.0</ele><time>2026-05-02T16:06:32.999Z</time></trkpt><trkpt lat="45.7302211579106" lon="4.657782008626294"><ele>367.0</ele><time>2026-05-02T16:06:33.999Z</time></trkpt><trkpt lat="45.730371175806205" lon="4.657812687680845"><ele>366.0</ele><time>2026-05-02T16:06:34.999Z</time></trkpt><trkpt lat="45.73051179389013" lon="4.657817749854525"><ele>365.0</ele><time>2026-05-02T16:06:35.999Z</time></trkpt><trkpt lat="45.73063973561324" lon="4.657808143214482"><ele>364.0</ele><time>2026-05-02T16:06:36.999Z</time></trkpt><trkpt lat="45.7307796719106" lon="4.657779519839769"><ele>364.0</ele><time>2026-05-02T16:06:37.999Z</time></trkpt><trkpt lat="45.73093626922468" lon="4.657713379056877"><ele>364.0</ele><time>2026-05-02T16:06:38.999Z</time></trkpt><trkpt lat="45.73109544706184" lon="4.657648938608024"><ele>364.0</ele><time>2026-05-02T16:06:39.999Z</time></trkpt><trkpt lat="45.73125009995732" lon="4.6575983469130104"><ele>362.5</ele><time>2026-05-02T16:06:40.999Z</time></trkpt><trkpt lat="45.731388251841594" lon="4.657543517490522"><ele>361.0</ele><time>2026-05-02T16:06:41.999Z</time></trkpt><trkpt lat="45.73149858261936" lon="4.657475092806373"><ele>359.5</ele><time>2026-05-02T16:06:42.999Z</time></trkpt><trkpt lat="45.73161042671369" lon="4.657404824752713"><ele>358.0</ele><time>2026-05-02T16:06:43.999Z</time></trkpt><trkpt lat="45.731706500770755" lon="4.657317232287955"><ele>358.0</ele><time>2026-05-02T16:06:44.999Z</time></trkpt><trkpt lat="45.73179574749593" lon="4.657233768285041"><ele>358.0</ele><time>2026-05-02T16:06:45.999Z</time></trkpt><trkpt lat="45.73187867891256" lon="4.657151644649971"><ele>358.0</ele><time>2026-05-02T16:06:46.999Z</time></trkpt><trkpt lat="45.73196329667348" lon="4.657078522136931"><ele>358.0</ele><time>2026-05-02T16:06:47.999Z</time></trkpt><trkpt lat="45.73204963335789" lon="4.657048383566715"><ele>358.0</ele><time>2026-05-02T16:06:48.999Z</time></trkpt><trkpt lat="45.732133629284135" lon="4.6570681675945425"><ele>357.79999999999995</ele><time>2026-05-02T16:06:49.999Z</time></trkpt><trkpt lat="45.732195309898636" lon="4.657197585626839"><ele>357.6</ele><time>2026-05-02T16:06:50.999Z</time></trkpt><trkpt lat="45.73222720212175" lon="4.657331322842633"><ele>357.4</ele><time>2026-05-02T16:06:51.999Z</time></trkpt><trkpt lat="45.73221839962456" lon="4.657479252145975"><ele>357.20000000000005</ele><time>2026-05-02T16:06:52.999Z</time></trkpt><trkpt lat="45.7321916615738" lon="4.657639746703598"><ele>357.0</ele><time>2026-05-02T16:06:53.999Z</time></trkpt><trkpt lat="45.732156446530105" lon="4.657813854739025"><ele>358.3333333333333</ele><time>2026-05-02T16:06:54.999Z</time></trkpt><trkpt lat="45.73211279982511" lon="4.657963272924926"><ele>359.6666666666667</ele><time>2026-05-02T16:06:55.999Z</time></trkpt><trkpt lat="45.73208190578964" lon="4.658089531187294"><ele>361.0</ele><time>2026-05-02T16:06:56.999Z</time></trkpt><trkpt lat="45.73203737449567" lon="4.65817636559037"><ele>362.33333333333337</ele><time>2026-05-02T16:06:57.999Z</time></trkpt><trkpt lat="45.73200002422599" lon="4.658255718405247"><ele>363.6666666666667</ele><time>2026-05-02T16:06:58.999Z</time></trkpt><trkpt lat="45.731965267262694" lon="4.658338602165752"><ele>365.0</ele><time>2026-05-02T16:06:59.999Z</time></trkpt><trkpt lat="45.73190560833512" lon="4.658426526847754"><ele>365.0</ele><time>2026-05-02T16:07:01.999Z</time></trkpt><trkpt lat="45.732055050322295" lon="4.658492839837782"><ele>365.0</ele><time>2026-05-02T16:07:05.999Z</time></trkpt><trkpt lat="45.73213182507581" lon="4.658499065229955"><ele>365.0</ele><time>2026-05-02T16:07:06.999Z</time></trkpt><trkpt lat="45.73221766497924" lon="4.658452280308027"><ele>365.0</ele><time>2026-05-02T16:07:07.999Z</time></trkpt><trkpt lat="45.732293388520205" lon="4.658383275330768"><ele>365.0</ele><time>2026-05-02T16:07:08.999Z</time></trkpt><trkpt lat="45.732373177871885" lon="4.658291598454921"><ele>365.0</ele><time>2026-05-02T16:07:09.999Z</time></trkpt><trkpt lat="45.73246171005999" lon="4.658184561322438"><ele>365.0</ele><time>2026-05-02T16:07:10.999Z</time></trkpt><trkpt lat="45.7325633165156" lon="4.658097904207598"><ele>365.0</ele><time>2026-05-02T16:07:11.999Z</time></trkpt><trkpt lat="45.7326758012921" lon="4.658032901522568"><ele>365.0</ele><time>2026-05-02T16:07:12.999Z</time></trkpt><trkpt lat="45.73279845139092" lon="4.657978533074313"><ele>366.8</ele><time>2026-05-02T16:07:13.999Z</time></trkpt><trkpt lat="45.732925390176995" lon="4.657927514078128"><ele>368.6</ele><time>2026-05-02T16:07:14.999Z</time></trkpt><trkpt lat="45.73303102991719" lon="4.65787972967537"><ele>370.4</ele><time>2026-05-02T16:07:15.999Z</time></trkpt><trkpt lat="45.73312217688244" lon="4.657841824122043"><ele>372.2</ele><time>2026-05-02T16:07:16.999Z</time></trkpt><trkpt lat="45.733210031783166" lon="4.657816114853936"><ele>374.0</ele><time>2026-05-02T16:07:17.999Z</time></trkpt><trkpt lat="45.73330649173105" lon="4.657813626223559"><ele>374.0</ele><time>2026-05-02T16:07:18.999Z</time></trkpt><trkpt lat="45.73340734457856" lon="4.657844965414422"><ele>374.0</ele><time>2026-05-02T16:07:19.999Z</time></trkpt><trkpt lat="45.73351555168928" lon="4.6578923583307565"><ele>374.0</ele><time>2026-05-02T16:07:21Z</time></trkpt><trkpt lat="45.73364179120647" lon="4.6579328447506345"><ele>374.0</ele><time>2026-05-02T16:07:22Z</time></trkpt><trkpt lat="45.733788532563196" lon="4.657985676084583"><ele>375.6666666666667</ele><time>2026-05-02T16:07:23Z</time></trkpt><trkpt lat="45.73393142784151" lon="4.65803328245121"><ele>377.3333333333333</ele><time>2026-05-02T16:07:24Z</time></trkpt><trkpt lat="45.73409573061216" lon="4.658104615344231"><ele>379.0</ele><time>2026-05-02T16:07:25Z</time></trkpt><trkpt lat="45.734241457897475" lon="4.658174745818213"><ele>379.0</ele><time>2026-05-02T16:07:26Z</time></trkpt><trkpt lat="45.73436119579421" lon="4.658234883384605"><ele>379.0</ele><time>2026-05-02T16:07:27Z</time></trkpt><trkpt lat="45.734464837056514" lon="4.658290378840096"><ele>379.0</ele><time>2026-05-02T16:07:28Z</time></trkpt><trkpt lat="45.73457033116425" lon="4.658343309712294"><ele>379.0</ele><time>2026-05-02T16:07:29Z</time></trkpt><trkpt lat="45.734682762448095" lon="4.658382185888918"><ele>380.5</ele><time>2026-05-02T16:07:30Z</time></trkpt><trkpt lat="45.73479517431835" lon="4.658399300268624"><ele>382.0</ele><time>2026-05-02T16:07:31Z</time></trkpt><trkpt lat="45.7349106578864" lon="4.658380480492833"><ele>383.5</ele><time>2026-05-02T16:07:32Z</time></trkpt><trkpt lat="45.73503032245314" lon="4.658347832903888"><ele>385.0</ele><time>2026-05-02T16:07:33Z</time></trkpt><trkpt lat="45.73515874559343" lon="4.658317626031587"><ele>386.25</ele><time>2026-05-02T16:07:34Z</time></trkpt><trkpt lat="45.73528853339519" lon="4.658289490451685"><ele>387.5</ele><time>2026-05-02T16:07:35Z</time></trkpt><trkpt lat="45.73541423259275" lon="4.658261015497056"><ele>388.75</ele><time>2026-05-02T16:07:36Z</time></trkpt><trkpt lat="45.73554703236764" lon="4.658229838911019"><ele>390.0</ele><time>2026-05-02T16:07:37Z</time></trkpt><trkpt lat="45.735686334576236" lon="4.658202706624116"><ele>390.0</ele><time>2026-05-02T16:07:38Z</time></trkpt><trkpt lat="45.73583107798554" lon="4.65818262863843"><ele>390.0</ele><time>2026-05-02T16:07:39Z</time></trkpt><trkpt lat="45.73597459264023" lon="4.658155829406928"><ele>390.0</ele><time>2026-05-02T16:07:40Z</time></trkpt><trkpt lat="45.736098229301106" lon="4.658134795622558"><ele>390.0</ele><time>2026-05-02T16:07:41Z</time></trkpt><trkpt lat="45.73620379927108" lon="4.658108192797922"><ele>392.5</ele><time>2026-05-02T16:07:42Z</time></trkpt><trkpt lat="45.736317172121616" lon="4.658090202206565"><ele>395.0</ele><time>2026-05-02T16:07:43Z</time></trkpt><trkpt lat="45.736439000694574" lon="4.658087178319745"><ele>397.5</ele><time>2026-05-02T16:07:44Z</time></trkpt><trkpt lat="45.736556451610554" lon="4.658092104511563"><ele>400.0</ele><time>2026-05-02T16:07:45Z</time></trkpt><trkpt lat="45.73668019206348" lon="4.658090451061468"><ele>400.0</ele><time>2026-05-02T16:07:46Z</time></trkpt><trkpt lat="45.736820531350205" lon="4.658092718652534"><ele>400.0</ele><time>2026-05-02T16:07:47Z</time></trkpt><trkpt lat="45.73696667667838" lon="4.658120087996654"><ele>400.0</ele><time>2026-05-02T16:07:48Z</time></trkpt><trkpt lat="45.737104489699306" lon="4.6581275504083175"><ele>400.0</ele><time>2026-05-02T16:07:49Z</time></trkpt><trkpt lat="45.737210372262616" lon="4.658131467707466"><ele>402.0</ele><time>2026-05-02T16:07:50Z</time></trkpt><trkpt lat="45.73731025673125" lon="4.658112768637402"><ele>404.0</ele><time>2026-05-02T16:07:51Z</time></trkpt><trkpt lat="45.737406771106315" lon="4.658139454231554"><ele>406.0</ele><time>2026-05-02T16:07:52Z</time></trkpt><trkpt lat="45.737507295260095" lon="4.658144113239587"><ele>408.0</ele><time>2026-05-02T16:07:53Z</time></trkpt><trkpt lat="45.73760316964024" lon="4.658150341370498"><ele>410.0</ele><time>2026-05-02T16:07:54Z</time></trkpt><trkpt lat="45.73768689345648" lon="4.6581570012680595"><ele>411.66666666666663</ele><time>2026-05-02T16:07:55Z</time></trkpt><trkpt lat="45.7377517460786" lon="4.658139764207953"><ele>413.3333333333333</ele><time>2026-05-02T16:07:56Z</time></trkpt><trkpt lat="45.737816172663" lon="4.658146733065162"><ele>415.0</ele><time>2026-05-02T16:07:57Z</time></trkpt><trkpt lat="45.737906956401005" lon="4.658181517829305"><ele>416.66666666666663</ele><time>2026-05-02T16:07:59Z</time></trkpt><trkpt lat="45.73798128464234" lon="4.658289888146436"><ele>418.3333333333333</ele><time>2026-05-02T16:08:02Z</time></trkpt><trkpt lat="45.73801232094034" lon="4.658398993421064"><ele>420.0</ele><time>2026-05-02T16:08:04Z</time></trkpt><trkpt lat="45.737987337507136" lon="4.658576505833011"><ele>421.2</ele><time>2026-05-02T16:08:06Z</time></trkpt><trkpt lat="45.73797113459812" lon="4.6586679499427115"><ele>422.4</ele><time>2026-05-02T16:08:07Z</time></trkpt><trkpt lat="45.737937455034" lon="4.658758211886937"><ele>423.6</ele><time>2026-05-02T16:08:09Z</time></trkpt><trkpt lat="45.73811060133603" lon="4.658799317034649"><ele>424.8</ele><time>2026-05-02T16:08:15Z</time></trkpt><trkpt lat="45.73819406997987" lon="4.658751996580718"><ele>426.0</ele><time>2026-05-02T16:08:16Z</time></trkpt><trkpt lat="45.738261847407664" lon="4.658709328618346"><ele>426.0</ele><time>2026-05-02T16:08:17Z</time></trkpt><trkpt lat="45.738337025872426" lon="4.658652822087152"><ele>426.0</ele><time>2026-05-02T16:08:18Z</time></trkpt><trkpt lat="45.738396347302846" lon="4.658595284259144"><ele>426.0</ele><time>2026-05-02T16:08:19Z</time></trkpt><trkpt lat="45.73846547343626" lon="4.658569247522174"><ele>426.0</ele><time>2026-05-02T16:08:20Z</time></trkpt><trkpt lat="45.73852444777531" lon="4.658531758525125"><ele>426.0</ele><time>2026-05-02T16:08:21Z</time></trkpt><trkpt lat="45.738609525874494" lon="4.6584820734610926"><ele>426.0</ele><time>2026-05-02T16:08:23Z</time></trkpt><trkpt lat="45.73867569553589" lon="4.658410910228639"><ele>426.8333333333333</ele><time>2026-05-02T16:08:25Z</time></trkpt><trkpt lat="45.738699813598785" lon="4.658326171928263"><ele>427.66666666666663</ele><time>2026-05-02T16:08:26Z</time></trkpt><trkpt lat="45.73873828815169" lon="4.6582224665319325"><ele>428.5</ele><time>2026-05-02T16:08:27Z</time></trkpt><trkpt lat="45.73878293185846" lon="4.65811469191798"><ele>429.3333333333333</ele><time>2026-05-02T16:08:28Z</time></trkpt><trkpt lat="45.73883638447527" lon="4.658022531740583"><ele>430.16666666666663</ele><time>2026-05-02T16:08:29Z</time></trkpt><trkpt lat="45.73887028298439" lon="4.657938322003248"><ele>431.0</ele><time>2026-05-02T16:08:30Z</time></trkpt><trkpt lat="45.73889792414649" lon="4.657851933549983"><ele>430.99999999999994</ele><time>2026-05-02T16:08:31Z</time></trkpt><trkpt lat="45.73892502164011" lon="4.657767187853953"><ele>431.0</ele><time>2026-05-02T16:08:32Z</time></trkpt><trkpt lat="45.73894842214342" lon="4.657681175069862"><ele>431.0</ele><time>2026-05-02T16:08:33Z</time></trkpt><trkpt lat="45.738996672052494" lon="4.657518553968633"><ele>431.0</ele><time>2026-05-02T16:08:35Z</time></trkpt><trkpt lat="45.73901772186142" lon="4.6574230564753245"><ele>430.99999999999994</ele><time>2026-05-02T16:08:36Z</time></trkpt><trkpt lat="45.73901904944903" lon="4.657270723433667"><ele>431.0</ele><time>2026-05-02T16:08:37.999Z</time></trkpt><trkpt lat="45.739031536618846" lon="4.657176365495663"><ele>430.99999999999994</ele><time>2026-05-02T16:08:39.999Z</time></trkpt><trkpt lat="45.73915048276852" lon="4.657175394406275"><ele>431.0</ele><time>2026-05-02T16:08:47.999Z</time></trkpt><trkpt lat="45.73921981807411" lon="4.657155660446009"><ele>431.0</ele><time>2026-05-02T16:08:48.999Z</time></trkpt><trkpt lat="45.73930058992489" lon="4.657166452380851"><ele>431.0</ele><time>2026-05-02T16:08:49.999Z</time></trkpt><trkpt lat="45.739364836745686" lon="4.657096787649756"><ele>430.99999999999994</ele><time>2026-05-02T16:08:50.999Z</time></trkpt><trkpt lat="45.739442370029494" lon="4.657051184113136"><ele>431.0</ele><time>2026-05-02T16:08:51.999Z</time></trkpt><trkpt lat="45.73951657895451" lon="4.656979302640166"><ele>433.20000000000005</ele><time>2026-05-02T16:08:52.999Z</time></trkpt><trkpt lat="45.7396012529945" lon="4.656896726775903"><ele>435.40000000000003</ele><time>2026-05-02T16:08:53.999Z</time></trkpt><trkpt lat="45.73969435819622" lon="4.656821345811656"><ele>437.6</ele><time>2026-05-02T16:08:54.999Z</time></trkpt><trkpt lat="45.73978856547603" lon="4.656769050518455"><ele>439.8</ele><time>2026-05-02T16:08:55.999Z</time></trkpt><trkpt lat="45.739889376679685" lon="4.656730814317924"><ele>442.0</ele><time>2026-05-02T16:08:56.999Z</time></trkpt><trkpt lat="45.739990806914065" lon="4.656693576495167"><ele>442.0</ele><time>2026-05-02T16:08:57.999Z</time></trkpt><trkpt lat="45.740077174266226" lon="4.656644837648295"><ele>442.00000000000006</ele><time>2026-05-02T16:08:58.999Z</time></trkpt><trkpt lat="45.74013745764334" lon="4.6565793151193065"><ele>442.00000000000006</ele><time>2026-05-02T16:08:59.999Z</time></trkpt><trkpt lat="45.74018440014095" lon="4.656511846910812"><ele>442.0</ele><time>2026-05-02T16:09:00.999Z</time></trkpt><trkpt lat="45.74027718098205" lon="4.656387665875226"><ele>442.0</ele><time>2026-05-02T16:09:02.999Z</time></trkpt><trkpt lat="45.74035229962681" lon="4.656299561741562"><ele>444.40000000000003</ele><time>2026-05-02T16:09:04.999Z</time></trkpt><trkpt lat="45.74041244698271" lon="4.65621639153476"><ele>446.80000000000007</ele><time>2026-05-02T16:09:06.999Z</time></trkpt><trkpt lat="45.74047099268263" lon="4.656084995169485"><ele>449.2</ele><time>2026-05-02T16:09:08.999Z</time></trkpt><trkpt lat="45.74052929178378" lon="4.656009986374384"><ele>451.6</ele><time>2026-05-02T16:09:10.999Z</time></trkpt><trkpt lat="45.74062770171303" lon="4.656016713714932"><ele>454.0</ele><time>2026-05-02T16:09:13.999Z</time></trkpt><trkpt lat="45.740721264979456" lon="4.655939962050685"><ele>454.0</ele><time>2026-05-02T16:09:15.999Z</time></trkpt><trkpt lat="45.740770148199914" lon="4.655863217263205"><ele>454.0</ele><time>2026-05-02T16:09:16.999Z</time></trkpt><trkpt lat="45.740823209881405" lon="4.655798218434866"><ele>454.0</ele><time>2026-05-02T16:09:17.999Z</time></trkpt><trkpt lat="45.7408889656475" lon="4.655732289819404"><ele>454.0</ele><time>2026-05-02T16:09:19.999Z</time></trkpt><trkpt lat="45.741033968646484" lon="4.655837809109868"><ele>454.0</ele><time>2026-05-02T16:09:22.999Z</time></trkpt><trkpt lat="45.74108696786823" lon="4.655914295480372"><ele>455.79999999999995</ele><time>2026-05-02T16:09:23.999Z</time></trkpt><trkpt lat="45.74116644148873" lon="4.655986358030584"><ele>457.59999999999997</ele><time>2026-05-02T16:09:24.999Z</time></trkpt><trkpt lat="45.74125418973652" lon="4.656036720534128"><ele>459.4</ele><time>2026-05-02T16:09:25.999Z</time></trkpt><trkpt lat="45.741348716072274" lon="4.656132896832015"><ele>461.2</ele><time>2026-05-02T16:09:27Z</time></trkpt><trkpt lat="45.74146657581675" lon="4.656215592456944"><ele>463.0</ele><time>2026-05-02T16:09:28Z</time></trkpt><trkpt lat="45.74155276300868" lon="4.6562785338759936"><ele>463.50000000000006</ele><time>2026-05-02T16:09:29Z</time></trkpt><trkpt lat="45.74163261178616" lon="4.656327436893713"><ele>464.0</ele><time>2026-05-02T16:09:30Z</time></trkpt><trkpt lat="45.74169587254187" lon="4.65637131117496"><ele>464.5</ele><time>2026-05-02T16:09:31Z</time></trkpt><trkpt lat="45.74177402029233" lon="4.656431522465241"><ele>465.0</ele><time>2026-05-02T16:09:32Z</time></trkpt><trkpt lat="45.7418600949572" lon="4.656493950141811"><ele>465.50000000000006</ele><time>2026-05-02T16:09:33Z</time></trkpt><trkpt lat="45.74194597269861" lon="4.65655893421736"><ele>466.0</ele><time>2026-05-02T16:09:34Z</time></trkpt><trkpt lat="45.74202946781191" lon="4.656626150078224"><ele>468.4</ele><time>2026-05-02T16:09:35Z</time></trkpt><trkpt lat="45.7421130871941" lon="4.65669543685126"><ele>470.8</ele><time>2026-05-02T16:09:36Z</time></trkpt><trkpt lat="45.74218524997018" lon="4.656760946885893"><ele>473.19999999999993</ele><time>2026-05-02T16:09:37Z</time></trkpt><trkpt lat="45.74225686871225" lon="4.656812632384105"><ele>475.59999999999997</ele><time>2026-05-02T16:09:38Z</time></trkpt><trkpt lat="45.742354130395974" lon="4.656826545807957"><ele>478.0</ele><time>2026-05-02T16:09:39Z</time></trkpt><trkpt lat="45.742465547499606" lon="4.656821195912406"><ele>478.0</ele><time>2026-05-02T16:09:40Z</time></trkpt><trkpt lat="45.74258349597746" lon="4.656815635249668"><ele>478.0</ele><time>2026-05-02T16:09:41Z</time></trkpt><trkpt lat="45.7427131801306" lon="4.6568271131312535"><ele>478.0</ele><time>2026-05-02T16:09:42Z</time></trkpt><trkpt lat="45.74284607904857" lon="4.656878554305101"><ele>478.0</ele><time>2026-05-02T16:09:43Z</time></trkpt><trkpt lat="45.74297208843315" lon="4.65688342709009"><ele>478.79999999999995</ele><time>2026-05-02T16:09:44Z</time></trkpt><trkpt lat="45.7430712683519" lon="4.656935206228113"><ele>479.59999999999997</ele><time>2026-05-02T16:09:45Z</time></trkpt><trkpt lat="45.74315777525665" lon="4.656968650211986"><ele>480.40000000000003</ele><time>2026-05-02T16:09:46Z</time></trkpt><trkpt lat="45.743255010149035" lon="4.656993783471702"><ele>481.20000000000005</ele><time>2026-05-02T16:09:47Z</time></trkpt><trkpt lat="45.74333894513299" lon="4.657017128978691"><ele>482.0</ele><time>2026-05-02T16:09:48Z</time></trkpt><trkpt lat="45.74341846038485" lon="4.657034758707888"><ele>481.99999999999994</ele><time>2026-05-02T16:09:49Z</time></trkpt><trkpt lat="45.74349344357604" lon="4.657046536909934"><ele>482.0</ele><time>2026-05-02T16:09:50Z</time></trkpt><trkpt lat="45.74355829458122" lon="4.65706111218565"><ele>482.0</ele><time>2026-05-02T16:09:51Z</time></trkpt><trkpt lat="45.7436612885607" lon="4.657071756360956"><ele>482.0</ele><time>2026-05-02T16:09:53Z</time></trkpt><trkpt lat="45.74372964084389" lon="4.657076793613344"><ele>481.99999999999994</ele><time>2026-05-02T16:09:55Z</time></trkpt><trkpt lat="45.743802578581764" lon="4.657078654889247"><ele>482.0</ele><time>2026-05-02T16:09:56Z</time></trkpt><trkpt lat="45.743881246186845" lon="4.656876281189657"><ele>481.75</ele><time>2026-05-02T16:09:57Z</time></trkpt><trkpt lat="45.743988558872466" lon="4.656751876429057"><ele>481.5</ele><time>2026-05-02T16:09:58Z</time></trkpt><trkpt lat="45.744092650606504" lon="4.656605546910652"><ele>481.25</ele><time>2026-05-02T16:09:59Z</time></trkpt><trkpt lat="45.74417710154687" lon="4.656481254033538"><ele>481.0</ele><time>2026-05-02T16:10:00Z</time></trkpt><trkpt lat="45.74425660438956" lon="4.656366074733582"><ele>481.00000000000006</ele><time>2026-05-02T16:10:01Z</time></trkpt><trkpt lat="45.74432391681459" lon="4.656266774408053"><ele>481.0</ele><time>2026-05-02T16:10:02Z</time></trkpt><trkpt lat="45.74438244051546" lon="4.6561702817736625"><ele>481.0</ele><time>2026-05-02T16:10:03Z</time></trkpt><trkpt lat="45.744437108555736" lon="4.656087922006408"><ele>481.0</ele><time>2026-05-02T16:10:04Z</time></trkpt><trkpt lat="45.744482270944836" lon="4.656011267552868"><ele>481.00000000000006</ele><time>2026-05-02T16:10:05Z</time></trkpt><trkpt lat="45.74455886341872" lon="4.655896599014085"><ele>481.0</ele><time>2026-05-02T16:10:07Z</time></trkpt><trkpt lat="45.744604221044675" lon="4.655815253078738"><ele>481.4</ele><time>2026-05-02T16:10:08Z</time></trkpt><trkpt lat="45.7446367061334" lon="4.655710797825885"><ele>481.8</ele><time>2026-05-02T16:10:09Z</time></trkpt><trkpt lat="45.744692377379245" lon="4.65562058130619"><ele>482.19999999999993</ele><time>2026-05-02T16:10:10Z</time></trkpt><trkpt lat="45.744746735724874" lon="4.655506204335199"><ele>482.59999999999997</ele><time>2026-05-02T16:10:11Z</time></trkpt><trkpt lat="45.74480828357986" lon="4.655367221505996"><ele>483.0</ele><time>2026-05-02T16:10:12Z</time></trkpt><trkpt lat="45.74487198788886" lon="4.655227073379912"><ele>484.0</ele><time>2026-05-02T16:10:13Z</time></trkpt><trkpt lat="45.74493655460251" lon="4.655093828790254"><ele>484.99999999999994</ele><time>2026-05-02T16:10:14Z</time></trkpt><trkpt lat="45.74500811739191" lon="4.654969588857793"><ele>485.99999999999994</ele><time>2026-05-02T16:10:15Z</time></trkpt><trkpt lat="45.745064702647305" lon="4.654862923460181"><ele>487.0</ele><time>2026-05-02T16:10:16Z</time></trkpt><trkpt lat="45.74512188089676" lon="4.65477991666055"><ele>488.0</ele><time>2026-05-02T16:10:17Z</time></trkpt><trkpt lat="45.745173959612956" lon="4.654700062215273"><ele>487.99999999999994</ele><time>2026-05-02T16:10:18Z</time></trkpt><trkpt lat="45.74521888764211" lon="4.65462232442233"><ele>488.0</ele><time>2026-05-02T16:10:19Z</time></trkpt><trkpt lat="45.74526148160623" lon="4.654546751203466"><ele>488.0</ele><time>2026-05-02T16:10:20Z</time></trkpt><trkpt lat="45.745302395058005" lon="4.6544696614620875"><ele>488.0</ele><time>2026-05-02T16:10:21Z</time></trkpt><trkpt lat="45.745366678240636" lon="4.654356411046169"><ele>487.99999999999994</ele><time>2026-05-02T16:10:22Z</time></trkpt><trkpt lat="45.74545527616909" lon="4.654206098623636"><ele>488.0</ele><time>2026-05-02T16:10:23Z</time></trkpt><trkpt lat="45.7455413885802" lon="4.6540590932809796"><ele>489.0</ele><time>2026-05-02T16:10:24Z</time></trkpt><trkpt lat="45.7456294392219" lon="4.6539137501960575"><ele>490.0</ele><time>2026-05-02T16:10:25Z</time></trkpt><trkpt lat="45.745712749329556" lon="4.653781000736864"><ele>491.0</ele><time>2026-05-02T16:10:26Z</time></trkpt><trkpt lat="45.745784252528615" lon="4.653663874530522"><ele>492.0</ele><time>2026-05-02T16:10:27Z</time></trkpt><trkpt lat="45.745855924103786" lon="4.653561803433288"><ele>492.20000000000005</ele><time>2026-05-02T16:10:28Z</time></trkpt><trkpt lat="45.74591609862476" lon="4.653467852633254"><ele>492.40000000000003</ele><time>2026-05-02T16:10:29Z</time></trkpt><trkpt lat="45.745967553517936" lon="4.653383120410031"><ele>492.59999999999997</ele><time>2026-05-02T16:10:30Z</time></trkpt><trkpt lat="45.746031000460796" lon="4.653324700927064"><ele>492.79999999999995</ele><time>2026-05-02T16:10:31Z</time></trkpt><trkpt lat="45.746028053570384" lon="4.653151022463449"><ele>493.0</ele><time>2026-05-02T16:10:32Z</time></trkpt><trkpt lat="45.74604222774321" lon="4.6529675540982405"><ele>492.4</ele><time>2026-05-02T16:10:33Z</time></trkpt><trkpt lat="45.746062837921045" lon="4.6527732233173555"><ele>491.79999999999995</ele><time>2026-05-02T16:10:34Z</time></trkpt><trkpt lat="45.74608162407841" lon="4.652612466438964"><ele>491.2</ele><time>2026-05-02T16:10:35Z</time></trkpt><trkpt lat="45.74609812930275" lon="4.6524833259146465"><ele>490.6</ele><time>2026-05-02T16:10:36Z</time></trkpt><trkpt lat="45.74611214845513" lon="4.652355745473817"><ele>490.0</ele><time>2026-05-02T16:10:37Z</time></trkpt><trkpt lat="45.7461229391898" lon="4.652206463103454"><ele>490.0</ele><time>2026-05-02T16:10:38Z</time></trkpt><trkpt lat="45.74613488968355" lon="4.652047088600921"><ele>490.0</ele><time>2026-05-02T16:10:38.999Z</time></trkpt><trkpt lat="45.74614205842439" lon="4.651893477948433"><ele>490.0</ele><time>2026-05-02T16:10:39.999Z</time></trkpt><trkpt lat="45.7461489391197" lon="4.6517393928359905"><ele>490.0</ele><time>2026-05-02T16:10:40.999Z</time></trkpt><trkpt lat="45.74616739752635" lon="4.651596831914471"><ele>490.0</ele><time>2026-05-02T16:10:41.999Z</time></trkpt><trkpt lat="45.74617469714286" lon="4.651492751282113"><ele>491.33333333333337</ele><time>2026-05-02T16:10:42.999Z</time></trkpt><trkpt lat="45.74619205865245" lon="4.651377667509668"><ele>492.6666666666667</ele><time>2026-05-02T16:10:44.999Z</time></trkpt><trkpt lat="45.74630932291275" lon="4.651391914471292"><ele>494.0</ele><time>2026-05-02T16:10:47.999Z</time></trkpt><trkpt lat="45.746382782238676" lon="4.651389051986507"><ele>495.33333333333337</ele><time>2026-05-02T16:10:48.999Z</time></trkpt><trkpt lat="45.74645526336248" lon="4.651395771352855"><ele>496.6666666666667</ele><time>2026-05-02T16:10:49.999Z</time></trkpt><trkpt lat="45.74652837632253" lon="4.651409307951567"><ele>498.0</ele><time>2026-05-02T16:10:50.999Z</time></trkpt><trkpt lat="45.74662350914413" lon="4.651387306527131"><ele>498.0</ele><time>2026-05-02T16:11:19.999Z</time></trkpt><trkpt lat="45.74668616566509" lon="4.651352569415156"><ele>497.99999999999994</ele><time>2026-05-02T16:11:21.999Z</time></trkpt><trkpt lat="45.74675594005646" lon="4.65126913899434"><ele>497.99999999999994</ele><time>2026-05-02T16:11:23.999Z</time></trkpt><trkpt lat="45.746813200233404" lon="4.651144779928374"><ele>498.0</ele><time>2026-05-02T16:11:25.999Z</time></trkpt><trkpt lat="45.74689282981018" lon="4.650996329330257"><ele>498.0</ele><time>2026-05-02T16:11:27.999Z</time></trkpt><trkpt lat="45.74693028519413" lon="4.650902195349362"><ele>497.1666666666667</ele><time>2026-05-02T16:11:28.999Z</time></trkpt><trkpt lat="45.746966247063945" lon="4.650807521501902"><ele>496.33333333333337</ele><time>2026-05-02T16:11:29.999Z</time></trkpt><trkpt lat="45.74700141348277" lon="4.650709637423928"><ele>495.5</ele><time>2026-05-02T16:11:30.999Z</time></trkpt><trkpt lat="45.74702837898101" lon="4.650603365711999"><ele>494.6666666666667</ele><time>2026-05-02T16:11:31.999Z</time></trkpt><trkpt lat="45.74706358159955" lon="4.650502804197518"><ele>493.83333333333337</ele><time>2026-05-02T16:11:33Z</time></trkpt><trkpt lat="45.74710386527227" lon="4.650405339482611"><ele>493.0</ele><time>2026-05-02T16:11:34Z</time></trkpt><trkpt lat="45.74714275801365" lon="4.650315891823864"><ele>495.00000000000006</ele><time>2026-05-02T16:11:35Z</time></trkpt><trkpt lat="45.7471840041708" lon="4.65022722724493"><ele>497.0</ele><time>2026-05-02T16:11:36Z</time></trkpt><trkpt lat="45.74723407121447" lon="4.650146517861262"><ele>499.0</ele><time>2026-05-02T16:11:37Z</time></trkpt><trkpt lat="45.74727517734685" lon="4.650068502481068"><ele>501.0</ele><time>2026-05-02T16:11:38Z</time></trkpt><trkpt lat="45.74734736435943" lon="4.649965891051539"><ele>503.00000000000006</ele><time>2026-05-02T16:11:40Z</time></trkpt><trkpt lat="45.74740736714854" lon="4.6498336108108775"><ele>505.0</ele><time>2026-05-02T16:11:42Z</time></trkpt><trkpt lat="45.74744704808537" lon="4.649730738600944"><ele>505.0</ele><time>2026-05-02T16:11:44Z</time></trkpt><trkpt lat="45.747498830555486" lon="4.649665806764398"><ele>505.0</ele><time>2026-05-02T16:11:51Z</time></trkpt><trkpt lat="45.747524963045294" lon="4.649525915856119"><ele>505.0</ele><time>2026-05-02T16:11:53Z</time></trkpt><trkpt lat="45.747463508206124" lon="4.649247441617915"><ele>505.0</ele><time>2026-05-02T16:11:55Z</time></trkpt><trkpt lat="45.74742438764416" lon="4.649103202263944"><ele>505.8</ele><time>2026-05-02T16:11:56Z</time></trkpt><trkpt lat="45.74738116916766" lon="4.648960118647487"><ele>506.6</ele><time>2026-05-02T16:11:57Z</time></trkpt><trkpt lat="45.74734942065667" lon="4.64881867353586"><ele>507.4</ele><time>2026-05-02T16:11:58Z</time></trkpt><trkpt lat="45.74735346446896" lon="4.648691185581439"><ele>508.2</ele><time>2026-05-02T16:11:59Z</time></trkpt><trkpt lat="45.74741297476321" lon="4.6485891507848205"><ele>509.0</ele><time>2026-05-02T16:12:00Z</time></trkpt><trkpt lat="45.747477897154845" lon="4.6484938209786115"><ele>511.0</ele><time>2026-05-02T16:12:01Z</time></trkpt><trkpt lat="45.74753947641501" lon="4.6483508656079096"><ele>513.0</ele><time>2026-05-02T16:12:02Z</time></trkpt><trkpt lat="45.74761782314813" lon="4.648184405929229"><ele>515.0</ele><time>2026-05-02T16:12:03Z</time></trkpt><trkpt lat="45.747685792809776" lon="4.648018247164498"><ele>517.0</ele><time>2026-05-02T16:12:04Z</time></trkpt><trkpt lat="45.74777066010107" lon="4.647893955538389"><ele>514.25</ele><time>2026-05-02T16:12:05Z</time></trkpt><trkpt lat="45.747832875262" lon="4.647771035861455"><ele>511.5</ele><time>2026-05-02T16:12:06Z</time></trkpt><trkpt lat="45.747896223051754" lon="4.647641112459856"><ele>508.75</ele><time>2026-05-02T16:12:07Z</time></trkpt><trkpt lat="45.74795018044856" lon="4.647466524722862"><ele>506.0</ele><time>2026-05-02T16:12:08Z</time></trkpt><trkpt lat="45.74799974343744" lon="4.647260471263794"><ele>506.0</ele><time>2026-05-02T16:12:09Z</time></trkpt><trkpt lat="45.74806393810917" lon="4.647074962756747"><ele>506.0</ele><time>2026-05-02T16:12:10Z</time></trkpt><trkpt lat="45.74813755486126" lon="4.64690992443746"><ele>506.0</ele><time>2026-05-02T16:12:11Z</time></trkpt><trkpt lat="45.74820960792868" lon="4.646731380272194"><ele>506.0</ele><time>2026-05-02T16:12:12Z</time></trkpt><trkpt lat="45.74828960126722" lon="4.646561894970786"><ele>511.25</ele><time>2026-05-02T16:12:13Z</time></trkpt><trkpt lat="45.74836103946162" lon="4.646390301532913"><ele>516.5</ele><time>2026-05-02T16:12:14Z</time></trkpt><trkpt lat="45.74841745794219" lon="4.646232565532791"><ele>521.75</ele><time>2026-05-02T16:12:15Z</time></trkpt><trkpt lat="45.748475601888636" lon="4.646093407236442"><ele>527.0</ele><time>2026-05-02T16:12:16Z</time></trkpt><trkpt lat="45.74855210582355" lon="4.645985879439174"><ele>528.75</ele><time>2026-05-02T16:12:17Z</time></trkpt><trkpt lat="45.748666808256466" lon="4.64596642491155"><ele>530.5</ele><time>2026-05-02T16:12:18Z</time></trkpt><trkpt lat="45.74878256190135" lon="4.645950276340776"><ele>532.25</ele><time>2026-05-02T16:12:19Z</time></trkpt><trkpt lat="45.74890386334206" lon="4.645907647478663"><ele>534.0</ele><time>2026-05-02T16:12:20Z</time></trkpt><trkpt lat="45.7490380406201" lon="4.645833582072189"><ele>534.0</ele><time>2026-05-02T16:12:21Z</time></trkpt><trkpt lat="45.749142734383234" lon="4.645780253601015"><ele>534.0</ele><time>2026-05-02T16:12:22Z</time></trkpt><trkpt lat="45.749226587237615" lon="4.645741055276585"><ele>534.0</ele><time>2026-05-02T16:12:23Z</time></trkpt><trkpt lat="45.749320088809334" lon="4.645795353937296"><ele>534.0</ele><time>2026-05-02T16:12:24Z</time></trkpt><trkpt lat="45.7494115555878" lon="4.64585381726961"><ele>534.0</ele><time>2026-05-02T16:12:25Z</time></trkpt><trkpt lat="45.74949169737559" lon="4.645942423289488"><ele>532.25</ele><time>2026-05-02T16:12:26Z</time></trkpt><trkpt lat="45.74958764918737" lon="4.646049751863148"><ele>530.5</ele><time>2026-05-02T16:12:27Z</time></trkpt><trkpt lat="45.749696074700005" lon="4.646140032967614"><ele>528.75</ele><time>2026-05-02T16:12:28Z</time></trkpt><trkpt lat="45.749792245912296" lon="4.646226977875698"><ele>527.0</ele><time>2026-05-02T16:12:29Z</time></trkpt><trkpt lat="45.749895780923026" lon="4.6462749417801845"><ele>527.0</ele><time>2026-05-02T16:12:30Z</time></trkpt><trkpt lat="45.75002796018605" lon="4.646249615618545"><ele>527.0</ele><time>2026-05-02T16:12:31Z</time></trkpt><trkpt lat="45.750131019444524" lon="4.646222964475316"><ele>527.0</ele><time>2026-05-02T16:12:32Z</time></trkpt><trkpt lat="45.750237385535385" lon="4.646155526521846"><ele>527.0</ele><time>2026-05-02T16:12:33Z</time></trkpt><trkpt lat="45.75033637226256" lon="4.646056578752437"><ele>530.75</ele><time>2026-05-02T16:12:34Z</time></trkpt><trkpt lat="45.75042759982007" lon="4.645913286164989"><ele>534.5</ele><time>2026-05-02T16:12:35Z</time></trkpt><trkpt lat="45.75053043153886" lon="4.645775109101931"><ele>538.25</ele><time>2026-05-02T16:12:36Z</time></trkpt><trkpt lat="45.750622138804964" lon="4.645622198747205"><ele>542.0</ele><time>2026-05-02T16:12:37Z</time></trkpt><trkpt lat="45.750713035724694" lon="4.645480682147939"><ele>542.0</ele><time>2026-05-02T16:12:38Z</time></trkpt><trkpt lat="45.750816605130424" lon="4.645383689577202"><ele>542.0</ele><time>2026-05-02T16:12:39Z</time></trkpt><trkpt lat="45.75093313573595" lon="4.645313526829049"><ele>542.0</ele><time>2026-05-02T16:12:40Z</time></trkpt><trkpt lat="45.75106253866941" lon="4.6452616699030225"><ele>542.0</ele><time>2026-05-02T16:12:41Z</time></trkpt><trkpt lat="45.75118620598568" lon="4.645205560736971"><ele>544.0</ele><time>2026-05-02T16:12:42Z</time></trkpt><trkpt lat="45.751308224401285" lon="4.645127949924637"><ele>546.0</ele><time>2026-05-02T16:12:43Z</time></trkpt><trkpt lat="45.75141393803481" lon="4.645013892693793"><ele>548.0</ele><time>2026-05-02T16:12:44Z</time></trkpt><trkpt lat="45.75151731108908" lon="4.644890190799999"><ele>550.0</ele><time>2026-05-02T16:12:45Z</time></trkpt><trkpt lat="45.751609911311945" lon="4.644738591388012"><ele>550.0</ele><time>2026-05-02T16:12:46Z</time></trkpt><trkpt lat="45.75168528933337" lon="4.64456679172207"><ele>550.0</ele><time>2026-05-02T16:12:47Z</time></trkpt><trkpt lat="45.75175830613024" lon="4.644386891031317"><ele>550.0</ele><time>2026-05-02T16:12:48Z</time></trkpt><trkpt lat="45.75181611416924" lon="4.644198066118753"><ele>550.0</ele><time>2026-05-02T16:12:49Z</time></trkpt><trkpt lat="45.75188113794842" lon="4.644004303559959"><ele>548.0</ele><time>2026-05-02T16:12:50Z</time></trkpt><trkpt lat="45.75195492596124" lon="4.643819833909019"><ele>546.0</ele><time>2026-05-02T16:12:51Z</time></trkpt><trkpt lat="45.75203429006814" lon="4.6436761935101405"><ele>544.0</ele><time>2026-05-02T16:12:52Z</time></trkpt><trkpt lat="45.75213417236413" lon="4.643576223799812"><ele>542.0</ele><time>2026-05-02T16:12:53Z</time></trkpt><trkpt lat="45.75223927234292" lon="4.643478060539019"><ele>548.3333333333333</ele><time>2026-05-02T16:12:54Z</time></trkpt><trkpt lat="45.75235362626414" lon="4.643365799766307"><ele>554.6666666666666</ele><time>2026-05-02T16:12:55Z</time></trkpt><trkpt lat="45.75245082312598" lon="4.64319566355417"><ele>561.0</ele><time>2026-05-02T16:12:56Z</time></trkpt><trkpt lat="45.75253496419866" lon="4.643000810170761"><ele>561.0</ele><time>2026-05-02T16:12:57Z</time></trkpt><trkpt lat="45.75261508570541" lon="4.64281522863663"><ele>561.0</ele><time>2026-05-02T16:12:58Z</time></trkpt><trkpt lat="45.7526850475306" lon="4.642623464221663"><ele>561.0</ele><time>2026-05-02T16:12:59Z</time></trkpt><trkpt lat="45.75273798435286" lon="4.642414920969042"><ele>561.0</ele><time>2026-05-02T16:13:00Z</time></trkpt><trkpt lat="45.752783849755666" lon="4.642204249234218"><ele>561.0</ele><time>2026-05-02T16:13:01Z</time></trkpt><trkpt lat="45.752819600301294" lon="4.641986972916038"><ele>561.0</ele><time>2026-05-02T16:13:02Z</time></trkpt><trkpt lat="45.752858377573375" lon="4.641770090062483"><ele>561.0</ele><time>2026-05-02T16:13:03Z</time></trkpt><trkpt lat="45.752897394924126" lon="4.641547697878298"><ele>561.0</ele><time>2026-05-02T16:13:03.999Z</time></trkpt><trkpt lat="45.752944980469465" lon="4.641327289613019"><ele>561.0</ele><time>2026-05-02T16:13:04.999Z</time></trkpt><trkpt lat="45.752994494751945" lon="4.641106831925764"><ele>563.75</ele><time>2026-05-02T16:13:05.999Z</time></trkpt><trkpt lat="45.7530526191036" lon="4.640897615188109"><ele>566.5</ele><time>2026-05-02T16:13:06.999Z</time></trkpt><trkpt lat="45.753118433984895" lon="4.640708064114238"><ele>569.25</ele><time>2026-05-02T16:13:07.999Z</time></trkpt><trkpt lat="45.753158243620604" lon="4.640532660299461"><ele>572.0</ele><time>2026-05-02T16:13:08.999Z</time></trkpt><trkpt lat="45.75320529550086" lon="4.640358066552331"><ele>573.25</ele><time>2026-05-02T16:13:09.999Z</time></trkpt><trkpt lat="45.7532894701716" lon="4.64021553081133"><ele>574.5</ele><time>2026-05-02T16:13:10.999Z</time></trkpt><trkpt lat="45.753401906432806" lon="4.640111444139446"><ele>575.75</ele><time>2026-05-02T16:13:11.999Z</time></trkpt><trkpt lat="45.753523814977115" lon="4.639983681016678"><ele>577.0</ele><time>2026-05-02T16:13:12.999Z</time></trkpt><trkpt lat="45.75365000805727" lon="4.639850989676488"><ele>577.0</ele><time>2026-05-02T16:13:13.999Z</time></trkpt><trkpt lat="45.75374258520691" lon="4.639721033100781"><ele>577.0</ele><time>2026-05-02T16:13:14.999Z</time></trkpt><trkpt lat="45.753844128133004" lon="4.639576173711539"><ele>577.0</ele><time>2026-05-02T16:13:15.999Z</time></trkpt><trkpt lat="45.75394432713773" lon="4.639417926991976"><ele>577.0</ele><time>2026-05-02T16:13:16.999Z</time></trkpt><trkpt lat="45.754040779737096" lon="4.639247935152787"><ele>583.0</ele><time>2026-05-02T16:13:17.999Z</time></trkpt><trkpt lat="45.75413513831279" lon="4.639078347216195"><ele>589.0</ele><time>2026-05-02T16:13:18.999Z</time></trkpt><trkpt lat="45.75422072518799" lon="4.638898537770887"><ele>595.0</ele><time>2026-05-02T16:13:19.999Z</time></trkpt><trkpt lat="45.754312015338925" lon="4.638730323250327"><ele>595.5</ele><time>2026-05-02T16:13:20.999Z</time></trkpt><trkpt lat="45.754380839488846" lon="4.6385900187105635"><ele>596.0</ele><time>2026-05-02T16:13:21.999Z</time></trkpt><trkpt lat="45.7544646979326" lon="4.638472624182813"><ele>596.5</ele><time>2026-05-02T16:13:22.999Z</time></trkpt><trkpt lat="45.754559115862754" lon="4.638402120643843"><ele>597.0</ele><time>2026-05-02T16:13:23.999Z</time></trkpt><trkpt lat="45.754675113670096" lon="4.638375539672496"><ele>597.0</ele><time>2026-05-02T16:13:24.999Z</time></trkpt><trkpt lat="45.75480015613113" lon="4.6383279347659965"><ele>597.0</ele><time>2026-05-02T16:13:25.999Z</time></trkpt><trkpt lat="45.7549135610962" lon="4.638303688211291"><ele>597.0</ele><time>2026-05-02T16:13:26.999Z</time></trkpt><trkpt lat="45.755035392029" lon="4.638233287690867"><ele>597.0</ele><time>2026-05-02T16:13:27.999Z</time></trkpt><trkpt lat="45.75515915045375" lon="4.63812551027468"><ele>598.6666666666666</ele><time>2026-05-02T16:13:28.999Z</time></trkpt><trkpt lat="45.755279175863954" lon="4.63800543909616"><ele>600.3333333333333</ele><time>2026-05-02T16:13:29.999Z</time></trkpt><trkpt lat="45.755391694898435" lon="4.637871486848076"><ele>602.0</ele><time>2026-05-02T16:13:30.999Z</time></trkpt><trkpt lat="45.75549580774945" lon="4.6376762757781815"><ele>602.0</ele><time>2026-05-02T16:13:31.999Z</time></trkpt><trkpt lat="45.75561354431963" lon="4.637515670318007"><ele>602.0</ele><time>2026-05-02T16:13:32.999Z</time></trkpt><trkpt lat="45.755730262964654" lon="4.637325995797331"><ele>602.0</ele><time>2026-05-02T16:13:33.999Z</time></trkpt><trkpt lat="45.75585210108744" lon="4.6371331020056274"><ele>600.0</ele><time>2026-05-02T16:13:34.999Z</time></trkpt><trkpt lat="45.75596576790475" lon="4.6369541614876635"><ele>598.0</ele><time>2026-05-02T16:13:35.999Z</time></trkpt><trkpt lat="45.75606490675998" lon="4.636788807375899"><ele>596.0</ele><time>2026-05-02T16:13:36.999Z</time></trkpt><trkpt lat="45.7561537468828" lon="4.636624959568602"><ele>596.0</ele><time>2026-05-02T16:13:37.999Z</time></trkpt><trkpt lat="45.75621847803099" lon="4.636480805284014"><ele>596.0</ele><time>2026-05-02T16:13:39Z</time></trkpt><trkpt lat="45.756268692408355" lon="4.636320252467543"><ele>596.0</ele><time>2026-05-02T16:13:40Z</time></trkpt><trkpt lat="45.7562817981658" lon="4.636131410096732"><ele>596.0</ele><time>2026-05-02T16:13:41Z</time></trkpt><trkpt lat="45.75629266281629" lon="4.6359377371951735"><ele>598.0</ele><time>2026-05-02T16:13:42Z</time></trkpt><trkpt lat="45.756285113174975" lon="4.635735814500866"><ele>600.0</ele><time>2026-05-02T16:13:43Z</time></trkpt><trkpt lat="45.75628120273525" lon="4.635510438756007"><ele>602.0</ele><time>2026-05-02T16:13:44Z</time></trkpt><trkpt lat="45.7562361027935" lon="4.635278914641446"><ele>602.6666666666666</ele><time>2026-05-02T16:13:45Z</time></trkpt><trkpt lat="45.75620092459326" lon="4.635019211232579"><ele>603.3333333333334</ele><time>2026-05-02T16:13:46Z</time></trkpt><trkpt lat="45.75615948790387" lon="4.634746670581855"><ele>604.0</ele><time>2026-05-02T16:13:47Z</time></trkpt><trkpt lat="45.75613019589078" lon="4.634503013121039"><ele>603.6666666666667</ele><time>2026-05-02T16:13:48Z</time></trkpt><trkpt lat="45.75610089169683" lon="4.634287114278739"><ele>603.3333333333334</ele><time>2026-05-02T16:13:49Z</time></trkpt><trkpt lat="45.756054042304704" lon="4.633981806300414"><ele>603.0</ele><time>2026-05-02T16:13:50Z</time></trkpt><trkpt lat="45.7560230099352" lon="4.633724451153935"><ele>615.3333333333334</ele><time>2026-05-02T16:13:51Z</time></trkpt><trkpt lat="45.755988635565494" lon="4.633466987389618"><ele>627.6666666666667</ele><time>2026-05-02T16:13:52Z</time></trkpt><trkpt lat="45.75597585455218" lon="4.633210459761451"><ele>640.0</ele><time>2026-05-02T16:13:53Z</time></trkpt><trkpt lat="45.755939233283804" lon="4.632982409025629"><ele>640.75</ele><time>2026-05-02T16:13:54Z</time></trkpt><trkpt lat="45.75593922589773" lon="4.632768498280151"><ele>641.5</ele><time>2026-05-02T16:13:55Z</time></trkpt><trkpt lat="45.75594505075983" lon="4.632556204477231"><ele>642.25</ele><time>2026-05-02T16:13:56Z</time></trkpt><trkpt lat="45.75596864373116" lon="4.63234437786211"><ele>643.0</ele><time>2026-05-02T16:13:57Z</time></trkpt><trkpt lat="45.755994381734034" lon="4.632125716989186"><ele>645.0</ele><time>2026-05-02T16:13:58Z</time></trkpt><trkpt lat="45.756024443511755" lon="4.6319235537270895"><ele>647.0</ele><time>2026-05-02T16:13:59Z</time></trkpt><trkpt lat="45.75603787897514" lon="4.631743078186193"><ele>649.0</ele><time>2026-05-02T16:14:00Z</time></trkpt><trkpt lat="45.75607004702863" lon="4.631570711192916"><ele>651.0</ele><time>2026-05-02T16:14:01Z</time></trkpt><trkpt lat="45.756112232601645" lon="4.631417835830677"><ele>650.5</ele><time>2026-05-02T16:14:02Z</time></trkpt><trkpt lat="45.756117186522026" lon="4.631239332745144"><ele>650.0</ele><time>2026-05-02T16:14:03Z</time></trkpt><trkpt lat="45.75613530148033" lon="4.631075199798505"><ele>649.5</ele><time>2026-05-02T16:14:04Z</time></trkpt><trkpt lat="45.756193058135274" lon="4.630924502369346"><ele>649.0</ele><time>2026-05-02T16:14:05Z</time></trkpt><trkpt lat="45.75624185253957" lon="4.630776709268969"><ele>649.0</ele><time>2026-05-02T16:14:06Z</time></trkpt><trkpt lat="45.756239700160535" lon="4.630674511123461"><ele>649.0</ele><time>2026-05-02T16:14:07Z</time></trkpt><trkpt lat="45.75630212314151" lon="4.63059630561689"><ele>649.0</ele><time>2026-05-02T16:14:08Z</time></trkpt><trkpt lat="45.7564236648646" lon="4.630599179634984"><ele>649.0</ele><time>2026-05-02T16:14:10Z</time></trkpt><trkpt lat="45.75657423745283" lon="4.630679908472103"><ele>649.0</ele><time>2026-05-02T16:14:11Z</time></trkpt><trkpt lat="45.75666997169155" lon="4.630757408668174"><ele>649.0</ele><time>2026-05-02T16:14:12Z</time></trkpt><trkpt lat="45.756762328785854" lon="4.630855485870482"><ele>649.0</ele><time>2026-05-02T16:14:13Z</time></trkpt><trkpt lat="45.756870941313856" lon="4.6309666403934715"><ele>649.0</ele><time>2026-05-02T16:14:14Z</time></trkpt><trkpt lat="45.75700431860863" lon="4.631105880466693"><ele>649.0</ele><time>2026-05-02T16:14:15Z</time></trkpt><trkpt lat="45.75713283345078" lon="4.631224803995736"><ele>647.5</ele><time>2026-05-02T16:14:16Z</time></trkpt><trkpt lat="45.75723958079187" lon="4.631339353135803"><ele>646.0</ele><time>2026-05-02T16:14:17Z</time></trkpt><trkpt lat="45.757344513895276" lon="4.63142135374845"><ele>644.5</ele><time>2026-05-02T16:14:18Z</time></trkpt><trkpt lat="45.757438994685174" lon="4.631469983147903"><ele>643.0</ele><time>2026-05-02T16:14:19Z</time></trkpt><trkpt lat="45.757536724210254" lon="4.631477619236656"><ele>643.0</ele><time>2026-05-02T16:14:20Z</time></trkpt><trkpt lat="45.75762629418093" lon="4.631422145863165"><ele>643.0</ele><time>2026-05-02T16:14:21Z</time></trkpt><trkpt lat="45.757708434144384" lon="4.6313113931113055"><ele>643.0</ele><time>2026-05-02T16:14:22Z</time></trkpt><trkpt lat="45.7577952552948" lon="4.631218084936693"><ele>643.0</ele><time>2026-05-02T16:14:23Z</time></trkpt><trkpt lat="45.75790368043994" lon="4.631184328552906"><ele>643.0</ele><time>2026-05-02T16:14:24Z</time></trkpt><trkpt lat="45.758017700305366" lon="4.631237595225664"><ele>647.0</ele><time>2026-05-02T16:14:25Z</time></trkpt><trkpt lat="45.75813551955592" lon="4.6313081924251085"><ele>651.0</ele><time>2026-05-02T16:14:26Z</time></trkpt><trkpt lat="45.75825507759933" lon="4.631387928248937"><ele>655.0</ele><time>2026-05-02T16:14:27Z</time></trkpt><trkpt lat="45.75836487217248" lon="4.631488005789705"><ele>659.0</ele><time>2026-05-02T16:14:28Z</time></trkpt><trkpt lat="45.758475953191436" lon="4.631620521067094"><ele>661.0</ele><time>2026-05-02T16:14:29Z</time></trkpt><trkpt lat="45.75859254555191" lon="4.631765539373576"><ele>663.0</ele><time>2026-05-02T16:14:30Z</time></trkpt><trkpt lat="45.7587143358196" lon="4.6319170242280165"><ele>665.0</ele><time>2026-05-02T16:14:31Z</time></trkpt><trkpt lat="45.75884013163259" lon="4.632068463759112"><ele>665.0</ele><time>2026-05-02T16:14:32Z</time></trkpt><trkpt lat="45.75897857921516" lon="4.6321873634047295"><ele>665.0</ele><time>2026-05-02T16:14:33Z</time></trkpt><trkpt lat="45.75909264255295" lon="4.6323155000666505"><ele>665.0</ele><time>2026-05-02T16:14:34Z</time></trkpt><trkpt lat="45.759226042410816" lon="4.632408349299174"><ele>667.5</ele><time>2026-05-02T16:14:35Z</time></trkpt><trkpt lat="45.75937089688813" lon="4.632477992686051"><ele>670.0</ele><time>2026-05-02T16:14:36Z</time></trkpt><trkpt lat="45.7595140138027" lon="4.632542706157034"><ele>672.5</ele><time>2026-05-02T16:14:37Z</time></trkpt><trkpt lat="45.759654988441156" lon="4.632592071042924"><ele>675.0</ele><time>2026-05-02T16:14:38Z</time></trkpt><trkpt lat="45.75979223457743" lon="4.632609371210029"><ele>675.0</ele><time>2026-05-02T16:14:39Z</time></trkpt><trkpt lat="45.75991535592014" lon="4.632612391671915"><ele>675.0</ele><time>2026-05-02T16:14:40Z</time></trkpt><trkpt lat="45.760025324634704" lon="4.632598685012516"><ele>675.0</ele><time>2026-05-02T16:14:41Z</time></trkpt><trkpt lat="45.76012761711379" lon="4.632531572425384"><ele>675.0</ele><time>2026-05-02T16:14:42Z</time></trkpt><trkpt lat="45.76023489383" lon="4.63248519734662"><ele>672.25</ele><time>2026-05-02T16:14:43Z</time></trkpt><trkpt lat="45.760326938194034" lon="4.63238377761516"><ele>669.5</ele><time>2026-05-02T16:14:44Z</time></trkpt><trkpt lat="45.76043273823325" lon="4.632239452595421"><ele>666.75</ele><time>2026-05-02T16:14:45Z</time></trkpt><trkpt lat="45.76054458633253" lon="4.632108789735709"><ele>664.0</ele><time>2026-05-02T16:14:46Z</time></trkpt><trkpt lat="45.760677915374984" lon="4.631946265692679"><ele>669.5</ele><time>2026-05-02T16:14:47Z</time></trkpt><trkpt lat="45.760795692670484" lon="4.6317967367118555"><ele>675.0</ele><time>2026-05-02T16:14:48Z</time></trkpt><trkpt lat="45.76089564345051" lon="4.631629283854204"><ele>680.5</ele><time>2026-05-02T16:14:49Z</time></trkpt><trkpt lat="45.76098332576657" lon="4.631478881617501"><ele>686.0</ele><time>2026-05-02T16:14:50Z</time></trkpt><trkpt lat="45.761064151302136" lon="4.631342091008045"><ele>687.0</ele><time>2026-05-02T16:14:51Z</time></trkpt><trkpt lat="45.76113082094585" lon="4.631185014171167"><ele>688.0</ele><time>2026-05-02T16:14:52Z</time></trkpt><trkpt lat="45.76119410336642" lon="4.631021731260213"><ele>689.0</ele><time>2026-05-02T16:14:53Z</time></trkpt><trkpt lat="45.76126477313814" lon="4.630892322246384"><ele>690.0</ele><time>2026-05-02T16:14:54Z</time></trkpt><trkpt lat="45.76131751186082" lon="4.6307761035797155"><ele>691.1666666666666</ele><time>2026-05-02T16:14:55Z</time></trkpt><trkpt lat="45.76135269746321" lon="4.630659387156892"><ele>692.3333333333334</ele><time>2026-05-02T16:14:56Z</time></trkpt><trkpt lat="45.76140042587612" lon="4.630574112038548"><ele>693.5</ele><time>2026-05-02T16:14:56.999Z</time></trkpt><trkpt lat="45.76144175535066" lon="4.630481922684015"><ele>694.6666666666667</ele><time>2026-05-02T16:14:57.999Z</time></trkpt><trkpt lat="45.76149942610578" lon="4.630409206904627"><ele>695.8333333333334</ele><time>2026-05-02T16:14:58.999Z</time></trkpt><trkpt lat="45.76157465090564" lon="4.630359300190642"><ele>697.0</ele><time>2026-05-02T16:14:59.999Z</time></trkpt><trkpt lat="45.7616635834569" lon="4.6303773554273855"><ele>697.0</ele><time>2026-05-02T16:15:00.999Z</time></trkpt><trkpt lat="45.761741851689685" lon="4.630466049033878"><ele>697.0</ele><time>2026-05-02T16:15:01.999Z</time></trkpt><trkpt lat="45.76179877089904" lon="4.63057923916768"><ele>697.0</ele><time>2026-05-02T16:15:02.999Z</time></trkpt><trkpt lat="45.76179798930978" lon="4.630717500842326"><ele>697.0</ele><time>2026-05-02T16:15:03.999Z</time></trkpt><trkpt lat="45.76181067959785" lon="4.630861313145071"><ele>697.0</ele><time>2026-05-02T16:15:04.999Z</time></trkpt><trkpt lat="45.76183028652539" lon="4.6310331819307855"><ele>694.6666666666667</ele><time>2026-05-02T16:15:05.999Z</time></trkpt><trkpt lat="45.76186014168733" lon="4.63125510422583"><ele>692.3333333333334</ele><time>2026-05-02T16:15:06.999Z</time></trkpt><trkpt lat="45.761893379675186" lon="4.631470758761293"><ele>690.0</ele><time>2026-05-02T16:15:07.999Z</time></trkpt><trkpt lat="45.76190153283151" lon="4.631683453335668"><ele>695.5</ele><time>2026-05-02T16:15:08.999Z</time></trkpt><trkpt lat="45.761916120778075" lon="4.631866721945033"><ele>701.0</ele><time>2026-05-02T16:15:09.999Z</time></trkpt><trkpt lat="45.761933876936716" lon="4.632044481163758"><ele>706.5</ele><time>2026-05-02T16:15:10.999Z</time></trkpt><trkpt lat="45.76194098962596" lon="4.6322291057409"><ele>712.0</ele><time>2026-05-02T16:15:11.999Z</time></trkpt><trkpt lat="45.76194615332747" lon="4.632390265240111"><ele>712.0</ele><time>2026-05-02T16:15:12.999Z</time></trkpt><trkpt lat="45.76195508546819" lon="4.632527707504064"><ele>712.0</ele><time>2026-05-02T16:15:13.999Z</time></trkpt><trkpt lat="45.761960498350405" lon="4.632668016732332"><ele>712.0</ele><time>2026-05-02T16:15:14.999Z</time></trkpt><trkpt lat="45.76197259737322" lon="4.632809882042768"><ele>712.0</ele><time>2026-05-02T16:15:15.999Z</time></trkpt><trkpt lat="45.76198266790229" lon="4.632952246107215"><ele>712.0</ele><time>2026-05-02T16:15:16.999Z</time></trkpt><trkpt lat="45.762030923036654" lon="4.633075363706083"><ele>711.2</ele><time>2026-05-02T16:15:17.999Z</time></trkpt><trkpt lat="45.762095397589626" lon="4.633152892340066"><ele>710.4000000000001</ele><time>2026-05-02T16:15:18.999Z</time></trkpt><trkpt lat="45.76220346180824" lon="4.633158606631346"><ele>709.5999999999999</ele><time>2026-05-02T16:15:19.999Z</time></trkpt><trkpt lat="45.76228202042482" lon="4.633134467529417"><ele>708.8</ele><time>2026-05-02T16:15:20.999Z</time></trkpt><trkpt lat="45.762378334037514" lon="4.633068419194675"><ele>708.0</ele><time>2026-05-02T16:15:21.999Z</time></trkpt><trkpt lat="45.76236954917842" lon="4.632892259979504"><ele>709.0</ele><time>2026-05-02T16:15:22.999Z</time></trkpt><trkpt lat="45.76236904657002" lon="4.632764708470391"><ele>710.0</ele><time>2026-05-02T16:15:23.999Z</time></trkpt><trkpt lat="45.76233233473756" lon="4.632599220827763"><ele>711.0</ele><time>2026-05-02T16:15:24.999Z</time></trkpt><trkpt lat="45.76231895918411" lon="4.632395750101153"><ele>712.0</ele><time>2026-05-02T16:15:25.999Z</time></trkpt><trkpt lat="45.762296982867866" lon="4.632180976078005"><ele>713.0</ele><time>2026-05-02T16:15:26.999Z</time></trkpt><trkpt lat="45.76228764950469" lon="4.631960179528262"><ele>714.0</ele><time>2026-05-02T16:15:27.999Z</time></trkpt><trkpt lat="45.76228544392353" lon="4.6317290388568795"><ele>715.0</ele><time>2026-05-02T16:15:28.999Z</time></trkpt><trkpt lat="45.76229434250895" lon="4.631497618087149"><ele>715.0</ele><time>2026-05-02T16:15:29.999Z</time></trkpt><trkpt lat="45.7622980977019" lon="4.631270365187145"><ele>715.0</ele><time>2026-05-02T16:15:30.999Z</time></trkpt><trkpt lat="45.76233505667345" lon="4.631042443953093"><ele>715.0</ele><time>2026-05-02T16:15:31.999Z</time></trkpt><trkpt lat="45.76237830436312" lon="4.630813401488099"><ele>715.0</ele><time>2026-05-02T16:15:32.999Z</time></trkpt><trkpt lat="45.76242515425774" lon="4.630590740027365"><ele>715.0</ele><time>2026-05-02T16:15:33.999Z</time></trkpt><trkpt lat="45.762472983956954" lon="4.630363066814728"><ele>715.0</ele><time>2026-05-02T16:15:34.999Z</time></trkpt><trkpt lat="45.76253271757712" lon="4.630140327889994"><ele>716.3333333333334</ele><time>2026-05-02T16:15:35.999Z</time></trkpt><trkpt lat="45.76257950203986" lon="4.629910847145248"><ele>717.6666666666666</ele><time>2026-05-02T16:15:36.999Z</time></trkpt><trkpt lat="45.76261663961571" lon="4.62967792428448"><ele>719.0</ele><time>2026-05-02T16:15:37.999Z</time></trkpt><trkpt lat="45.76266743438125" lon="4.62948531951161"><ele>719.5</ele><time>2026-05-02T16:15:38.999Z</time></trkpt><trkpt lat="45.76270754979917" lon="4.629287764593896"><ele>720.0</ele><time>2026-05-02T16:15:39.999Z</time></trkpt><trkpt lat="45.762780322612365" lon="4.629128327734697"><ele>720.5</ele><time>2026-05-02T16:15:40.999Z</time></trkpt><trkpt lat="45.7628395568553" lon="4.628955881665012"><ele>721.0</ele><time>2026-05-02T16:15:41.999Z</time></trkpt><trkpt lat="45.76289061447871" lon="4.628832384371466"><ele>721.0</ele><time>2026-05-02T16:15:42.999Z</time></trkpt><trkpt lat="45.76299651438968" lon="4.628763037429864"><ele>721.0</ele><time>2026-05-02T16:15:43.999Z</time></trkpt><trkpt lat="45.76308268393091" lon="4.6286433574944885"><ele>721.0</ele><time>2026-05-02T16:15:45Z</time></trkpt><trkpt lat="45.763159972930985" lon="4.628517398868661"><ele>721.0</ele><time>2026-05-02T16:15:46Z</time></trkpt><trkpt lat="45.76322199057114" lon="4.628391085209944"><ele>720.5</ele><time>2026-05-02T16:15:47Z</time></trkpt><trkpt lat="45.763263759689345" lon="4.628234591143844"><ele>720.0</ele><time>2026-05-02T16:15:48Z</time></trkpt><trkpt lat="45.76332017478991" lon="4.628080830995749"><ele>719.5</ele><time>2026-05-02T16:15:49Z</time></trkpt><trkpt lat="45.76337847674339" lon="4.6278924336541225"><ele>719.0</ele><time>2026-05-02T16:15:50Z</time></trkpt><trkpt lat="45.76342051557977" lon="4.6276997999834055"><ele>719.0</ele><time>2026-05-02T16:15:51Z</time></trkpt><trkpt lat="45.76346522776652" lon="4.627472637706887"><ele>719.0</ele><time>2026-05-02T16:15:52Z</time></trkpt><trkpt lat="45.763506450195145" lon="4.627260947370477"><ele>719.0</ele><time>2026-05-02T16:15:53Z</time></trkpt><trkpt lat="45.76354751408851" lon="4.627071060256248"><ele>712.75</ele><time>2026-05-02T16:15:54Z</time></trkpt><trkpt lat="45.763586815695675" lon="4.626887206919779"><ele>706.5</ele><time>2026-05-02T16:15:55Z</time></trkpt><trkpt lat="45.7636248146577" lon="4.62671207794757"><ele>700.25</ele><time>2026-05-02T16:15:56Z</time></trkpt><trkpt lat="45.76365440654927" lon="4.626551115572182"><ele>694.0</ele><time>2026-05-02T16:15:57Z</time></trkpt><trkpt lat="45.763680560345946" lon="4.626383439203342"><ele>694.0</ele><time>2026-05-02T16:15:58Z</time></trkpt><trkpt lat="45.76370298883747" lon="4.62621862899997"><ele>694.0</ele><time>2026-05-02T16:15:59Z</time></trkpt><trkpt lat="45.763750984405654" lon="4.6260377757658615"><ele>694.0</ele><time>2026-05-02T16:16:00Z</time></trkpt><trkpt lat="45.76375934359473" lon="4.625873919110089"><ele>694.0</ele><time>2026-05-02T16:16:01Z</time></trkpt><trkpt lat="45.763755139744596" lon="4.62571739085881"><ele>693.6</ele><time>2026-05-02T16:16:02Z</time></trkpt><trkpt lat="45.76374155397499" lon="4.625547755085794"><ele>693.2</ele><time>2026-05-02T16:16:03Z</time></trkpt><trkpt lat="45.76371625241844" lon="4.625409830546134"><ele>692.8000000000001</ele><time>2026-05-02T16:16:04Z</time></trkpt><trkpt lat="45.76367306895906" lon="4.625298600316437"><ele>692.4000000000001</ele><time>2026-05-02T16:16:05Z</time></trkpt><trkpt lat="45.763596150368" lon="4.625180820889292"><ele>692.0</ele><time>2026-05-02T16:16:06Z</time></trkpt><trkpt lat="45.76349761074576" lon="4.625082163491329"><ele>693.0</ele><time>2026-05-02T16:16:07Z</time></trkpt><trkpt lat="45.763383023811365" lon="4.62500881987093"><ele>694.0</ele><time>2026-05-02T16:16:08Z</time></trkpt><trkpt lat="45.76326233081977" lon="4.624966333615481"><ele>695.0</ele><time>2026-05-02T16:16:09Z</time></trkpt><trkpt lat="45.76314838092411" lon="4.624967255835206"><ele>696.0</ele><time>2026-05-02T16:16:10Z</time></trkpt><trkpt lat="45.76304231016845" lon="4.625002699587888"><ele>696.0</ele><time>2026-05-02T16:16:11Z</time></trkpt><trkpt lat="45.76293556520054" lon="4.625024549260418"><ele>696.0</ele><time>2026-05-02T16:16:12Z</time></trkpt><trkpt lat="45.762822153840546" lon="4.6250773152066404"><ele>696.0</ele><time>2026-05-02T16:16:13Z</time></trkpt><trkpt lat="45.762707848028434" lon="4.625107702905552"><ele>696.0</ele><time>2026-05-02T16:16:14Z</time></trkpt><trkpt lat="45.76259730066788" lon="4.625100391431532"><ele>696.75</ele><time>2026-05-02T16:16:15Z</time></trkpt><trkpt lat="45.762494733835226" lon="4.625051865034747"><ele>697.5</ele><time>2026-05-02T16:16:16Z</time></trkpt><trkpt lat="45.7623909601315" lon="4.624968623876994"><ele>698.25</ele><time>2026-05-02T16:16:17Z</time></trkpt><trkpt lat="45.762297822925795" lon="4.624854657235903"><ele>699.0</ele><time>2026-05-02T16:16:18Z</time></trkpt><trkpt lat="45.762205513980426" lon="4.624712888902301"><ele>699.0</ele><time>2026-05-02T16:16:19Z</time></trkpt><trkpt lat="45.76210232807195" lon="4.624546353771231"><ele>699.0</ele><time>2026-05-02T16:16:20Z</time></trkpt><trkpt lat="45.76199710019183" lon="4.6243833238566365"><ele>699.0</ele><time>2026-05-02T16:16:21Z</time></trkpt><trkpt lat="45.761903887915444" lon="4.624219243059938"><ele>700.25</ele><time>2026-05-02T16:16:22Z</time></trkpt><trkpt lat="45.76185726891241" lon="4.624084138014039"><ele>701.5</ele><time>2026-05-02T16:16:23Z</time></trkpt><trkpt lat="45.76178094129317" lon="4.623901818481907"><ele>702.75</ele><time>2026-05-02T16:16:24Z</time></trkpt><trkpt lat="45.76174170829514" lon="4.623736829061128"><ele>704.0</ele><time>2026-05-02T16:16:25Z</time></trkpt><trkpt lat="45.76169250545837" lon="4.6235708266306705"><ele>699.5</ele><time>2026-05-02T16:16:26Z</time></trkpt><trkpt lat="45.76163476276125" lon="4.623431296558154"><ele>695.0</ele><time>2026-05-02T16:16:27Z</time></trkpt><trkpt lat="45.76154230133114" lon="4.623308901184107"><ele>690.5</ele><time>2026-05-02T16:16:28Z</time></trkpt><trkpt lat="45.76143923181685" lon="4.62320690986761"><ele>686.0</ele><time>2026-05-02T16:16:29Z</time></trkpt><trkpt lat="45.761342987789114" lon="4.623100895067507"><ele>686.0</ele><time>2026-05-02T16:16:30Z</time></trkpt><trkpt lat="45.761252396165474" lon="4.622994681303553"><ele>686.0</ele><time>2026-05-02T16:16:31Z</time></trkpt><trkpt lat="45.76118419537981" lon="4.622843184161868"><ele>686.0</ele><time>2026-05-02T16:16:32Z</time></trkpt><trkpt lat="45.761132793182945" lon="4.622665950946089"><ele>686.0</ele><time>2026-05-02T16:16:33Z</time></trkpt><trkpt lat="45.76111937183242" lon="4.622476909158699"><ele>681.25</ele><time>2026-05-02T16:16:34Z</time></trkpt><trkpt lat="45.76112391973696" lon="4.62228424889615"><ele>676.5</ele><time>2026-05-02T16:16:35Z</time></trkpt><trkpt lat="45.76115630592163" lon="4.622073044380391"><ele>671.75</ele><time>2026-05-02T16:16:36Z</time></trkpt><trkpt lat="45.76118536861427" lon="4.62186019203238"><ele>667.0</ele><time>2026-05-02T16:16:37Z</time></trkpt><trkpt lat="45.76122620718714" lon="4.621625991920666"><ele>666.6666666666667</ele><time>2026-05-02T16:16:38Z</time></trkpt><trkpt lat="45.761261970931635" lon="4.621402317148683"><ele>666.3333333333334</ele><time>2026-05-02T16:16:39Z</time></trkpt><trkpt lat="45.76130644622178" lon="4.621189567393162"><ele>666.0</ele><time>2026-05-02T16:16:40Z</time></trkpt><trkpt lat="45.7613462265841" lon="4.6209964152766"><ele>666.0</ele><time>2026-05-02T16:16:41Z</time></trkpt><trkpt lat="45.76140816256784" lon="4.620812237348213"><ele>666.0</ele><time>2026-05-02T16:16:42Z</time></trkpt><trkpt lat="45.761475937165365" lon="4.620653780407775"><ele>666.0</ele><time>2026-05-02T16:16:43Z</time></trkpt><trkpt lat="45.76151685302781" lon="4.620499502326195"><ele>666.0</ele><time>2026-05-02T16:16:44Z</time></trkpt><trkpt lat="45.76155345881963" lon="4.620320198473455"><ele>667.0</ele><time>2026-05-02T16:16:45Z</time></trkpt><trkpt lat="45.761561239371446" lon="4.620126641627196"><ele>668.0</ele><time>2026-05-02T16:16:46Z</time></trkpt><trkpt lat="45.76155306813206" lon="4.619926654242738"><ele>669.0</ele><time>2026-05-02T16:16:47Z</time></trkpt><trkpt lat="45.76156052765156" lon="4.619749773003146"><ele>670.0</ele><time>2026-05-02T16:16:48Z</time></trkpt><trkpt lat="45.76156107038822" lon="4.619579716810004"><ele>667.6</ele><time>2026-05-02T16:16:49Z</time></trkpt><trkpt lat="45.76154183013405" lon="4.619451839190779"><ele>665.2</ele><time>2026-05-02T16:16:50Z</time></trkpt><trkpt lat="45.76151049198779" lon="4.619323874640126"><ele>662.8</ele><time>2026-05-02T16:16:51Z</time></trkpt><trkpt lat="45.76145052510561" lon="4.619214446287502"><ele>660.4</ele><time>2026-05-02T16:16:52Z</time></trkpt><trkpt lat="45.76136409081032" lon="4.619126211658564"><ele>658.0</ele><time>2026-05-02T16:16:53Z</time></trkpt><trkpt lat="45.761264125800295" lon="4.61908325410763"><ele>658.0</ele><time>2026-05-02T16:16:54Z</time></trkpt><trkpt lat="45.76115407738873" lon="4.619096189018759"><ele>658.0</ele><time>2026-05-02T16:16:55Z</time></trkpt><trkpt lat="45.76104538941866" lon="4.619141233010744"><ele>658.0</ele><time>2026-05-02T16:16:56Z</time></trkpt><trkpt lat="45.76094845032115" lon="4.619169703866472"><ele>658.0</ele><time>2026-05-02T16:16:57Z</time></trkpt><trkpt lat="45.76086052384505" lon="4.619195874733578"><ele>658.0</ele><time>2026-05-02T16:16:58Z</time></trkpt><trkpt lat="45.76076550810558" lon="4.619186951904666"><ele>661.0</ele><time>2026-05-02T16:16:59Z</time></trkpt><trkpt lat="45.7606646602244" lon="4.619131592676916"><ele>664.0</ele><time>2026-05-02T16:16:59.999Z</time></trkpt><trkpt lat="45.76058897225253" lon="4.619006635245962"><ele>667.0</ele><time>2026-05-02T16:17:00.999Z</time></trkpt><trkpt lat="45.76051832698295" lon="4.618864748478658"><ele>670.0</ele><time>2026-05-02T16:17:01.999Z</time></trkpt><trkpt lat="45.76043574924325" lon="4.618720405245576"><ele>663.75</ele><time>2026-05-02T16:17:02.999Z</time></trkpt><trkpt lat="45.76036523970106" lon="4.618569295927044"><ele>657.5</ele><time>2026-05-02T16:17:03.999Z</time></trkpt><trkpt lat="45.76033480526011" lon="4.618404101914808"><ele>651.25</ele><time>2026-05-02T16:17:04.999Z</time></trkpt><trkpt lat="45.76033094384909" lon="4.618250414915497"><ele>645.0</ele><time>2026-05-02T16:17:05.999Z</time></trkpt><trkpt lat="45.76033453678285" lon="4.618088939422347"><ele>645.0</ele><time>2026-05-02T16:17:06.999Z</time></trkpt><trkpt lat="45.76036478145904" lon="4.617904635450101"><ele>645.0</ele><time>2026-05-02T16:17:07.999Z</time></trkpt><trkpt lat="45.76036309823294" lon="4.617709761079718"><ele>645.0</ele><time>2026-05-02T16:17:08.999Z</time></trkpt><trkpt lat="45.76035438462913" lon="4.617526800728348"><ele>645.0</ele><time>2026-05-02T16:17:09.999Z</time></trkpt><trkpt lat="45.76034414334835" lon="4.6173639343425865"><ele>643.0</ele><time>2026-05-02T16:17:10.999Z</time></trkpt><trkpt lat="45.76034225748936" lon="4.617199123213499"><ele>641.0</ele><time>2026-05-02T16:17:11.999Z</time></trkpt><trkpt lat="45.76035550416707" lon="4.616992032267627"><ele>639.0</ele><time>2026-05-02T16:17:12.999Z</time></trkpt><trkpt lat="45.760390748909245" lon="4.616807661913069"><ele>637.0</ele><time>2026-05-02T16:17:13.999Z</time></trkpt><trkpt lat="45.76043222011177" lon="4.616632553167859"><ele>637.0</ele><time>2026-05-02T16:17:14.999Z</time></trkpt><trkpt lat="45.76048563499532" lon="4.616455487086602"><ele>637.0</ele><time>2026-05-02T16:17:15.999Z</time></trkpt><trkpt lat="45.760538884722166" lon="4.616276375948227"><ele>637.0</ele><time>2026-05-02T16:17:16.999Z</time></trkpt><trkpt lat="45.760588387247445" lon="4.616126831059078"><ele>637.0</ele><time>2026-05-02T16:17:17.999Z</time></trkpt><trkpt lat="45.76063339973929" lon="4.61601080453509"><ele>637.8</ele><time>2026-05-02T16:17:18.999Z</time></trkpt><trkpt lat="45.760672733193516" lon="4.615893019809954"><ele>638.6</ele><time>2026-05-02T16:17:19.999Z</time></trkpt><trkpt lat="45.76068637908175" lon="4.6157682418547346"><ele>639.4</ele><time>2026-05-02T16:17:20.999Z</time></trkpt><trkpt lat="45.76068268527654" lon="4.6156589032112265"><ele>640.1999999999999</ele><time>2026-05-02T16:17:21.999Z</time></trkpt><trkpt lat="45.760637455476136" lon="4.615529846785166"><ele>641.0</ele><time>2026-05-02T16:17:22.999Z</time></trkpt><trkpt lat="45.760565871794064" lon="4.615408126688788"><ele>641.8</ele><time>2026-05-02T16:17:23.999Z</time></trkpt><trkpt lat="45.76047103150835" lon="4.615302994888361"><ele>642.5999999999999</ele><time>2026-05-02T16:17:24.999Z</time></trkpt><trkpt lat="45.76037037799661" lon="4.61520072011995"><ele>643.4</ele><time>2026-05-02T16:17:25.999Z</time></trkpt><trkpt lat="45.76028655109653" lon="4.615111394050062"><ele>644.2</ele><time>2026-05-02T16:17:26.999Z</time></trkpt><trkpt lat="45.760231765972534" lon="4.615045089968425"><ele>645.0</ele><time>2026-05-02T16:17:27.999Z</time></trkpt><trkpt lat="45.76017706800747" lon="4.61494773043919"><ele>645.0</ele><time>2026-05-02T16:17:28.999Z</time></trkpt><trkpt lat="45.760152225982345" lon="4.614837610504609"><ele>645.0</ele><time>2026-05-02T16:17:29.999Z</time></trkpt><trkpt lat="45.76016263379349" lon="4.614710805033647"><ele>645.0</ele><time>2026-05-02T16:17:30.999Z</time></trkpt><trkpt lat="45.76023878673809" lon="4.6145622451132144"><ele>645.0</ele><time>2026-05-02T16:17:31.999Z</time></trkpt><trkpt lat="45.76032033852783" lon="4.614417164700832"><ele>645.0</ele><time>2026-05-02T16:17:32.999Z</time></trkpt><trkpt lat="45.76039414603161" lon="4.614235121220799"><ele>638.3333333333334</ele><time>2026-05-02T16:17:33.999Z</time></trkpt><trkpt lat="45.760463120145396" lon="4.61403042374096"><ele>631.6666666666667</ele><time>2026-05-02T16:17:34.999Z</time></trkpt><trkpt lat="45.76053207834496" lon="4.6138130435979505"><ele>625.0</ele><time>2026-05-02T16:17:35.999Z</time></trkpt><trkpt lat="45.76058731571478" lon="4.613610530483117"><ele>625.0</ele><time>2026-05-02T16:17:36.999Z</time></trkpt><trkpt lat="45.760628328368384" lon="4.613369160702399"><ele>625.0</ele><time>2026-05-02T16:17:37.999Z</time></trkpt><trkpt lat="45.76065871587276" lon="4.613150075367504"><ele>625.0</ele><time>2026-05-02T16:17:38.999Z</time></trkpt><trkpt lat="45.76067228028576" lon="4.6129372949226894"><ele>625.75</ele><time>2026-05-02T16:17:39.999Z</time></trkpt><trkpt lat="45.76067740648707" lon="4.612732265751925"><ele>626.5</ele><time>2026-05-02T16:17:40.999Z</time></trkpt><trkpt lat="45.76066427584713" lon="4.6125230888666815"><ele>627.25</ele><time>2026-05-02T16:17:41.999Z</time></trkpt><trkpt lat="45.760657511594914" lon="4.612321631859268"><ele>628.0</ele><time>2026-05-02T16:17:42.999Z</time></trkpt><trkpt lat="45.760661253786985" lon="4.612145723717263"><ele>628.0</ele><time>2026-05-02T16:17:43.999Z</time></trkpt><trkpt lat="45.760690670217365" lon="4.61199880866979"><ele>628.0</ele><time>2026-05-02T16:17:44.999Z</time></trkpt><trkpt lat="45.760785674178166" lon="4.6118877424037565"><ele>628.0</ele><time>2026-05-02T16:17:45.999Z</time></trkpt><trkpt lat="45.760880539839356" lon="4.611796465541645"><ele>628.0</ele><time>2026-05-02T16:17:46.999Z</time></trkpt><trkpt lat="45.760988081853114" lon="4.6117474241134415"><ele>624.0</ele><time>2026-05-02T16:17:47.999Z</time></trkpt><trkpt lat="45.76111927076156" lon="4.611733967017862"><ele>620.0</ele><time>2026-05-02T16:17:48.999Z</time></trkpt><trkpt lat="45.761271878873096" lon="4.611743669512607"><ele>616.0</ele><time>2026-05-02T16:17:49.999Z</time></trkpt><trkpt lat="45.76141544539366" lon="4.611740461028618"><ele>612.0</ele><time>2026-05-02T16:17:51Z</time></trkpt><trkpt lat="45.761554388934265" lon="4.611706643126195"><ele>612.0</ele><time>2026-05-02T16:17:52Z</time></trkpt><trkpt lat="45.76168047341466" lon="4.611649589303439"><ele>612.0</ele><time>2026-05-02T16:17:53Z</time></trkpt><trkpt lat="45.76180407582208" lon="4.6115531374478875"><ele>612.0</ele><time>2026-05-02T16:17:54Z</time></trkpt><trkpt lat="45.76191451488624" lon="4.61141887056734"><ele>612.0</ele><time>2026-05-02T16:17:55Z</time></trkpt><trkpt lat="45.76201290067037" lon="4.611261306306276"><ele>612.5</ele><time>2026-05-02T16:17:56Z</time></trkpt><trkpt lat="45.76210634888748" lon="4.611097538394468"><ele>613.0</ele><time>2026-05-02T16:17:57Z</time></trkpt><trkpt lat="45.76217206573211" lon="4.610982925949524"><ele>613.5</ele><time>2026-05-02T16:17:58Z</time></trkpt><trkpt lat="45.76226544300662" lon="4.610897448490572"><ele>614.0</ele><time>2026-05-02T16:17:59Z</time></trkpt><trkpt lat="45.76239986472351" lon="4.610848373802917"><ele>614.0</ele><time>2026-05-02T16:18:00Z</time></trkpt><trkpt lat="45.76255475786858" lon="4.610834868972631"><ele>614.0</ele><time>2026-05-02T16:18:01Z</time></trkpt><trkpt lat="45.76271020111726" lon="4.610825238852058"><ele>614.0</ele><time>2026-05-02T16:18:02Z</time></trkpt><trkpt lat="45.762845033387904" lon="4.610780787206253"><ele>614.0</ele><time>2026-05-02T16:18:03Z</time></trkpt><trkpt lat="45.762997590609324" lon="4.610681782715116"><ele>618.0</ele><time>2026-05-02T16:18:04Z</time></trkpt><trkpt lat="45.76315156176685" lon="4.610540608727284"><ele>622.0</ele><time>2026-05-02T16:18:05Z</time></trkpt><trkpt lat="45.76332387878292" lon="4.610408151506015"><ele>626.0</ele><time>2026-05-02T16:18:06Z</time></trkpt><trkpt lat="45.76349447271894" lon="4.610300594336351"><ele>618.3333333333333</ele><time>2026-05-02T16:18:07Z</time></trkpt><trkpt lat="45.763661967313325" lon="4.610215237167957"><ele>610.6666666666666</ele><time>2026-05-02T16:18:08Z</time></trkpt><trkpt lat="45.76383114424082" lon="4.610134091430324"><ele>603.0</ele><time>2026-05-02T16:18:09Z</time></trkpt><trkpt lat="45.76397527630845" lon="4.6100821408408414"><ele>603.0</ele><time>2026-05-02T16:18:10Z</time></trkpt><trkpt lat="45.76412793043328" lon="4.61003771688358"><ele>603.0</ele><time>2026-05-02T16:18:11Z</time></trkpt><trkpt lat="45.764268940173395" lon="4.610001698829944"><ele>603.0</ele><time>2026-05-02T16:18:12Z</time></trkpt><trkpt lat="45.76441019850337" lon="4.60999546607783"><ele>603.0</ele><time>2026-05-02T16:18:13Z</time></trkpt><trkpt lat="45.76453805416959" lon="4.609985276794096"><ele>599.0</ele><time>2026-05-02T16:18:14Z</time></trkpt><trkpt lat="45.764653059263004" lon="4.609947152847459"><ele>595.0</ele><time>2026-05-02T16:18:15Z</time></trkpt><trkpt lat="45.76476127032988" lon="4.609896258094385"><ele>591.0</ele><time>2026-05-02T16:18:16Z</time></trkpt><trkpt lat="45.76485880407469" lon="4.6098162705606525"><ele>587.0</ele><time>2026-05-02T16:18:17Z</time></trkpt><trkpt lat="45.76495305468218" lon="4.609694032219166"><ele>587.0</ele><time>2026-05-02T16:18:18Z</time></trkpt><trkpt lat="45.76501268207846" lon="4.609552457892451"><ele>587.0</ele><time>2026-05-02T16:18:19Z</time></trkpt><trkpt lat="45.765034367626555" lon="4.609383658498256"><ele>587.0</ele><time>2026-05-02T16:18:20Z</time></trkpt><trkpt lat="45.7650444888017" lon="4.609192721711371"><ele>587.0</ele><time>2026-05-02T16:18:21Z</time></trkpt><trkpt lat="45.76506957506389" lon="4.608998608303129"><ele>587.6</ele><time>2026-05-02T16:18:22Z</time></trkpt><trkpt lat="45.76509720697716" lon="4.608822835173688"><ele>588.2</ele><time>2026-05-02T16:18:23Z</time></trkpt><trkpt lat="45.765113492032626" lon="4.608673843237684"><ele>588.8</ele><time>2026-05-02T16:18:24Z</time></trkpt><trkpt lat="45.76509625714853" lon="4.608547603711091"><ele>589.4</ele><time>2026-05-02T16:18:25Z</time></trkpt><trkpt lat="45.76505280843036" lon="4.608409293841238"><ele>590.0</ele><time>2026-05-02T16:18:26Z</time></trkpt><trkpt lat="45.764954820737955" lon="4.608309434234703"><ele>588.25</ele><time>2026-05-02T16:18:27Z</time></trkpt><trkpt lat="45.76484780308241" lon="4.608213093846053"><ele>586.5</ele><time>2026-05-02T16:18:28Z</time></trkpt><trkpt lat="45.76471707762957" lon="4.6081146891998745"><ele>584.75</ele><time>2026-05-02T16:18:29Z</time></trkpt><trkpt lat="45.764580412089664" lon="4.608021407419868"><ele>583.0</ele><time>2026-05-02T16:18:30Z</time></trkpt><trkpt lat="45.76447097636524" lon="4.607949072251092"><ele>583.0</ele><time>2026-05-02T16:18:31Z</time></trkpt><trkpt lat="45.764384730021476" lon="4.607884399599846"><ele>583.0</ele><time>2026-05-02T16:18:32Z</time></trkpt><trkpt lat="45.76430927707861" lon="4.607809045035262"><ele>583.0</ele><time>2026-05-02T16:18:33Z</time></trkpt><trkpt lat="45.76424958077253" lon="4.607704133271302"><ele>583.0</ele><time>2026-05-02T16:18:34Z</time></trkpt><trkpt lat="45.76421865826823" lon="4.607581180516225"><ele>583.0</ele><time>2026-05-02T16:18:35Z</time></trkpt><trkpt lat="45.76420295833316" lon="4.6074537034566125"><ele>583.25</ele><time>2026-05-02T16:18:36Z</time></trkpt><trkpt lat="45.76420620814879" lon="4.607246706815588"><ele>583.5</ele><time>2026-05-02T16:18:37Z</time></trkpt><trkpt lat="45.764218670511326" lon="4.60705083660293"><ele>583.75</ele><time>2026-05-02T16:18:38Z</time></trkpt><trkpt lat="45.764224202738184" lon="4.606839068579656"><ele>584.0</ele><time>2026-05-02T16:18:39Z</time></trkpt><trkpt lat="45.76420805161261" lon="4.606623253858797"><ele>583.25</ele><time>2026-05-02T16:18:40Z</time></trkpt><trkpt lat="45.76420772725558" lon="4.606420847405072"><ele>582.5</ele><time>2026-05-02T16:18:41Z</time></trkpt><trkpt lat="45.764188607072064" lon="4.606226725385248"><ele>581.75</ele><time>2026-05-02T16:18:42Z</time></trkpt><trkpt lat="45.764174343800576" lon="4.606077046946245"><ele>581.0</ele><time>2026-05-02T16:18:43Z</time></trkpt><trkpt lat="45.76416360482516" lon="4.605880375860964"><ele>581.0</ele><time>2026-05-02T16:18:44Z</time></trkpt><trkpt lat="45.76416760595766" lon="4.605700881793687"><ele>581.0</ele><time>2026-05-02T16:18:45Z</time></trkpt><trkpt lat="45.76418171724403" lon="4.605498124243547"><ele>581.0</ele><time>2026-05-02T16:18:46Z</time></trkpt><trkpt lat="45.76424658759586" lon="4.605283062943638"><ele>581.0</ele><time>2026-05-02T16:18:47Z</time></trkpt><trkpt lat="45.76431802386923" lon="4.605070649587761"><ele>571.3333333333333</ele><time>2026-05-02T16:18:48Z</time></trkpt><trkpt lat="45.76439128953452" lon="4.604860382749065"><ele>561.6666666666666</ele><time>2026-05-02T16:18:49Z</time></trkpt><trkpt lat="45.76446667546894" lon="4.604645418930662"><ele>552.0</ele><time>2026-05-02T16:18:50Z</time></trkpt><trkpt lat="45.76454169486465" lon="4.60442322362563"><ele>552.0</ele><time>2026-05-02T16:18:51Z</time></trkpt><trkpt lat="45.764591407081475" lon="4.604221467488077"><ele>552.0</ele><time>2026-05-02T16:18:52Z</time></trkpt><trkpt lat="45.7646375580646" lon="4.604050578536316"><ele>552.0</ele><time>2026-05-02T16:18:53Z</time></trkpt><trkpt lat="45.764684285834974" lon="4.603848145117671"><ele>552.0</ele><time>2026-05-02T16:18:54Z</time></trkpt><trkpt lat="45.76471083667903" lon="4.603655717834796"><ele>551.5</ele><time>2026-05-02T16:18:55Z</time></trkpt><trkpt lat="45.76470084305153" lon="4.603474986297414"><ele>551.0</ele><time>2026-05-02T16:18:56Z</time></trkpt><trkpt lat="45.76471542291543" lon="4.603309287644716"><ele>550.5</ele><time>2026-05-02T16:18:57Z</time></trkpt><trkpt lat="45.764712937997786" lon="4.603147715909767"><ele>550.0</ele><time>2026-05-02T16:18:58Z</time></trkpt><trkpt lat="45.764719863258144" lon="4.602998439057754"><ele>550.0</ele><time>2026-05-02T16:18:59Z</time></trkpt><trkpt lat="45.76475902963568" lon="4.6028634225416845"><ele>550.0</ele><time>2026-05-02T16:19:00Z</time></trkpt><trkpt lat="45.764831905480676" lon="4.602734108939236"><ele>550.0</ele><time>2026-05-02T16:19:01Z</time></trkpt><trkpt lat="45.76492441996738" lon="4.6026046648986805"><ele>550.0</ele><time>2026-05-02T16:19:02Z</time></trkpt><trkpt lat="45.765042108767894" lon="4.602522485563825"><ele>547.5</ele><time>2026-05-02T16:19:03Z</time></trkpt><trkpt lat="45.7651707836042" lon="4.6024057013350905"><ele>545.0</ele><time>2026-05-02T16:19:04Z</time></trkpt><trkpt lat="45.765280383151996" lon="4.602299711893277"><ele>542.5</ele><time>2026-05-02T16:19:05Z</time></trkpt><trkpt lat="45.76538336210171" lon="4.602205694857523"><ele>540.0</ele><time>2026-05-02T16:19:06Z</time></trkpt><trkpt lat="45.76551329601765" lon="4.602135624302354"><ele>540.0</ele><time>2026-05-02T16:19:07Z</time></trkpt><trkpt lat="45.76569353606514" lon="4.602077070133569"><ele>540.0</ele><time>2026-05-02T16:19:08Z</time></trkpt><trkpt lat="45.76588267874698" lon="4.602027190336346"><ele>540.0</ele><time>2026-05-02T16:19:09Z</time></trkpt><trkpt lat="45.766077276138304" lon="4.601971157174685"><ele>543.3333333333334</ele><time>2026-05-02T16:19:10Z</time></trkpt><trkpt lat="45.76627614890946" lon="4.601909640673364"><ele>546.6666666666667</ele><time>2026-05-02T16:19:11Z</time></trkpt><trkpt lat="45.7664685929471" lon="4.601839266059267"><ele>550.0</ele><time>2026-05-02T16:19:12Z</time></trkpt><trkpt lat="45.76664026207346" lon="4.601789137612179"><ele>550.0</ele><time>2026-05-02T16:19:13Z</time></trkpt><trkpt lat="45.766786392639105" lon="4.60175717229505"><ele>550.0</ele><time>2026-05-02T16:19:14Z</time></trkpt><trkpt lat="45.76693196878806" lon="4.601751388127596"><ele>550.0</ele><time>2026-05-02T16:19:15Z</time></trkpt><trkpt lat="45.767076319785794" lon="4.601795826123405"><ele>550.0</ele><time>2026-05-02T16:19:16Z</time></trkpt><trkpt lat="45.767220915615944" lon="4.601858586908097"><ele>548.3333333333334</ele><time>2026-05-02T16:19:17Z</time></trkpt><trkpt lat="45.767377916244826" lon="4.601919054350156"><ele>546.6666666666666</ele><time>2026-05-02T16:19:18Z</time></trkpt><trkpt lat="45.7675381486931" lon="4.601948270924748"><ele>545.0</ele><time>2026-05-02T16:19:19Z</time></trkpt><trkpt lat="45.767689972967254" lon="4.601962149648795"><ele>542.3333333333333</ele><time>2026-05-02T16:19:20Z</time></trkpt><trkpt lat="45.76787502909633" lon="4.601964293997471"><ele>539.6666666666666</ele><time>2026-05-02T16:19:21Z</time></trkpt><trkpt lat="45.768059089601216" lon="4.601961705761419"><ele>537.0</ele><time>2026-05-02T16:19:22Z</time></trkpt><trkpt lat="45.768220395810424" lon="4.601946706356393"><ele>537.0</ele><time>2026-05-02T16:19:23Z</time></trkpt><trkpt lat="45.76837751241866" lon="4.601903386884985"><ele>537.0</ele><time>2026-05-02T16:19:24Z</time></trkpt><trkpt lat="45.76850717538761" lon="4.601863482468685"><ele>537.0</ele><time>2026-05-02T16:19:25Z</time></trkpt><trkpt lat="45.768616663107245" lon="4.601831994580075"><ele>537.0</ele><time>2026-05-02T16:19:26Z</time></trkpt><trkpt lat="45.768729542829725" lon="4.601820719182164"><ele>534.25</ele><time>2026-05-02T16:19:27Z</time></trkpt><trkpt lat="45.76886792915675" lon="4.601842936198788"><ele>531.5</ele><time>2026-05-02T16:19:28Z</time></trkpt><trkpt lat="45.76899116733416" lon="4.601950417220614"><ele>528.75</ele><time>2026-05-02T16:19:29Z</time></trkpt><trkpt lat="45.76909612329083" lon="4.60208744336305"><ele>526.0</ele><time>2026-05-02T16:19:29.999Z</time></trkpt><trkpt lat="45.76919636493874" lon="4.602202682661495"><ele>523.8</ele><time>2026-05-02T16:19:30.999Z</time></trkpt><trkpt lat="45.76927022122812" lon="4.602318102745434"><ele>521.6</ele><time>2026-05-02T16:19:31.999Z</time></trkpt><trkpt lat="45.76935370895439" lon="4.602414152728971"><ele>519.4</ele><time>2026-05-02T16:19:32.999Z</time></trkpt><trkpt lat="45.769433469933546" lon="4.602493738490564"><ele>517.2</ele><time>2026-05-02T16:19:33.999Z</time></trkpt><trkpt lat="45.76952031654587" lon="4.6025407229320185"><ele>515.0</ele><time>2026-05-02T16:19:34.999Z</time></trkpt><trkpt lat="45.76961825636281" lon="4.602540283739589"><ele>514.0</ele><time>2026-05-02T16:19:35.999Z</time></trkpt><trkpt lat="45.76970156198021" lon="4.602479925489615"><ele>513.0</ele><time>2026-05-02T16:19:36.999Z</time></trkpt><trkpt lat="45.769755056431" lon="4.602356835051715"><ele>512.0</ele><time>2026-05-02T16:19:37.999Z</time></trkpt><trkpt lat="45.76977871833979" lon="4.602210870404268"><ele>511.0</ele><time>2026-05-02T16:19:38.999Z</time></trkpt><trkpt lat="45.769805495851266" lon="4.602047225361017"><ele>510.0</ele><time>2026-05-02T16:19:39.999Z</time></trkpt><trkpt lat="45.76982761739928" lon="4.60186561274546"><ele>509.25</ele><time>2026-05-02T16:19:40.999Z</time></trkpt><trkpt lat="45.76985013824502" lon="4.60167039890501"><ele>508.5</ele><time>2026-05-02T16:19:41.999Z</time></trkpt><trkpt lat="45.76985088140362" lon="4.601486249530166"><ele>507.75</ele><time>2026-05-02T16:19:42.999Z</time></trkpt><trkpt lat="45.76985621685628" lon="4.601287874605375"><ele>507.0</ele><time>2026-05-02T16:19:43.999Z</time></trkpt><trkpt lat="45.76984590712712" lon="4.601074058989529"><ele>506.0</ele><time>2026-05-02T16:19:44.999Z</time></trkpt><trkpt lat="45.76983205932472" lon="4.600856301759019"><ele>505.0</ele><time>2026-05-02T16:19:45.999Z</time></trkpt><trkpt lat="45.76981462358438" lon="4.600624977619756"><ele>504.0</ele><time>2026-05-02T16:19:46.999Z</time></trkpt><trkpt lat="45.76981299324298" lon="4.600387405479873"><ele>503.0</ele><time>2026-05-02T16:19:47.999Z</time></trkpt><trkpt lat="45.769798435298235" lon="4.600148138346496"><ele>502.0</ele><time>2026-05-02T16:19:48.999Z</time></trkpt><trkpt lat="45.76977518362531" lon="4.599921169871439"><ele>501.0</ele><time>2026-05-02T16:19:49.999Z</time></trkpt><trkpt lat="45.76975318470291" lon="4.5996956942019835"><ele>499.33333333333337</ele><time>2026-05-02T16:19:50.999Z</time></trkpt><trkpt lat="45.76970071822568" lon="4.599467859580893"><ele>497.6666666666667</ele><time>2026-05-02T16:19:51.999Z</time></trkpt><trkpt lat="45.76967944611303" lon="4.59921927020926"><ele>496.0</ele><time>2026-05-02T16:19:52.999Z</time></trkpt><trkpt lat="45.76964860466215" lon="4.598978040951932"><ele>496.0</ele><time>2026-05-02T16:19:53.999Z</time></trkpt><trkpt lat="45.76963949426697" lon="4.598736996040696"><ele>496.0</ele><time>2026-05-02T16:19:54.999Z</time></trkpt><trkpt lat="45.769638405352566" lon="4.598509551901987"><ele>496.0</ele><time>2026-05-02T16:19:55.999Z</time></trkpt><trkpt lat="45.76963513490536" lon="4.598300989610457"><ele>496.75</ele><time>2026-05-02T16:19:57Z</time></trkpt><trkpt lat="45.76963168597197" lon="4.598107920522701"><ele>497.5</ele><time>2026-05-02T16:19:58Z</time></trkpt><trkpt lat="45.769628141047264" lon="4.597935115729451"><ele>498.25</ele><time>2026-05-02T16:19:59Z</time></trkpt><trkpt lat="45.76962775515855" lon="4.597774863234944"><ele>499.0</ele><time>2026-05-02T16:20:00Z</time></trkpt><trkpt lat="45.7696271422145" lon="4.597587343583531"><ele>499.33333333333337</ele><time>2026-05-02T16:20:01Z</time></trkpt><trkpt lat="45.76965746517686" lon="4.597378943774399"><ele>499.66666666666663</ele><time>2026-05-02T16:20:02Z</time></trkpt><trkpt lat="45.76970730523789" lon="4.597157317208275"><ele>500.0</ele><time>2026-05-02T16:20:03Z</time></trkpt><trkpt lat="45.769758395050644" lon="4.596943172837363"><ele>499.0</ele><time>2026-05-02T16:20:04Z</time></trkpt><trkpt lat="45.76981107716423" lon="4.596744492731412"><ele>498.0</ele><time>2026-05-02T16:20:05Z</time></trkpt><trkpt lat="45.769862780305196" lon="4.596553002324796"><ele>497.0</ele><time>2026-05-02T16:20:06Z</time></trkpt><trkpt lat="45.76990923765101" lon="4.596368470722208"><ele>496.0</ele><time>2026-05-02T16:20:07Z</time></trkpt><trkpt lat="45.76992937952371" lon="4.596164277001848"><ele>494.6666666666667</ele><time>2026-05-02T16:20:08Z</time></trkpt><trkpt lat="45.769926070367994" lon="4.595943757563407"><ele>493.33333333333337</ele><time>2026-05-02T16:20:09Z</time></trkpt><trkpt lat="45.76990980521657" lon="4.595699449591013"><ele>492.0</ele><time>2026-05-02T16:20:10Z</time></trkpt><trkpt lat="45.769886378416544" lon="4.5954474142530195"><ele>491.0</ele><time>2026-05-02T16:20:11Z</time></trkpt><trkpt lat="45.76987203744499" lon="4.595193081565942"><ele>490.0</ele><time>2026-05-02T16:20:12Z</time></trkpt><trkpt lat="45.769848475171386" lon="4.594941542658191"><ele>489.0</ele><time>2026-05-02T16:20:13Z</time></trkpt><trkpt lat="45.76982862494316" lon="4.594711623337144"><ele>488.0</ele><time>2026-05-02T16:20:14Z</time></trkpt><trkpt lat="45.76980242486653" lon="4.594497447401572"><ele>487.0</ele><time>2026-05-02T16:20:15Z</time></trkpt><trkpt lat="45.769749888945015" lon="4.594270387697033"><ele>486.0</ele><time>2026-05-02T16:20:16Z</time></trkpt><trkpt lat="45.76968595365974" lon="4.5940412400096795"><ele>486.0</ele><time>2026-05-02T16:20:17Z</time></trkpt><trkpt lat="45.76963480299267" lon="4.5938160300329995"><ele>486.0</ele><time>2026-05-02T16:20:18Z</time></trkpt><trkpt lat="45.769603726382535" lon="4.593602494361091"><ele>486.0</ele><time>2026-05-02T16:20:19Z</time></trkpt><trkpt lat="45.769581656558714" lon="4.593390382055487"><ele>484.66666666666663</ele><time>2026-05-02T16:20:20Z</time></trkpt><trkpt lat="45.76955788362254" lon="4.593167462542091"><ele>483.3333333333333</ele><time>2026-05-02T16:20:21Z</time></trkpt><trkpt lat="45.76956050404753" lon="4.592931319272435"><ele>482.0</ele><time>2026-05-02T16:20:22Z</time></trkpt><trkpt lat="45.76956270564502" lon="4.592702245590566"><ele>480.0</ele><time>2026-05-02T16:20:23Z</time></trkpt><trkpt lat="45.7695682893433" lon="4.5925207948841145"><ele>478.0</ele><time>2026-05-02T16:20:24Z</time></trkpt><trkpt lat="45.7695711956686" lon="4.592345840007829"><ele>476.0</ele><time>2026-05-02T16:20:25Z</time></trkpt><trkpt lat="45.769587252895974" lon="4.592135889248405"><ele>474.0</ele><time>2026-05-02T16:20:26Z</time></trkpt><trkpt lat="45.76962533402635" lon="4.591913681680463"><ele>470.0</ele><time>2026-05-02T16:20:27Z</time></trkpt><trkpt lat="45.76967977302578" lon="4.591687622822025"><ele>466.0</ele><time>2026-05-02T16:20:28Z</time></trkpt><trkpt lat="45.76972312146081" lon="4.5914812868564185"><ele>462.0</ele><time>2026-05-02T16:20:29Z</time></trkpt><trkpt lat="45.76976188492838" lon="4.591298273847416"><ele>460.5</ele><time>2026-05-02T16:20:30Z</time></trkpt><trkpt lat="45.76980746470271" lon="4.591124029338516"><ele>459.0</ele><time>2026-05-02T16:20:31Z</time></trkpt><trkpt lat="45.76983855817961" lon="4.590927064610204"><ele>457.5</ele><time>2026-05-02T16:20:32Z</time></trkpt><trkpt lat="45.76997414579486" lon="4.5907838514363934"><ele>456.0</ele><time>2026-05-02T16:20:33Z</time></trkpt><trkpt lat="45.770089628504735" lon="4.590635747405378"><ele>455.33333333333337</ele><time>2026-05-02T16:20:34Z</time></trkpt><trkpt lat="45.77021180847239" lon="4.5904646640161895"><ele>454.6666666666667</ele><time>2026-05-02T16:20:35Z</time></trkpt><trkpt lat="45.7703388870416" lon="4.590277009187332"><ele>454.0</ele><time>2026-05-02T16:20:36Z</time></trkpt><trkpt lat="45.77046077215818" lon="4.590060378964013"><ele>453.0</ele><time>2026-05-02T16:20:37Z</time></trkpt><trkpt lat="45.77057617681688" lon="4.5898252085527105"><ele>452.0</ele><time>2026-05-02T16:20:38Z</time></trkpt><trkpt lat="45.770683613158226" lon="4.5895928465982365"><ele>451.0</ele><time>2026-05-02T16:20:39Z</time></trkpt><trkpt lat="45.770778789513244" lon="4.589389951204807"><ele>451.0</ele><time>2026-05-02T16:20:40Z</time></trkpt><trkpt lat="45.77087561477864" lon="4.589220346822705"><ele>451.0</ele><time>2026-05-02T16:20:41Z</time></trkpt><trkpt lat="45.77098448245288" lon="4.5890748373952235"><ele>451.0</ele><time>2026-05-02T16:20:42Z</time></trkpt><trkpt lat="45.77111023653906" lon="4.5889709999738395"><ele>451.0</ele><time>2026-05-02T16:20:43Z</time></trkpt><trkpt lat="45.771251948141035" lon="4.588884982894954"><ele>446.0</ele><time>2026-05-02T16:20:44Z</time></trkpt><trkpt lat="45.77141224449564" lon="4.588817395567015"><ele>441.0</ele><time>2026-05-02T16:20:45Z</time></trkpt><trkpt lat="45.77158397791483" lon="4.588752331591829"><ele>436.0</ele><time>2026-05-02T16:20:46Z</time></trkpt><trkpt lat="45.77177328776393" lon="4.5886813283245615"><ele>436.6666666666667</ele><time>2026-05-02T16:20:47Z</time></trkpt><trkpt lat="45.77195966680619" lon="4.5886189052216"><ele>437.33333333333337</ele><time>2026-05-02T16:20:48Z</time></trkpt><trkpt lat="45.77214836329363" lon="4.5885644295999"><ele>438.0</ele><time>2026-05-02T16:20:49Z</time></trkpt><trkpt lat="45.772347137052414" lon="4.588528628319103"><ele>438.0</ele><time>2026-05-02T16:20:50Z</time></trkpt><trkpt lat="45.77254318570613" lon="4.588484540421302"><ele>438.0</ele><time>2026-05-02T16:20:51Z</time></trkpt><trkpt lat="45.772727035508616" lon="4.5884109974697544"><ele>438.0</ele><time>2026-05-02T16:20:52Z</time></trkpt><trkpt lat="45.772911030100865" lon="4.588338663552226"><ele>434.66666666666663</ele><time>2026-05-02T16:20:53Z</time></trkpt><trkpt lat="45.7730819911098" lon="4.588272288308355"><ele>431.3333333333333</ele><time>2026-05-02T16:20:54Z</time></trkpt><trkpt lat="45.773265395990855" lon="4.588232410701109"><ele>428.0</ele><time>2026-05-02T16:20:55Z</time></trkpt><trkpt lat="45.773465002186235" lon="4.5882397308699305"><ele>426.0</ele><time>2026-05-02T16:20:56Z</time></trkpt><trkpt lat="45.77367363080834" lon="4.588263127673401"><ele>424.0</ele><time>2026-05-02T16:20:57Z</time></trkpt><trkpt lat="45.77389094655016" lon="4.58827990298855"><ele>422.0</ele><time>2026-05-02T16:20:58Z</time></trkpt><trkpt lat="45.77411424653985" lon="4.588308978005617"><ele>422.0</ele><time>2026-05-02T16:20:59Z</time></trkpt><trkpt lat="45.774338305197276" lon="4.588324666215824"><ele>422.0</ele><time>2026-05-02T16:21:00Z</time></trkpt><trkpt lat="45.774553859293675" lon="4.588330343806606"><ele>422.0</ele><time>2026-05-02T16:21:01Z</time></trkpt><trkpt lat="45.774769626560605" lon="4.588347730963394"><ele>421.66666666666663</ele><time>2026-05-02T16:21:02Z</time></trkpt><trkpt lat="45.77498424581272" lon="4.5883707982716135"><ele>421.33333333333337</ele><time>2026-05-02T16:21:03Z</time></trkpt><trkpt lat="45.775184193108885" lon="4.588393442450903"><ele>421.0</ele><time>2026-05-02T16:21:04Z</time></trkpt><trkpt lat="45.77536203601033" lon="4.588454814035865"><ele>420.33333333333337</ele><time>2026-05-02T16:21:05Z</time></trkpt><trkpt lat="45.7755527855589" lon="4.588504529650714"><ele>419.66666666666663</ele><time>2026-05-02T16:21:06Z</time></trkpt><trkpt lat="45.77572943667727" lon="4.588552789292274"><ele>419.0</ele><time>2026-05-02T16:21:07Z</time></trkpt><trkpt lat="45.77590188169389" lon="4.588570572764419"><ele>416.66666666666663</ele><time>2026-05-02T16:21:08Z</time></trkpt><trkpt lat="45.77606923597646" lon="4.588591553951337"><ele>414.33333333333337</ele><time>2026-05-02T16:21:09Z</time></trkpt><trkpt lat="45.77624180722322" lon="4.588572716262695"><ele>412.0</ele><time>2026-05-02T16:21:10Z</time></trkpt><trkpt lat="45.77643564386921" lon="4.588534138984381"><ele>412.0</ele><time>2026-05-02T16:21:11Z</time></trkpt><trkpt lat="45.77664790491969" lon="4.588506698932479"><ele>412.0</ele><time>2026-05-02T16:21:12Z</time></trkpt><trkpt lat="45.77684878577343" lon="4.588438855606882"><ele>412.0</ele><time>2026-05-02T16:21:13Z</time></trkpt><trkpt lat="45.77704374510658" lon="4.588399234578428"><ele>408.0</ele><time>2026-05-02T16:21:14Z</time></trkpt><trkpt lat="45.77722536089492" lon="4.58840177652465"><ele>404.0</ele><time>2026-05-02T16:21:15Z</time></trkpt><trkpt lat="45.777382059852926" lon="4.588394651206784"><ele>400.0</ele><time>2026-05-02T16:21:16Z</time></trkpt><trkpt lat="45.77752667828383" lon="4.5883806072358215"><ele>400.0</ele><time>2026-05-02T16:21:17Z</time></trkpt><trkpt lat="45.77767784632277" lon="4.5883856548129325"><ele>400.0</ele><time>2026-05-02T16:21:18Z</time></trkpt><trkpt lat="45.777778784580306" lon="4.588388384434048"><ele>400.0</ele><time>2026-05-02T16:21:19Z</time></trkpt><trkpt lat="45.77794918072579" lon="4.588388349029848"><ele>400.0</ele><time>2026-05-02T16:21:20Z</time></trkpt><trkpt lat="45.77810111920657" lon="4.588384289227835"><ele>396.33333333333337</ele><time>2026-05-02T16:21:21Z</time></trkpt><trkpt lat="45.778240825381154" lon="4.5883549768965715"><ele>392.66666666666663</ele><time>2026-05-02T16:21:22Z</time></trkpt><trkpt lat="45.778403936505185" lon="4.5883155134429225"><ele>389.0</ele><time>2026-05-02T16:21:23Z</time></trkpt><trkpt lat="45.778574538217626" lon="4.588263785906094"><ele>384.66666666666663</ele><time>2026-05-02T16:21:24Z</time></trkpt><trkpt lat="45.778743850262266" lon="4.588181190481381"><ele>380.3333333333333</ele><time>2026-05-02T16:21:25Z</time></trkpt><trkpt lat="45.778916454959266" lon="4.588076165264851"><ele>376.0</ele><time>2026-05-02T16:21:26Z</time></trkpt><trkpt lat="45.77907721541246" lon="4.588005095884116"><ele>376.0</ele><time>2026-05-02T16:21:27Z</time></trkpt><trkpt lat="45.779226142446944" lon="4.5878952083361515"><ele>376.0</ele><time>2026-05-02T16:21:27.999Z</time></trkpt><trkpt lat="45.779368343841284" lon="4.58781361398688"><ele>376.0</ele><time>2026-05-02T16:21:28.999Z</time></trkpt><trkpt lat="45.7795049492379" lon="4.587711854294929"><ele>375.25</ele><time>2026-05-02T16:21:29.999Z</time></trkpt><trkpt lat="45.779623212549645" lon="4.587612844620009"><ele>374.5</ele><time>2026-05-02T16:21:30.999Z</time></trkpt><trkpt lat="45.779738149535035" lon="4.587545846691756"><ele>373.75</ele><time>2026-05-02T16:21:31.999Z</time></trkpt><trkpt lat="45.77985001417051" lon="4.587497126096472"><ele>373.0</ele><time>2026-05-02T16:21:32.999Z</time></trkpt><trkpt lat="45.77996073648301" lon="4.587461387099891"><ele>373.0</ele><time>2026-05-02T16:21:33.999Z</time></trkpt><trkpt lat="45.78007008081062" lon="4.5874242673736"><ele>373.0</ele><time>2026-05-02T16:21:34.999Z</time></trkpt><trkpt lat="45.78017003215234" lon="4.587384888294809"><ele>373.0</ele><time>2026-05-02T16:21:35.999Z</time></trkpt><trkpt lat="45.78026079713028" lon="4.587326806711702"><ele>373.0</ele><time>2026-05-02T16:21:36.999Z</time></trkpt><trkpt lat="45.78034468608607" lon="4.587251972691487"><ele>373.0</ele><time>2026-05-02T16:21:37.999Z</time></trkpt><trkpt lat="45.78041469759246" lon="4.587169146348955"><ele>370.25</ele><time>2026-05-02T16:21:38.999Z</time></trkpt><trkpt lat="45.78046744217564" lon="4.587041084212056"><ele>367.5</ele><time>2026-05-02T16:21:39.999Z</time></trkpt><trkpt lat="45.78049624442903" lon="4.58688043873053"><ele>364.75</ele><time>2026-05-02T16:21:40.999Z</time></trkpt><trkpt lat="45.780476723862435" lon="4.586709705256587"><ele>362.0</ele><time>2026-05-02T16:21:41.999Z</time></trkpt><trkpt lat="45.78042429400736" lon="4.586551232450932"><ele>361.5</ele><time>2026-05-02T16:21:42.999Z</time></trkpt><trkpt lat="45.780347680119334" lon="4.586404210502936"><ele>361.0</ele><time>2026-05-02T16:21:43.999Z</time></trkpt><trkpt lat="45.78024436969897" lon="4.586258600927671"><ele>360.5</ele><time>2026-05-02T16:21:44.999Z</time></trkpt><trkpt lat="45.78014791901184" lon="4.586112124634422"><ele>360.0</ele><time>2026-05-02T16:21:45.999Z</time></trkpt><trkpt lat="45.780068289204735" lon="4.585979043346749"><ele>360.75</ele><time>2026-05-02T16:21:46.999Z</time></trkpt><trkpt lat="45.78001880574056" lon="4.585814028600278"><ele>361.5</ele><time>2026-05-02T16:21:47.999Z</time></trkpt><trkpt lat="45.779998165889836" lon="4.585675150066788"><ele>362.25</ele><time>2026-05-02T16:21:48.999Z</time></trkpt><trkpt lat="45.78000554764303" lon="4.585493801283784"><ele>363.0</ele><time>2026-05-02T16:21:49.999Z</time></trkpt><trkpt lat="45.780032266199015" lon="4.585309223303239"><ele>363.0</ele><time>2026-05-02T16:21:50.999Z</time></trkpt><trkpt lat="45.78005226354779" lon="4.585122161044992"><ele>363.0</ele><time>2026-05-02T16:21:51.999Z</time></trkpt><trkpt lat="45.78007561840832" lon="4.584935028492682"><ele>363.0</ele><time>2026-05-02T16:21:52.999Z</time></trkpt><trkpt lat="45.78006410560601" lon="4.58473393809856"><ele>363.0</ele><time>2026-05-02T16:21:53.999Z</time></trkpt><trkpt lat="45.78003559736085" lon="4.584527253303965"><ele>361.25</ele><time>2026-05-02T16:21:54.999Z</time></trkpt><trkpt lat="45.780002799441704" lon="4.584361175214342"><ele>359.5</ele><time>2026-05-02T16:21:55.999Z</time></trkpt><trkpt lat="45.779966080746924" lon="4.58422278564589"><ele>357.75</ele><time>2026-05-02T16:21:56.999Z</time></trkpt><trkpt lat="45.779907165977285" lon="4.584091947494108"><ele>356.0</ele><time>2026-05-02T16:21:57.999Z</time></trkpt><trkpt lat="45.779829466441434" lon="4.583963304139172"><ele>356.0</ele><time>2026-05-02T16:21:58.999Z</time></trkpt><trkpt lat="45.77973652573091" lon="4.583836789903678"><ele>356.0</ele><time>2026-05-02T16:21:59.999Z</time></trkpt><trkpt lat="45.779646532492414" lon="4.583700562319021"><ele>356.0</ele><time>2026-05-02T16:22:00.999Z</time></trkpt><trkpt lat="45.779513289510675" lon="4.583605712609732"><ele>356.0</ele><time>2026-05-02T16:22:01.999Z</time></trkpt><trkpt lat="45.77936611773003" lon="4.583542074184751"><ele>355.5</ele><time>2026-05-02T16:22:03Z</time></trkpt><trkpt lat="45.779242781989645" lon="4.583442031680213"><ele>355.0</ele><time>2026-05-02T16:22:04Z</time></trkpt><trkpt lat="45.77913835432397" lon="4.5833571830514135"><ele>354.5</ele><time>2026-05-02T16:22:05Z</time></trkpt><trkpt lat="45.77905622505714" lon="4.583256213918305"><ele>354.0</ele><time>2026-05-02T16:22:06Z</time></trkpt><trkpt lat="45.7790036075439" lon="4.583121759631605"><ele>354.0</ele><time>2026-05-02T16:22:07Z</time></trkpt><trkpt lat="45.77897610952325" lon="4.5829676371990455"><ele>354.0</ele><time>2026-05-02T16:22:08Z</time></trkpt><trkpt lat="45.77895141277765" lon="4.582802281929422"><ele>354.0</ele><time>2026-05-02T16:22:09Z</time></trkpt><trkpt lat="45.778918852111886" lon="4.5826193417272565"><ele>354.0</ele><time>2026-05-02T16:22:10Z</time></trkpt><trkpt lat="45.778858641550094" lon="4.5824289335663755"><ele>350.25</ele><time>2026-05-02T16:22:11Z</time></trkpt><trkpt lat="45.778787579448945" lon="4.5822426955503435"><ele>346.5</ele><time>2026-05-02T16:22:12Z</time></trkpt><trkpt lat="45.77871394574921" lon="4.582068264139776"><ele>342.75</ele><time>2026-05-02T16:22:13Z</time></trkpt><trkpt lat="45.77863352583253" lon="4.581903861423569"><ele>339.0</ele><time>2026-05-02T16:22:14Z</time></trkpt><trkpt lat="45.778540500963814" lon="4.58174608046803"><ele>340.0</ele><time>2026-05-02T16:22:15Z</time></trkpt><trkpt lat="45.77843729402325" lon="4.5815946666230865"><ele>341.0</ele><time>2026-05-02T16:22:16Z</time></trkpt><trkpt lat="45.77832654410335" lon="4.581456503507459"><ele>342.0</ele><time>2026-05-02T16:22:17Z</time></trkpt><trkpt lat="45.77820990173818" lon="4.581334285683186"><ele>343.0</ele><time>2026-05-02T16:22:18Z</time></trkpt><trkpt lat="45.7780915592669" lon="4.581231847318209"><ele>341.5</ele><time>2026-05-02T16:22:19Z</time></trkpt><trkpt lat="45.777968373002345" lon="4.581153454742167"><ele>340.0</ele><time>2026-05-02T16:22:20Z</time></trkpt><trkpt lat="45.777851903631124" lon="4.581078703458074"><ele>338.5</ele><time>2026-05-02T16:22:21Z</time></trkpt><trkpt lat="45.77774943518994" lon="4.581000201721996"><ele>337.0</ele><time>2026-05-02T16:22:22Z</time></trkpt><trkpt lat="45.777671001464775" lon="4.580903820809559"><ele>337.0</ele><time>2026-05-02T16:22:23Z</time></trkpt><trkpt lat="45.77759566794781" lon="4.580808038705649"><ele>337.0</ele><time>2026-05-02T16:22:24Z</time></trkpt><trkpt lat="45.777493545821244" lon="4.580732157525984"><ele>337.0</ele><time>2026-05-02T16:22:25Z</time></trkpt><trkpt lat="45.77737355485031" lon="4.580667888048475"><ele>337.0</ele><time>2026-05-02T16:22:26Z</time></trkpt><trkpt lat="45.777253501671574" lon="4.580597448886071"><ele>337.0</ele><time>2026-05-02T16:22:27Z</time></trkpt><trkpt lat="45.77714996334558" lon="4.580571554501377"><ele>337.0</ele><time>2026-05-02T16:22:28Z</time></trkpt><trkpt lat="45.77705940736655" lon="4.580539235893405"><ele>337.0</ele><time>2026-05-02T16:22:29Z</time></trkpt><trkpt lat="45.77698352949497" lon="4.580506069017671"><ele>337.0</ele><time>2026-05-02T16:22:30Z</time></trkpt><trkpt lat="45.776917260750714" lon="4.580449244192967"><ele>337.0</ele><time>2026-05-02T16:22:31Z</time></trkpt><trkpt lat="45.77686431513282" lon="4.580370582112093"><ele>337.0</ele><time>2026-05-02T16:22:32Z</time></trkpt><trkpt lat="45.77687766567815" lon="4.580235533461205"><ele>335.0</ele><time>2026-05-02T16:22:33Z</time></trkpt><trkpt lat="45.77691281866673" lon="4.580111185766089"><ele>333.0</ele><time>2026-05-02T16:22:34Z</time></trkpt><trkpt lat="45.776985568230884" lon="4.580044913764657"><ele>331.0</ele><time>2026-05-02T16:22:35Z</time></trkpt><trkpt lat="45.777088595196254" lon="4.579961980903403"><ele>329.0</ele><time>2026-05-02T16:22:36Z</time></trkpt><trkpt lat="45.77721555458771" lon="4.579875094087287"><ele>327.0</ele><time>2026-05-02T16:22:37Z</time></trkpt><trkpt lat="45.77729882207999" lon="4.579752529855944"><ele>327.0</ele><time>2026-05-02T16:22:38Z</time></trkpt><trkpt lat="45.77736496025522" lon="4.579601045948808"><ele>327.0</ele><time>2026-05-02T16:22:39Z</time></trkpt><trkpt lat="45.77741121436589" lon="4.5794257948494455"><ele>327.0</ele><time>2026-05-02T16:22:40Z</time></trkpt><trkpt lat="45.77742337452446" lon="4.579251606737467"><ele>327.0</ele><time>2026-05-02T16:22:41Z</time></trkpt><trkpt lat="45.77741615120045" lon="4.579070227815811"><ele>325.5</ele><time>2026-05-02T16:22:42Z</time></trkpt><trkpt lat="45.777402724062725" lon="4.578907025803293"><ele>324.0</ele><time>2026-05-02T16:22:43Z</time></trkpt><trkpt lat="45.77736274061496" lon="4.578748450336917"><ele>322.5</ele><time>2026-05-02T16:22:44Z</time></trkpt><trkpt lat="45.77729773320872" lon="4.578581420774397"><ele>321.0</ele><time>2026-05-02T16:22:45Z</time></trkpt><trkpt lat="45.777230758101105" lon="4.578418161195617"><ele>320.0</ele><time>2026-05-02T16:22:46Z</time></trkpt><trkpt lat="45.77719942943868" lon="4.578230292458657"><ele>319.0</ele><time>2026-05-02T16:22:47Z</time></trkpt><trkpt lat="45.77716371420632" lon="4.578043610728365"><ele>318.0</ele><time>2026-05-02T16:22:48Z</time></trkpt><trkpt lat="45.77715972807884" lon="4.577863857958486"><ele>317.0</ele><time>2026-05-02T16:22:49Z</time></trkpt><trkpt lat="45.777093584543536" lon="4.577745087976749"><ele>319.75</ele><time>2026-05-02T16:22:50Z</time></trkpt><trkpt lat="45.77698793571378" lon="4.577657553909031"><ele>322.5</ele><time>2026-05-02T16:22:51Z</time></trkpt><trkpt lat="45.77688446231067" lon="4.577570521089151"><ele>325.25</ele><time>2026-05-02T16:22:52Z</time></trkpt><trkpt lat="45.77678363205331" lon="4.577460501077391"><ele>328.0</ele><time>2026-05-02T16:22:53Z</time></trkpt><trkpt lat="45.77671041475694" lon="4.577305029931234"><ele>328.0</ele><time>2026-05-02T16:22:54Z</time></trkpt><trkpt lat="45.77663972524404" lon="4.577130731596359"><ele>328.0</ele><time>2026-05-02T16:22:55Z</time></trkpt><trkpt lat="45.77658204203783" lon="4.576932527881011"><ele>328.0</ele><time>2026-05-02T16:22:56Z</time></trkpt><trkpt lat="45.77651552411305" lon="4.576717760857669"><ele>322.3333333333333</ele><time>2026-05-02T16:22:57Z</time></trkpt><trkpt lat="45.7764677330837" lon="4.576496662445847"><ele>316.6666666666667</ele><time>2026-05-02T16:22:58Z</time></trkpt><trkpt lat="45.77639480504025" lon="4.576282524463581"><ele>311.0</ele><time>2026-05-02T16:22:59Z</time></trkpt><trkpt lat="45.776343316561864" lon="4.576082583829519"><ele>306.25</ele><time>2026-05-02T16:23:00Z</time></trkpt><trkpt lat="45.776296142736726" lon="4.575889798028448"><ele>301.5</ele><time>2026-05-02T16:23:01Z</time></trkpt><trkpt lat="45.776244595163575" lon="4.575718102922743"><ele>296.75</ele><time>2026-05-02T16:23:02Z</time></trkpt><trkpt lat="45.77618321144623" lon="4.575564677209094"><ele>292.0</ele><time>2026-05-02T16:23:03Z</time></trkpt><trkpt lat="45.77608383792233" lon="4.575400407434469"><ele>296.66666666666663</ele><time>2026-05-02T16:23:04Z</time></trkpt><trkpt lat="45.77598427394857" lon="4.575198521680561"><ele>301.3333333333333</ele><time>2026-05-02T16:23:05Z</time></trkpt><trkpt lat="45.775882751076544" lon="4.5750224074221055"><ele>306.0</ele><time>2026-05-02T16:23:06Z</time></trkpt><trkpt lat="45.775781066414176" lon="4.574843901979056"><ele>306.0</ele><time>2026-05-02T16:23:07Z</time></trkpt><trkpt lat="45.77570463430657" lon="4.574676486678811"><ele>306.0</ele><time>2026-05-02T16:23:08Z</time></trkpt><trkpt lat="45.77565937461216" lon="4.574510393148876"><ele>306.0</ele><time>2026-05-02T16:23:09Z</time></trkpt><trkpt lat="45.775606000609635" lon="4.574309461259495"><ele>306.0</ele><time>2026-05-02T16:23:10Z</time></trkpt><trkpt lat="45.775524220863865" lon="4.574107370764427"><ele>301.75</ele><time>2026-05-02T16:23:11Z</time></trkpt><trkpt lat="45.77546176318774" lon="4.573910051309886"><ele>297.5</ele><time>2026-05-02T16:23:12Z</time></trkpt><trkpt lat="45.775376108666975" lon="4.573733882864603"><ele>293.25</ele><time>2026-05-02T16:23:13Z</time></trkpt><trkpt lat="45.77528696520332" lon="4.573585369295334"><ele>289.0</ele><time>2026-05-02T16:23:14Z</time></trkpt><trkpt lat="45.77519966557642" lon="4.573450263031104"><ele>290.25</ele><time>2026-05-02T16:23:15Z</time></trkpt><trkpt lat="45.77511137260502" lon="4.573319580051649"><ele>291.5</ele><time>2026-05-02T16:23:16Z</time></trkpt><trkpt lat="45.77502037761113" lon="4.573197031974635"><ele>292.75</ele><time>2026-05-02T16:23:17Z</time></trkpt><trkpt lat="45.774916452636326" lon="4.573081354621255"><ele>294.0</ele><time>2026-05-02T16:23:18Z</time></trkpt><trkpt lat="45.77479499666046" lon="4.572964719039378"><ele>291.5</ele><time>2026-05-02T16:23:19Z</time></trkpt><trkpt lat="45.7746737337463" lon="4.572852911047578"><ele>289.0</ele><time>2026-05-02T16:23:20Z</time></trkpt><trkpt lat="45.774553803079804" lon="4.572761235416597"><ele>286.5</ele><time>2026-05-02T16:23:21Z</time></trkpt><trkpt lat="45.77444306598528" lon="4.572681173297203"><ele>284.0</ele><time>2026-05-02T16:23:22Z</time></trkpt><trkpt lat="45.77433891798163" lon="4.572613511143575"><ele>284.0</ele><time>2026-05-02T16:23:23Z</time></trkpt><trkpt lat="45.77423862717118" lon="4.572551803710956"><ele>284.0</ele><time>2026-05-02T16:23:24Z</time></trkpt><trkpt lat="45.77415306470066" lon="4.572496466162329"><ele>284.0</ele><time>2026-05-02T16:23:25Z</time></trkpt><trkpt lat="45.77408236027646" lon="4.572442105995499"><ele>284.0</ele><time>2026-05-02T16:23:26Z</time></trkpt><trkpt lat="45.77401881728307" lon="4.5723695853322806"><ele>284.0</ele><time>2026-05-02T16:23:27Z</time></trkpt><trkpt lat="45.77397418670264" lon="4.572265319425455"><ele>284.0</ele><time>2026-05-02T16:23:28Z</time></trkpt><trkpt lat="45.773984850218866" lon="4.572115742546711"><ele>284.0</ele><time>2026-05-02T16:23:29Z</time></trkpt><trkpt lat="45.774042311231234" lon="4.571963087544851"><ele>284.0</ele><time>2026-05-02T16:23:30Z</time></trkpt><trkpt lat="45.774126645755416" lon="4.571815956823341"><ele>284.0</ele><time>2026-05-02T16:23:31Z</time></trkpt><trkpt lat="45.774220469605346" lon="4.571681548655398"><ele>282.0</ele><time>2026-05-02T16:23:32Z</time></trkpt><trkpt lat="45.77432110583485" lon="4.571561888337059"><ele>280.0</ele><time>2026-05-02T16:23:33Z</time></trkpt><trkpt lat="45.774415290280714" lon="4.571433708330419"><ele>278.0</ele><time>2026-05-02T16:23:34Z</time></trkpt><trkpt lat="45.77450557617059" lon="4.571298658012953"><ele>276.0</ele><time>2026-05-02T16:23:35Z</time></trkpt><trkpt lat="45.774590473230056" lon="4.571142448802578"><ele>275.8</ele><time>2026-05-02T16:23:35.999Z</time></trkpt><trkpt lat="45.7746415658676" lon="4.570990045996339"><ele>275.6</ele><time>2026-05-02T16:23:36.999Z</time></trkpt><trkpt lat="45.774670018802276" lon="4.570831207739597"><ele>275.4</ele><time>2026-05-02T16:23:37.999Z</time></trkpt><trkpt lat="45.774698981102524" lon="4.570691609247155"><ele>275.2</ele><time>2026-05-02T16:23:38.999Z</time></trkpt><trkpt lat="45.77471589079718" lon="4.570589556634571"><ele>275.0</ele><time>2026-05-02T16:23:39.999Z</time></trkpt><trkpt lat="45.77473570911014" lon="4.570487716251085"><ele>275.8</ele><time>2026-05-02T16:23:40.999Z</time></trkpt><trkpt lat="45.774780317291295" lon="4.570335300956636"><ele>276.6</ele><time>2026-05-02T16:23:42.999Z</time></trkpt><trkpt lat="45.77476413544447" lon="4.570187287581706"><ele>277.4</ele><time>2026-05-02T16:23:44.999Z</time></trkpt><trkpt lat="45.77470471577719" lon="4.57008020395253"><ele>278.2</ele><time>2026-05-02T16:23:46.999Z</time></trkpt><trkpt lat="45.77464750922959" lon="4.569928872182169"><ele>279.0</ele><time>2026-05-02T16:23:48.999Z</time></trkpt><trkpt lat="45.774630276398675" lon="4.569825458982112"><ele>279.0</ele><time>2026-05-02T16:23:49.999Z</time></trkpt><trkpt lat="45.77460494568085" lon="4.569706457433969"><ele>279.0</ele><time>2026-05-02T16:23:50.999Z</time></trkpt><trkpt lat="45.77456419930939" lon="4.569595669124135"><ele>279.0</ele><time>2026-05-02T16:23:51.999Z</time></trkpt><trkpt lat="45.77454330206021" lon="4.569487537652259"><ele>279.0</ele><time>2026-05-02T16:23:52.999Z</time></trkpt><trkpt lat="45.77452070645161" lon="4.569386359301746"><ele>279.0</ele><time>2026-05-02T16:23:53.999Z</time></trkpt><trkpt lat="45.774495180309344" lon="4.569277554729877"><ele>279.0</ele><time>2026-05-02T16:23:54.999Z</time></trkpt><trkpt lat="45.77447476646165" lon="4.569184378219541"><ele>286.0</ele><time>2026-05-02T16:23:55.999Z</time></trkpt><trkpt lat="45.774461414988714" lon="4.569076522163327"><ele>286.0</ele><time>2026-05-02T16:23:57.999Z</time></trkpt></trkseg></trk></gpx>